<?xml version="1.0" encoding="UTF-8" standalone="no" ?>
<gpx xmlns="http://www.topografix.com/GPX/1/1" xmlns:xsi="http://www.w3.org/2001/XMLSchema-instance" xsi:schemaLocation="http://www.topografix.com/GPX/1/1 http://www.topografix.com/GPX/1/1/gpx.xsd" version="1.1" creator="VisuGPX - https://www.visugpx.com">
  <metadata>
    <name>Aiguille Grive par Peisey / Beaupraz</name>
    <desc><![CDATA[Juste en face de l'aiguille rouge, l'aiguille Grive offre (s'il fait beau) un formidable panorama à 360° au coeur de la Vanoise.

Le ,topo complet à http://legrosjerome.free.fr/aiguillegrive.html

D'accès très facile par les remontées mécaniques, la montée par Peisey / Beaupraz permet d'oublier les remontées mécaniques, au profit de la montagne pastorale. 
]]></desc>
  </metadata>
  <trk>
    <name><![CDATA[Aiguille Grive par Peisey / Beaupraz_1]]></name>
    <trkseg>
      <trkpt lat="45.52443" lon="6.79321">
        <ele>1520.2170410156</ele>
        <time>2014-07-24T09:02:12Z</time>
      </trkpt>
      <trkpt lat="45.52444" lon="6.79319">
        <ele>1520.0727539062</ele>
        <time>2014-07-24T09:02:14Z</time>
      </trkpt>
      <trkpt lat="45.52449" lon="6.79317">
        <ele>1520.7706298828</ele>
        <time>2014-07-24T09:02:18Z</time>
      </trkpt>
      <trkpt lat="45.5245" lon="6.79315">
        <ele>1520.9826660156</ele>
        <time>2014-07-24T09:02:20Z</time>
      </trkpt>
      <trkpt lat="45.52454" lon="6.79314">
        <ele>1521.6125488281</ele>
        <time>2014-07-24T09:02:24Z</time>
      </trkpt>
      <trkpt lat="45.52457" lon="6.79314">
        <ele>1521.9729003906</ele>
        <time>2014-07-24T09:02:26Z</time>
      </trkpt>
      <trkpt lat="45.52473" lon="6.79373">
        <ele>1533.4625244141</ele>
        <time>2014-07-24T09:03:08Z</time>
      </trkpt>
      <trkpt lat="45.52475" lon="6.79374">
        <ele>1533.8721923828</ele>
        <time>2014-07-24T09:03:10Z</time>
      </trkpt>
      <trkpt lat="45.52494" lon="6.79399">
        <ele>1541.1107177734</ele>
        <time>2014-07-24T09:03:38Z</time>
      </trkpt>
      <trkpt lat="45.52495" lon="6.794">
        <ele>1541.6188964844</ele>
        <time>2014-07-24T09:03:40Z</time>
      </trkpt>
      <trkpt lat="45.52496" lon="6.79402">
        <ele>1542.1682128906</ele>
        <time>2014-07-24T09:03:42Z</time>
      </trkpt>
      <trkpt lat="45.52497" lon="6.79404">
        <ele>1542.56640625</ele>
        <time>2014-07-24T09:03:44Z</time>
      </trkpt>
      <trkpt lat="45.52503" lon="6.79413">
        <ele>1544.8897705078</ele>
        <time>2014-07-24T09:03:54Z</time>
      </trkpt>
      <trkpt lat="45.52517" lon="6.79424">
        <ele>1548.1605224609</ele>
        <time>2014-07-24T09:04:10Z</time>
      </trkpt>
      <trkpt lat="45.52516" lon="6.79428">
        <ele>1548.5588378906</ele>
        <time>2014-07-24T09:04:14Z</time>
      </trkpt>
      <trkpt lat="45.52515" lon="6.79429">
        <ele>1548.5776367188</ele>
        <time>2014-07-24T09:04:16Z</time>
      </trkpt>
      <trkpt lat="45.52517" lon="6.79431">
        <ele>1548.9914550781</ele>
        <time>2014-07-24T09:04:18Z</time>
      </trkpt>
      <trkpt lat="45.52518" lon="6.79433">
        <ele>1549.3175048828</ele>
        <time>2014-07-24T09:04:20Z</time>
      </trkpt>
      <trkpt lat="45.52519" lon="6.79433">
        <ele>1549.5184326172</ele>
        <time>2014-07-24T09:04:24Z</time>
      </trkpt>
      <trkpt lat="45.5252" lon="6.79433">
        <ele>1549.609375</ele>
        <time>2014-07-24T09:04:26Z</time>
      </trkpt>
      <trkpt lat="45.5252" lon="6.79433">
        <ele>1549.6196289062</ele>
        <time>2014-07-24T09:04:28Z</time>
      </trkpt>
      <trkpt lat="45.5252" lon="6.79432">
        <ele>1549.5063476562</ele>
        <time>2014-07-24T09:04:30Z</time>
      </trkpt>
      <trkpt lat="45.52518" lon="6.79432">
        <ele>1549.2557373047</ele>
        <time>2014-07-24T09:04:34Z</time>
      </trkpt>
      <trkpt lat="45.52518" lon="6.79432">
        <ele>1549.2557373047</ele>
        <time>2014-07-24T09:04:36Z</time>
      </trkpt>
      <trkpt lat="45.52518" lon="6.79432">
        <ele>1549.2661132812</ele>
        <time>2014-07-24T09:04:38Z</time>
      </trkpt>
      <trkpt lat="45.52518" lon="6.79432">
        <ele>1549.2059326172</ele>
        <time>2014-07-24T09:04:40Z</time>
      </trkpt>
      <trkpt lat="45.52517" lon="6.79432">
        <ele>1549.0651855469</ele>
        <time>2014-07-24T09:04:44Z</time>
      </trkpt>
      <trkpt lat="45.52517" lon="6.79432">
        <ele>1549.0446777344</ele>
        <time>2014-07-24T09:04:46Z</time>
      </trkpt>
      <trkpt lat="45.52516" lon="6.79431">
        <ele>1548.8935546875</ele>
        <time>2014-07-24T09:04:50Z</time>
      </trkpt>
      <trkpt lat="45.52516" lon="6.79431">
        <ele>1548.8833007812</ele>
        <time>2014-07-24T09:04:52Z</time>
      </trkpt>
      <trkpt lat="45.52516" lon="6.79432">
        <ele>1548.9501953125</ele>
        <time>2014-07-24T09:04:56Z</time>
      </trkpt>
      <trkpt lat="45.52518" lon="6.79435">
        <ele>1549.5699462891</ele>
        <time>2014-07-24T09:05:00Z</time>
      </trkpt>
      <trkpt lat="45.52522" lon="6.79437">
        <ele>1550.3973388672</ele>
        <time>2014-07-24T09:05:04Z</time>
      </trkpt>
      <trkpt lat="45.52526" lon="6.79438">
        <ele>1551.0495605469</ele>
        <time>2014-07-24T09:05:08Z</time>
      </trkpt>
      <trkpt lat="45.52533" lon="6.79442">
        <ele>1552.8680419922</ele>
        <time>2014-07-24T09:05:14Z</time>
      </trkpt>
      <trkpt lat="45.52539" lon="6.79448">
        <ele>1554.7653808594</ele>
        <time>2014-07-24T09:05:20Z</time>
      </trkpt>
      <trkpt lat="45.52539" lon="6.7945">
        <ele>1555.1245117188</ele>
        <time>2014-07-24T09:05:22Z</time>
      </trkpt>
      <trkpt lat="45.52537" lon="6.79454">
        <ele>1555.15625</ele>
        <time>2014-07-24T09:05:24Z</time>
      </trkpt>
      <trkpt lat="45.52538" lon="6.79456">
        <ele>1555.7474365234</ele>
        <time>2014-07-24T09:05:26Z</time>
      </trkpt>
      <trkpt lat="45.52539" lon="6.79459">
        <ele>1556.1958007812</ele>
        <time>2014-07-24T09:05:28Z</time>
      </trkpt>
      <trkpt lat="45.52543" lon="6.79466">
        <ele>1557.9210205078</ele>
        <time>2014-07-24T09:05:36Z</time>
      </trkpt>
      <trkpt lat="45.52545" lon="6.79468">
        <ele>1558.4953613281</ele>
        <time>2014-07-24T09:05:38Z</time>
      </trkpt>
      <trkpt lat="45.52545" lon="6.7947">
        <ele>1558.7454833984</ele>
        <time>2014-07-24T09:05:40Z</time>
      </trkpt>
      <trkpt lat="45.52546" lon="6.79471">
        <ele>1559.1448974609</ele>
        <time>2014-07-24T09:05:42Z</time>
      </trkpt>
      <trkpt lat="45.52552" lon="6.79498">
        <ele>1564.1403808594</ele>
        <time>2014-07-24T09:06:06Z</time>
      </trkpt>
      <trkpt lat="45.52554" lon="6.795">
        <ele>1564.6740722656</ele>
        <time>2014-07-24T09:06:08Z</time>
      </trkpt>
      <trkpt lat="45.52554" lon="6.79502">
        <ele>1565.025390625</ele>
        <time>2014-07-24T09:06:10Z</time>
      </trkpt>
      <trkpt lat="45.52555" lon="6.79504">
        <ele>1565.5399169922</ele>
        <time>2014-07-24T09:06:12Z</time>
      </trkpt>
      <trkpt lat="45.52555" lon="6.79507">
        <ele>1565.8135986328</ele>
        <time>2014-07-24T09:06:14Z</time>
      </trkpt>
      <trkpt lat="45.52558" lon="6.79516">
        <ele>1567.873046875</ele>
        <time>2014-07-24T09:06:22Z</time>
      </trkpt>
      <trkpt lat="45.52565" lon="6.79524">
        <ele>1571.0771484375</ele>
        <time>2014-07-24T09:06:32Z</time>
      </trkpt>
      <trkpt lat="45.52567" lon="6.79517">
        <ele>1570.4371337891</ele>
        <time>2014-07-24T09:06:34Z</time>
      </trkpt>
      <trkpt lat="45.52568" lon="6.79519">
        <ele>1571.1160888672</ele>
        <time>2014-07-24T09:06:38Z</time>
      </trkpt>
      <trkpt lat="45.52571" lon="6.79523">
        <ele>1572.7083740234</ele>
        <time>2014-07-24T09:06:44Z</time>
      </trkpt>
      <trkpt lat="45.52572" lon="6.79523">
        <ele>1573.0863037109</ele>
        <time>2014-07-24T09:06:46Z</time>
      </trkpt>
      <trkpt lat="45.52574" lon="6.79523">
        <ele>1573.5012207031</ele>
        <time>2014-07-24T09:06:48Z</time>
      </trkpt>
      <trkpt lat="45.52582" lon="6.79527">
        <ele>1576.5847167969</ele>
        <time>2014-07-24T09:06:58Z</time>
      </trkpt>
      <trkpt lat="45.52584" lon="6.79527">
        <ele>1577.0266113281</ele>
        <time>2014-07-24T09:07:00Z</time>
      </trkpt>
      <trkpt lat="45.52588" lon="6.79529">
        <ele>1577.7639160156</ele>
        <time>2014-07-24T09:07:04Z</time>
      </trkpt>
      <trkpt lat="45.52591" lon="6.79529">
        <ele>1578.0728759766</ele>
        <time>2014-07-24T09:07:06Z</time>
      </trkpt>
      <trkpt lat="45.52592" lon="6.7953">
        <ele>1578.3835449219</ele>
        <time>2014-07-24T09:07:08Z</time>
      </trkpt>
      <trkpt lat="45.52595" lon="6.79536">
        <ele>1579.8742675781</ele>
        <time>2014-07-24T09:07:14Z</time>
      </trkpt>
      <trkpt lat="45.52596" lon="6.79539">
        <ele>1580.4506835938</ele>
        <time>2014-07-24T09:07:16Z</time>
      </trkpt>
      <trkpt lat="45.52599" lon="6.79542">
        <ele>1581.6270751953</ele>
        <time>2014-07-24T09:07:22Z</time>
      </trkpt>
      <trkpt lat="45.52603" lon="6.79545">
        <ele>1582.9267578125</ele>
        <time>2014-07-24T09:07:28Z</time>
      </trkpt>
      <trkpt lat="45.52603" lon="6.79547">
        <ele>1583.3311767578</ele>
        <time>2014-07-24T09:07:30Z</time>
      </trkpt>
      <trkpt lat="45.52605" lon="6.7955">
        <ele>1584.3967285156</ele>
        <time>2014-07-24T09:07:34Z</time>
      </trkpt>
      <trkpt lat="45.52607" lon="6.79552">
        <ele>1585.2593994141</ele>
        <time>2014-07-24T09:07:38Z</time>
      </trkpt>
      <trkpt lat="45.52609" lon="6.79554">
        <ele>1586.1806640625</ele>
        <time>2014-07-24T09:07:42Z</time>
      </trkpt>
      <trkpt lat="45.5261" lon="6.79555">
        <ele>1586.541015625</ele>
        <time>2014-07-24T09:07:44Z</time>
      </trkpt>
      <trkpt lat="45.5261" lon="6.79557">
        <ele>1586.8654785156</ele>
        <time>2014-07-24T09:07:46Z</time>
      </trkpt>
      <trkpt lat="45.52611" lon="6.79558">
        <ele>1587.2926025391</ele>
        <time>2014-07-24T09:07:48Z</time>
      </trkpt>
      <trkpt lat="45.52617" lon="6.79563">
        <ele>1588.865234375</ele>
        <time>2014-07-24T09:07:56Z</time>
      </trkpt>
      <trkpt lat="45.52618" lon="6.79563">
        <ele>1589.1876220703</ele>
        <time>2014-07-24T09:07:58Z</time>
      </trkpt>
      <trkpt lat="45.52623" lon="6.79567">
        <ele>1590.4346923828</ele>
        <time>2014-07-24T09:08:04Z</time>
      </trkpt>
      <trkpt lat="45.52626" lon="6.79573">
        <ele>1591.8792724609</ele>
        <time>2014-07-24T09:08:12Z</time>
      </trkpt>
      <trkpt lat="45.52627" lon="6.79574">
        <ele>1592.1560058594</ele>
        <time>2014-07-24T09:08:14Z</time>
      </trkpt>
      <trkpt lat="45.52628" lon="6.79575">
        <ele>1592.5784912109</ele>
        <time>2014-07-24T09:08:16Z</time>
      </trkpt>
      <trkpt lat="45.52629" lon="6.79576">
        <ele>1592.982421875</ele>
        <time>2014-07-24T09:08:18Z</time>
      </trkpt>
      <trkpt lat="45.52629" lon="6.79576">
        <ele>1593.0075683594</ele>
        <time>2014-07-24T09:08:20Z</time>
      </trkpt>
      <trkpt lat="45.52639" lon="6.79578">
        <ele>1595.2984619141</ele>
        <time>2014-07-24T09:08:30Z</time>
      </trkpt>
      <trkpt lat="45.52644" lon="6.79581">
        <ele>1597.2885742188</ele>
        <time>2014-07-24T09:08:34Z</time>
      </trkpt>
      <trkpt lat="45.52644" lon="6.79583">
        <ele>1597.5880126953</ele>
        <time>2014-07-24T09:08:36Z</time>
      </trkpt>
      <trkpt lat="45.52638" lon="6.79587">
        <ele>1596.4377441406</ele>
        <time>2014-07-24T09:08:40Z</time>
      </trkpt>
      <trkpt lat="45.52639" lon="6.79589">
        <ele>1596.8428955078</ele>
        <time>2014-07-24T09:08:42Z</time>
      </trkpt>
      <trkpt lat="45.52638" lon="6.7959">
        <ele>1596.8452148438</ele>
        <time>2014-07-24T09:08:44Z</time>
      </trkpt>
      <trkpt lat="45.52641" lon="6.79592">
        <ele>1598.1920166016</ele>
        <time>2014-07-24T09:08:50Z</time>
      </trkpt>
      <trkpt lat="45.52647" lon="6.79591">
        <ele>1600.2344970703</ele>
        <time>2014-07-24T09:08:56Z</time>
      </trkpt>
      <trkpt lat="45.52649" lon="6.79591">
        <ele>1600.6800537109</ele>
        <time>2014-07-24T09:08:58Z</time>
      </trkpt>
      <trkpt lat="45.52651" lon="6.79589">
        <ele>1601.2161865234</ele>
        <time>2014-07-24T09:09:02Z</time>
      </trkpt>
      <trkpt lat="45.52654" lon="6.79589">
        <ele>1601.9704589844</ele>
        <time>2014-07-24T09:09:04Z</time>
      </trkpt>
      <trkpt lat="45.52655" lon="6.79588">
        <ele>1602.4368896484</ele>
        <time>2014-07-24T09:09:06Z</time>
      </trkpt>
      <trkpt lat="45.52659" lon="6.79588">
        <ele>1603.8715820312</ele>
        <time>2014-07-24T09:09:10Z</time>
      </trkpt>
      <trkpt lat="45.5266" lon="6.79588">
        <ele>1603.8740234375</ele>
        <time>2014-07-24T09:09:12Z</time>
      </trkpt>
      <trkpt lat="45.52661" lon="6.79587">
        <ele>1604.2860107422</ele>
        <time>2014-07-24T09:09:14Z</time>
      </trkpt>
      <trkpt lat="45.52667" lon="6.79583">
        <ele>1605.1401367188</ele>
        <time>2014-07-24T09:09:20Z</time>
      </trkpt>
      <trkpt lat="45.52668" lon="6.79582">
        <ele>1606.1783447266</ele>
        <time>2014-07-24T09:09:22Z</time>
      </trkpt>
      <trkpt lat="45.52669" lon="6.7958">
        <ele>1606.7220458984</ele>
        <time>2014-07-24T09:09:24Z</time>
      </trkpt>
      <trkpt lat="45.52671" lon="6.7958">
        <ele>1607.8970947266</ele>
        <time>2014-07-24T09:09:26Z</time>
      </trkpt>
      <trkpt lat="45.52671" lon="6.79579">
        <ele>1608.1295166016</ele>
        <time>2014-07-24T09:09:28Z</time>
      </trkpt>
      <trkpt lat="45.52672" lon="6.79579">
        <ele>1608.3562011719</ele>
        <time>2014-07-24T09:09:30Z</time>
      </trkpt>
      <trkpt lat="45.52669" lon="6.79578">
        <ele>1606.8038330078</ele>
        <time>2014-07-24T09:09:34Z</time>
      </trkpt>
      <trkpt lat="45.5267" lon="6.79578">
        <ele>1607.0247802734</ele>
        <time>2014-07-24T09:09:36Z</time>
      </trkpt>
      <trkpt lat="45.5267" lon="6.79579">
        <ele>1607.0064697266</ele>
        <time>2014-07-24T09:09:38Z</time>
      </trkpt>
      <trkpt lat="45.52669" lon="6.79579">
        <ele>1606.7696533203</ele>
        <time>2014-07-24T09:09:40Z</time>
      </trkpt>
      <trkpt lat="45.52669" lon="6.79579">
        <ele>1606.5471191406</ele>
        <time>2014-07-24T09:09:41Z</time>
      </trkpt>
      <trkpt lat="45.52668" lon="6.79579">
        <ele>1606.3326416016</ele>
        <time>2014-07-24T09:09:44Z</time>
      </trkpt>
      <trkpt lat="45.52668" lon="6.79579">
        <ele>1606.3420410156</ele>
        <time>2014-07-24T09:09:46Z</time>
      </trkpt>
      <trkpt lat="45.52668" lon="6.79579">
        <ele>1606.3374023438</ele>
        <time>2014-07-24T09:09:48Z</time>
      </trkpt>
      <trkpt lat="45.52668" lon="6.79579">
        <ele>1606.3397216797</ele>
        <time>2014-07-24T09:09:50Z</time>
      </trkpt>
      <trkpt lat="45.52668" lon="6.79579">
        <ele>1606.1101074219</ele>
        <time>2014-07-24T09:09:52Z</time>
      </trkpt>
      <trkpt lat="45.52668" lon="6.79579">
        <ele>1606.1101074219</ele>
        <time>2014-07-24T09:09:54Z</time>
      </trkpt>
      <trkpt lat="45.52667" lon="6.79579">
        <ele>1605.6417236328</ele>
        <time>2014-07-24T09:09:58Z</time>
      </trkpt>
      <trkpt lat="45.52667" lon="6.79579">
        <ele>1605.4353027344</ele>
        <time>2014-07-24T09:10:00Z</time>
      </trkpt>
      <trkpt lat="45.52666" lon="6.79579">
        <ele>1605.1340332031</ele>
        <time>2014-07-24T09:10:02Z</time>
      </trkpt>
      <trkpt lat="45.52665" lon="6.79579">
        <ele>1604.8529052734</ele>
        <time>2014-07-24T09:10:04Z</time>
      </trkpt>
      <trkpt lat="45.52666" lon="6.79576">
        <ele>1605.3402099609</ele>
        <time>2014-07-24T09:10:08Z</time>
      </trkpt>
      <trkpt lat="45.52667" lon="6.79575">
        <ele>1605.9313964844</ele>
        <time>2014-07-24T09:10:10Z</time>
      </trkpt>
      <trkpt lat="45.52667" lon="6.79574">
        <ele>1605.9744873047</ele>
        <time>2014-07-24T09:10:12Z</time>
      </trkpt>
      <trkpt lat="45.52668" lon="6.79573">
        <ele>1606.6435546875</ele>
        <time>2014-07-24T09:10:14Z</time>
      </trkpt>
      <trkpt lat="45.5267" lon="6.79572">
        <ele>1607.6401367188</ele>
        <time>2014-07-24T09:10:18Z</time>
      </trkpt>
      <trkpt lat="45.5267" lon="6.79571">
        <ele>1607.6531982422</ele>
        <time>2014-07-24T09:10:20Z</time>
      </trkpt>
      <trkpt lat="45.52671" lon="6.79571">
        <ele>1607.8447265625</ele>
        <time>2014-07-24T09:10:21Z</time>
      </trkpt>
      <trkpt lat="45.52671" lon="6.79571">
        <ele>1608.0223388672</ele>
        <time>2014-07-24T09:10:24Z</time>
      </trkpt>
      <trkpt lat="45.52671" lon="6.79573">
        <ele>1608.0042724609</ele>
        <time>2014-07-24T09:10:26Z</time>
      </trkpt>
      <trkpt lat="45.52673" lon="6.79574">
        <ele>1609.1857910156</ele>
        <time>2014-07-24T09:10:28Z</time>
      </trkpt>
      <trkpt lat="45.52674" lon="6.79575">
        <ele>1609.6123046875</ele>
        <time>2014-07-24T09:10:30Z</time>
      </trkpt>
      <trkpt lat="45.52674" lon="6.79576">
        <ele>1609.6309814453</ele>
        <time>2014-07-24T09:10:32Z</time>
      </trkpt>
      <trkpt lat="45.52673" lon="6.79577">
        <ele>1609.0203857422</ele>
        <time>2014-07-24T09:10:36Z</time>
      </trkpt>
      <trkpt lat="45.52675" lon="6.79581">
        <ele>1610.2436523438</ele>
        <time>2014-07-24T09:10:40Z</time>
      </trkpt>
      <trkpt lat="45.52673" lon="6.79583">
        <ele>1608.826171875</ele>
        <time>2014-07-24T09:10:42Z</time>
      </trkpt>
      <trkpt lat="45.52673" lon="6.79582">
        <ele>1608.8258056641</ele>
        <time>2014-07-24T09:10:44Z</time>
      </trkpt>
      <trkpt lat="45.52674" lon="6.79582">
        <ele>1609.5394287109</ele>
        <time>2014-07-24T09:10:46Z</time>
      </trkpt>
      <trkpt lat="45.52675" lon="6.79581">
        <ele>1610.2501220703</ele>
        <time>2014-07-24T09:10:48Z</time>
      </trkpt>
      <trkpt lat="45.52676" lon="6.79581">
        <ele>1611.1613769531</ele>
        <time>2014-07-24T09:10:50Z</time>
      </trkpt>
      <trkpt lat="45.5268" lon="6.79581">
        <ele>1613.298828125</ele>
        <time>2014-07-24T09:10:54Z</time>
      </trkpt>
      <trkpt lat="45.5268" lon="6.79581">
        <ele>1613.5493164062</ele>
        <time>2014-07-24T09:10:56Z</time>
      </trkpt>
      <trkpt lat="45.52683" lon="6.79581">
        <ele>1615.1717529297</ele>
        <time>2014-07-24T09:10:58Z</time>
      </trkpt>
      <trkpt lat="45.52687" lon="6.7958">
        <ele>1617.2653808594</ele>
        <time>2014-07-24T09:11:04Z</time>
      </trkpt>
      <trkpt lat="45.52686" lon="6.7958">
        <ele>1616.9185791016</ele>
        <time>2014-07-24T09:11:06Z</time>
      </trkpt>
      <trkpt lat="45.52687" lon="6.7958">
        <ele>1617.5305175781</ele>
        <time>2014-07-24T09:11:08Z</time>
      </trkpt>
      <trkpt lat="45.52687" lon="6.79581">
        <ele>1617.5068359375</ele>
        <time>2014-07-24T09:11:10Z</time>
      </trkpt>
      <trkpt lat="45.52688" lon="6.79581">
        <ele>1618.1920166016</ele>
        <time>2014-07-24T09:11:12Z</time>
      </trkpt>
      <trkpt lat="45.52688" lon="6.79581">
        <ele>1618.4362792969</ele>
        <time>2014-07-24T09:11:14Z</time>
      </trkpt>
      <trkpt lat="45.52689" lon="6.79581">
        <ele>1619.2458496094</ele>
        <time>2014-07-24T09:11:16Z</time>
      </trkpt>
      <trkpt lat="45.52689" lon="6.79581">
        <ele>1619.2883300781</ele>
        <time>2014-07-24T09:11:18Z</time>
      </trkpt>
      <trkpt lat="45.5269" lon="6.79582">
        <ele>1619.9078369141</ele>
        <time>2014-07-24T09:11:20Z</time>
      </trkpt>
      <trkpt lat="45.5269" lon="6.79584">
        <ele>1620.0590820312</ele>
        <time>2014-07-24T09:11:24Z</time>
      </trkpt>
      <trkpt lat="45.52691" lon="6.79586">
        <ele>1621.6879882812</ele>
        <time>2014-07-24T09:11:26Z</time>
      </trkpt>
      <trkpt lat="45.52692" lon="6.79586">
        <ele>1622.3046875</ele>
        <time>2014-07-24T09:11:28Z</time>
      </trkpt>
      <trkpt lat="45.52689" lon="6.79589">
        <ele>1621.0144042969</ele>
        <time>2014-07-24T09:11:32Z</time>
      </trkpt>
      <trkpt lat="45.52691" lon="6.79595">
        <ele>1623.7537841797</ele>
        <time>2014-07-24T09:11:44Z</time>
      </trkpt>
      <trkpt lat="45.52694" lon="6.79597">
        <ele>1626.712890625</ele>
        <time>2014-07-24T09:11:50Z</time>
      </trkpt>
      <trkpt lat="45.52694" lon="6.79598">
        <ele>1627.2142333984</ele>
        <time>2014-07-24T09:11:52Z</time>
      </trkpt>
      <trkpt lat="45.52702" lon="6.79605">
        <ele>1631.2915039062</ele>
        <time>2014-07-24T09:12:02Z</time>
      </trkpt>
      <trkpt lat="45.52703" lon="6.79605">
        <ele>1631.7607421875</ele>
        <time>2014-07-24T09:12:04Z</time>
      </trkpt>
      <trkpt lat="45.52706" lon="6.79607">
        <ele>1633.6224365234</ele>
        <time>2014-07-24T09:12:06Z</time>
      </trkpt>
      <trkpt lat="45.52707" lon="6.79608">
        <ele>1634.0129394531</ele>
        <time>2014-07-24T09:12:08Z</time>
      </trkpt>
      <trkpt lat="45.52707" lon="6.79607">
        <ele>1633.8624267578</ele>
        <time>2014-07-24T09:12:10Z</time>
      </trkpt>
      <trkpt lat="45.52707" lon="6.79608">
        <ele>1633.9846191406</ele>
        <time>2014-07-24T09:12:12Z</time>
      </trkpt>
      <trkpt lat="45.52707" lon="6.79608">
        <ele>1634.2886962891</ele>
        <time>2014-07-24T09:12:14Z</time>
      </trkpt>
      <trkpt lat="45.52707" lon="6.79608">
        <ele>1634.2580566406</ele>
        <time>2014-07-24T09:12:16Z</time>
      </trkpt>
      <trkpt lat="45.52708" lon="6.79609">
        <ele>1634.7442626953</ele>
        <time>2014-07-24T09:12:18Z</time>
      </trkpt>
      <trkpt lat="45.52709" lon="6.79609">
        <ele>1635.1265869141</ele>
        <time>2014-07-24T09:12:20Z</time>
      </trkpt>
      <trkpt lat="45.52711" lon="6.79612">
        <ele>1636.6204833984</ele>
        <time>2014-07-24T09:12:24Z</time>
      </trkpt>
      <trkpt lat="45.52713" lon="6.79613">
        <ele>1637.3634033203</ele>
        <time>2014-07-24T09:12:26Z</time>
      </trkpt>
      <trkpt lat="45.52713" lon="6.79615">
        <ele>1637.8344726562</ele>
        <time>2014-07-24T09:12:28Z</time>
      </trkpt>
      <trkpt lat="45.52712" lon="6.79616">
        <ele>1637.9350585938</ele>
        <time>2014-07-24T09:12:30Z</time>
      </trkpt>
      <trkpt lat="45.52713" lon="6.79616">
        <ele>1638.0760498047</ele>
        <time>2014-07-24T09:12:32Z</time>
      </trkpt>
      <trkpt lat="45.52714" lon="6.79616">
        <ele>1638.3903808594</ele>
        <time>2014-07-24T09:12:34Z</time>
      </trkpt>
      <trkpt lat="45.52716" lon="6.79615">
        <ele>1638.8514404297</ele>
        <time>2014-07-24T09:12:40Z</time>
      </trkpt>
      <trkpt lat="45.52718" lon="6.79615">
        <ele>1639.3471679688</ele>
        <time>2014-07-24T09:12:42Z</time>
      </trkpt>
      <trkpt lat="45.52718" lon="6.79615">
        <ele>1639.5762939453</ele>
        <time>2014-07-24T09:12:44Z</time>
      </trkpt>
      <trkpt lat="45.52721" lon="6.79615">
        <ele>1640.3353271484</ele>
        <time>2014-07-24T09:12:48Z</time>
      </trkpt>
      <trkpt lat="45.52723" lon="6.79616">
        <ele>1641.2965087891</ele>
        <time>2014-07-24T09:12:50Z</time>
      </trkpt>
      <trkpt lat="45.52724" lon="6.79618">
        <ele>1642.1982421875</ele>
        <time>2014-07-24T09:12:54Z</time>
      </trkpt>
      <trkpt lat="45.52727" lon="6.79618">
        <ele>1643.1287841797</ele>
        <time>2014-07-24T09:12:58Z</time>
      </trkpt>
      <trkpt lat="45.52728" lon="6.79618">
        <ele>1643.5067138672</ele>
        <time>2014-07-24T09:13:00Z</time>
      </trkpt>
      <trkpt lat="45.52729" lon="6.79618">
        <ele>1643.8031005859</ele>
        <time>2014-07-24T09:13:02Z</time>
      </trkpt>
      <trkpt lat="45.5273" lon="6.79619">
        <ele>1644.3129882812</ele>
        <time>2014-07-24T09:13:04Z</time>
      </trkpt>
      <trkpt lat="45.5273" lon="6.79619">
        <ele>1644.517578125</ele>
        <time>2014-07-24T09:13:06Z</time>
      </trkpt>
      <trkpt lat="45.52731" lon="6.79619">
        <ele>1644.7062988281</ele>
        <time>2014-07-24T09:13:08Z</time>
      </trkpt>
      <trkpt lat="45.52732" lon="6.79619">
        <ele>1645.3898925781</ele>
        <time>2014-07-24T09:13:10Z</time>
      </trkpt>
      <trkpt lat="45.52733" lon="6.7962">
        <ele>1645.9266357422</ele>
        <time>2014-07-24T09:13:12Z</time>
      </trkpt>
      <trkpt lat="45.52735" lon="6.79619">
        <ele>1646.2980957031</ele>
        <time>2014-07-24T09:13:14Z</time>
      </trkpt>
      <trkpt lat="45.52736" lon="6.79617">
        <ele>1646.0799560547</ele>
        <time>2014-07-24T09:13:18Z</time>
      </trkpt>
      <trkpt lat="45.52736" lon="6.7962">
        <ele>1646.9232177734</ele>
        <time>2014-07-24T09:13:24Z</time>
      </trkpt>
      <trkpt lat="45.52736" lon="6.7962">
        <ele>1646.8583984375</ele>
        <time>2014-07-24T09:13:26Z</time>
      </trkpt>
      <trkpt lat="45.52737" lon="6.7962">
        <ele>1647.6528320312</ele>
        <time>2014-07-24T09:13:28Z</time>
      </trkpt>
      <trkpt lat="45.52738" lon="6.7962">
        <ele>1647.7989501953</ele>
        <time>2014-07-24T09:13:30Z</time>
      </trkpt>
      <trkpt lat="45.52739" lon="6.79621">
        <ele>1648.1654052734</ele>
        <time>2014-07-24T09:13:32Z</time>
      </trkpt>
      <trkpt lat="45.52738" lon="6.79622">
        <ele>1648.5389404297</ele>
        <time>2014-07-24T09:13:34Z</time>
      </trkpt>
      <trkpt lat="45.52742" lon="6.79626">
        <ele>1651.7799072266</ele>
        <time>2014-07-24T09:13:40Z</time>
      </trkpt>
      <trkpt lat="45.52743" lon="6.79627">
        <ele>1652.2678222656</ele>
        <time>2014-07-24T09:13:42Z</time>
      </trkpt>
      <trkpt lat="45.52743" lon="6.79628">
        <ele>1652.82421875</ele>
        <time>2014-07-24T09:13:44Z</time>
      </trkpt>
      <trkpt lat="45.52744" lon="6.79629">
        <ele>1653.4749755859</ele>
        <time>2014-07-24T09:13:46Z</time>
      </trkpt>
      <trkpt lat="45.52744" lon="6.7963">
        <ele>1654.0406494141</ele>
        <time>2014-07-24T09:13:48Z</time>
      </trkpt>
      <trkpt lat="45.52748" lon="6.7963">
        <ele>1655.7286376953</ele>
        <time>2014-07-24T09:13:54Z</time>
      </trkpt>
      <trkpt lat="45.52747" lon="6.79631">
        <ele>1655.5170898438</ele>
        <time>2014-07-24T09:13:56Z</time>
      </trkpt>
      <trkpt lat="45.52748" lon="6.79631">
        <ele>1656.3046875</ele>
        <time>2014-07-24T09:13:58Z</time>
      </trkpt>
      <trkpt lat="45.52748" lon="6.79632">
        <ele>1657.0212402344</ele>
        <time>2014-07-24T09:14:02Z</time>
      </trkpt>
      <trkpt lat="45.52748" lon="6.79632">
        <ele>1657.0427246094</ele>
        <time>2014-07-24T09:14:03Z</time>
      </trkpt>
      <trkpt lat="45.52747" lon="6.79632">
        <ele>1656.3371582031</ele>
        <time>2014-07-24T09:14:06Z</time>
      </trkpt>
      <trkpt lat="45.52748" lon="6.79632">
        <ele>1656.7313232422</ele>
        <time>2014-07-24T09:14:08Z</time>
      </trkpt>
      <trkpt lat="45.52748" lon="6.79632">
        <ele>1656.7739257812</ele>
        <time>2014-07-24T09:14:10Z</time>
      </trkpt>
      <trkpt lat="45.52748" lon="6.79633">
        <ele>1657.2912597656</ele>
        <time>2014-07-24T09:14:14Z</time>
      </trkpt>
      <trkpt lat="45.52748" lon="6.79633">
        <ele>1657.3345947266</ele>
        <time>2014-07-24T09:14:15Z</time>
      </trkpt>
      <trkpt lat="45.52749" lon="6.79633">
        <ele>1657.6811523438</ele>
        <time>2014-07-24T09:14:18Z</time>
      </trkpt>
      <trkpt lat="45.5275" lon="6.79633">
        <ele>1657.8874511719</ele>
        <time>2014-07-24T09:14:20Z</time>
      </trkpt>
      <trkpt lat="45.5275" lon="6.79632">
        <ele>1658.0030517578</ele>
        <time>2014-07-24T09:14:22Z</time>
      </trkpt>
      <trkpt lat="45.52752" lon="6.79632">
        <ele>1658.7216796875</ele>
        <time>2014-07-24T09:14:24Z</time>
      </trkpt>
      <trkpt lat="45.52753" lon="6.79632">
        <ele>1658.9385986328</ele>
        <time>2014-07-24T09:14:26Z</time>
      </trkpt>
      <trkpt lat="45.52756" lon="6.79633">
        <ele>1660.5157470703</ele>
        <time>2014-07-24T09:14:28Z</time>
      </trkpt>
      <trkpt lat="45.52757" lon="6.79634">
        <ele>1661.185546875</ele>
        <time>2014-07-24T09:14:30Z</time>
      </trkpt>
      <trkpt lat="45.52758" lon="6.79634">
        <ele>1661.6003417969</ele>
        <time>2014-07-24T09:14:32Z</time>
      </trkpt>
      <trkpt lat="45.52759" lon="6.79635">
        <ele>1662.0876464844</ele>
        <time>2014-07-24T09:14:34Z</time>
      </trkpt>
      <trkpt lat="45.5276" lon="6.79636">
        <ele>1662.4708251953</ele>
        <time>2014-07-24T09:14:36Z</time>
      </trkpt>
      <trkpt lat="45.52759" lon="6.79639">
        <ele>1663.3446044922</ele>
        <time>2014-07-24T09:14:42Z</time>
      </trkpt>
      <trkpt lat="45.5276" lon="6.7964">
        <ele>1663.6890869141</ele>
        <time>2014-07-24T09:14:44Z</time>
      </trkpt>
      <trkpt lat="45.52761" lon="6.79641">
        <ele>1664.5870361328</ele>
        <time>2014-07-24T09:14:46Z</time>
      </trkpt>
      <trkpt lat="45.52763" lon="6.79641">
        <ele>1665.0272216797</ele>
        <time>2014-07-24T09:14:48Z</time>
      </trkpt>
      <trkpt lat="45.52765" lon="6.79642">
        <ele>1665.8060302734</ele>
        <time>2014-07-24T09:14:50Z</time>
      </trkpt>
      <trkpt lat="45.52771" lon="6.79647">
        <ele>1669.046875</ele>
        <time>2014-07-24T09:14:56Z</time>
      </trkpt>
      <trkpt lat="45.52771" lon="6.79649">
        <ele>1669.7659912109</ele>
        <time>2014-07-24T09:14:58Z</time>
      </trkpt>
      <trkpt lat="45.5277" lon="6.79652">
        <ele>1670.3732910156</ele>
        <time>2014-07-24T09:15:02Z</time>
      </trkpt>
      <trkpt lat="45.52768" lon="6.79654">
        <ele>1670.3312988281</ele>
        <time>2014-07-24T09:15:04Z</time>
      </trkpt>
      <trkpt lat="45.52766" lon="6.79654">
        <ele>1669.7855224609</ele>
        <time>2014-07-24T09:15:06Z</time>
      </trkpt>
      <trkpt lat="45.52766" lon="6.79654">
        <ele>1669.6811523438</ele>
        <time>2014-07-24T09:15:08Z</time>
      </trkpt>
      <trkpt lat="45.52768" lon="6.79655">
        <ele>1670.5184326172</ele>
        <time>2014-07-24T09:15:10Z</time>
      </trkpt>
      <trkpt lat="45.52769" lon="6.79654">
        <ele>1670.7639160156</ele>
        <time>2014-07-24T09:15:12Z</time>
      </trkpt>
      <trkpt lat="45.52775" lon="6.79654">
        <ele>1672.4439697266</ele>
        <time>2014-07-24T09:15:16Z</time>
      </trkpt>
      <trkpt lat="45.52781" lon="6.79654">
        <ele>1674.5098876953</ele>
        <time>2014-07-24T09:15:22Z</time>
      </trkpt>
      <trkpt lat="45.52784" lon="6.79654">
        <ele>1675.6428222656</ele>
        <time>2014-07-24T09:15:26Z</time>
      </trkpt>
      <trkpt lat="45.5279" lon="6.79655">
        <ele>1678.4752197266</ele>
        <time>2014-07-24T09:15:30Z</time>
      </trkpt>
      <trkpt lat="45.52792" lon="6.79656">
        <ele>1679.2476806641</ele>
        <time>2014-07-24T09:15:32Z</time>
      </trkpt>
      <trkpt lat="45.52795" lon="6.79657">
        <ele>1680.9299316406</ele>
        <time>2014-07-24T09:15:34Z</time>
      </trkpt>
      <trkpt lat="45.52799" lon="6.79658">
        <ele>1682.5435791016</ele>
        <time>2014-07-24T09:15:38Z</time>
      </trkpt>
      <trkpt lat="45.52804" lon="6.79657">
        <ele>1683.9168701172</ele>
        <time>2014-07-24T09:15:42Z</time>
      </trkpt>
      <trkpt lat="45.52803" lon="6.79657">
        <ele>1683.4362792969</ele>
        <time>2014-07-24T09:15:44Z</time>
      </trkpt>
      <trkpt lat="45.528" lon="6.79658">
        <ele>1682.8182373047</ele>
        <time>2014-07-24T09:15:48Z</time>
      </trkpt>
      <trkpt lat="45.528" lon="6.79659">
        <ele>1682.9727783203</ele>
        <time>2014-07-24T09:15:50Z</time>
      </trkpt>
      <trkpt lat="45.52797" lon="6.7966">
        <ele>1682.6466064453</ele>
        <time>2014-07-24T09:15:52Z</time>
      </trkpt>
      <trkpt lat="45.52789" lon="6.79663">
        <ele>1680.6724853516</ele>
        <time>2014-07-24T09:15:56Z</time>
      </trkpt>
      <trkpt lat="45.52777" lon="6.79671">
        <ele>1679.0252685547</ele>
        <time>2014-07-24T09:16:04Z</time>
      </trkpt>
      <trkpt lat="45.52768" lon="6.79674">
        <ele>1677.0319824219</ele>
        <time>2014-07-24T09:16:08Z</time>
      </trkpt>
      <trkpt lat="45.52767" lon="6.79675">
        <ele>1677.1411132812</ele>
        <time>2014-07-24T09:16:10Z</time>
      </trkpt>
      <trkpt lat="45.52767" lon="6.79678">
        <ele>1678.2777099609</ele>
        <time>2014-07-24T09:16:14Z</time>
      </trkpt>
      <trkpt lat="45.52765" lon="6.7968">
        <ele>1678.4719238281</ele>
        <time>2014-07-24T09:16:18Z</time>
      </trkpt>
      <trkpt lat="45.52765" lon="6.79683">
        <ele>1679.7689208984</ele>
        <time>2014-07-24T09:16:24Z</time>
      </trkpt>
      <trkpt lat="45.52765" lon="6.79683">
        <ele>1679.4313964844</ele>
        <time>2014-07-24T09:16:28Z</time>
      </trkpt>
      <trkpt lat="45.52766" lon="6.79683">
        <ele>1679.6158447266</ele>
        <time>2014-07-24T09:16:30Z</time>
      </trkpt>
      <trkpt lat="45.52766" lon="6.79683">
        <ele>1679.6335449219</ele>
        <time>2014-07-24T09:16:32Z</time>
      </trkpt>
      <trkpt lat="45.52766" lon="6.79683">
        <ele>1679.8076171875</ele>
        <time>2014-07-24T09:16:36Z</time>
      </trkpt>
      <trkpt lat="45.52766" lon="6.79683">
        <ele>1679.7550048828</ele>
        <time>2014-07-24T09:16:38Z</time>
      </trkpt>
      <trkpt lat="45.52767" lon="6.79682">
        <ele>1679.8513183594</ele>
        <time>2014-07-24T09:16:40Z</time>
      </trkpt>
      <trkpt lat="45.52768" lon="6.79683">
        <ele>1680.1831054688</ele>
        <time>2014-07-24T09:16:44Z</time>
      </trkpt>
      <trkpt lat="45.52768" lon="6.79683">
        <ele>1680.4001464844</ele>
        <time>2014-07-24T09:16:46Z</time>
      </trkpt>
      <trkpt lat="45.52768" lon="6.79683">
        <ele>1680.5646972656</ele>
        <time>2014-07-24T09:16:48Z</time>
      </trkpt>
      <trkpt lat="45.5277" lon="6.79683">
        <ele>1680.9652099609</ele>
        <time>2014-07-24T09:16:50Z</time>
      </trkpt>
      <trkpt lat="45.52772" lon="6.79685">
        <ele>1682.3253173828</ele>
        <time>2014-07-24T09:16:54Z</time>
      </trkpt>
      <trkpt lat="45.52771" lon="6.79691">
        <ele>1684.1455078125</ele>
        <time>2014-07-24T09:17:00Z</time>
      </trkpt>
      <trkpt lat="45.52768" lon="6.79696">
        <ele>1684.9799804688</ele>
        <time>2014-07-24T09:17:06Z</time>
      </trkpt>
      <trkpt lat="45.52767" lon="6.79696">
        <ele>1684.9560546875</ele>
        <time>2014-07-24T09:17:07Z</time>
      </trkpt>
      <trkpt lat="45.52765" lon="6.79691">
        <ele>1682.1948242188</ele>
        <time>2014-07-24T09:17:12Z</time>
      </trkpt>
      <trkpt lat="45.52764" lon="6.7969">
        <ele>1682.0029296875</ele>
        <time>2014-07-24T09:17:14Z</time>
      </trkpt>
      <trkpt lat="45.52764" lon="6.7969">
        <ele>1681.9130859375</ele>
        <time>2014-07-24T09:17:16Z</time>
      </trkpt>
      <trkpt lat="45.52764" lon="6.7969">
        <ele>1681.73828125</ele>
        <time>2014-07-24T09:17:18Z</time>
      </trkpt>
      <trkpt lat="45.52764" lon="6.7969">
        <ele>1681.7021484375</ele>
        <time>2014-07-24T09:17:19Z</time>
      </trkpt>
      <trkpt lat="45.52763" lon="6.79689">
        <ele>1681.2286376953</ele>
        <time>2014-07-24T09:17:24Z</time>
      </trkpt>
      <trkpt lat="45.52763" lon="6.79689">
        <ele>1681.119140625</ele>
        <time>2014-07-24T09:17:26Z</time>
      </trkpt>
      <trkpt lat="45.52763" lon="6.79689">
        <ele>1681.2286376953</ele>
        <time>2014-07-24T09:17:28Z</time>
      </trkpt>
      <trkpt lat="45.52765" lon="6.7969">
        <ele>1681.9399414062</ele>
        <time>2014-07-24T09:17:30Z</time>
      </trkpt>
      <trkpt lat="45.52772" lon="6.79689">
        <ele>1683.5014648438</ele>
        <time>2014-07-24T09:17:36Z</time>
      </trkpt>
      <trkpt lat="45.52777" lon="6.79686">
        <ele>1683.9533691406</ele>
        <time>2014-07-24T09:17:42Z</time>
      </trkpt>
      <trkpt lat="45.52777" lon="6.79685">
        <ele>1683.8598632812</ele>
        <time>2014-07-24T09:17:44Z</time>
      </trkpt>
      <trkpt lat="45.52779" lon="6.79685">
        <ele>1684.2672119141</ele>
        <time>2014-07-24T09:17:46Z</time>
      </trkpt>
      <trkpt lat="45.52782" lon="6.79685">
        <ele>1685.7177734375</ele>
        <time>2014-07-24T09:17:50Z</time>
      </trkpt>
      <trkpt lat="45.52783" lon="6.79686">
        <ele>1686.1469726562</ele>
        <time>2014-07-24T09:17:52Z</time>
      </trkpt>
      <trkpt lat="45.52785" lon="6.79686">
        <ele>1686.8181152344</ele>
        <time>2014-07-24T09:17:54Z</time>
      </trkpt>
      <trkpt lat="45.52786" lon="6.79686">
        <ele>1687.3073730469</ele>
        <time>2014-07-24T09:17:56Z</time>
      </trkpt>
      <trkpt lat="45.52785" lon="6.79685">
        <ele>1686.7700195312</ele>
        <time>2014-07-24T09:17:58Z</time>
      </trkpt>
      <trkpt lat="45.52786" lon="6.79685">
        <ele>1687.0155029297</ele>
        <time>2014-07-24T09:18:00Z</time>
      </trkpt>
      <trkpt lat="45.52785" lon="6.79685">
        <ele>1686.6173095703</ele>
        <time>2014-07-24T09:18:02Z</time>
      </trkpt>
      <trkpt lat="45.52783" lon="6.79685">
        <ele>1685.8997802734</ele>
        <time>2014-07-24T09:18:04Z</time>
      </trkpt>
      <trkpt lat="45.52782" lon="6.79684">
        <ele>1685.2542724609</ele>
        <time>2014-07-24T09:18:08Z</time>
      </trkpt>
      <trkpt lat="45.52782" lon="6.79684">
        <ele>1685.2080078125</ele>
        <time>2014-07-24T09:18:10Z</time>
      </trkpt>
      <trkpt lat="45.52783" lon="6.79683">
        <ele>1685.3435058594</ele>
        <time>2014-07-24T09:18:14Z</time>
      </trkpt>
      <trkpt lat="45.52783" lon="6.79683">
        <ele>1685.2817382812</ele>
        <time>2014-07-24T09:18:16Z</time>
      </trkpt>
      <trkpt lat="45.52784" lon="6.79684">
        <ele>1685.5889892578</ele>
        <time>2014-07-24T09:18:18Z</time>
      </trkpt>
      <trkpt lat="45.52785" lon="6.79684">
        <ele>1686.1864013672</ele>
        <time>2014-07-24T09:18:20Z</time>
      </trkpt>
      <trkpt lat="45.52785" lon="6.79685">
        <ele>1686.5246582031</ele>
        <time>2014-07-24T09:18:21Z</time>
      </trkpt>
      <trkpt lat="45.52791" lon="6.79688">
        <ele>1689.4805908203</ele>
        <time>2014-07-24T09:18:26Z</time>
      </trkpt>
      <trkpt lat="45.52795" lon="6.79692">
        <ele>1692.4143066406</ele>
        <time>2014-07-24T09:18:34Z</time>
      </trkpt>
      <trkpt lat="45.52792" lon="6.79694">
        <ele>1691.7945556641</ele>
        <time>2014-07-24T09:18:36Z</time>
      </trkpt>
      <trkpt lat="45.52792" lon="6.79695">
        <ele>1692.4063720703</ele>
        <time>2014-07-24T09:18:38Z</time>
      </trkpt>
      <trkpt lat="45.5279" lon="6.79698">
        <ele>1692.7823486328</ele>
        <time>2014-07-24T09:18:42Z</time>
      </trkpt>
      <trkpt lat="45.52787" lon="6.797">
        <ele>1692.591796875</ele>
        <time>2014-07-24T09:18:46Z</time>
      </trkpt>
      <trkpt lat="45.52788" lon="6.79707">
        <ele>1695.3782958984</ele>
        <time>2014-07-24T09:18:52Z</time>
      </trkpt>
      <trkpt lat="45.52792" lon="6.79715">
        <ele>1699.9505615234</ele>
        <time>2014-07-24T09:19:05Z</time>
      </trkpt>
      <trkpt lat="45.52793" lon="6.79716">
        <ele>1700.6724853516</ele>
        <time>2014-07-24T09:19:08Z</time>
      </trkpt>
      <trkpt lat="45.52795" lon="6.79716">
        <ele>1701.1254882812</ele>
        <time>2014-07-24T09:19:12Z</time>
      </trkpt>
      <trkpt lat="45.52795" lon="6.79715">
        <ele>1701.1474609375</ele>
        <time>2014-07-24T09:19:14Z</time>
      </trkpt>
      <trkpt lat="45.52796" lon="6.79716">
        <ele>1701.5612792969</ele>
        <time>2014-07-24T09:19:16Z</time>
      </trkpt>
      <trkpt lat="45.52797" lon="6.79715">
        <ele>1701.6763916016</ele>
        <time>2014-07-24T09:19:18Z</time>
      </trkpt>
      <trkpt lat="45.52798" lon="6.79715">
        <ele>1702.1458740234</ele>
        <time>2014-07-24T09:19:20Z</time>
      </trkpt>
      <trkpt lat="45.528" lon="6.79715">
        <ele>1702.5489501953</ele>
        <time>2014-07-24T09:19:22Z</time>
      </trkpt>
      <trkpt lat="45.52803" lon="6.79716">
        <ele>1703.8836669922</ele>
        <time>2014-07-24T09:19:26Z</time>
      </trkpt>
      <trkpt lat="45.52805" lon="6.79716">
        <ele>1704.4193115234</ele>
        <time>2014-07-24T09:19:28Z</time>
      </trkpt>
      <trkpt lat="45.52805" lon="6.79718">
        <ele>1705.3770751953</ele>
        <time>2014-07-24T09:19:32Z</time>
      </trkpt>
      <trkpt lat="45.52806" lon="6.79718">
        <ele>1705.5272216797</ele>
        <time>2014-07-24T09:19:34Z</time>
      </trkpt>
      <trkpt lat="45.52806" lon="6.79718">
        <ele>1705.5513916016</ele>
        <time>2014-07-24T09:19:36Z</time>
      </trkpt>
      <trkpt lat="45.52806" lon="6.79717">
        <ele>1705.64453125</ele>
        <time>2014-07-24T09:19:38Z</time>
      </trkpt>
      <trkpt lat="45.52806" lon="6.79718">
        <ele>1705.5684814453</ele>
        <time>2014-07-24T09:19:40Z</time>
      </trkpt>
      <trkpt lat="45.5281" lon="6.79719">
        <ele>1707.4671630859</ele>
        <time>2014-07-24T09:19:44Z</time>
      </trkpt>
      <trkpt lat="45.5281" lon="6.7972">
        <ele>1707.7452392578</ele>
        <time>2014-07-24T09:19:46Z</time>
      </trkpt>
      <trkpt lat="45.52812" lon="6.79721">
        <ele>1708.9138183594</ele>
        <time>2014-07-24T09:19:48Z</time>
      </trkpt>
      <trkpt lat="45.52813" lon="6.79721">
        <ele>1709.0645751953</ele>
        <time>2014-07-24T09:19:50Z</time>
      </trkpt>
      <trkpt lat="45.52813" lon="6.79719">
        <ele>1708.6203613281</ele>
        <time>2014-07-24T09:19:54Z</time>
      </trkpt>
      <trkpt lat="45.52813" lon="6.79721">
        <ele>1709.2513427734</ele>
        <time>2014-07-24T09:19:56Z</time>
      </trkpt>
      <trkpt lat="45.52814" lon="6.79721">
        <ele>1709.5610351562</ele>
        <time>2014-07-24T09:19:58Z</time>
      </trkpt>
      <trkpt lat="45.52815" lon="6.79722">
        <ele>1710.1325683594</ele>
        <time>2014-07-24T09:20:00Z</time>
      </trkpt>
      <trkpt lat="45.52818" lon="6.79719">
        <ele>1710.7409667969</ele>
        <time>2014-07-24T09:20:04Z</time>
      </trkpt>
      <trkpt lat="45.52823" lon="6.79718">
        <ele>1712.0048828125</ele>
        <time>2014-07-24T09:20:08Z</time>
      </trkpt>
      <trkpt lat="45.52827" lon="6.79715">
        <ele>1712.6484375</ele>
        <time>2014-07-24T09:20:12Z</time>
      </trkpt>
      <trkpt lat="45.52828" lon="6.79713">
        <ele>1712.5155029297</ele>
        <time>2014-07-24T09:20:16Z</time>
      </trkpt>
      <trkpt lat="45.52829" lon="6.79712">
        <ele>1712.8143310547</ele>
        <time>2014-07-24T09:20:18Z</time>
      </trkpt>
      <trkpt lat="45.52832" lon="6.79713">
        <ele>1713.9013671875</ele>
        <time>2014-07-24T09:20:22Z</time>
      </trkpt>
      <trkpt lat="45.52832" lon="6.79713">
        <ele>1714.3874511719</ele>
        <time>2014-07-24T09:20:24Z</time>
      </trkpt>
      <trkpt lat="45.52833" lon="6.79714">
        <ele>1714.7076416016</ele>
        <time>2014-07-24T09:20:26Z</time>
      </trkpt>
      <trkpt lat="45.52833" lon="6.79716">
        <ele>1715.4354248047</ele>
        <time>2014-07-24T09:20:28Z</time>
      </trkpt>
      <trkpt lat="45.52832" lon="6.79718">
        <ele>1715.4626464844</ele>
        <time>2014-07-24T09:20:32Z</time>
      </trkpt>
      <trkpt lat="45.52827" lon="6.79721">
        <ele>1714.6712646484</ele>
        <time>2014-07-24T09:20:38Z</time>
      </trkpt>
      <trkpt lat="45.52827" lon="6.79724">
        <ele>1715.5151367188</ele>
        <time>2014-07-24T09:20:42Z</time>
      </trkpt>
      <trkpt lat="45.52826" lon="6.79725">
        <ele>1715.3530273438</ele>
        <time>2014-07-24T09:20:44Z</time>
      </trkpt>
      <trkpt lat="45.52825" lon="6.79726">
        <ele>1715.4345703125</ele>
        <time>2014-07-24T09:20:46Z</time>
      </trkpt>
      <trkpt lat="45.52826" lon="6.79738">
        <ele>1720.3818359375</ele>
        <time>2014-07-24T09:20:58Z</time>
      </trkpt>
      <trkpt lat="45.52824" lon="6.7974">
        <ele>1720.3549804688</ele>
        <time>2014-07-24T09:21:02Z</time>
      </trkpt>
      <trkpt lat="45.52825" lon="6.7974">
        <ele>1720.5767822266</ele>
        <time>2014-07-24T09:21:03Z</time>
      </trkpt>
      <trkpt lat="45.52825" lon="6.79739">
        <ele>1720.3116455078</ele>
        <time>2014-07-24T09:21:06Z</time>
      </trkpt>
      <trkpt lat="45.52826" lon="6.79739">
        <ele>1720.4053955078</ele>
        <time>2014-07-24T09:21:08Z</time>
      </trkpt>
      <trkpt lat="45.52826" lon="6.79738">
        <ele>1720.3052978516</ele>
        <time>2014-07-24T09:21:10Z</time>
      </trkpt>
      <trkpt lat="45.52827" lon="6.79737">
        <ele>1720.4896240234</ele>
        <time>2014-07-24T09:21:12Z</time>
      </trkpt>
      <trkpt lat="45.52829" lon="6.79738">
        <ele>1721.0361328125</ele>
        <time>2014-07-24T09:21:14Z</time>
      </trkpt>
      <trkpt lat="45.52829" lon="6.79741">
        <ele>1722.5140380859</ele>
        <time>2014-07-24T09:21:18Z</time>
      </trkpt>
      <trkpt lat="45.52831" lon="6.79741">
        <ele>1722.9499511719</ele>
        <time>2014-07-24T09:21:20Z</time>
      </trkpt>
      <trkpt lat="45.52831" lon="6.79742">
        <ele>1723.4649658203</ele>
        <time>2014-07-24T09:21:22Z</time>
      </trkpt>
      <trkpt lat="45.52832" lon="6.79742">
        <ele>1723.5302734375</ele>
        <time>2014-07-24T09:21:24Z</time>
      </trkpt>
      <trkpt lat="45.52832" lon="6.79742">
        <ele>1723.8475341797</ele>
        <time>2014-07-24T09:21:26Z</time>
      </trkpt>
      <trkpt lat="45.52833" lon="6.79742">
        <ele>1723.9822998047</ele>
        <time>2014-07-24T09:21:28Z</time>
      </trkpt>
      <trkpt lat="45.52834" lon="6.79737">
        <ele>1722.4261474609</ele>
        <time>2014-07-24T09:21:34Z</time>
      </trkpt>
      <trkpt lat="45.52838" lon="6.79733">
        <ele>1722.9272460938</ele>
        <time>2014-07-24T09:21:40Z</time>
      </trkpt>
      <trkpt lat="45.5284" lon="6.7973">
        <ele>1722.6947021484</ele>
        <time>2014-07-24T09:21:44Z</time>
      </trkpt>
      <trkpt lat="45.52842" lon="6.7973">
        <ele>1723.2580566406</ele>
        <time>2014-07-24T09:21:46Z</time>
      </trkpt>
      <trkpt lat="45.52842" lon="6.7973">
        <ele>1723.6304931641</ele>
        <time>2014-07-24T09:21:48Z</time>
      </trkpt>
      <trkpt lat="45.52844" lon="6.7973">
        <ele>1724.3143310547</ele>
        <time>2014-07-24T09:21:50Z</time>
      </trkpt>
      <trkpt lat="45.52845" lon="6.7973">
        <ele>1724.9769287109</ele>
        <time>2014-07-24T09:21:52Z</time>
      </trkpt>
      <trkpt lat="45.52848" lon="6.79733">
        <ele>1727.2590332031</ele>
        <time>2014-07-24T09:21:58Z</time>
      </trkpt>
      <trkpt lat="45.5285" lon="6.79735">
        <ele>1728.4533691406</ele>
        <time>2014-07-24T09:22:00Z</time>
      </trkpt>
      <trkpt lat="45.52852" lon="6.79736">
        <ele>1729.8424072266</ele>
        <time>2014-07-24T09:22:02Z</time>
      </trkpt>
      <trkpt lat="45.52861" lon="6.79736">
        <ele>1734.2399902344</ele>
        <time>2014-07-24T09:22:10Z</time>
      </trkpt>
      <trkpt lat="45.52864" lon="6.79736">
        <ele>1734.9747314453</ele>
        <time>2014-07-24T09:22:12Z</time>
      </trkpt>
      <trkpt lat="45.52863" lon="6.79735">
        <ele>1733.9653320312</ele>
        <time>2014-07-24T09:22:16Z</time>
      </trkpt>
      <trkpt lat="45.52864" lon="6.79735">
        <ele>1734.4185791016</ele>
        <time>2014-07-24T09:22:18Z</time>
      </trkpt>
      <trkpt lat="45.52866" lon="6.79736">
        <ele>1735.2905273438</ele>
        <time>2014-07-24T09:22:22Z</time>
      </trkpt>
      <trkpt lat="45.52867" lon="6.79737">
        <ele>1736.1970214844</ele>
        <time>2014-07-24T09:22:24Z</time>
      </trkpt>
      <trkpt lat="45.52866" lon="6.79738">
        <ele>1736.4716796875</ele>
        <time>2014-07-24T09:22:28Z</time>
      </trkpt>
      <trkpt lat="45.52866" lon="6.79739">
        <ele>1736.7393798828</ele>
        <time>2014-07-24T09:22:30Z</time>
      </trkpt>
      <trkpt lat="45.52866" lon="6.79738">
        <ele>1736.2449951172</ele>
        <time>2014-07-24T09:22:32Z</time>
      </trkpt>
      <trkpt lat="45.52865" lon="6.79738">
        <ele>1735.8055419922</ele>
        <time>2014-07-24T09:22:33Z</time>
      </trkpt>
      <trkpt lat="45.52864" lon="6.79735">
        <ele>1734.6451416016</ele>
        <time>2014-07-24T09:22:38Z</time>
      </trkpt>
      <trkpt lat="45.52865" lon="6.79735">
        <ele>1734.6932373047</ele>
        <time>2014-07-24T09:22:40Z</time>
      </trkpt>
      <trkpt lat="45.52866" lon="6.79737">
        <ele>1735.6201171875</ele>
        <time>2014-07-24T09:22:43Z</time>
      </trkpt>
      <trkpt lat="45.52868" lon="6.79738">
        <ele>1736.5334472656</ele>
        <time>2014-07-24T09:22:45Z</time>
      </trkpt>
      <trkpt lat="45.52868" lon="6.79737">
        <ele>1736.2106933594</ele>
        <time>2014-07-24T09:22:48Z</time>
      </trkpt>
      <trkpt lat="45.52869" lon="6.79738">
        <ele>1737.0003662109</ele>
        <time>2014-07-24T09:22:50Z</time>
      </trkpt>
      <trkpt lat="45.52873" lon="6.79738">
        <ele>1738.2156982422</ele>
        <time>2014-07-24T09:22:54Z</time>
      </trkpt>
      <trkpt lat="45.52875" lon="6.79739">
        <ele>1739.3211669922</ele>
        <time>2014-07-24T09:22:56Z</time>
      </trkpt>
      <trkpt lat="45.52876" lon="6.79741">
        <ele>1740.4129638672</ele>
        <time>2014-07-24T09:22:58Z</time>
      </trkpt>
      <trkpt lat="45.52877" lon="6.79741">
        <ele>1740.5366210938</ele>
        <time>2014-07-24T09:23:00Z</time>
      </trkpt>
      <trkpt lat="45.52878" lon="6.79741">
        <ele>1740.9005126953</ele>
        <time>2014-07-24T09:23:02Z</time>
      </trkpt>
      <trkpt lat="45.5288" lon="6.79739">
        <ele>1741.0310058594</ele>
        <time>2014-07-24T09:23:08Z</time>
      </trkpt>
      <trkpt lat="45.52882" lon="6.79741">
        <ele>1741.8137207031</ele>
        <time>2014-07-24T09:23:10Z</time>
      </trkpt>
      <trkpt lat="45.52882" lon="6.7974">
        <ele>1741.9716796875</ele>
        <time>2014-07-24T09:23:12Z</time>
      </trkpt>
      <trkpt lat="45.52885" lon="6.79742">
        <ele>1743.5715332031</ele>
        <time>2014-07-24T09:23:16Z</time>
      </trkpt>
      <trkpt lat="45.52886" lon="6.79742">
        <ele>1743.6470947266</ele>
        <time>2014-07-24T09:23:18Z</time>
      </trkpt>
      <trkpt lat="45.52888" lon="6.79743">
        <ele>1744.8762207031</ele>
        <time>2014-07-24T09:23:24Z</time>
      </trkpt>
      <trkpt lat="45.52889" lon="6.79745">
        <ele>1745.8642578125</ele>
        <time>2014-07-24T09:23:28Z</time>
      </trkpt>
      <trkpt lat="45.5289" lon="6.79746">
        <ele>1746.3618164062</ele>
        <time>2014-07-24T09:23:30Z</time>
      </trkpt>
      <trkpt lat="45.52892" lon="6.79746">
        <ele>1747.1237792969</ele>
        <time>2014-07-24T09:23:32Z</time>
      </trkpt>
      <trkpt lat="45.52892" lon="6.79747">
        <ele>1747.3308105469</ele>
        <time>2014-07-24T09:23:34Z</time>
      </trkpt>
      <trkpt lat="45.52892" lon="6.79747">
        <ele>1747.6334228516</ele>
        <time>2014-07-24T09:23:36Z</time>
      </trkpt>
      <trkpt lat="45.52895" lon="6.79748">
        <ele>1748.7092285156</ele>
        <time>2014-07-24T09:23:40Z</time>
      </trkpt>
      <trkpt lat="45.52896" lon="6.79749">
        <ele>1749.3151855469</ele>
        <time>2014-07-24T09:23:42Z</time>
      </trkpt>
      <trkpt lat="45.52902" lon="6.79749">
        <ele>1750.3848876953</ele>
        <time>2014-07-24T09:23:48Z</time>
      </trkpt>
      <trkpt lat="45.52903" lon="6.79748">
        <ele>1750.2680664062</ele>
        <time>2014-07-24T09:23:50Z</time>
      </trkpt>
      <trkpt lat="45.52903" lon="6.79748">
        <ele>1750.5303955078</ele>
        <time>2014-07-24T09:23:52Z</time>
      </trkpt>
      <trkpt lat="45.52903" lon="6.79748">
        <ele>1750.4552001953</ele>
        <time>2014-07-24T09:23:54Z</time>
      </trkpt>
      <trkpt lat="45.52904" lon="6.79749">
        <ele>1750.7543945312</ele>
        <time>2014-07-24T09:23:56Z</time>
      </trkpt>
      <trkpt lat="45.52905" lon="6.7975">
        <ele>1751.5256347656</ele>
        <time>2014-07-24T09:23:58Z</time>
      </trkpt>
      <trkpt lat="45.52907" lon="6.79753">
        <ele>1753.220703125</ele>
        <time>2014-07-24T09:24:02Z</time>
      </trkpt>
      <trkpt lat="45.52909" lon="6.79754">
        <ele>1753.8946533203</ele>
        <time>2014-07-24T09:24:06Z</time>
      </trkpt>
      <trkpt lat="45.52911" lon="6.79754">
        <ele>1754.4520263672</ele>
        <time>2014-07-24T09:24:12Z</time>
      </trkpt>
      <trkpt lat="45.52914" lon="6.79757">
        <ele>1756.4091796875</ele>
        <time>2014-07-24T09:24:20Z</time>
      </trkpt>
      <trkpt lat="45.52915" lon="6.79758">
        <ele>1756.9498291016</ele>
        <time>2014-07-24T09:24:22Z</time>
      </trkpt>
      <trkpt lat="45.52916" lon="6.7976">
        <ele>1757.7388916016</ele>
        <time>2014-07-24T09:24:26Z</time>
      </trkpt>
      <trkpt lat="45.52916" lon="6.7976">
        <ele>1757.7685546875</ele>
        <time>2014-07-24T09:24:28Z</time>
      </trkpt>
      <trkpt lat="45.52918" lon="6.79762">
        <ele>1758.7839355469</ele>
        <time>2014-07-24T09:24:32Z</time>
      </trkpt>
      <trkpt lat="45.52919" lon="6.79762">
        <ele>1759.0610351562</ele>
        <time>2014-07-24T09:24:34Z</time>
      </trkpt>
      <trkpt lat="45.5292" lon="6.79763">
        <ele>1759.7208251953</ele>
        <time>2014-07-24T09:24:36Z</time>
      </trkpt>
      <trkpt lat="45.52921" lon="6.79766">
        <ele>1761.1071777344</ele>
        <time>2014-07-24T09:24:42Z</time>
      </trkpt>
      <trkpt lat="45.52924" lon="6.79769">
        <ele>1762.8736572266</ele>
        <time>2014-07-24T09:24:46Z</time>
      </trkpt>
      <trkpt lat="45.52924" lon="6.7977">
        <ele>1763.1118164062</ele>
        <time>2014-07-24T09:24:48Z</time>
      </trkpt>
      <trkpt lat="45.52924" lon="6.79771">
        <ele>1763.4666748047</ele>
        <time>2014-07-24T09:24:50Z</time>
      </trkpt>
      <trkpt lat="45.52924" lon="6.79771">
        <ele>1763.4666748047</ele>
        <time>2014-07-24T09:24:52Z</time>
      </trkpt>
      <trkpt lat="45.52927" lon="6.79771">
        <ele>1764.0400390625</ele>
        <time>2014-07-24T09:24:58Z</time>
      </trkpt>
      <trkpt lat="45.52928" lon="6.79772">
        <ele>1764.4708251953</ele>
        <time>2014-07-24T09:25:00Z</time>
      </trkpt>
      <trkpt lat="45.52929" lon="6.79773">
        <ele>1765.4018554688</ele>
        <time>2014-07-24T09:25:04Z</time>
      </trkpt>
      <trkpt lat="45.5293" lon="6.79774">
        <ele>1765.7121582031</ele>
        <time>2014-07-24T09:25:06Z</time>
      </trkpt>
      <trkpt lat="45.52931" lon="6.79775">
        <ele>1766.2998046875</ele>
        <time>2014-07-24T09:25:08Z</time>
      </trkpt>
      <trkpt lat="45.5293" lon="6.79775">
        <ele>1766.3823242188</ele>
        <time>2014-07-24T09:25:10Z</time>
      </trkpt>
      <trkpt lat="45.52931" lon="6.79776">
        <ele>1766.6949462891</ele>
        <time>2014-07-24T09:25:12Z</time>
      </trkpt>
      <trkpt lat="45.52931" lon="6.79777">
        <ele>1767.0308837891</ele>
        <time>2014-07-24T09:25:14Z</time>
      </trkpt>
      <trkpt lat="45.5293" lon="6.79777">
        <ele>1767.00390625</ele>
        <time>2014-07-24T09:25:16Z</time>
      </trkpt>
      <trkpt lat="45.5293" lon="6.79777">
        <ele>1767.3377685547</ele>
        <time>2014-07-24T09:25:18Z</time>
      </trkpt>
      <trkpt lat="45.5293" lon="6.79778">
        <ele>1767.5374755859</ele>
        <time>2014-07-24T09:25:20Z</time>
      </trkpt>
      <trkpt lat="45.52932" lon="6.79781">
        <ele>1769.0416259766</ele>
        <time>2014-07-24T09:25:24Z</time>
      </trkpt>
      <trkpt lat="45.52933" lon="6.79782">
        <ele>1769.7376708984</ele>
        <time>2014-07-24T09:25:26Z</time>
      </trkpt>
      <trkpt lat="45.52934" lon="6.79783">
        <ele>1770.2943115234</ele>
        <time>2014-07-24T09:25:28Z</time>
      </trkpt>
      <trkpt lat="45.52934" lon="6.79785">
        <ele>1771.0614013672</ele>
        <time>2014-07-24T09:25:32Z</time>
      </trkpt>
      <trkpt lat="45.52934" lon="6.79785">
        <ele>1771.12109375</ele>
        <time>2014-07-24T09:25:34Z</time>
      </trkpt>
      <trkpt lat="45.52937" lon="6.79786">
        <ele>1772.2084960938</ele>
        <time>2014-07-24T09:25:38Z</time>
      </trkpt>
      <trkpt lat="45.52937" lon="6.79787">
        <ele>1772.4270019531</ele>
        <time>2014-07-24T09:25:40Z</time>
      </trkpt>
      <trkpt lat="45.52939" lon="6.79788">
        <ele>1773.1169433594</ele>
        <time>2014-07-24T09:25:42Z</time>
      </trkpt>
      <trkpt lat="45.5294" lon="6.79788">
        <ele>1773.4876708984</ele>
        <time>2014-07-24T09:25:44Z</time>
      </trkpt>
      <trkpt lat="45.5294" lon="6.7979">
        <ele>1774.2668457031</ele>
        <time>2014-07-24T09:25:48Z</time>
      </trkpt>
      <trkpt lat="45.5294" lon="6.79792">
        <ele>1775.0772705078</ele>
        <time>2014-07-24T09:25:50Z</time>
      </trkpt>
      <trkpt lat="45.52941" lon="6.79792">
        <ele>1775.3057861328</ele>
        <time>2014-07-24T09:25:52Z</time>
      </trkpt>
      <trkpt lat="45.52942" lon="6.79793">
        <ele>1775.6372070312</ele>
        <time>2014-07-24T09:25:54Z</time>
      </trkpt>
      <trkpt lat="45.52943" lon="6.79794">
        <ele>1776.1597900391</ele>
        <time>2014-07-24T09:25:56Z</time>
      </trkpt>
      <trkpt lat="45.52944" lon="6.79794">
        <ele>1776.1368408203</ele>
        <time>2014-07-24T09:25:58Z</time>
      </trkpt>
      <trkpt lat="45.52944" lon="6.79793">
        <ele>1775.9661865234</ele>
        <time>2014-07-24T09:26:00Z</time>
      </trkpt>
      <trkpt lat="45.52945" lon="6.79795">
        <ele>1777.0584716797</ele>
        <time>2014-07-24T09:26:02Z</time>
      </trkpt>
      <trkpt lat="45.52946" lon="6.79796">
        <ele>1777.7136230469</ele>
        <time>2014-07-24T09:26:04Z</time>
      </trkpt>
      <trkpt lat="45.52946" lon="6.79796">
        <ele>1777.6950683594</ele>
        <time>2014-07-24T09:26:06Z</time>
      </trkpt>
      <trkpt lat="45.52951" lon="6.79799">
        <ele>1779.9942626953</ele>
        <time>2014-07-24T09:26:14Z</time>
      </trkpt>
      <trkpt lat="45.52952" lon="6.79798">
        <ele>1780.1105957031</ele>
        <time>2014-07-24T09:26:16Z</time>
      </trkpt>
      <trkpt lat="45.52956" lon="6.79801">
        <ele>1781.9840087891</ele>
        <time>2014-07-24T09:26:20Z</time>
      </trkpt>
      <trkpt lat="45.52957" lon="6.79803">
        <ele>1783.2884521484</ele>
        <time>2014-07-24T09:26:24Z</time>
      </trkpt>
      <trkpt lat="45.52959" lon="6.79804">
        <ele>1784.2084960938</ele>
        <time>2014-07-24T09:26:26Z</time>
      </trkpt>
      <trkpt lat="45.52962" lon="6.79805">
        <ele>1785.2423095703</ele>
        <time>2014-07-24T09:26:30Z</time>
      </trkpt>
      <trkpt lat="45.52962" lon="6.79805">
        <ele>1785.3685302734</ele>
        <time>2014-07-24T09:26:32Z</time>
      </trkpt>
      <trkpt lat="45.52963" lon="6.79805">
        <ele>1785.5814208984</ele>
        <time>2014-07-24T09:26:34Z</time>
      </trkpt>
      <trkpt lat="45.52963" lon="6.79807">
        <ele>1786.6376953125</ele>
        <time>2014-07-24T09:26:36Z</time>
      </trkpt>
      <trkpt lat="45.52962" lon="6.79807">
        <ele>1786.1262207031</ele>
        <time>2014-07-24T09:26:38Z</time>
      </trkpt>
      <trkpt lat="45.52966" lon="6.79809">
        <ele>1788.0848388672</ele>
        <time>2014-07-24T09:26:42Z</time>
      </trkpt>
      <trkpt lat="45.52967" lon="6.79811">
        <ele>1788.9534912109</ele>
        <time>2014-07-24T09:26:44Z</time>
      </trkpt>
      <trkpt lat="45.52966" lon="6.79812">
        <ele>1789.6314697266</ele>
        <time>2014-07-24T09:26:46Z</time>
      </trkpt>
      <trkpt lat="45.52967" lon="6.79815">
        <ele>1791.0134277344</ele>
        <time>2014-07-24T09:26:48Z</time>
      </trkpt>
      <trkpt lat="45.52967" lon="6.79822">
        <ele>1794.5908203125</ele>
        <time>2014-07-24T09:26:58Z</time>
      </trkpt>
      <trkpt lat="45.52968" lon="6.79823">
        <ele>1795.0439453125</ele>
        <time>2014-07-24T09:27:00Z</time>
      </trkpt>
      <trkpt lat="45.52968" lon="6.79824">
        <ele>1795.3786621094</ele>
        <time>2014-07-24T09:27:02Z</time>
      </trkpt>
      <trkpt lat="45.52969" lon="6.79825">
        <ele>1796.2095947266</ele>
        <time>2014-07-24T09:27:06Z</time>
      </trkpt>
      <trkpt lat="45.52968" lon="6.79821">
        <ele>1794.0621337891</ele>
        <time>2014-07-24T09:27:14Z</time>
      </trkpt>
      <trkpt lat="45.52967" lon="6.79821">
        <ele>1793.8990478516</ele>
        <time>2014-07-24T09:27:16Z</time>
      </trkpt>
      <trkpt lat="45.52967" lon="6.7982">
        <ele>1793.7874755859</ele>
        <time>2014-07-24T09:27:20Z</time>
      </trkpt>
      <trkpt lat="45.52967" lon="6.7982">
        <ele>1793.6912841797</ele>
        <time>2014-07-24T09:27:22Z</time>
      </trkpt>
      <trkpt lat="45.52967" lon="6.7982">
        <ele>1793.6466064453</ele>
        <time>2014-07-24T09:27:24Z</time>
      </trkpt>
      <trkpt lat="45.52967" lon="6.7982">
        <ele>1793.4613037109</ele>
        <time>2014-07-24T09:27:26Z</time>
      </trkpt>
      <trkpt lat="45.52967" lon="6.7982">
        <ele>1793.3050537109</ele>
        <time>2014-07-24T09:27:28Z</time>
      </trkpt>
      <trkpt lat="45.52964" lon="6.79817">
        <ele>1791.0631103516</ele>
        <time>2014-07-24T09:27:38Z</time>
      </trkpt>
      <trkpt lat="45.52962" lon="6.79816">
        <ele>1790.2099609375</ele>
        <time>2014-07-24T09:27:40Z</time>
      </trkpt>
      <trkpt lat="45.52961" lon="6.79813">
        <ele>1788.6650390625</ele>
        <time>2014-07-24T09:27:42Z</time>
      </trkpt>
      <trkpt lat="45.52962" lon="6.79814">
        <ele>1789.2211914062</ele>
        <time>2014-07-24T09:27:44Z</time>
      </trkpt>
      <trkpt lat="45.52961" lon="6.79814">
        <ele>1788.9912109375</ele>
        <time>2014-07-24T09:27:46Z</time>
      </trkpt>
      <trkpt lat="45.52961" lon="6.79814">
        <ele>1789.1920166016</ele>
        <time>2014-07-24T09:27:47Z</time>
      </trkpt>
      <trkpt lat="45.52961" lon="6.79814">
        <ele>1789.0959472656</ele>
        <time>2014-07-24T09:27:50Z</time>
      </trkpt>
      <trkpt lat="45.52961" lon="6.79814">
        <ele>1789.0444335938</ele>
        <time>2014-07-24T09:27:52Z</time>
      </trkpt>
      <trkpt lat="45.52962" lon="6.79815">
        <ele>1790.0023193359</ele>
        <time>2014-07-24T09:27:54Z</time>
      </trkpt>
      <trkpt lat="45.52964" lon="6.79822">
        <ele>1793.5179443359</ele>
        <time>2014-07-24T09:27:58Z</time>
      </trkpt>
      <trkpt lat="45.52966" lon="6.79825">
        <ele>1795.58984375</ele>
        <time>2014-07-24T09:28:02Z</time>
      </trkpt>
      <trkpt lat="45.52965" lon="6.79826">
        <ele>1795.7254638672</ele>
        <time>2014-07-24T09:28:04Z</time>
      </trkpt>
      <trkpt lat="45.52964" lon="6.79827">
        <ele>1796.0980224609</ele>
        <time>2014-07-24T09:28:06Z</time>
      </trkpt>
      <trkpt lat="45.52965" lon="6.79828">
        <ele>1796.8704833984</ele>
        <time>2014-07-24T09:28:10Z</time>
      </trkpt>
      <trkpt lat="45.52965" lon="6.79829">
        <ele>1796.908203125</ele>
        <time>2014-07-24T09:28:12Z</time>
      </trkpt>
      <trkpt lat="45.52966" lon="6.7983">
        <ele>1797.6361083984</ele>
        <time>2014-07-24T09:28:14Z</time>
      </trkpt>
      <trkpt lat="45.52965" lon="6.7983">
        <ele>1797.4730224609</ele>
        <time>2014-07-24T09:28:16Z</time>
      </trkpt>
      <trkpt lat="45.52966" lon="6.7983">
        <ele>1797.6806640625</ele>
        <time>2014-07-24T09:28:18Z</time>
      </trkpt>
      <trkpt lat="45.52966" lon="6.7983">
        <ele>1797.8060302734</ele>
        <time>2014-07-24T09:28:22Z</time>
      </trkpt>
      <trkpt lat="45.52966" lon="6.79832">
        <ele>1798.7879638672</ele>
        <time>2014-07-24T09:28:24Z</time>
      </trkpt>
      <trkpt lat="45.52969" lon="6.79835">
        <ele>1801.0030517578</ele>
        <time>2014-07-24T09:28:30Z</time>
      </trkpt>
      <trkpt lat="45.5297" lon="6.79834">
        <ele>1801.041015625</ele>
        <time>2014-07-24T09:28:32Z</time>
      </trkpt>
      <trkpt lat="45.52977" lon="6.79835">
        <ele>1802.8950195312</ele>
        <time>2014-07-24T09:28:40Z</time>
      </trkpt>
      <trkpt lat="45.52978" lon="6.79836">
        <ele>1803.4910888672</ele>
        <time>2014-07-24T09:28:42Z</time>
      </trkpt>
      <trkpt lat="45.52983" lon="6.79835">
        <ele>1804.0588378906</ele>
        <time>2014-07-24T09:28:48Z</time>
      </trkpt>
      <trkpt lat="45.52984" lon="6.79837">
        <ele>1804.9304199219</ele>
        <time>2014-07-24T09:28:50Z</time>
      </trkpt>
      <trkpt lat="45.52986" lon="6.79836">
        <ele>1804.7862548828</ele>
        <time>2014-07-24T09:28:52Z</time>
      </trkpt>
      <trkpt lat="45.52989" lon="6.79836">
        <ele>1805.6577148438</ele>
        <time>2014-07-24T09:28:58Z</time>
      </trkpt>
      <trkpt lat="45.5299" lon="6.79836">
        <ele>1805.5137939453</ele>
        <time>2014-07-24T09:29:00Z</time>
      </trkpt>
      <trkpt lat="45.52992" lon="6.79836">
        <ele>1805.880859375</ele>
        <time>2014-07-24T09:29:04Z</time>
      </trkpt>
      <trkpt lat="45.52993" lon="6.79835">
        <ele>1805.7125244141</ele>
        <time>2014-07-24T09:29:06Z</time>
      </trkpt>
      <trkpt lat="45.52993" lon="6.79835">
        <ele>1805.8480224609</ele>
        <time>2014-07-24T09:29:08Z</time>
      </trkpt>
      <trkpt lat="45.52996" lon="6.79836">
        <ele>1807.0130615234</ele>
        <time>2014-07-24T09:29:12Z</time>
      </trkpt>
      <trkpt lat="45.52996" lon="6.79838">
        <ele>1807.9219970703</ele>
        <time>2014-07-24T09:29:14Z</time>
      </trkpt>
      <trkpt lat="45.52995" lon="6.79838">
        <ele>1807.9052734375</ele>
        <time>2014-07-24T09:29:16Z</time>
      </trkpt>
      <trkpt lat="45.52997" lon="6.79839">
        <ele>1808.5072021484</ele>
        <time>2014-07-24T09:29:18Z</time>
      </trkpt>
      <trkpt lat="45.52998" lon="6.7984">
        <ele>1809.0928955078</ele>
        <time>2014-07-24T09:29:20Z</time>
      </trkpt>
      <trkpt lat="45.53" lon="6.79841">
        <ele>1809.9611816406</ele>
        <time>2014-07-24T09:29:24Z</time>
      </trkpt>
      <trkpt lat="45.53001" lon="6.7984">
        <ele>1809.9475097656</ele>
        <time>2014-07-24T09:29:26Z</time>
      </trkpt>
      <trkpt lat="45.53001" lon="6.7984">
        <ele>1809.45703125</ele>
        <time>2014-07-24T09:29:28Z</time>
      </trkpt>
      <trkpt lat="45.53001" lon="6.79839">
        <ele>1809.4754638672</ele>
        <time>2014-07-24T09:29:30Z</time>
      </trkpt>
      <trkpt lat="45.53003" lon="6.7984">
        <ele>1810.1968994141</ele>
        <time>2014-07-24T09:29:34Z</time>
      </trkpt>
      <trkpt lat="45.53004" lon="6.79841">
        <ele>1810.4162597656</ele>
        <time>2014-07-24T09:29:36Z</time>
      </trkpt>
      <trkpt lat="45.53004" lon="6.79841">
        <ele>1810.7540283203</ele>
        <time>2014-07-24T09:29:38Z</time>
      </trkpt>
      <trkpt lat="45.53003" lon="6.79842">
        <ele>1811.1044921875</ele>
        <time>2014-07-24T09:29:40Z</time>
      </trkpt>
      <trkpt lat="45.52997" lon="6.79842">
        <ele>1809.9342041016</ele>
        <time>2014-07-24T09:29:42Z</time>
      </trkpt>
      <trkpt lat="45.52996" lon="6.79842">
        <ele>1810.1047363281</ele>
        <time>2014-07-24T09:29:46Z</time>
      </trkpt>
      <trkpt lat="45.52996" lon="6.79843">
        <ele>1810.4428710938</ele>
        <time>2014-07-24T09:29:50Z</time>
      </trkpt>
      <trkpt lat="45.52995" lon="6.79843">
        <ele>1810.4831542969</ele>
        <time>2014-07-24T09:29:52Z</time>
      </trkpt>
      <trkpt lat="45.52995" lon="6.79843">
        <ele>1810.6915283203</ele>
        <time>2014-07-24T09:29:54Z</time>
      </trkpt>
      <trkpt lat="45.52996" lon="6.79844">
        <ele>1810.9112548828</ele>
        <time>2014-07-24T09:29:56Z</time>
      </trkpt>
      <trkpt lat="45.52996" lon="6.79844">
        <ele>1811.0267333984</ele>
        <time>2014-07-24T09:29:58Z</time>
      </trkpt>
      <trkpt lat="45.52999" lon="6.79846">
        <ele>1812.8868408203</ele>
        <time>2014-07-24T09:30:02Z</time>
      </trkpt>
      <trkpt lat="45.53005" lon="6.79849">
        <ele>1814.8748779297</ele>
        <time>2014-07-24T09:30:06Z</time>
      </trkpt>
      <trkpt lat="45.53007" lon="6.79849">
        <ele>1815.4293212891</ele>
        <time>2014-07-24T09:30:10Z</time>
      </trkpt>
      <trkpt lat="45.53009" lon="6.7985">
        <ele>1816.4108886719</ele>
        <time>2014-07-24T09:30:12Z</time>
      </trkpt>
      <trkpt lat="45.53012" lon="6.79852">
        <ele>1817.4201660156</ele>
        <time>2014-07-24T09:30:14Z</time>
      </trkpt>
      <trkpt lat="45.53016" lon="6.79852">
        <ele>1818.2431640625</ele>
        <time>2014-07-24T09:30:18Z</time>
      </trkpt>
      <trkpt lat="45.53017" lon="6.79852">
        <ele>1818.2576904297</ele>
        <time>2014-07-24T09:30:20Z</time>
      </trkpt>
      <trkpt lat="45.53018" lon="6.79852">
        <ele>1818.4389648438</ele>
        <time>2014-07-24T09:30:22Z</time>
      </trkpt>
      <trkpt lat="45.53017" lon="6.79852">
        <ele>1818.5762939453</ele>
        <time>2014-07-24T09:30:24Z</time>
      </trkpt>
      <trkpt lat="45.53017" lon="6.79853">
        <ele>1818.7908935547</ele>
        <time>2014-07-24T09:30:26Z</time>
      </trkpt>
      <trkpt lat="45.53016" lon="6.79853">
        <ele>1819.0130615234</ele>
        <time>2014-07-24T09:30:28Z</time>
      </trkpt>
      <trkpt lat="45.53018" lon="6.79852">
        <ele>1818.5999755859</ele>
        <time>2014-07-24T09:30:30Z</time>
      </trkpt>
      <trkpt lat="45.53018" lon="6.79853">
        <ele>1818.7879638672</ele>
        <time>2014-07-24T09:30:32Z</time>
      </trkpt>
      <trkpt lat="45.53018" lon="6.79853">
        <ele>1819.2686767578</ele>
        <time>2014-07-24T09:30:34Z</time>
      </trkpt>
      <trkpt lat="45.5302" lon="6.79855">
        <ele>1820.2821044922</ele>
        <time>2014-07-24T09:30:36Z</time>
      </trkpt>
      <trkpt lat="45.5302" lon="6.79855">
        <ele>1820.5208740234</ele>
        <time>2014-07-24T09:30:38Z</time>
      </trkpt>
      <trkpt lat="45.53022" lon="6.79856">
        <ele>1821.1641845703</ele>
        <time>2014-07-24T09:30:40Z</time>
      </trkpt>
      <trkpt lat="45.53024" lon="6.79855">
        <ele>1820.8793945312</ele>
        <time>2014-07-24T09:30:44Z</time>
      </trkpt>
      <trkpt lat="45.53025" lon="6.79857">
        <ele>1822.3179931641</ele>
        <time>2014-07-24T09:30:48Z</time>
      </trkpt>
      <trkpt lat="45.53027" lon="6.7986">
        <ele>1824.1728515625</ele>
        <time>2014-07-24T09:30:50Z</time>
      </trkpt>
      <trkpt lat="45.53027" lon="6.79861">
        <ele>1824.7760009766</ele>
        <time>2014-07-24T09:30:52Z</time>
      </trkpt>
      <trkpt lat="45.53028" lon="6.79863">
        <ele>1825.6447753906</ele>
        <time>2014-07-24T09:30:54Z</time>
      </trkpt>
      <trkpt lat="45.53029" lon="6.79863">
        <ele>1825.8748779297</ele>
        <time>2014-07-24T09:30:56Z</time>
      </trkpt>
      <trkpt lat="45.53033" lon="6.79866">
        <ele>1827.1343994141</ele>
        <time>2014-07-24T09:31:00Z</time>
      </trkpt>
      <trkpt lat="45.53035" lon="6.79867">
        <ele>1827.4730224609</ele>
        <time>2014-07-24T09:31:02Z</time>
      </trkpt>
      <trkpt lat="45.53036" lon="6.7987">
        <ele>1828.5908203125</ele>
        <time>2014-07-24T09:31:04Z</time>
      </trkpt>
      <trkpt lat="45.53038" lon="6.79871">
        <ele>1829.0760498047</ele>
        <time>2014-07-24T09:31:06Z</time>
      </trkpt>
      <trkpt lat="45.53038" lon="6.79873">
        <ele>1829.6665039062</ele>
        <time>2014-07-24T09:31:08Z</time>
      </trkpt>
      <trkpt lat="45.53037" lon="6.79872">
        <ele>1829.5911865234</ele>
        <time>2014-07-24T09:31:10Z</time>
      </trkpt>
      <trkpt lat="45.53039" lon="6.79874">
        <ele>1830.2059326172</ele>
        <time>2014-07-24T09:31:14Z</time>
      </trkpt>
      <trkpt lat="45.5304" lon="6.79874">
        <ele>1830.2640380859</ele>
        <time>2014-07-24T09:31:16Z</time>
      </trkpt>
      <trkpt lat="45.53043" lon="6.79876">
        <ele>1831.0750732422</ele>
        <time>2014-07-24T09:31:20Z</time>
      </trkpt>
      <trkpt lat="45.53046" lon="6.79878">
        <ele>1832.1345214844</ele>
        <time>2014-07-24T09:31:24Z</time>
      </trkpt>
      <trkpt lat="45.53048" lon="6.7988">
        <ele>1832.8031005859</ele>
        <time>2014-07-24T09:31:26Z</time>
      </trkpt>
      <trkpt lat="45.53047" lon="6.79883">
        <ele>1834.1193847656</ele>
        <time>2014-07-24T09:31:28Z</time>
      </trkpt>
      <trkpt lat="45.53048" lon="6.79884">
        <ele>1834.6528320312</ele>
        <time>2014-07-24T09:31:30Z</time>
      </trkpt>
      <trkpt lat="45.53048" lon="6.79884">
        <ele>1834.8337402344</ele>
        <time>2014-07-24T09:31:32Z</time>
      </trkpt>
      <trkpt lat="45.53049" lon="6.79888">
        <ele>1836.2604980469</ele>
        <time>2014-07-24T09:31:38Z</time>
      </trkpt>
      <trkpt lat="45.53048" lon="6.79889">
        <ele>1836.8972167969</ele>
        <time>2014-07-24T09:31:40Z</time>
      </trkpt>
      <trkpt lat="45.53049" lon="6.79891">
        <ele>1837.9620361328</ele>
        <time>2014-07-24T09:31:42Z</time>
      </trkpt>
      <trkpt lat="45.53048" lon="6.79891">
        <ele>1837.5532226562</ele>
        <time>2014-07-24T09:31:43Z</time>
      </trkpt>
      <trkpt lat="45.5305" lon="6.79891">
        <ele>1837.9793701172</ele>
        <time>2014-07-24T09:31:46Z</time>
      </trkpt>
      <trkpt lat="45.53052" lon="6.79892">
        <ele>1838.2474365234</ele>
        <time>2014-07-24T09:31:48Z</time>
      </trkpt>
      <trkpt lat="45.53055" lon="6.79893">
        <ele>1838.9460449219</ele>
        <time>2014-07-24T09:31:52Z</time>
      </trkpt>
      <trkpt lat="45.53056" lon="6.79894">
        <ele>1839.58984375</ele>
        <time>2014-07-24T09:31:54Z</time>
      </trkpt>
      <trkpt lat="45.53056" lon="6.79895">
        <ele>1840.142578125</ele>
        <time>2014-07-24T09:31:58Z</time>
      </trkpt>
      <trkpt lat="45.53055" lon="6.79895">
        <ele>1840.1878662109</ele>
        <time>2014-07-24T09:32:00Z</time>
      </trkpt>
      <trkpt lat="45.53055" lon="6.79896">
        <ele>1840.5952148438</ele>
        <time>2014-07-24T09:32:02Z</time>
      </trkpt>
      <trkpt lat="45.53054" lon="6.79896">
        <ele>1840.4035644531</ele>
        <time>2014-07-24T09:32:04Z</time>
      </trkpt>
      <trkpt lat="45.53053" lon="6.79896">
        <ele>1840.5441894531</ele>
        <time>2014-07-24T09:32:08Z</time>
      </trkpt>
      <trkpt lat="45.53053" lon="6.79897">
        <ele>1840.7802734375</ele>
        <time>2014-07-24T09:32:10Z</time>
      </trkpt>
      <trkpt lat="45.53054" lon="6.79897">
        <ele>1841.0208740234</ele>
        <time>2014-07-24T09:32:12Z</time>
      </trkpt>
      <trkpt lat="45.53055" lon="6.79899">
        <ele>1842.033203125</ele>
        <time>2014-07-24T09:32:16Z</time>
      </trkpt>
      <trkpt lat="45.53055" lon="6.79898">
        <ele>1841.6497802734</ele>
        <time>2014-07-24T09:32:18Z</time>
      </trkpt>
      <trkpt lat="45.53056" lon="6.79899">
        <ele>1842.1451416016</ele>
        <time>2014-07-24T09:32:20Z</time>
      </trkpt>
      <trkpt lat="45.53056" lon="6.79899">
        <ele>1842.3366699219</ele>
        <time>2014-07-24T09:32:22Z</time>
      </trkpt>
      <trkpt lat="45.53059" lon="6.799">
        <ele>1843.384765625</ele>
        <time>2014-07-24T09:32:24Z</time>
      </trkpt>
      <trkpt lat="45.53061" lon="6.79902">
        <ele>1844.8468017578</ele>
        <time>2014-07-24T09:32:26Z</time>
      </trkpt>
      <trkpt lat="45.53061" lon="6.79902">
        <ele>1845.1966552734</ele>
        <time>2014-07-24T09:32:28Z</time>
      </trkpt>
      <trkpt lat="45.53062" lon="6.79902">
        <ele>1845.5792236328</ele>
        <time>2014-07-24T09:32:30Z</time>
      </trkpt>
      <trkpt lat="45.53064" lon="6.79903">
        <ele>1846.4285888672</ele>
        <time>2014-07-24T09:32:32Z</time>
      </trkpt>
      <trkpt lat="45.53071" lon="6.79908">
        <ele>1850.2282714844</ele>
        <time>2014-07-24T09:32:42Z</time>
      </trkpt>
      <trkpt lat="45.53072" lon="6.79908">
        <ele>1850.275390625</ele>
        <time>2014-07-24T09:32:44Z</time>
      </trkpt>
      <trkpt lat="45.53071" lon="6.79909">
        <ele>1850.7585449219</ele>
        <time>2014-07-24T09:32:46Z</time>
      </trkpt>
      <trkpt lat="45.53072" lon="6.7991">
        <ele>1851.2908935547</ele>
        <time>2014-07-24T09:32:48Z</time>
      </trkpt>
      <trkpt lat="45.5307" lon="6.79912">
        <ele>1851.8021240234</ele>
        <time>2014-07-24T09:32:52Z</time>
      </trkpt>
      <trkpt lat="45.53069" lon="6.79912">
        <ele>1851.6079101562</ele>
        <time>2014-07-24T09:32:54Z</time>
      </trkpt>
      <trkpt lat="45.53069" lon="6.79913">
        <ele>1851.8546142578</ele>
        <time>2014-07-24T09:32:56Z</time>
      </trkpt>
      <trkpt lat="45.5307" lon="6.79917">
        <ele>1854.3460693359</ele>
        <time>2014-07-24T09:33:02Z</time>
      </trkpt>
      <trkpt lat="45.53072" lon="6.79917">
        <ele>1854.9094238281</ele>
        <time>2014-07-24T09:33:04Z</time>
      </trkpt>
      <trkpt lat="45.5307" lon="6.79924">
        <ele>1857.2907714844</ele>
        <time>2014-07-24T09:33:14Z</time>
      </trkpt>
      <trkpt lat="45.5307" lon="6.79926">
        <ele>1858.3548583984</ele>
        <time>2014-07-24T09:33:16Z</time>
      </trkpt>
      <trkpt lat="45.53072" lon="6.79928">
        <ele>1859.4549560547</ele>
        <time>2014-07-24T09:33:18Z</time>
      </trkpt>
      <trkpt lat="45.53072" lon="6.79928">
        <ele>1859.8214111328</ele>
        <time>2014-07-24T09:33:20Z</time>
      </trkpt>
      <trkpt lat="45.53072" lon="6.79928">
        <ele>1859.8214111328</ele>
        <time>2014-07-24T09:33:22Z</time>
      </trkpt>
      <trkpt lat="45.53072" lon="6.79928">
        <ele>1859.689453125</ele>
        <time>2014-07-24T09:33:23Z</time>
      </trkpt>
      <trkpt lat="45.53069" lon="6.79925">
        <ele>1857.6627197266</ele>
        <time>2014-07-24T09:33:26Z</time>
      </trkpt>
      <trkpt lat="45.5307" lon="6.79925">
        <ele>1857.9769287109</ele>
        <time>2014-07-24T09:33:28Z</time>
      </trkpt>
      <trkpt lat="45.5307" lon="6.79931">
        <ele>1860.7005615234</ele>
        <time>2014-07-24T09:33:38Z</time>
      </trkpt>
      <trkpt lat="45.53072" lon="6.79934">
        <ele>1862.2470703125</ele>
        <time>2014-07-24T09:33:42Z</time>
      </trkpt>
      <trkpt lat="45.53072" lon="6.79936">
        <ele>1863.3146972656</ele>
        <time>2014-07-24T09:33:46Z</time>
      </trkpt>
      <trkpt lat="45.53072" lon="6.79939">
        <ele>1864.4599609375</ele>
        <time>2014-07-24T09:33:48Z</time>
      </trkpt>
      <trkpt lat="45.5307" lon="6.79941">
        <ele>1864.9672851562</ele>
        <time>2014-07-24T09:33:52Z</time>
      </trkpt>
      <trkpt lat="45.5307" lon="6.79941">
        <ele>1864.9672851562</ele>
        <time>2014-07-24T09:33:53Z</time>
      </trkpt>
      <trkpt lat="45.53073" lon="6.79945">
        <ele>1867.3067626953</ele>
        <time>2014-07-24T09:33:58Z</time>
      </trkpt>
      <trkpt lat="45.53074" lon="6.79949">
        <ele>1868.8649902344</ele>
        <time>2014-07-24T09:34:02Z</time>
      </trkpt>
      <trkpt lat="45.53072" lon="6.79951">
        <ele>1869.0397949219</ele>
        <time>2014-07-24T09:34:04Z</time>
      </trkpt>
      <trkpt lat="45.53072" lon="6.79951">
        <ele>1868.9650878906</ele>
        <time>2014-07-24T09:34:06Z</time>
      </trkpt>
      <trkpt lat="45.53072" lon="6.79951">
        <ele>1869.2136230469</ele>
        <time>2014-07-24T09:34:08Z</time>
      </trkpt>
      <trkpt lat="45.53073" lon="6.79951">
        <ele>1869.3681640625</ele>
        <time>2014-07-24T09:34:10Z</time>
      </trkpt>
      <trkpt lat="45.53074" lon="6.79951">
        <ele>1869.5509033203</ele>
        <time>2014-07-24T09:34:12Z</time>
      </trkpt>
      <trkpt lat="45.53074" lon="6.79952">
        <ele>1869.8784179688</ele>
        <time>2014-07-24T09:34:14Z</time>
      </trkpt>
      <trkpt lat="45.53075" lon="6.79953">
        <ele>1870.4017333984</ele>
        <time>2014-07-24T09:34:16Z</time>
      </trkpt>
      <trkpt lat="45.53074" lon="6.79955">
        <ele>1870.6993408203</ele>
        <time>2014-07-24T09:34:18Z</time>
      </trkpt>
      <trkpt lat="45.53073" lon="6.79959">
        <ele>1871.9527587891</ele>
        <time>2014-07-24T09:34:24Z</time>
      </trkpt>
      <trkpt lat="45.53073" lon="6.7996">
        <ele>1872.2426757812</ele>
        <time>2014-07-24T09:34:26Z</time>
      </trkpt>
      <trkpt lat="45.53074" lon="6.7996">
        <ele>1872.6381835938</ele>
        <time>2014-07-24T09:34:28Z</time>
      </trkpt>
      <trkpt lat="45.53078" lon="6.79962">
        <ele>1874.1861572266</ele>
        <time>2014-07-24T09:34:32Z</time>
      </trkpt>
      <trkpt lat="45.53078" lon="6.79963">
        <ele>1874.2684326172</ele>
        <time>2014-07-24T09:34:34Z</time>
      </trkpt>
      <trkpt lat="45.53078" lon="6.79964">
        <ele>1874.8724365234</ele>
        <time>2014-07-24T09:34:36Z</time>
      </trkpt>
      <trkpt lat="45.53079" lon="6.79965">
        <ele>1875.4752197266</ele>
        <time>2014-07-24T09:34:38Z</time>
      </trkpt>
      <trkpt lat="45.53078" lon="6.79966">
        <ele>1875.4521484375</ele>
        <time>2014-07-24T09:34:40Z</time>
      </trkpt>
      <trkpt lat="45.53079" lon="6.79966">
        <ele>1875.8811035156</ele>
        <time>2014-07-24T09:34:42Z</time>
      </trkpt>
      <trkpt lat="45.53082" lon="6.79967">
        <ele>1876.8756103516</ele>
        <time>2014-07-24T09:34:48Z</time>
      </trkpt>
      <trkpt lat="45.53083" lon="6.79967">
        <ele>1876.8469238281</ele>
        <time>2014-07-24T09:34:50Z</time>
      </trkpt>
      <trkpt lat="45.53082" lon="6.79967">
        <ele>1876.8756103516</ele>
        <time>2014-07-24T09:34:52Z</time>
      </trkpt>
      <trkpt lat="45.53084" lon="6.79968">
        <ele>1877.5141601562</ele>
        <time>2014-07-24T09:34:54Z</time>
      </trkpt>
      <trkpt lat="45.53085" lon="6.79968">
        <ele>1877.9602050781</ele>
        <time>2014-07-24T09:34:56Z</time>
      </trkpt>
      <trkpt lat="45.53086" lon="6.79969">
        <ele>1878.6552734375</ele>
        <time>2014-07-24T09:34:58Z</time>
      </trkpt>
      <trkpt lat="45.53088" lon="6.79971">
        <ele>1879.7740478516</ele>
        <time>2014-07-24T09:35:02Z</time>
      </trkpt>
      <trkpt lat="45.5309" lon="6.79971">
        <ele>1880.2305908203</ele>
        <time>2014-07-24T09:35:04Z</time>
      </trkpt>
      <trkpt lat="45.53089" lon="6.79972">
        <ele>1880.4439697266</ele>
        <time>2014-07-24T09:35:06Z</time>
      </trkpt>
      <trkpt lat="45.53092" lon="6.79978">
        <ele>1883.1630859375</ele>
        <time>2014-07-24T09:35:14Z</time>
      </trkpt>
      <trkpt lat="45.53092" lon="6.79978">
        <ele>1883.1441650391</ele>
        <time>2014-07-24T09:35:16Z</time>
      </trkpt>
      <trkpt lat="45.53092" lon="6.79981">
        <ele>1884.10546875</ele>
        <time>2014-07-24T09:35:20Z</time>
      </trkpt>
      <trkpt lat="45.53091" lon="6.79982">
        <ele>1884.1450195312</ele>
        <time>2014-07-24T09:35:22Z</time>
      </trkpt>
      <trkpt lat="45.5309" lon="6.79987">
        <ele>1885.5251464844</ele>
        <time>2014-07-24T09:35:28Z</time>
      </trkpt>
      <trkpt lat="45.53091" lon="6.79989">
        <ele>1886.3627929688</ele>
        <time>2014-07-24T09:35:30Z</time>
      </trkpt>
      <trkpt lat="45.53088" lon="6.79991">
        <ele>1886.2495117188</ele>
        <time>2014-07-24T09:35:32Z</time>
      </trkpt>
      <trkpt lat="45.53088" lon="6.79992">
        <ele>1886.5705566406</ele>
        <time>2014-07-24T09:35:34Z</time>
      </trkpt>
      <trkpt lat="45.53089" lon="6.79993">
        <ele>1887.1645507812</ele>
        <time>2014-07-24T09:35:36Z</time>
      </trkpt>
      <trkpt lat="45.53091" lon="6.79993">
        <ele>1887.7224121094</ele>
        <time>2014-07-24T09:35:38Z</time>
      </trkpt>
      <trkpt lat="45.53091" lon="6.79994">
        <ele>1888.1120605469</ele>
        <time>2014-07-24T09:35:40Z</time>
      </trkpt>
      <trkpt lat="45.53091" lon="6.79995">
        <ele>1888.2974853516</ele>
        <time>2014-07-24T09:35:42Z</time>
      </trkpt>
      <trkpt lat="45.53091" lon="6.79995">
        <ele>1888.3094482422</ele>
        <time>2014-07-24T09:35:44Z</time>
      </trkpt>
      <trkpt lat="45.53092" lon="6.79998">
        <ele>1889.5093994141</ele>
        <time>2014-07-24T09:35:48Z</time>
      </trkpt>
      <trkpt lat="45.53091" lon="6.80001">
        <ele>1890.2419433594</ele>
        <time>2014-07-24T09:35:52Z</time>
      </trkpt>
      <trkpt lat="45.53092" lon="6.80002">
        <ele>1890.8244628906</ele>
        <time>2014-07-24T09:35:54Z</time>
      </trkpt>
      <trkpt lat="45.53095" lon="6.80009">
        <ele>1894.2740478516</ele>
        <time>2014-07-24T09:36:04Z</time>
      </trkpt>
      <trkpt lat="45.53094" lon="6.8001">
        <ele>1894.6376953125</ele>
        <time>2014-07-24T09:36:06Z</time>
      </trkpt>
      <trkpt lat="45.53093" lon="6.80011">
        <ele>1894.4764404297</ele>
        <time>2014-07-24T09:36:08Z</time>
      </trkpt>
      <trkpt lat="45.53092" lon="6.80012">
        <ele>1894.6151123047</ele>
        <time>2014-07-24T09:36:10Z</time>
      </trkpt>
      <trkpt lat="45.5309" lon="6.80012">
        <ele>1894.263671875</ele>
        <time>2014-07-24T09:36:12Z</time>
      </trkpt>
      <trkpt lat="45.53089" lon="6.80012">
        <ele>1893.8520507812</ele>
        <time>2014-07-24T09:36:14Z</time>
      </trkpt>
      <trkpt lat="45.53086" lon="6.80012">
        <ele>1892.9683837891</ele>
        <time>2014-07-24T09:36:18Z</time>
      </trkpt>
      <trkpt lat="45.53086" lon="6.80014">
        <ele>1893.7127685547</ele>
        <time>2014-07-24T09:36:20Z</time>
      </trkpt>
      <trkpt lat="45.53084" lon="6.80015">
        <ele>1893.4724121094</ele>
        <time>2014-07-24T09:36:24Z</time>
      </trkpt>
      <trkpt lat="45.53084" lon="6.80016">
        <ele>1893.7475585938</ele>
        <time>2014-07-24T09:36:26Z</time>
      </trkpt>
      <trkpt lat="45.53085" lon="6.80018">
        <ele>1894.9569091797</ele>
        <time>2014-07-24T09:36:28Z</time>
      </trkpt>
      <trkpt lat="45.53086" lon="6.8002">
        <ele>1896.0543212891</ele>
        <time>2014-07-24T09:36:32Z</time>
      </trkpt>
      <trkpt lat="45.5309" lon="6.80021">
        <ele>1897.3409423828</ele>
        <time>2014-07-24T09:36:36Z</time>
      </trkpt>
      <trkpt lat="45.53091" lon="6.80021">
        <ele>1897.8562011719</ele>
        <time>2014-07-24T09:36:40Z</time>
      </trkpt>
      <trkpt lat="45.53095" lon="6.80023">
        <ele>1899.6379394531</ele>
        <time>2014-07-24T09:36:46Z</time>
      </trkpt>
      <trkpt lat="45.53096" lon="6.80024">
        <ele>1900.1401367188</ele>
        <time>2014-07-24T09:36:48Z</time>
      </trkpt>
      <trkpt lat="45.53097" lon="6.80024">
        <ele>1900.5357666016</ele>
        <time>2014-07-24T09:36:50Z</time>
      </trkpt>
      <trkpt lat="45.53099" lon="6.80023">
        <ele>1900.7864990234</ele>
        <time>2014-07-24T09:36:52Z</time>
      </trkpt>
      <trkpt lat="45.53101" lon="6.80023">
        <ele>1901.3781738281</ele>
        <time>2014-07-24T09:36:54Z</time>
      </trkpt>
      <trkpt lat="45.53103" lon="6.80024">
        <ele>1902.0451660156</ele>
        <time>2014-07-24T09:36:56Z</time>
      </trkpt>
      <trkpt lat="45.53104" lon="6.80024">
        <ele>1902.3133544922</ele>
        <time>2014-07-24T09:36:58Z</time>
      </trkpt>
      <trkpt lat="45.53105" lon="6.80024">
        <ele>1902.6767578125</ele>
        <time>2014-07-24T09:37:00Z</time>
      </trkpt>
      <trkpt lat="45.53106" lon="6.80024">
        <ele>1903.2015380859</ele>
        <time>2014-07-24T09:37:02Z</time>
      </trkpt>
      <trkpt lat="45.53107" lon="6.80025">
        <ele>1903.6599121094</ele>
        <time>2014-07-24T09:37:04Z</time>
      </trkpt>
      <trkpt lat="45.53108" lon="6.80025">
        <ele>1904.0036621094</ele>
        <time>2014-07-24T09:37:06Z</time>
      </trkpt>
      <trkpt lat="45.53109" lon="6.80025">
        <ele>1904.1495361328</ele>
        <time>2014-07-24T09:37:08Z</time>
      </trkpt>
      <trkpt lat="45.53109" lon="6.80023">
        <ele>1903.494140625</ele>
        <time>2014-07-24T09:37:10Z</time>
      </trkpt>
      <trkpt lat="45.5311" lon="6.80022">
        <ele>1903.4222412109</ele>
        <time>2014-07-24T09:37:12Z</time>
      </trkpt>
      <trkpt lat="45.53111" lon="6.80022">
        <ele>1903.6303710938</ele>
        <time>2014-07-24T09:37:14Z</time>
      </trkpt>
      <trkpt lat="45.53112" lon="6.80022">
        <ele>1904.4720458984</ele>
        <time>2014-07-24T09:37:16Z</time>
      </trkpt>
      <trkpt lat="45.53112" lon="6.80023">
        <ele>1904.8104248047</ele>
        <time>2014-07-24T09:37:18Z</time>
      </trkpt>
      <trkpt lat="45.53113" lon="6.80024">
        <ele>1905.1652832031</ele>
        <time>2014-07-24T09:37:20Z</time>
      </trkpt>
      <trkpt lat="45.53114" lon="6.80024">
        <ele>1905.7235107422</ele>
        <time>2014-07-24T09:37:22Z</time>
      </trkpt>
      <trkpt lat="45.53114" lon="6.80025">
        <ele>1905.9461669922</ele>
        <time>2014-07-24T09:37:24Z</time>
      </trkpt>
      <trkpt lat="45.53115" lon="6.80025">
        <ele>1906.4826660156</ele>
        <time>2014-07-24T09:37:26Z</time>
      </trkpt>
      <trkpt lat="45.53117" lon="6.80026">
        <ele>1907.7784423828</ele>
        <time>2014-07-24T09:37:28Z</time>
      </trkpt>
      <trkpt lat="45.53118" lon="6.80027">
        <ele>1908.3859863281</ele>
        <time>2014-07-24T09:37:30Z</time>
      </trkpt>
      <trkpt lat="45.53119" lon="6.80027">
        <ele>1908.9194335938</ele>
        <time>2014-07-24T09:37:32Z</time>
      </trkpt>
      <trkpt lat="45.53119" lon="6.80028">
        <ele>1909.3054199219</ele>
        <time>2014-07-24T09:37:34Z</time>
      </trkpt>
      <trkpt lat="45.53119" lon="6.80028">
        <ele>1909.43359375</ele>
        <time>2014-07-24T09:37:36Z</time>
      </trkpt>
      <trkpt lat="45.5312" lon="6.80028">
        <ele>1909.6168212891</ele>
        <time>2014-07-24T09:37:38Z</time>
      </trkpt>
      <trkpt lat="45.53121" lon="6.80028">
        <ele>1910.4537353516</ele>
        <time>2014-07-24T09:37:40Z</time>
      </trkpt>
      <trkpt lat="45.53122" lon="6.80028">
        <ele>1910.9682617188</ele>
        <time>2014-07-24T09:37:42Z</time>
      </trkpt>
      <trkpt lat="45.53124" lon="6.80029">
        <ele>1911.82421875</ele>
        <time>2014-07-24T09:37:44Z</time>
      </trkpt>
      <trkpt lat="45.53126" lon="6.80029">
        <ele>1912.9509277344</ele>
        <time>2014-07-24T09:37:46Z</time>
      </trkpt>
      <trkpt lat="45.53127" lon="6.8003">
        <ele>1913.8937988281</ele>
        <time>2014-07-24T09:37:48Z</time>
      </trkpt>
      <trkpt lat="45.53128" lon="6.80032">
        <ele>1914.8532714844</ele>
        <time>2014-07-24T09:37:50Z</time>
      </trkpt>
      <trkpt lat="45.5313" lon="6.80033">
        <ele>1915.880859375</ele>
        <time>2014-07-24T09:37:52Z</time>
      </trkpt>
      <trkpt lat="45.53139" lon="6.80039">
        <ele>1921.4638671875</ele>
        <time>2014-07-24T09:38:06Z</time>
      </trkpt>
      <trkpt lat="45.5314" lon="6.8004">
        <ele>1922.2253417969</ele>
        <time>2014-07-24T09:38:08Z</time>
      </trkpt>
      <trkpt lat="45.53142" lon="6.8004">
        <ele>1923.265625</ele>
        <time>2014-07-24T09:38:12Z</time>
      </trkpt>
      <trkpt lat="45.53143" lon="6.8004">
        <ele>1923.4716796875</ele>
        <time>2014-07-24T09:38:14Z</time>
      </trkpt>
      <trkpt lat="45.53143" lon="6.8004">
        <ele>1924.017578125</ele>
        <time>2014-07-24T09:38:16Z</time>
      </trkpt>
      <trkpt lat="45.53146" lon="6.80041">
        <ele>1925.1453857422</ele>
        <time>2014-07-24T09:41:26Z</time>
      </trkpt>
      <trkpt lat="45.53148" lon="6.80041">
        <ele>1926.2370605469</ele>
        <time>2014-07-24T09:41:30Z</time>
      </trkpt>
      <trkpt lat="45.53149" lon="6.80041">
        <ele>1926.8395996094</ele>
        <time>2014-07-24T09:41:32Z</time>
      </trkpt>
      <trkpt lat="45.5315" lon="6.80041">
        <ele>1927.0456542969</ele>
        <time>2014-07-24T09:41:34Z</time>
      </trkpt>
      <trkpt lat="45.53152" lon="6.80041">
        <ele>1928.2661132812</ele>
        <time>2014-07-24T09:41:36Z</time>
      </trkpt>
      <trkpt lat="45.53154" lon="6.80043">
        <ele>1929.2395019531</ele>
        <time>2014-07-24T09:41:38Z</time>
      </trkpt>
      <trkpt lat="45.53158" lon="6.80044">
        <ele>1931.4333496094</ele>
        <time>2014-07-24T09:41:44Z</time>
      </trkpt>
      <trkpt lat="45.5316" lon="6.80043">
        <ele>1932.2418212891</ele>
        <time>2014-07-24T09:41:46Z</time>
      </trkpt>
      <trkpt lat="45.53162" lon="6.80044">
        <ele>1933.0091552734</ele>
        <time>2014-07-24T09:41:48Z</time>
      </trkpt>
      <trkpt lat="45.53164" lon="6.80045">
        <ele>1934.2038574219</ele>
        <time>2014-07-24T09:41:50Z</time>
      </trkpt>
      <trkpt lat="45.53166" lon="6.80045">
        <ele>1935.5119628906</ele>
        <time>2014-07-24T09:41:54Z</time>
      </trkpt>
      <trkpt lat="45.53168" lon="6.80046">
        <ele>1937.1512451172</ele>
        <time>2014-07-24T09:41:56Z</time>
      </trkpt>
      <trkpt lat="45.5317" lon="6.80046">
        <ele>1939.1002197266</ele>
        <time>2014-07-24T09:41:58Z</time>
      </trkpt>
      <trkpt lat="45.5317" lon="6.80045">
        <ele>1938.3411865234</ele>
        <time>2014-07-24T09:42:00Z</time>
      </trkpt>
      <trkpt lat="45.5317" lon="6.80045">
        <ele>1939.1547851562</ele>
        <time>2014-07-24T09:42:02Z</time>
      </trkpt>
      <trkpt lat="45.53171" lon="6.80045">
        <ele>1939.8588867188</ele>
        <time>2014-07-24T09:42:04Z</time>
      </trkpt>
      <trkpt lat="45.53174" lon="6.80045">
        <ele>1942.1641845703</ele>
        <time>2014-07-24T09:42:08Z</time>
      </trkpt>
      <trkpt lat="45.53175" lon="6.80045">
        <ele>1943.6353759766</ele>
        <time>2014-07-24T09:42:10Z</time>
      </trkpt>
      <trkpt lat="45.53178" lon="6.80045">
        <ele>1946.4182128906</ele>
        <time>2014-07-24T09:42:14Z</time>
      </trkpt>
      <trkpt lat="45.53179" lon="6.80045">
        <ele>1946.9921875</ele>
        <time>2014-07-24T09:42:16Z</time>
      </trkpt>
      <trkpt lat="45.53181" lon="6.80044">
        <ele>1948.2845458984</ele>
        <time>2014-07-24T09:42:18Z</time>
      </trkpt>
      <trkpt lat="45.53182" lon="6.80045">
        <ele>1949.9859619141</ele>
        <time>2014-07-24T09:42:22Z</time>
      </trkpt>
      <trkpt lat="45.53184" lon="6.80046">
        <ele>1951.8778076172</ele>
        <time>2014-07-24T09:42:24Z</time>
      </trkpt>
      <trkpt lat="45.53185" lon="6.80046">
        <ele>1953.2495117188</ele>
        <time>2014-07-24T09:42:26Z</time>
      </trkpt>
      <trkpt lat="45.53186" lon="6.80047">
        <ele>1954.0212402344</ele>
        <time>2014-07-24T09:42:28Z</time>
      </trkpt>
      <trkpt lat="45.53188" lon="6.8004">
        <ele>1953.3872070312</ele>
        <time>2014-07-24T09:42:42Z</time>
      </trkpt>
      <trkpt lat="45.53189" lon="6.80039">
        <ele>1954.2667236328</ele>
        <time>2014-07-24T09:42:44Z</time>
      </trkpt>
      <trkpt lat="45.53191" lon="6.80035">
        <ele>1954.7991943359</ele>
        <time>2014-07-24T09:42:54Z</time>
      </trkpt>
      <trkpt lat="45.53192" lon="6.80035">
        <ele>1955.4759521484</ele>
        <time>2014-07-24T09:42:56Z</time>
      </trkpt>
      <trkpt lat="45.53193" lon="6.80034">
        <ele>1955.9818115234</ele>
        <time>2014-07-24T09:42:58Z</time>
      </trkpt>
      <trkpt lat="45.53194" lon="6.80035">
        <ele>1957.4158935547</ele>
        <time>2014-07-24T09:43:00Z</time>
      </trkpt>
      <trkpt lat="45.53194" lon="6.80035">
        <ele>1957.3988037109</ele>
        <time>2014-07-24T09:43:02Z</time>
      </trkpt>
      <trkpt lat="45.53194" lon="6.80036">
        <ele>1957.2570800781</ele>
        <time>2014-07-24T09:43:04Z</time>
      </trkpt>
      <trkpt lat="45.53194" lon="6.80035">
        <ele>1957.7458496094</ele>
        <time>2014-07-24T09:43:08Z</time>
      </trkpt>
      <trkpt lat="45.53196" lon="6.80034">
        <ele>1958.4219970703</ele>
        <time>2014-07-24T09:43:10Z</time>
      </trkpt>
      <trkpt lat="45.53197" lon="6.80032">
        <ele>1958.3673095703</ele>
        <time>2014-07-24T09:43:16Z</time>
      </trkpt>
      <trkpt lat="45.53197" lon="6.80031">
        <ele>1957.9064941406</ele>
        <time>2014-07-24T09:43:17Z</time>
      </trkpt>
      <trkpt lat="45.532" lon="6.80026">
        <ele>1957.8714599609</ele>
        <time>2014-07-24T09:43:26Z</time>
      </trkpt>
      <trkpt lat="45.532" lon="6.80025">
        <ele>1957.5496826172</ele>
        <time>2014-07-24T09:43:28Z</time>
      </trkpt>
      <trkpt lat="45.532" lon="6.80024">
        <ele>1957.6915283203</ele>
        <time>2014-07-24T09:43:29Z</time>
      </trkpt>
      <trkpt lat="45.53201" lon="6.80024">
        <ele>1958.3984375</ele>
        <time>2014-07-24T09:43:32Z</time>
      </trkpt>
      <trkpt lat="45.53202" lon="6.80024">
        <ele>1958.9495849609</ele>
        <time>2014-07-24T09:43:34Z</time>
      </trkpt>
      <trkpt lat="45.53205" lon="6.80023">
        <ele>1960.3908691406</ele>
        <time>2014-07-24T09:43:40Z</time>
      </trkpt>
      <trkpt lat="45.53206" lon="6.80023">
        <ele>1961.2847900391</ele>
        <time>2014-07-24T09:43:42Z</time>
      </trkpt>
      <trkpt lat="45.53211" lon="6.8002">
        <ele>1963.8575439453</ele>
        <time>2014-07-24T09:43:52Z</time>
      </trkpt>
      <trkpt lat="45.53212" lon="6.8002">
        <ele>1963.9437255859</ele>
        <time>2014-07-24T09:43:54Z</time>
      </trkpt>
      <trkpt lat="45.53214" lon="6.80021">
        <ele>1966.0150146484</ele>
        <time>2014-07-24T09:43:56Z</time>
      </trkpt>
      <trkpt lat="45.53215" lon="6.8002">
        <ele>1966.0909423828</ele>
        <time>2014-07-24T09:43:58Z</time>
      </trkpt>
      <trkpt lat="45.53216" lon="6.8002">
        <ele>1967.1442871094</ele>
        <time>2014-07-24T09:44:00Z</time>
      </trkpt>
      <trkpt lat="45.53217" lon="6.80023">
        <ele>1968.0135498047</ele>
        <time>2014-07-24T09:44:04Z</time>
      </trkpt>
      <trkpt lat="45.53217" lon="6.80023">
        <ele>1968.6114501953</ele>
        <time>2014-07-24T09:44:06Z</time>
      </trkpt>
      <trkpt lat="45.53219" lon="6.80025">
        <ele>1969.9763183594</ele>
        <time>2014-07-24T09:44:08Z</time>
      </trkpt>
      <trkpt lat="45.53222" lon="6.8003">
        <ele>1973.6444091797</ele>
        <time>2014-07-24T09:44:14Z</time>
      </trkpt>
      <trkpt lat="45.53221" lon="6.80031">
        <ele>1973.7834472656</ele>
        <time>2014-07-24T09:44:16Z</time>
      </trkpt>
      <trkpt lat="45.53222" lon="6.80032">
        <ele>1974.341796875</ele>
        <time>2014-07-24T09:44:18Z</time>
      </trkpt>
      <trkpt lat="45.53223" lon="6.80033">
        <ele>1975.9606933594</ele>
        <time>2014-07-24T09:44:20Z</time>
      </trkpt>
      <trkpt lat="45.53224" lon="6.80033">
        <ele>1976.7950439453</ele>
        <time>2014-07-24T09:44:22Z</time>
      </trkpt>
      <trkpt lat="45.53225" lon="6.80033">
        <ele>1977.4456787109</ele>
        <time>2014-07-24T09:44:24Z</time>
      </trkpt>
      <trkpt lat="45.53225" lon="6.80034">
        <ele>1977.9063720703</ele>
        <time>2014-07-24T09:44:26Z</time>
      </trkpt>
      <trkpt lat="45.53226" lon="6.80034">
        <ele>1978.4366455078</ele>
        <time>2014-07-24T09:44:28Z</time>
      </trkpt>
      <trkpt lat="45.53228" lon="6.80034">
        <ele>1980.4007568359</ele>
        <time>2014-07-24T09:44:32Z</time>
      </trkpt>
      <trkpt lat="45.53229" lon="6.80032">
        <ele>1980.1184082031</ele>
        <time>2014-07-24T09:44:40Z</time>
      </trkpt>
      <trkpt lat="45.53229" lon="6.80032">
        <ele>1980.1544189453</ele>
        <time>2014-07-24T09:44:42Z</time>
      </trkpt>
      <trkpt lat="45.5323" lon="6.80033">
        <ele>1980.8743896484</ele>
        <time>2014-07-24T09:44:44Z</time>
      </trkpt>
      <trkpt lat="45.5323" lon="6.80032">
        <ele>1981.07421875</ele>
        <time>2014-07-24T09:44:46Z</time>
      </trkpt>
      <trkpt lat="45.53234" lon="6.80033">
        <ele>1983.9490966797</ele>
        <time>2014-07-24T09:44:52Z</time>
      </trkpt>
      <trkpt lat="45.53238" lon="6.8003">
        <ele>1986.091796875</ele>
        <time>2014-07-24T09:45:00Z</time>
      </trkpt>
      <trkpt lat="45.53241" lon="6.80029">
        <ele>1988.3620605469</ele>
        <time>2014-07-24T09:45:04Z</time>
      </trkpt>
      <trkpt lat="45.53243" lon="6.80026">
        <ele>1988.7429199219</ele>
        <time>2014-07-24T09:45:08Z</time>
      </trkpt>
      <trkpt lat="45.53245" lon="6.80025">
        <ele>1989.953125</ele>
        <time>2014-07-24T09:45:12Z</time>
      </trkpt>
      <trkpt lat="45.53244" lon="6.80024">
        <ele>1989.2452392578</ele>
        <time>2014-07-24T09:45:14Z</time>
      </trkpt>
      <trkpt lat="45.53244" lon="6.80024">
        <ele>1989.205078125</ele>
        <time>2014-07-24T09:45:16Z</time>
      </trkpt>
      <trkpt lat="45.53245" lon="6.80023">
        <ele>1989.9447021484</ele>
        <time>2014-07-24T09:45:18Z</time>
      </trkpt>
      <trkpt lat="45.53247" lon="6.80019">
        <ele>1990.3197021484</ele>
        <time>2014-07-24T09:45:26Z</time>
      </trkpt>
      <trkpt lat="45.53249" lon="6.80019">
        <ele>1991.9982910156</ele>
        <time>2014-07-24T09:45:28Z</time>
      </trkpt>
      <trkpt lat="45.5325" lon="6.80018">
        <ele>1992.0903320312</ele>
        <time>2014-07-24T09:45:30Z</time>
      </trkpt>
      <trkpt lat="45.53251" lon="6.80018">
        <ele>1992.9556884766</ele>
        <time>2014-07-24T09:45:32Z</time>
      </trkpt>
      <trkpt lat="45.53251" lon="6.80018">
        <ele>1992.8450927734</ele>
        <time>2014-07-24T09:45:34Z</time>
      </trkpt>
      <trkpt lat="45.53255" lon="6.80014">
        <ele>1993.9919433594</ele>
        <time>2014-07-24T09:45:42Z</time>
      </trkpt>
      <trkpt lat="45.53255" lon="6.80013">
        <ele>1993.9229736328</ele>
        <time>2014-07-24T09:45:44Z</time>
      </trkpt>
      <trkpt lat="45.53257" lon="6.80012">
        <ele>1994.6713867188</ele>
        <time>2014-07-24T09:45:46Z</time>
      </trkpt>
      <trkpt lat="45.5326" lon="6.80007">
        <ele>1994.970703125</ele>
        <time>2014-07-24T09:45:54Z</time>
      </trkpt>
      <trkpt lat="45.53262" lon="6.80006">
        <ele>1995.5461425781</ele>
        <time>2014-07-24T09:45:56Z</time>
      </trkpt>
      <trkpt lat="45.53263" lon="6.80006">
        <ele>1996.0983886719</ele>
        <time>2014-07-24T09:45:58Z</time>
      </trkpt>
      <trkpt lat="45.53263" lon="6.80005">
        <ele>1996.1610107422</ele>
        <time>2014-07-24T09:46:00Z</time>
      </trkpt>
      <trkpt lat="45.53266" lon="6.80004">
        <ele>1997.4527587891</ele>
        <time>2014-07-24T09:46:04Z</time>
      </trkpt>
      <trkpt lat="45.53267" lon="6.80003">
        <ele>1997.4835205078</ele>
        <time>2014-07-24T09:46:06Z</time>
      </trkpt>
      <trkpt lat="45.53264" lon="6.80003">
        <ele>1996.009765625</ele>
        <time>2014-07-24T09:46:08Z</time>
      </trkpt>
      <trkpt lat="45.53255" lon="6.80004">
        <ele>1991.4466552734</ele>
        <time>2014-07-24T09:46:12Z</time>
      </trkpt>
      <trkpt lat="45.53252" lon="6.80008">
        <ele>1990.3779296875</ele>
        <time>2014-07-24T09:46:16Z</time>
      </trkpt>
      <trkpt lat="45.53251" lon="6.80008">
        <ele>1989.6491699219</ele>
        <time>2014-07-24T09:46:18Z</time>
      </trkpt>
      <trkpt lat="45.53248" lon="6.8001">
        <ele>1988.6391601562</ele>
        <time>2014-07-24T09:46:22Z</time>
      </trkpt>
      <trkpt lat="45.53247" lon="6.80009">
        <ele>1987.7397460938</ele>
        <time>2014-07-24T09:46:24Z</time>
      </trkpt>
      <trkpt lat="45.53247" lon="6.8001">
        <ele>1987.2348632812</ele>
        <time>2014-07-24T09:46:26Z</time>
      </trkpt>
      <trkpt lat="45.53247" lon="6.80009">
        <ele>1987.3519287109</ele>
        <time>2014-07-24T09:46:28Z</time>
      </trkpt>
      <trkpt lat="45.53246" lon="6.8001">
        <ele>1986.9957275391</ele>
        <time>2014-07-24T09:46:30Z</time>
      </trkpt>
      <trkpt lat="45.53246" lon="6.80009">
        <ele>1986.6986083984</ele>
        <time>2014-07-24T09:46:32Z</time>
      </trkpt>
      <trkpt lat="45.53245" lon="6.80008">
        <ele>1985.4846191406</ele>
        <time>2014-07-24T09:46:34Z</time>
      </trkpt>
      <trkpt lat="45.53246" lon="6.80004">
        <ele>1985.4022216797</ele>
        <time>2014-07-24T09:46:40Z</time>
      </trkpt>
      <trkpt lat="45.53247" lon="6.80004">
        <ele>1985.6790771484</ele>
        <time>2014-07-24T09:46:42Z</time>
      </trkpt>
      <trkpt lat="45.53247" lon="6.80003">
        <ele>1986.0699462891</ele>
        <time>2014-07-24T09:46:44Z</time>
      </trkpt>
      <trkpt lat="45.53248" lon="6.80003">
        <ele>1986.5684814453</ele>
        <time>2014-07-24T09:46:46Z</time>
      </trkpt>
      <trkpt lat="45.53246" lon="6.79997">
        <ele>1982.9913330078</ele>
        <time>2014-07-24T09:46:54Z</time>
      </trkpt>
      <trkpt lat="45.53247" lon="6.79995">
        <ele>1982.7608642578</ele>
        <time>2014-07-24T09:46:58Z</time>
      </trkpt>
      <trkpt lat="45.53247" lon="6.79995">
        <ele>1983.0179443359</ele>
        <time>2014-07-24T09:47:00Z</time>
      </trkpt>
      <trkpt lat="45.53248" lon="6.79995">
        <ele>1983.4022216797</ele>
        <time>2014-07-24T09:47:02Z</time>
      </trkpt>
      <trkpt lat="45.53248" lon="6.79995">
        <ele>1983.5495605469</ele>
        <time>2014-07-24T09:47:04Z</time>
      </trkpt>
      <trkpt lat="45.53251" lon="6.79994">
        <ele>1984.8469238281</ele>
        <time>2014-07-24T09:47:08Z</time>
      </trkpt>
      <trkpt lat="45.53251" lon="6.7999">
        <ele>1983.5272216797</ele>
        <time>2014-07-24T09:47:14Z</time>
      </trkpt>
      <trkpt lat="45.53252" lon="6.7999">
        <ele>1984.5744628906</ele>
        <time>2014-07-24T09:47:16Z</time>
      </trkpt>
      <trkpt lat="45.53254" lon="6.7999">
        <ele>1985.455078125</ele>
        <time>2014-07-24T09:47:18Z</time>
      </trkpt>
      <trkpt lat="45.53255" lon="6.79986">
        <ele>1984.5678710938</ele>
        <time>2014-07-24T09:47:22Z</time>
      </trkpt>
      <trkpt lat="45.53257" lon="6.79985">
        <ele>1985.0305175781</ele>
        <time>2014-07-24T09:47:24Z</time>
      </trkpt>
      <trkpt lat="45.53256" lon="6.79984">
        <ele>1984.5074462891</ele>
        <time>2014-07-24T09:47:26Z</time>
      </trkpt>
      <trkpt lat="45.53257" lon="6.79981">
        <ele>1983.5601806641</ele>
        <time>2014-07-24T09:47:32Z</time>
      </trkpt>
      <trkpt lat="45.53258" lon="6.7998">
        <ele>1984.0642089844</ele>
        <time>2014-07-24T09:47:36Z</time>
      </trkpt>
      <trkpt lat="45.53259" lon="6.79979">
        <ele>1983.9632568359</ele>
        <time>2014-07-24T09:47:38Z</time>
      </trkpt>
      <trkpt lat="45.5326" lon="6.79979">
        <ele>1984.5433349609</ele>
        <time>2014-07-24T09:47:40Z</time>
      </trkpt>
      <trkpt lat="45.53259" lon="6.79978">
        <ele>1983.3758544922</ele>
        <time>2014-07-24T09:47:42Z</time>
      </trkpt>
      <trkpt lat="45.53259" lon="6.79977">
        <ele>1983.6357421875</ele>
        <time>2014-07-24T09:47:44Z</time>
      </trkpt>
      <trkpt lat="45.53258" lon="6.7997">
        <ele>1980.0435791016</ele>
        <time>2014-07-24T09:47:56Z</time>
      </trkpt>
      <trkpt lat="45.53258" lon="6.7997">
        <ele>1980.4761962891</ele>
        <time>2014-07-24T09:47:58Z</time>
      </trkpt>
      <trkpt lat="45.53258" lon="6.7997">
        <ele>1980.3273925781</ele>
        <time>2014-07-24T09:48:00Z</time>
      </trkpt>
      <trkpt lat="45.53259" lon="6.79969">
        <ele>1980.8802490234</ele>
        <time>2014-07-24T09:48:02Z</time>
      </trkpt>
      <trkpt lat="45.5326" lon="6.79966">
        <ele>1980.6337890625</ele>
        <time>2014-07-24T09:48:06Z</time>
      </trkpt>
      <trkpt lat="45.53262" lon="6.79966">
        <ele>1981.3330078125</ele>
        <time>2014-07-24T09:48:08Z</time>
      </trkpt>
      <trkpt lat="45.53266" lon="6.79956">
        <ele>1980.8210449219</ele>
        <time>2014-07-24T09:48:20Z</time>
      </trkpt>
      <trkpt lat="45.53268" lon="6.79956">
        <ele>1981.62890625</ele>
        <time>2014-07-24T09:48:22Z</time>
      </trkpt>
      <trkpt lat="45.53269" lon="6.79955">
        <ele>1982.0557861328</ele>
        <time>2014-07-24T09:48:24Z</time>
      </trkpt>
      <trkpt lat="45.5327" lon="6.79955">
        <ele>1982.6815185547</ele>
        <time>2014-07-24T09:48:26Z</time>
      </trkpt>
      <trkpt lat="45.53284" lon="6.79952">
        <ele>1989.48046875</ele>
        <time>2014-07-24T09:48:28Z</time>
      </trkpt>
      <trkpt lat="45.53282" lon="6.7995">
        <ele>1987.4204101562</ele>
        <time>2014-07-24T09:48:30Z</time>
      </trkpt>
      <trkpt lat="45.53284" lon="6.79949">
        <ele>1987.9526367188</ele>
        <time>2014-07-24T09:48:32Z</time>
      </trkpt>
      <trkpt lat="45.53259" lon="6.79934">
        <ele>1969.7960205078</ele>
        <time>2014-07-24T09:48:34Z</time>
      </trkpt>
      <trkpt lat="45.53258" lon="6.79929">
        <ele>1967.5010986328</ele>
        <time>2014-07-24T09:48:38Z</time>
      </trkpt>
      <trkpt lat="45.53259" lon="6.79928">
        <ele>1968.0125732422</ele>
        <time>2014-07-24T09:48:40Z</time>
      </trkpt>
      <trkpt lat="45.53261" lon="6.79917">
        <ele>1965.5217285156</ele>
        <time>2014-07-24T09:48:58Z</time>
      </trkpt>
      <trkpt lat="45.53262" lon="6.79913">
        <ele>1966.4727783203</ele>
        <time>2014-07-24T09:49:02Z</time>
      </trkpt>
      <trkpt lat="45.53263" lon="6.79913">
        <ele>1967.2873535156</ele>
        <time>2014-07-24T09:49:04Z</time>
      </trkpt>
      <trkpt lat="45.53263" lon="6.79911">
        <ele>1967.7188720703</ele>
        <time>2014-07-24T09:49:06Z</time>
      </trkpt>
      <trkpt lat="45.5326" lon="6.79894">
        <ele>1969.0043945312</ele>
        <time>2014-07-24T09:49:24Z</time>
      </trkpt>
      <trkpt lat="45.53261" lon="6.79893">
        <ele>1969.8205566406</ele>
        <time>2014-07-24T09:49:26Z</time>
      </trkpt>
      <trkpt lat="45.53263" lon="6.79893">
        <ele>1970.6766357422</ele>
        <time>2014-07-24T09:49:28Z</time>
      </trkpt>
      <trkpt lat="45.53264" lon="6.79893">
        <ele>1971.478515625</ele>
        <time>2014-07-24T09:49:30Z</time>
      </trkpt>
      <trkpt lat="45.53268" lon="6.79897">
        <ele>1972.7779541016</ele>
        <time>2014-07-24T09:49:38Z</time>
      </trkpt>
      <trkpt lat="45.53268" lon="6.79897">
        <ele>1972.4805908203</ele>
        <time>2014-07-24T09:49:40Z</time>
      </trkpt>
      <trkpt lat="45.53275" lon="6.79905">
        <ele>1975.4011230469</ele>
        <time>2014-07-24T09:49:54Z</time>
      </trkpt>
      <trkpt lat="45.53276" lon="6.79905">
        <ele>1976.0031738281</ele>
        <time>2014-07-24T09:49:56Z</time>
      </trkpt>
      <trkpt lat="45.53278" lon="6.79905">
        <ele>1976.6473388672</ele>
        <time>2014-07-24T09:49:58Z</time>
      </trkpt>
      <trkpt lat="45.53279" lon="6.79905">
        <ele>1977.2124023438</ele>
        <time>2014-07-24T09:50:00Z</time>
      </trkpt>
      <trkpt lat="45.53283" lon="6.79908">
        <ele>1979.1862792969</ele>
        <time>2014-07-24T09:50:08Z</time>
      </trkpt>
      <trkpt lat="45.53286" lon="6.79908">
        <ele>1980.6739501953</ele>
        <time>2014-07-24T09:50:12Z</time>
      </trkpt>
      <trkpt lat="45.53286" lon="6.79909">
        <ele>1981.0635986328</ele>
        <time>2014-07-24T09:50:14Z</time>
      </trkpt>
      <trkpt lat="45.53287" lon="6.7991">
        <ele>1981.2277832031</ele>
        <time>2014-07-24T09:50:16Z</time>
      </trkpt>
      <trkpt lat="45.53287" lon="6.7991">
        <ele>1981.2308349609</ele>
        <time>2014-07-24T09:50:18Z</time>
      </trkpt>
      <trkpt lat="45.53288" lon="6.79911">
        <ele>1981.8702392578</ele>
        <time>2014-07-24T09:50:20Z</time>
      </trkpt>
      <trkpt lat="45.53288" lon="6.79911">
        <ele>1982.0939941406</ele>
        <time>2014-07-24T09:50:22Z</time>
      </trkpt>
      <trkpt lat="45.53292" lon="6.79914">
        <ele>1984.5461425781</ele>
        <time>2014-07-24T09:50:34Z</time>
      </trkpt>
      <trkpt lat="45.53293" lon="6.79914">
        <ele>1984.7827148438</ele>
        <time>2014-07-24T09:50:35Z</time>
      </trkpt>
      <trkpt lat="45.53293" lon="6.79914">
        <ele>1984.7810058594</ele>
        <time>2014-07-24T09:50:38Z</time>
      </trkpt>
      <trkpt lat="45.53293" lon="6.79915">
        <ele>1985.0200195312</ele>
        <time>2014-07-24T09:50:40Z</time>
      </trkpt>
      <trkpt lat="45.53293" lon="6.79914">
        <ele>1985.0213623047</ele>
        <time>2014-07-24T09:50:44Z</time>
      </trkpt>
      <trkpt lat="45.53294" lon="6.79914">
        <ele>1985.2600097656</ele>
        <time>2014-07-24T09:50:46Z</time>
      </trkpt>
      <trkpt lat="45.53294" lon="6.79914">
        <ele>1985.2598876953</ele>
        <time>2014-07-24T09:50:48Z</time>
      </trkpt>
      <trkpt lat="45.53294" lon="6.79915">
        <ele>1985.7403564453</ele>
        <time>2014-07-24T09:50:50Z</time>
      </trkpt>
      <trkpt lat="45.53294" lon="6.79914">
        <ele>1985.4995117188</ele>
        <time>2014-07-24T09:50:52Z</time>
      </trkpt>
      <trkpt lat="45.53295" lon="6.79914">
        <ele>1986.2170410156</ele>
        <time>2014-07-24T09:50:54Z</time>
      </trkpt>
      <trkpt lat="45.53296" lon="6.79915">
        <ele>1986.7053222656</ele>
        <time>2014-07-24T09:50:56Z</time>
      </trkpt>
      <trkpt lat="45.53297" lon="6.79915">
        <ele>1987.1936035156</ele>
        <time>2014-07-24T09:50:58Z</time>
      </trkpt>
      <trkpt lat="45.53297" lon="6.79915">
        <ele>1987.4310302734</ele>
        <time>2014-07-24T09:51:00Z</time>
      </trkpt>
      <trkpt lat="45.53297" lon="6.79915">
        <ele>1987.6837158203</ele>
        <time>2014-07-24T09:51:02Z</time>
      </trkpt>
      <trkpt lat="45.53298" lon="6.79915">
        <ele>1988.1743164062</ele>
        <time>2014-07-24T09:51:04Z</time>
      </trkpt>
      <trkpt lat="45.53299" lon="6.79917">
        <ele>1988.4683837891</ele>
        <time>2014-07-24T09:51:06Z</time>
      </trkpt>
      <trkpt lat="45.53299" lon="6.79916">
        <ele>1988.7060546875</ele>
        <time>2014-07-24T09:51:08Z</time>
      </trkpt>
      <trkpt lat="45.53299" lon="6.79916">
        <ele>1988.4300537109</ele>
        <time>2014-07-24T09:51:10Z</time>
      </trkpt>
      <trkpt lat="45.53299" lon="6.79914">
        <ele>1988.5982666016</ele>
        <time>2014-07-24T09:51:12Z</time>
      </trkpt>
      <trkpt lat="45.533" lon="6.79914">
        <ele>1989.5313720703</ele>
        <time>2014-07-24T09:51:14Z</time>
      </trkpt>
      <trkpt lat="45.53302" lon="6.79914">
        <ele>1990.4842529297</ele>
        <time>2014-07-24T09:51:16Z</time>
      </trkpt>
      <trkpt lat="45.53305" lon="6.79913">
        <ele>1992.0654296875</ele>
        <time>2014-07-24T09:51:20Z</time>
      </trkpt>
      <trkpt lat="45.53306" lon="6.7991">
        <ele>1992.5557861328</ele>
        <time>2014-07-24T09:51:24Z</time>
      </trkpt>
      <trkpt lat="45.53305" lon="6.79908">
        <ele>1991.8166503906</ele>
        <time>2014-07-24T09:51:27Z</time>
      </trkpt>
      <trkpt lat="45.53305" lon="6.79908">
        <ele>1991.8215332031</ele>
        <time>2014-07-24T09:51:30Z</time>
      </trkpt>
      <trkpt lat="45.53305" lon="6.79908">
        <ele>1991.796875</ele>
        <time>2014-07-24T09:51:31Z</time>
      </trkpt>
      <trkpt lat="45.53305" lon="6.79908">
        <ele>1991.9841308594</ele>
        <time>2014-07-24T09:51:33Z</time>
      </trkpt>
      <trkpt lat="45.53306" lon="6.79908">
        <ele>1992.1743164062</ele>
        <time>2014-07-24T09:51:35Z</time>
      </trkpt>
      <trkpt lat="45.53307" lon="6.79908">
        <ele>1992.4429931641</ele>
        <time>2014-07-24T09:51:40Z</time>
      </trkpt>
      <trkpt lat="45.53306" lon="6.79908">
        <ele>1992.2744140625</ele>
        <time>2014-07-24T09:51:42Z</time>
      </trkpt>
      <trkpt lat="45.53306" lon="6.79908">
        <ele>1992.2690429688</ele>
        <time>2014-07-24T09:51:43Z</time>
      </trkpt>
      <trkpt lat="45.53306" lon="6.79907">
        <ele>1992.0960693359</ele>
        <time>2014-07-24T09:51:46Z</time>
      </trkpt>
      <trkpt lat="45.53306" lon="6.79907">
        <ele>1992.1013183594</ele>
        <time>2014-07-24T09:51:48Z</time>
      </trkpt>
      <trkpt lat="45.53305" lon="6.79908">
        <ele>1991.9484863281</ele>
        <time>2014-07-24T09:51:50Z</time>
      </trkpt>
      <trkpt lat="45.53305" lon="6.79908">
        <ele>1991.9637451172</ele>
        <time>2014-07-24T09:51:52Z</time>
      </trkpt>
      <trkpt lat="45.53305" lon="6.79908">
        <ele>1991.7673339844</ele>
        <time>2014-07-24T09:51:54Z</time>
      </trkpt>
      <trkpt lat="45.53305" lon="6.79909">
        <ele>1991.8708496094</ele>
        <time>2014-07-24T09:52:04Z</time>
      </trkpt>
      <trkpt lat="45.53305" lon="6.79909">
        <ele>1991.8708496094</ele>
        <time>2014-07-24T09:52:06Z</time>
      </trkpt>
      <trkpt lat="45.53305" lon="6.79909">
        <ele>1992.0708007812</ele>
        <time>2014-07-24T09:52:08Z</time>
      </trkpt>
      <trkpt lat="45.53305" lon="6.79909">
        <ele>1992.0606689453</ele>
        <time>2014-07-24T09:52:10Z</time>
      </trkpt>
      <trkpt lat="45.53306" lon="6.79909">
        <ele>1992.2264404297</ele>
        <time>2014-07-24T09:52:12Z</time>
      </trkpt>
      <trkpt lat="45.53306" lon="6.79909">
        <ele>1992.2264404297</ele>
        <time>2014-07-24T09:52:14Z</time>
      </trkpt>
      <trkpt lat="45.53306" lon="6.79908">
        <ele>1992.2056884766</ele>
        <time>2014-07-24T09:52:16Z</time>
      </trkpt>
      <trkpt lat="45.53306" lon="6.79908">
        <ele>1992.2056884766</ele>
        <time>2014-07-24T09:52:18Z</time>
      </trkpt>
      <trkpt lat="45.53306" lon="6.79909">
        <ele>1992.2213134766</ele>
        <time>2014-07-24T09:52:20Z</time>
      </trkpt>
      <trkpt lat="45.53305" lon="6.79909">
        <ele>1992.0504150391</ele>
        <time>2014-07-24T09:52:22Z</time>
      </trkpt>
      <trkpt lat="45.53306" lon="6.79908">
        <ele>1992.2160644531</ele>
        <time>2014-07-24T09:52:24Z</time>
      </trkpt>
      <trkpt lat="45.53306" lon="6.79909">
        <ele>1992.3752441406</ele>
        <time>2014-07-24T09:52:26Z</time>
      </trkpt>
      <trkpt lat="45.53308" lon="6.7991">
        <ele>1993.3330078125</ele>
        <time>2014-07-24T09:52:32Z</time>
      </trkpt>
      <trkpt lat="45.53308" lon="6.7991">
        <ele>1993.2924804688</ele>
        <time>2014-07-24T09:52:38Z</time>
      </trkpt>
      <trkpt lat="45.53308" lon="6.7991">
        <ele>1993.4265136719</ele>
        <time>2014-07-24T09:52:40Z</time>
      </trkpt>
      <trkpt lat="45.53313" lon="6.7991">
        <ele>1995.2912597656</ele>
        <time>2014-07-24T09:52:44Z</time>
      </trkpt>
      <trkpt lat="45.53317" lon="6.79908">
        <ele>1996.4611816406</ele>
        <time>2014-07-24T09:52:48Z</time>
      </trkpt>
      <trkpt lat="45.53343" lon="6.7988">
        <ele>1999.3878173828</ele>
        <time>2014-07-24T09:53:16Z</time>
      </trkpt>
      <trkpt lat="45.53357" lon="6.7987">
        <ele>2001.7542724609</ele>
        <time>2014-07-24T09:53:30Z</time>
      </trkpt>
      <trkpt lat="45.5336" lon="6.7987">
        <ele>2002.3892822266</ele>
        <time>2014-07-24T09:53:32Z</time>
      </trkpt>
      <trkpt lat="45.53362" lon="6.7987">
        <ele>2002.923828125</ele>
        <time>2014-07-24T09:53:34Z</time>
      </trkpt>
      <trkpt lat="45.53366" lon="6.79875">
        <ele>2004.0344238281</ele>
        <time>2014-07-24T09:53:40Z</time>
      </trkpt>
      <trkpt lat="45.53367" lon="6.79876">
        <ele>2004.3502197266</ele>
        <time>2014-07-24T09:53:42Z</time>
      </trkpt>
      <trkpt lat="45.53368" lon="6.79877">
        <ele>2004.7244873047</ele>
        <time>2014-07-24T09:53:44Z</time>
      </trkpt>
      <trkpt lat="45.53368" lon="6.7988">
        <ele>2005.4969482422</ele>
        <time>2014-07-24T09:53:50Z</time>
      </trkpt>
      <trkpt lat="45.53368" lon="6.79881">
        <ele>2005.9174804688</ele>
        <time>2014-07-24T09:53:52Z</time>
      </trkpt>
      <trkpt lat="45.53371" lon="6.79886">
        <ele>2007.2307128906</ele>
        <time>2014-07-24T09:53:58Z</time>
      </trkpt>
      <trkpt lat="45.53373" lon="6.79887">
        <ele>2007.5843505859</ele>
        <time>2014-07-24T09:54:00Z</time>
      </trkpt>
      <trkpt lat="45.53374" lon="6.79889">
        <ele>2008.1507568359</ele>
        <time>2014-07-24T09:54:02Z</time>
      </trkpt>
      <trkpt lat="45.53387" lon="6.79909">
        <ele>2012.9372558594</ele>
        <time>2014-07-24T09:54:20Z</time>
      </trkpt>
      <trkpt lat="45.53388" lon="6.79911">
        <ele>2013.5075683594</ele>
        <time>2014-07-24T09:54:22Z</time>
      </trkpt>
      <trkpt lat="45.53397" lon="6.79928">
        <ele>2017.8823242188</ele>
        <time>2014-07-24T09:54:36Z</time>
      </trkpt>
      <trkpt lat="45.53398" lon="6.79929">
        <ele>2018.3411865234</ele>
        <time>2014-07-24T09:54:38Z</time>
      </trkpt>
      <trkpt lat="45.53399" lon="6.79932">
        <ele>2018.9072265625</ele>
        <time>2014-07-24T09:54:40Z</time>
      </trkpt>
      <trkpt lat="45.53401" lon="6.79933">
        <ele>2019.1157226562</ele>
        <time>2014-07-24T09:54:42Z</time>
      </trkpt>
      <trkpt lat="45.53402" lon="6.79934">
        <ele>2019.3968505859</ele>
        <time>2014-07-24T09:54:44Z</time>
      </trkpt>
      <trkpt lat="45.53406" lon="6.79938">
        <ele>2020.2109375</ele>
        <time>2014-07-24T09:54:54Z</time>
      </trkpt>
      <trkpt lat="45.53407" lon="6.79947">
        <ele>2022.8729248047</ele>
        <time>2014-07-24T09:55:04Z</time>
      </trkpt>
      <trkpt lat="45.5341" lon="6.79953">
        <ele>2024.2755126953</ele>
        <time>2014-07-24T09:55:10Z</time>
      </trkpt>
      <trkpt lat="45.5341" lon="6.79955">
        <ele>2024.7999267578</ele>
        <time>2014-07-24T09:55:12Z</time>
      </trkpt>
      <trkpt lat="45.53411" lon="6.79956">
        <ele>2025.1508789062</ele>
        <time>2014-07-24T09:55:14Z</time>
      </trkpt>
      <trkpt lat="45.53413" lon="6.79957">
        <ele>2025.2707519531</ele>
        <time>2014-07-24T09:55:16Z</time>
      </trkpt>
      <trkpt lat="45.53413" lon="6.79959">
        <ele>2025.8443603516</ele>
        <time>2014-07-24T09:55:20Z</time>
      </trkpt>
      <trkpt lat="45.53415" lon="6.7996">
        <ele>2026.1014404297</ele>
        <time>2014-07-24T09:55:22Z</time>
      </trkpt>
      <trkpt lat="45.53416" lon="6.79961">
        <ele>2026.4940185547</ele>
        <time>2014-07-24T09:55:24Z</time>
      </trkpt>
      <trkpt lat="45.53415" lon="6.79963">
        <ele>2027.0075683594</ele>
        <time>2014-07-24T09:55:26Z</time>
      </trkpt>
      <trkpt lat="45.53417" lon="6.79967">
        <ele>2028.3326416016</ele>
        <time>2014-07-24T09:55:30Z</time>
      </trkpt>
      <trkpt lat="45.53418" lon="6.79971">
        <ele>2029.5573730469</ele>
        <time>2014-07-24T09:55:34Z</time>
      </trkpt>
      <trkpt lat="45.53419" lon="6.79973">
        <ele>2030.2214355469</ele>
        <time>2014-07-24T09:55:38Z</time>
      </trkpt>
      <trkpt lat="45.53421" lon="6.79974">
        <ele>2030.3702392578</ele>
        <time>2014-07-24T09:55:40Z</time>
      </trkpt>
      <trkpt lat="45.53422" lon="6.79977">
        <ele>2030.7926025391</ele>
        <time>2014-07-24T09:55:42Z</time>
      </trkpt>
      <trkpt lat="45.53424" lon="6.79978">
        <ele>2030.9409179688</ele>
        <time>2014-07-24T09:55:44Z</time>
      </trkpt>
      <trkpt lat="45.53425" lon="6.79979">
        <ele>2031.0689697266</ele>
        <time>2014-07-24T09:55:46Z</time>
      </trkpt>
      <trkpt lat="45.53427" lon="6.7998">
        <ele>2031.0629882812</ele>
        <time>2014-07-24T09:55:48Z</time>
      </trkpt>
      <trkpt lat="45.53428" lon="6.79981">
        <ele>2031.1804199219</ele>
        <time>2014-07-24T09:55:50Z</time>
      </trkpt>
      <trkpt lat="45.53428" lon="6.79982">
        <ele>2031.2369384766</ele>
        <time>2014-07-24T09:55:52Z</time>
      </trkpt>
      <trkpt lat="45.53429" lon="6.79983">
        <ele>2031.2998046875</ele>
        <time>2014-07-24T09:55:54Z</time>
      </trkpt>
      <trkpt lat="45.53429" lon="6.79984">
        <ele>2031.4097900391</ele>
        <time>2014-07-24T09:55:56Z</time>
      </trkpt>
      <trkpt lat="45.53429" lon="6.79986">
        <ele>2031.6159667969</ele>
        <time>2014-07-24T09:55:58Z</time>
      </trkpt>
      <trkpt lat="45.53431" lon="6.79989">
        <ele>2031.8276367188</ele>
        <time>2014-07-24T09:56:02Z</time>
      </trkpt>
      <trkpt lat="45.53431" lon="6.7999">
        <ele>2031.9255371094</ele>
        <time>2014-07-24T09:56:04Z</time>
      </trkpt>
      <trkpt lat="45.53429" lon="6.79991">
        <ele>2032.240234375</ele>
        <time>2014-07-24T09:56:06Z</time>
      </trkpt>
      <trkpt lat="45.53429" lon="6.79992">
        <ele>2032.3349609375</ele>
        <time>2014-07-24T09:56:08Z</time>
      </trkpt>
      <trkpt lat="45.53429" lon="6.79993">
        <ele>2032.4857177734</ele>
        <time>2014-07-24T09:56:10Z</time>
      </trkpt>
      <trkpt lat="45.53429" lon="6.79994">
        <ele>2032.5690917969</ele>
        <time>2014-07-24T09:56:12Z</time>
      </trkpt>
      <trkpt lat="45.53433" lon="6.79999">
        <ele>2032.4510498047</ele>
        <time>2014-07-24T09:56:16Z</time>
      </trkpt>
      <trkpt lat="45.53435" lon="6.80003">
        <ele>2032.8657226562</ele>
        <time>2014-07-24T09:56:20Z</time>
      </trkpt>
      <trkpt lat="45.53436" lon="6.80004">
        <ele>2032.7037353516</ele>
        <time>2014-07-24T09:56:22Z</time>
      </trkpt>
      <trkpt lat="45.53436" lon="6.80005">
        <ele>2032.8916015625</ele>
        <time>2014-07-24T09:56:24Z</time>
      </trkpt>
      <trkpt lat="45.53437" lon="6.80007">
        <ele>2033.2553710938</ele>
        <time>2014-07-24T09:56:26Z</time>
      </trkpt>
      <trkpt lat="45.53437" lon="6.80019">
        <ele>2035.8465576172</ele>
        <time>2014-07-24T09:56:38Z</time>
      </trkpt>
      <trkpt lat="45.53438" lon="6.8002">
        <ele>2036.1184082031</ele>
        <time>2014-07-24T09:56:40Z</time>
      </trkpt>
      <trkpt lat="45.53439" lon="6.80022">
        <ele>2036.2547607422</ele>
        <time>2014-07-24T09:56:42Z</time>
      </trkpt>
      <trkpt lat="45.5344" lon="6.80023">
        <ele>2036.4908447266</ele>
        <time>2014-07-24T09:56:44Z</time>
      </trkpt>
      <trkpt lat="45.5344" lon="6.80023">
        <ele>2036.4404296875</ele>
        <time>2014-07-24T09:56:46Z</time>
      </trkpt>
      <trkpt lat="45.5344" lon="6.80023">
        <ele>2036.5573730469</ele>
        <time>2014-07-24T09:56:48Z</time>
      </trkpt>
      <trkpt lat="45.5344" lon="6.80023">
        <ele>2036.4749755859</ele>
        <time>2014-07-24T09:56:50Z</time>
      </trkpt>
      <trkpt lat="45.53441" lon="6.80022">
        <ele>2036.0307617188</ele>
        <time>2014-07-24T09:56:52Z</time>
      </trkpt>
      <trkpt lat="45.53442" lon="6.80021">
        <ele>2035.6015625</ele>
        <time>2014-07-24T09:56:54Z</time>
      </trkpt>
      <trkpt lat="45.53444" lon="6.80021">
        <ele>2035.4877929688</ele>
        <time>2014-07-24T09:56:56Z</time>
      </trkpt>
      <trkpt lat="45.53444" lon="6.80021">
        <ele>2035.5115966797</ele>
        <time>2014-07-24T09:56:58Z</time>
      </trkpt>
      <trkpt lat="45.53445" lon="6.80022">
        <ele>2035.6286621094</ele>
        <time>2014-07-24T09:57:00Z</time>
      </trkpt>
      <trkpt lat="45.53447" lon="6.80021">
        <ele>2035.7194824219</ele>
        <time>2014-07-24T09:57:02Z</time>
      </trkpt>
      <trkpt lat="45.53447" lon="6.80019">
        <ele>2035.4998779297</ele>
        <time>2014-07-24T09:57:04Z</time>
      </trkpt>
      <trkpt lat="45.53447" lon="6.80017">
        <ele>2034.9128417969</ele>
        <time>2014-07-24T09:57:06Z</time>
      </trkpt>
      <trkpt lat="45.53452" lon="6.80001">
        <ele>2033.0095214844</ele>
        <time>2014-07-24T09:57:22Z</time>
      </trkpt>
      <trkpt lat="45.53453" lon="6.80001">
        <ele>2033.6651611328</ele>
        <time>2014-07-24T09:57:24Z</time>
      </trkpt>
      <trkpt lat="45.53454" lon="6.80003">
        <ele>2034.3449707031</ele>
        <time>2014-07-24T09:57:26Z</time>
      </trkpt>
      <trkpt lat="45.5346" lon="6.80012">
        <ele>2037.6148681641</ele>
        <time>2014-07-24T09:57:40Z</time>
      </trkpt>
      <trkpt lat="45.53463" lon="6.80013">
        <ele>2038.4577636719</ele>
        <time>2014-07-24T09:57:44Z</time>
      </trkpt>
      <trkpt lat="45.53465" lon="6.80011">
        <ele>2038.9581298828</ele>
        <time>2014-07-24T09:57:50Z</time>
      </trkpt>
      <trkpt lat="45.53467" lon="6.80012">
        <ele>2039.4345703125</ele>
        <time>2014-07-24T09:57:52Z</time>
      </trkpt>
      <trkpt lat="45.53469" lon="6.80017">
        <ele>2040.3217773438</ele>
        <time>2014-07-24T09:57:58Z</time>
      </trkpt>
      <trkpt lat="45.53468" lon="6.80019">
        <ele>2040.1262207031</ele>
        <time>2014-07-24T09:58:02Z</time>
      </trkpt>
      <trkpt lat="45.53468" lon="6.80019">
        <ele>2040.1413574219</ele>
        <time>2014-07-24T09:58:04Z</time>
      </trkpt>
      <trkpt lat="45.53469" lon="6.80019">
        <ele>2040.2208251953</ele>
        <time>2014-07-24T09:58:06Z</time>
      </trkpt>
      <trkpt lat="45.53471" lon="6.80036">
        <ele>2040.8885498047</ele>
        <time>2014-07-24T09:58:20Z</time>
      </trkpt>
      <trkpt lat="45.53471" lon="6.80035">
        <ele>2040.8989257812</ele>
        <time>2014-07-24T09:58:22Z</time>
      </trkpt>
      <trkpt lat="45.53471" lon="6.80034">
        <ele>2040.8543701172</ele>
        <time>2014-07-24T09:58:23Z</time>
      </trkpt>
      <trkpt lat="45.53471" lon="6.80032">
        <ele>2040.8686523438</ele>
        <time>2014-07-24T09:58:26Z</time>
      </trkpt>
      <trkpt lat="45.53472" lon="6.80032">
        <ele>2040.9523925781</ele>
        <time>2014-07-24T09:58:30Z</time>
      </trkpt>
      <trkpt lat="45.53472" lon="6.80033">
        <ele>2040.9532470703</ele>
        <time>2014-07-24T09:58:32Z</time>
      </trkpt>
      <trkpt lat="45.53472" lon="6.80033">
        <ele>2040.9916992188</ele>
        <time>2014-07-24T09:58:34Z</time>
      </trkpt>
      <trkpt lat="45.53472" lon="6.80033">
        <ele>2040.9916992188</ele>
        <time>2014-07-24T09:58:36Z</time>
      </trkpt>
      <trkpt lat="45.53473" lon="6.80033">
        <ele>2041.0999755859</ele>
        <time>2014-07-24T09:58:38Z</time>
      </trkpt>
      <trkpt lat="45.53473" lon="6.80033">
        <ele>2041.1000976562</ele>
        <time>2014-07-24T09:58:40Z</time>
      </trkpt>
      <trkpt lat="45.53473" lon="6.80033">
        <ele>2041.2290039062</ele>
        <time>2014-07-24T09:58:42Z</time>
      </trkpt>
      <trkpt lat="45.53473" lon="6.80033">
        <ele>2041.2288818359</ele>
        <time>2014-07-24T09:58:46Z</time>
      </trkpt>
      <trkpt lat="45.53473" lon="6.80033">
        <ele>2041.2288818359</ele>
        <time>2014-07-24T09:58:48Z</time>
      </trkpt>
      <trkpt lat="45.53473" lon="6.80033">
        <ele>2041.2288818359</ele>
        <time>2014-07-24T09:58:50Z</time>
      </trkpt>
      <trkpt lat="45.53473" lon="6.80033">
        <ele>2041.0999755859</ele>
        <time>2014-07-24T09:58:52Z</time>
      </trkpt>
      <trkpt lat="45.53473" lon="6.80033">
        <ele>2041.0999755859</ele>
        <time>2014-07-24T09:58:54Z</time>
      </trkpt>
      <trkpt lat="45.53473" lon="6.80033">
        <ele>2041.0999755859</ele>
        <time>2014-07-24T09:58:56Z</time>
      </trkpt>
      <trkpt lat="45.53472" lon="6.80037">
        <ele>2040.9952392578</ele>
        <time>2014-07-24T09:59:02Z</time>
      </trkpt>
      <trkpt lat="45.53483" lon="6.80068">
        <ele>2046.5887451172</ele>
        <time>2014-07-24T09:59:34Z</time>
      </trkpt>
      <trkpt lat="45.53482" lon="6.8007">
        <ele>2046.7073974609</ele>
        <time>2014-07-24T09:59:36Z</time>
      </trkpt>
      <trkpt lat="45.53486" lon="6.80083">
        <ele>2049.0295410156</ele>
        <time>2014-07-24T09:59:48Z</time>
      </trkpt>
      <trkpt lat="45.53492" lon="6.80096">
        <ele>2050.2768554688</ele>
        <time>2014-07-24T10:00:02Z</time>
      </trkpt>
      <trkpt lat="45.53492" lon="6.80098">
        <ele>2050.2485351562</ele>
        <time>2014-07-24T10:00:04Z</time>
      </trkpt>
      <trkpt lat="45.53492" lon="6.80101">
        <ele>2050.2805175781</ele>
        <time>2014-07-24T10:00:06Z</time>
      </trkpt>
      <trkpt lat="45.53499" lon="6.80115">
        <ele>2050.2141113281</ele>
        <time>2014-07-24T10:00:18Z</time>
      </trkpt>
      <trkpt lat="45.53503" lon="6.80136">
        <ele>2051.7883300781</ele>
        <time>2014-07-24T10:00:34Z</time>
      </trkpt>
      <trkpt lat="45.53501" lon="6.8014">
        <ele>2051.4084472656</ele>
        <time>2014-07-24T10:00:38Z</time>
      </trkpt>
      <trkpt lat="45.53498" lon="6.80141">
        <ele>2051.5749511719</ele>
        <time>2014-07-24T10:00:40Z</time>
      </trkpt>
      <trkpt lat="45.53497" lon="6.80141">
        <ele>2051.7287597656</ele>
        <time>2014-07-24T10:00:42Z</time>
      </trkpt>
      <trkpt lat="45.53497" lon="6.80141">
        <ele>2051.7421875</ele>
        <time>2014-07-24T10:00:44Z</time>
      </trkpt>
      <trkpt lat="45.53496" lon="6.8014">
        <ele>2051.7766113281</ele>
        <time>2014-07-24T10:00:46Z</time>
      </trkpt>
      <trkpt lat="45.53496" lon="6.8014">
        <ele>2051.7553710938</ele>
        <time>2014-07-24T10:00:48Z</time>
      </trkpt>
      <trkpt lat="45.53496" lon="6.8014">
        <ele>2051.7895507812</ele>
        <time>2014-07-24T10:00:50Z</time>
      </trkpt>
      <trkpt lat="45.53496" lon="6.8014">
        <ele>2051.7609863281</ele>
        <time>2014-07-24T10:00:54Z</time>
      </trkpt>
      <trkpt lat="45.53496" lon="6.8014">
        <ele>2051.7680664062</ele>
        <time>2014-07-24T10:00:55Z</time>
      </trkpt>
      <trkpt lat="45.53495" lon="6.8014">
        <ele>2051.8237304688</ele>
        <time>2014-07-24T10:00:58Z</time>
      </trkpt>
      <trkpt lat="45.53495" lon="6.8014">
        <ele>2051.8237304688</ele>
        <time>2014-07-24T10:01:00Z</time>
      </trkpt>
      <trkpt lat="45.53495" lon="6.8014">
        <ele>2051.8237304688</ele>
        <time>2014-07-24T10:01:02Z</time>
      </trkpt>
      <trkpt lat="45.53496" lon="6.8014">
        <ele>2051.7895507812</ele>
        <time>2014-07-24T10:01:04Z</time>
      </trkpt>
      <trkpt lat="45.53496" lon="6.8014">
        <ele>2051.8037109375</ele>
        <time>2014-07-24T10:01:06Z</time>
      </trkpt>
      <trkpt lat="45.53496" lon="6.8014">
        <ele>2051.7553710938</ele>
        <time>2014-07-24T10:01:08Z</time>
      </trkpt>
      <trkpt lat="45.53496" lon="6.80141">
        <ele>2051.7978515625</ele>
        <time>2014-07-24T10:01:10Z</time>
      </trkpt>
      <trkpt lat="45.53495" lon="6.8014">
        <ele>2052.013671875</ele>
        <time>2014-07-24T10:01:12Z</time>
      </trkpt>
      <trkpt lat="45.53493" lon="6.8014">
        <ele>2052.09375</ele>
        <time>2014-07-24T10:01:14Z</time>
      </trkpt>
      <trkpt lat="45.53491" lon="6.80139">
        <ele>2052.4074707031</ele>
        <time>2014-07-24T10:01:16Z</time>
      </trkpt>
      <trkpt lat="45.53488" lon="6.8014">
        <ele>2052.892578125</ele>
        <time>2014-07-24T10:01:18Z</time>
      </trkpt>
      <trkpt lat="45.53473" lon="6.80134">
        <ele>2054.2316894531</ele>
        <time>2014-07-24T10:01:30Z</time>
      </trkpt>
      <trkpt lat="45.53471" lon="6.80133">
        <ele>2054.2243652344</ele>
        <time>2014-07-24T10:01:32Z</time>
      </trkpt>
      <trkpt lat="45.53466" lon="6.80133">
        <ele>2054.3869628906</ele>
        <time>2014-07-24T10:01:36Z</time>
      </trkpt>
      <trkpt lat="45.53464" lon="6.80133">
        <ele>2054.5610351562</ele>
        <time>2014-07-24T10:01:38Z</time>
      </trkpt>
      <trkpt lat="45.5346" lon="6.80136">
        <ele>2055.0437011719</ele>
        <time>2014-07-24T10:01:42Z</time>
      </trkpt>
      <trkpt lat="45.53459" lon="6.80139">
        <ele>2055.5244140625</ele>
        <time>2014-07-24T10:01:44Z</time>
      </trkpt>
      <trkpt lat="45.53461" lon="6.80144">
        <ele>2056.1479492188</ele>
        <time>2014-07-24T10:01:48Z</time>
      </trkpt>
      <trkpt lat="45.53461" lon="6.80145">
        <ele>2056.2316894531</ele>
        <time>2014-07-24T10:01:49Z</time>
      </trkpt>
      <trkpt lat="45.53461" lon="6.80145">
        <ele>2056.2463378906</ele>
        <time>2014-07-24T10:01:52Z</time>
      </trkpt>
      <trkpt lat="45.53461" lon="6.80145">
        <ele>2056.2333984375</ele>
        <time>2014-07-24T10:01:54Z</time>
      </trkpt>
      <trkpt lat="45.53461" lon="6.80145">
        <ele>2056.2204589844</ele>
        <time>2014-07-24T10:01:56Z</time>
      </trkpt>
      <trkpt lat="45.5347" lon="6.80172">
        <ele>2060.4953613281</ele>
        <time>2014-07-24T10:02:14Z</time>
      </trkpt>
      <trkpt lat="45.53474" lon="6.80191">
        <ele>2062.3608398438</ele>
        <time>2014-07-24T10:02:30Z</time>
      </trkpt>
      <trkpt lat="45.53474" lon="6.80228">
        <ele>2066.4626464844</ele>
        <time>2014-07-24T10:02:58Z</time>
      </trkpt>
      <trkpt lat="45.53477" lon="6.80241">
        <ele>2067.5080566406</ele>
        <time>2014-07-24T10:03:08Z</time>
      </trkpt>
      <trkpt lat="45.53477" lon="6.80244">
        <ele>2067.8325195312</ele>
        <time>2014-07-24T10:03:10Z</time>
      </trkpt>
      <trkpt lat="45.53489" lon="6.80275">
        <ele>2070.7705078125</ele>
        <time>2014-07-24T10:03:32Z</time>
      </trkpt>
      <trkpt lat="45.5349" lon="6.80292">
        <ele>2073.173828125</ele>
        <time>2014-07-24T10:03:44Z</time>
      </trkpt>
      <trkpt lat="45.53491" lon="6.80307">
        <ele>2075.2705078125</ele>
        <time>2014-07-24T10:03:54Z</time>
      </trkpt>
      <trkpt lat="45.53491" lon="6.8031">
        <ele>2075.7409667969</ele>
        <time>2014-07-24T10:03:56Z</time>
      </trkpt>
      <trkpt lat="45.53491" lon="6.80312">
        <ele>2076.1459960938</ele>
        <time>2014-07-24T10:03:58Z</time>
      </trkpt>
      <trkpt lat="45.53491" lon="6.80314">
        <ele>2076.5991210938</ele>
        <time>2014-07-24T10:04:00Z</time>
      </trkpt>
      <trkpt lat="45.5349" lon="6.80317">
        <ele>2077.1606445312</ele>
        <time>2014-07-24T10:04:02Z</time>
      </trkpt>
      <trkpt lat="45.53489" lon="6.80321">
        <ele>2077.9826660156</ele>
        <time>2014-07-24T10:04:06Z</time>
      </trkpt>
      <trkpt lat="45.53488" lon="6.80324">
        <ele>2078.595703125</ele>
        <time>2014-07-24T10:04:08Z</time>
      </trkpt>
      <trkpt lat="45.53488" lon="6.80324">
        <ele>2078.6813964844</ele>
        <time>2014-07-24T10:04:10Z</time>
      </trkpt>
      <trkpt lat="45.53487" lon="6.80327">
        <ele>2079.2839355469</ele>
        <time>2014-07-24T10:04:12Z</time>
      </trkpt>
      <trkpt lat="45.53486" lon="6.80331">
        <ele>2080.181640625</ele>
        <time>2014-07-24T10:04:16Z</time>
      </trkpt>
      <trkpt lat="45.53486" lon="6.80337">
        <ele>2080.9040527344</ele>
        <time>2014-07-24T10:04:20Z</time>
      </trkpt>
      <trkpt lat="45.53481" lon="6.80348">
        <ele>2082.974609375</ele>
        <time>2014-07-24T10:04:30Z</time>
      </trkpt>
      <trkpt lat="45.53483" lon="6.80358">
        <ele>2084.0725097656</ele>
        <time>2014-07-24T10:04:38Z</time>
      </trkpt>
      <trkpt lat="45.53485" lon="6.80365">
        <ele>2084.6345214844</ele>
        <time>2014-07-24T10:04:44Z</time>
      </trkpt>
      <trkpt lat="45.53489" lon="6.80369">
        <ele>2084.8334960938</ele>
        <time>2014-07-24T10:04:48Z</time>
      </trkpt>
      <trkpt lat="45.53493" lon="6.80385">
        <ele>2086.3784179688</ele>
        <time>2014-07-24T10:05:00Z</time>
      </trkpt>
      <trkpt lat="45.53494" lon="6.8039">
        <ele>2086.958984375</ele>
        <time>2014-07-24T10:05:04Z</time>
      </trkpt>
      <trkpt lat="45.53493" lon="6.80393">
        <ele>2087.3625488281</ele>
        <time>2014-07-24T10:05:06Z</time>
      </trkpt>
      <trkpt lat="45.53491" lon="6.80397">
        <ele>2088.2001953125</ele>
        <time>2014-07-24T10:05:10Z</time>
      </trkpt>
      <trkpt lat="45.53488" lon="6.80397">
        <ele>2088.5383300781</ele>
        <time>2014-07-24T10:05:12Z</time>
      </trkpt>
      <trkpt lat="45.53472" lon="6.80387">
        <ele>2089.7729492188</ele>
        <time>2014-07-24T10:05:25Z</time>
      </trkpt>
      <trkpt lat="45.53466" lon="6.80386">
        <ele>2089.2358398438</ele>
        <time>2014-07-24T10:05:32Z</time>
      </trkpt>
      <trkpt lat="45.53465" lon="6.80385">
        <ele>2088.92578125</ele>
        <time>2014-07-24T10:05:34Z</time>
      </trkpt>
      <trkpt lat="45.5346" lon="6.80383">
        <ele>2088.4362792969</ele>
        <time>2014-07-24T10:05:38Z</time>
      </trkpt>
      <trkpt lat="45.53456" lon="6.80383">
        <ele>2088.1887207031</ele>
        <time>2014-07-24T10:05:42Z</time>
      </trkpt>
      <trkpt lat="45.53452" lon="6.80386">
        <ele>2088.18359375</ele>
        <time>2014-07-24T10:05:48Z</time>
      </trkpt>
      <trkpt lat="45.53451" lon="6.80386">
        <ele>2088.0944824219</ele>
        <time>2014-07-24T10:05:50Z</time>
      </trkpt>
      <trkpt lat="45.5345" lon="6.80386">
        <ele>2088.1237792969</ele>
        <time>2014-07-24T10:05:52Z</time>
      </trkpt>
      <trkpt lat="45.53451" lon="6.80387">
        <ele>2088.1943359375</ele>
        <time>2014-07-24T10:05:54Z</time>
      </trkpt>
      <trkpt lat="45.53451" lon="6.80387">
        <ele>2088.2219238281</ele>
        <time>2014-07-24T10:05:56Z</time>
      </trkpt>
      <trkpt lat="45.53451" lon="6.80387">
        <ele>2088.2109375</ele>
        <time>2014-07-24T10:06:00Z</time>
      </trkpt>
      <trkpt lat="45.53451" lon="6.80387">
        <ele>2088.2595214844</ele>
        <time>2014-07-24T10:06:02Z</time>
      </trkpt>
      <trkpt lat="45.53451" lon="6.80388">
        <ele>2088.4208984375</ele>
        <time>2014-07-24T10:06:04Z</time>
      </trkpt>
      <trkpt lat="45.53456" lon="6.80402">
        <ele>2090.5659179688</ele>
        <time>2014-07-24T10:06:14Z</time>
      </trkpt>
      <trkpt lat="45.5347" lon="6.8048">
        <ele>2099.9870605469</ele>
        <time>2014-07-24T10:07:12Z</time>
      </trkpt>
      <trkpt lat="45.53472" lon="6.80482">
        <ele>2100.4057617188</ele>
        <time>2014-07-24T10:07:14Z</time>
      </trkpt>
      <trkpt lat="45.53473" lon="6.8049">
        <ele>2101.5524902344</ele>
        <time>2014-07-24T10:07:20Z</time>
      </trkpt>
      <trkpt lat="45.53476" lon="6.80497">
        <ele>2102.7473144531</ele>
        <time>2014-07-24T10:07:26Z</time>
      </trkpt>
      <trkpt lat="45.53479" lon="6.80513">
        <ele>2105.1643066406</ele>
        <time>2014-07-24T10:07:40Z</time>
      </trkpt>
      <trkpt lat="45.5348" lon="6.80515">
        <ele>2105.4938964844</ele>
        <time>2014-07-24T10:07:42Z</time>
      </trkpt>
      <trkpt lat="45.53481" lon="6.80517">
        <ele>2105.7958984375</ele>
        <time>2014-07-24T10:07:44Z</time>
      </trkpt>
      <trkpt lat="45.5348" lon="6.80519">
        <ele>2105.98828125</ele>
        <time>2014-07-24T10:07:46Z</time>
      </trkpt>
      <trkpt lat="45.53484" lon="6.80535">
        <ele>2108.4807128906</ele>
        <time>2014-07-24T10:08:02Z</time>
      </trkpt>
      <trkpt lat="45.53485" lon="6.80537">
        <ele>2108.7485351562</ele>
        <time>2014-07-24T10:08:04Z</time>
      </trkpt>
      <trkpt lat="45.53498" lon="6.80565">
        <ele>2113.259765625</ele>
        <time>2014-07-24T10:08:32Z</time>
      </trkpt>
      <trkpt lat="45.53501" lon="6.80569">
        <ele>2113.8029785156</ele>
        <time>2014-07-24T10:08:36Z</time>
      </trkpt>
      <trkpt lat="45.53506" lon="6.80585">
        <ele>2115.7985839844</ele>
        <time>2014-07-24T10:08:48Z</time>
      </trkpt>
      <trkpt lat="45.53508" lon="6.80587">
        <ele>2116.0827636719</ele>
        <time>2014-07-24T10:08:50Z</time>
      </trkpt>
      <trkpt lat="45.53515" lon="6.80608">
        <ele>2118.8693847656</ele>
        <time>2014-07-24T10:09:06Z</time>
      </trkpt>
      <trkpt lat="45.53515" lon="6.80608">
        <ele>2119.0014648438</ele>
        <time>2014-07-24T10:09:08Z</time>
      </trkpt>
      <trkpt lat="45.53514" lon="6.80608">
        <ele>2118.9931640625</ele>
        <time>2014-07-24T10:09:10Z</time>
      </trkpt>
      <trkpt lat="45.53515" lon="6.80609">
        <ele>2119.150390625</ele>
        <time>2014-07-24T10:09:12Z</time>
      </trkpt>
      <trkpt lat="45.5352" lon="6.80625">
        <ele>2121.3291015625</ele>
        <time>2014-07-24T10:09:28Z</time>
      </trkpt>
      <trkpt lat="45.53519" lon="6.80627">
        <ele>2121.6586914062</ele>
        <time>2014-07-24T10:09:30Z</time>
      </trkpt>
      <trkpt lat="45.5352" lon="6.80634">
        <ele>2122.5854492188</ele>
        <time>2014-07-24T10:09:36Z</time>
      </trkpt>
      <trkpt lat="45.53521" lon="6.80636">
        <ele>2122.8395996094</ele>
        <time>2014-07-24T10:09:38Z</time>
      </trkpt>
      <trkpt lat="45.53521" lon="6.80638">
        <ele>2123.0661621094</ele>
        <time>2014-07-24T10:09:40Z</time>
      </trkpt>
      <trkpt lat="45.53522" lon="6.8064">
        <ele>2123.306640625</ele>
        <time>2014-07-24T10:09:42Z</time>
      </trkpt>
      <trkpt lat="45.53522" lon="6.80642">
        <ele>2123.6911621094</ele>
        <time>2014-07-24T10:09:44Z</time>
      </trkpt>
      <trkpt lat="45.53522" lon="6.80645">
        <ele>2124.0207519531</ele>
        <time>2014-07-24T10:09:46Z</time>
      </trkpt>
      <trkpt lat="45.53532" lon="6.80679">
        <ele>2127.2004394531</ele>
        <time>2014-07-24T10:10:12Z</time>
      </trkpt>
      <trkpt lat="45.53532" lon="6.80685">
        <ele>2128.451171875</ele>
        <time>2014-07-24T10:10:16Z</time>
      </trkpt>
      <trkpt lat="45.53532" lon="6.80688">
        <ele>2128.6760253906</ele>
        <time>2014-07-24T10:10:18Z</time>
      </trkpt>
      <trkpt lat="45.53535" lon="6.80693">
        <ele>2128.5703125</ele>
        <time>2014-07-24T10:10:22Z</time>
      </trkpt>
      <trkpt lat="45.5354" lon="6.80708">
        <ele>2130.3310546875</ele>
        <time>2014-07-24T10:10:34Z</time>
      </trkpt>
      <trkpt lat="45.53541" lon="6.8071">
        <ele>2130.5168457031</ele>
        <time>2014-07-24T10:10:36Z</time>
      </trkpt>
      <trkpt lat="45.53548" lon="6.80734">
        <ele>2134.330078125</ele>
        <time>2014-07-24T10:10:54Z</time>
      </trkpt>
      <trkpt lat="45.53549" lon="6.80743">
        <ele>2136.3073730469</ele>
        <time>2014-07-24T10:11:02Z</time>
      </trkpt>
      <trkpt lat="45.53551" lon="6.80745">
        <ele>2136.4946289062</ele>
        <time>2014-07-24T10:11:04Z</time>
      </trkpt>
      <trkpt lat="45.53551" lon="6.80746">
        <ele>2136.8142089844</ele>
        <time>2014-07-24T10:11:06Z</time>
      </trkpt>
      <trkpt lat="45.53552" lon="6.80751">
        <ele>2137.6225585938</ele>
        <time>2014-07-24T10:11:10Z</time>
      </trkpt>
      <trkpt lat="45.53553" lon="6.8076">
        <ele>2139.4611816406</ele>
        <time>2014-07-24T10:11:18Z</time>
      </trkpt>
      <trkpt lat="45.53554" lon="6.80762">
        <ele>2139.7917480469</ele>
        <time>2014-07-24T10:11:20Z</time>
      </trkpt>
      <trkpt lat="45.53554" lon="6.80764">
        <ele>2140.1057128906</ele>
        <time>2014-07-24T10:11:22Z</time>
      </trkpt>
      <trkpt lat="45.53557" lon="6.80769">
        <ele>2140.9567871094</ele>
        <time>2014-07-24T10:11:28Z</time>
      </trkpt>
      <trkpt lat="45.53557" lon="6.80771">
        <ele>2141.306640625</ele>
        <time>2014-07-24T10:11:30Z</time>
      </trkpt>
      <trkpt lat="45.53558" lon="6.80773">
        <ele>2141.3911132812</ele>
        <time>2014-07-24T10:11:32Z</time>
      </trkpt>
      <trkpt lat="45.53559" lon="6.80775">
        <ele>2141.6752929688</ele>
        <time>2014-07-24T10:11:34Z</time>
      </trkpt>
      <trkpt lat="45.5356" lon="6.80776">
        <ele>2141.7934570312</ele>
        <time>2014-07-24T10:11:36Z</time>
      </trkpt>
      <trkpt lat="45.5356" lon="6.80778">
        <ele>2142.0610351562</ele>
        <time>2014-07-24T10:11:38Z</time>
      </trkpt>
      <trkpt lat="45.53562" lon="6.80782">
        <ele>2142.3671875</ele>
        <time>2014-07-24T10:11:42Z</time>
      </trkpt>
      <trkpt lat="45.53562" lon="6.8079">
        <ele>2143.7553710938</ele>
        <time>2014-07-24T10:11:48Z</time>
      </trkpt>
      <trkpt lat="45.53563" lon="6.80792">
        <ele>2143.9860839844</ele>
        <time>2014-07-24T10:11:50Z</time>
      </trkpt>
      <trkpt lat="45.53562" lon="6.80795">
        <ele>2144.4599609375</ele>
        <time>2014-07-24T10:11:52Z</time>
      </trkpt>
      <trkpt lat="45.53563" lon="6.80797">
        <ele>2144.6171875</ele>
        <time>2014-07-24T10:11:54Z</time>
      </trkpt>
      <trkpt lat="45.53563" lon="6.808">
        <ele>2145.0710449219</ele>
        <time>2014-07-24T10:11:56Z</time>
      </trkpt>
      <trkpt lat="45.53564" lon="6.80805">
        <ele>2145.6989746094</ele>
        <time>2014-07-24T10:12:00Z</time>
      </trkpt>
      <trkpt lat="45.53566" lon="6.80807">
        <ele>2145.7165527344</ele>
        <time>2014-07-24T10:12:02Z</time>
      </trkpt>
      <trkpt lat="45.53568" lon="6.80815">
        <ele>2146.2722167969</ele>
        <time>2014-07-24T10:12:08Z</time>
      </trkpt>
      <trkpt lat="45.53568" lon="6.80817">
        <ele>2146.5969238281</ele>
        <time>2014-07-24T10:12:10Z</time>
      </trkpt>
      <trkpt lat="45.53568" lon="6.8082">
        <ele>2146.7770996094</ele>
        <time>2014-07-24T10:12:12Z</time>
      </trkpt>
      <trkpt lat="45.53569" lon="6.80825">
        <ele>2147.4055175781</ele>
        <time>2014-07-24T10:12:16Z</time>
      </trkpt>
      <trkpt lat="45.5357" lon="6.80827">
        <ele>2147.4440917969</ele>
        <time>2014-07-24T10:12:18Z</time>
      </trkpt>
      <trkpt lat="45.5357" lon="6.8083">
        <ele>2147.8852539062</ele>
        <time>2014-07-24T10:12:20Z</time>
      </trkpt>
      <trkpt lat="45.53572" lon="6.80853">
        <ele>2151.0600585938</ele>
        <time>2014-07-24T10:12:38Z</time>
      </trkpt>
      <trkpt lat="45.53571" lon="6.80856">
        <ele>2151.5954589844</ele>
        <time>2014-07-24T10:12:40Z</time>
      </trkpt>
      <trkpt lat="45.53572" lon="6.80863">
        <ele>2152.5092773438</ele>
        <time>2014-07-24T10:12:46Z</time>
      </trkpt>
      <trkpt lat="45.53573" lon="6.80866">
        <ele>2152.6875</ele>
        <time>2014-07-24T10:12:48Z</time>
      </trkpt>
      <trkpt lat="45.53573" lon="6.80868">
        <ele>2152.9094238281</ele>
        <time>2014-07-24T10:12:50Z</time>
      </trkpt>
      <trkpt lat="45.53571" lon="6.80872">
        <ele>2153.5654296875</ele>
        <time>2014-07-24T10:12:54Z</time>
      </trkpt>
      <trkpt lat="45.53572" lon="6.80875">
        <ele>2153.7902832031</ele>
        <time>2014-07-24T10:12:56Z</time>
      </trkpt>
      <trkpt lat="45.53575" lon="6.80881">
        <ele>2154.322265625</ele>
        <time>2014-07-24T10:13:02Z</time>
      </trkpt>
      <trkpt lat="45.53582" lon="6.8089">
        <ele>2155.2595214844</ele>
        <time>2014-07-24T10:13:12Z</time>
      </trkpt>
      <trkpt lat="45.53583" lon="6.80892">
        <ele>2155.6745605469</ele>
        <time>2014-07-24T10:13:14Z</time>
      </trkpt>
      <trkpt lat="45.53584" lon="6.80895">
        <ele>2156.234375</ele>
        <time>2014-07-24T10:13:16Z</time>
      </trkpt>
      <trkpt lat="45.53585" lon="6.80896">
        <ele>2156.6450195312</ele>
        <time>2014-07-24T10:13:18Z</time>
      </trkpt>
      <trkpt lat="45.53586" lon="6.80899">
        <ele>2157.1455078125</ele>
        <time>2014-07-24T10:13:20Z</time>
      </trkpt>
      <trkpt lat="45.53587" lon="6.809">
        <ele>2157.4526367188</ele>
        <time>2014-07-24T10:13:22Z</time>
      </trkpt>
      <trkpt lat="45.53588" lon="6.80902">
        <ele>2157.83203125</ele>
        <time>2014-07-24T10:13:24Z</time>
      </trkpt>
      <trkpt lat="45.53587" lon="6.80904">
        <ele>2158.3330078125</ele>
        <time>2014-07-24T10:13:26Z</time>
      </trkpt>
      <trkpt lat="45.53588" lon="6.80906">
        <ele>2158.6931152344</ele>
        <time>2014-07-24T10:13:28Z</time>
      </trkpt>
      <trkpt lat="45.5359" lon="6.80916">
        <ele>2160.3332519531</ele>
        <time>2014-07-24T10:13:36Z</time>
      </trkpt>
      <trkpt lat="45.5359" lon="6.80918">
        <ele>2160.8376464844</ele>
        <time>2014-07-24T10:13:38Z</time>
      </trkpt>
      <trkpt lat="45.53593" lon="6.80928">
        <ele>2162.1860351562</ele>
        <time>2014-07-24T10:13:46Z</time>
      </trkpt>
      <trkpt lat="45.53594" lon="6.80931">
        <ele>2162.62890625</ele>
        <time>2014-07-24T10:13:48Z</time>
      </trkpt>
      <trkpt lat="45.53595" lon="6.80933">
        <ele>2162.8044433594</ele>
        <time>2014-07-24T10:13:50Z</time>
      </trkpt>
      <trkpt lat="45.53596" lon="6.80935">
        <ele>2163.1127929688</ele>
        <time>2014-07-24T10:13:52Z</time>
      </trkpt>
      <trkpt lat="45.53595" lon="6.80934">
        <ele>2163.1198730469</ele>
        <time>2014-07-24T10:13:54Z</time>
      </trkpt>
      <trkpt lat="45.53593" lon="6.80933">
        <ele>2163.0295410156</ele>
        <time>2014-07-24T10:13:56Z</time>
      </trkpt>
      <trkpt lat="45.53593" lon="6.80933">
        <ele>2162.9738769531</ele>
        <time>2014-07-24T10:13:58Z</time>
      </trkpt>
      <trkpt lat="45.53594" lon="6.80934">
        <ele>2163.13671875</ele>
        <time>2014-07-24T10:14:00Z</time>
      </trkpt>
      <trkpt lat="45.53593" lon="6.80934">
        <ele>2163.1489257812</ele>
        <time>2014-07-24T10:14:02Z</time>
      </trkpt>
      <trkpt lat="45.53593" lon="6.80934">
        <ele>2163.1887207031</ele>
        <time>2014-07-24T10:14:04Z</time>
      </trkpt>
      <trkpt lat="45.53595" lon="6.80938">
        <ele>2163.7587890625</ele>
        <time>2014-07-24T10:14:08Z</time>
      </trkpt>
      <trkpt lat="45.53598" lon="6.80945">
        <ele>2164.6003417969</ele>
        <time>2014-07-24T10:14:14Z</time>
      </trkpt>
      <trkpt lat="45.536" lon="6.80963">
        <ele>2167.6130371094</ele>
        <time>2014-07-24T10:14:28Z</time>
      </trkpt>
      <trkpt lat="45.53601" lon="6.80966">
        <ele>2167.9614257812</ele>
        <time>2014-07-24T10:14:30Z</time>
      </trkpt>
      <trkpt lat="45.53603" lon="6.80969">
        <ele>2168.1794433594</ele>
        <time>2014-07-24T10:14:34Z</time>
      </trkpt>
      <trkpt lat="45.53603" lon="6.80969">
        <ele>2168.2309570312</ele>
        <time>2014-07-24T10:14:36Z</time>
      </trkpt>
      <trkpt lat="45.53604" lon="6.80969">
        <ele>2168.1811523438</ele>
        <time>2014-07-24T10:14:38Z</time>
      </trkpt>
      <trkpt lat="45.53603" lon="6.80969">
        <ele>2168.3493652344</ele>
        <time>2014-07-24T10:14:42Z</time>
      </trkpt>
      <trkpt lat="45.53603" lon="6.80969">
        <ele>2168.3666992188</ele>
        <time>2014-07-24T10:14:46Z</time>
      </trkpt>
      <trkpt lat="45.53603" lon="6.80969">
        <ele>2168.3752441406</ele>
        <time>2014-07-24T10:14:48Z</time>
      </trkpt>
      <trkpt lat="45.53608" lon="6.8097">
        <ele>2167.9340820312</ele>
        <time>2014-07-24T10:14:54Z</time>
      </trkpt>
      <trkpt lat="45.53613" lon="6.80966">
        <ele>2167.3630371094</ele>
        <time>2014-07-24T10:15:00Z</time>
      </trkpt>
      <trkpt lat="45.5364" lon="6.80903">
        <ele>2167.4172363281</ele>
        <time>2014-07-24T10:15:50Z</time>
      </trkpt>
      <trkpt lat="45.53646" lon="6.80897">
        <ele>2168.5751953125</ele>
        <time>2014-07-24T10:15:56Z</time>
      </trkpt>
      <trkpt lat="45.53653" lon="6.80895">
        <ele>2170.0634765625</ele>
        <time>2014-07-24T10:16:02Z</time>
      </trkpt>
      <trkpt lat="45.53677" lon="6.80877">
        <ele>2173.7998046875</ele>
        <time>2014-07-24T10:16:32Z</time>
      </trkpt>
      <trkpt lat="45.5368" lon="6.80879">
        <ele>2174.7602539062</ele>
        <time>2014-07-24T10:16:36Z</time>
      </trkpt>
      <trkpt lat="45.5368" lon="6.80879">
        <ele>2174.9416503906</ele>
        <time>2014-07-24T10:16:38Z</time>
      </trkpt>
      <trkpt lat="45.5368" lon="6.80879">
        <ele>2174.9262695312</ele>
        <time>2014-07-24T10:16:42Z</time>
      </trkpt>
      <trkpt lat="45.53693" lon="6.80871">
        <ele>2175.9763183594</ele>
        <time>2014-07-24T10:16:58Z</time>
      </trkpt>
      <trkpt lat="45.53697" lon="6.8087">
        <ele>2176.4609375</ele>
        <time>2014-07-24T10:17:02Z</time>
      </trkpt>
      <trkpt lat="45.53702" lon="6.80875">
        <ele>2178.4777832031</ele>
        <time>2014-07-24T10:17:08Z</time>
      </trkpt>
      <trkpt lat="45.53704" lon="6.80879">
        <ele>2179.9118652344</ele>
        <time>2014-07-24T10:17:12Z</time>
      </trkpt>
      <trkpt lat="45.53704" lon="6.80884">
        <ele>2180.96484375</ele>
        <time>2014-07-24T10:17:18Z</time>
      </trkpt>
      <trkpt lat="45.53697" lon="6.80889">
        <ele>2180.5651855469</ele>
        <time>2014-07-24T10:17:26Z</time>
      </trkpt>
      <trkpt lat="45.53697" lon="6.8089">
        <ele>2180.7897949219</ele>
        <time>2014-07-24T10:17:28Z</time>
      </trkpt>
      <trkpt lat="45.53693" lon="6.80895">
        <ele>2180.8330078125</ele>
        <time>2014-07-24T10:17:34Z</time>
      </trkpt>
      <trkpt lat="45.53694" lon="6.80896">
        <ele>2181.3837890625</ele>
        <time>2014-07-24T10:17:36Z</time>
      </trkpt>
      <trkpt lat="45.5369" lon="6.809">
        <ele>2181.2863769531</ele>
        <time>2014-07-24T10:17:40Z</time>
      </trkpt>
      <trkpt lat="45.5368" lon="6.80938">
        <ele>2184.1831054688</ele>
        <time>2014-07-24T10:18:08Z</time>
      </trkpt>
      <trkpt lat="45.53681" lon="6.80941">
        <ele>2184.6245117188</ele>
        <time>2014-07-24T10:18:10Z</time>
      </trkpt>
      <trkpt lat="45.53674" lon="6.80978">
        <ele>2188.8659667969</ele>
        <time>2014-07-24T10:18:36Z</time>
      </trkpt>
      <trkpt lat="45.53674" lon="6.8098">
        <ele>2189.248046875</ele>
        <time>2014-07-24T10:18:38Z</time>
      </trkpt>
      <trkpt lat="45.53675" lon="6.80982">
        <ele>2190.1259765625</ele>
        <time>2014-07-24T10:18:40Z</time>
      </trkpt>
      <trkpt lat="45.5367" lon="6.81023">
        <ele>2192.1733398438</ele>
        <time>2014-07-24T10:19:08Z</time>
      </trkpt>
      <trkpt lat="45.53668" lon="6.81026">
        <ele>2191.3830566406</ele>
        <time>2014-07-24T10:19:10Z</time>
      </trkpt>
      <trkpt lat="45.53671" lon="6.81071">
        <ele>2196.4379882812</ele>
        <time>2014-07-24T10:19:42Z</time>
      </trkpt>
      <trkpt lat="45.53672" lon="6.81073">
        <ele>2196.9609375</ele>
        <time>2014-07-24T10:19:44Z</time>
      </trkpt>
      <trkpt lat="45.53677" lon="6.8112">
        <ele>2202.4382324219</ele>
        <time>2014-07-24T10:20:18Z</time>
      </trkpt>
      <trkpt lat="45.53679" lon="6.81123">
        <ele>2203.638671875</ele>
        <time>2014-07-24T10:20:20Z</time>
      </trkpt>
      <trkpt lat="45.5368" lon="6.81129">
        <ele>2204.7048339844</ele>
        <time>2014-07-24T10:20:24Z</time>
      </trkpt>
      <trkpt lat="45.53678" lon="6.81149">
        <ele>2207.1350097656</ele>
        <time>2014-07-24T10:20:38Z</time>
      </trkpt>
      <trkpt lat="45.53679" lon="6.81151">
        <ele>2207.642578125</ele>
        <time>2014-07-24T10:20:40Z</time>
      </trkpt>
      <trkpt lat="45.53679" lon="6.81154">
        <ele>2208.0559082031</ele>
        <time>2014-07-24T10:20:42Z</time>
      </trkpt>
      <trkpt lat="45.53679" lon="6.81156">
        <ele>2208.5515136719</ele>
        <time>2014-07-24T10:20:44Z</time>
      </trkpt>
      <trkpt lat="45.53679" lon="6.81158">
        <ele>2208.9494628906</ele>
        <time>2014-07-24T10:20:46Z</time>
      </trkpt>
      <trkpt lat="45.5368" lon="6.8116">
        <ele>2209.2836914062</ele>
        <time>2014-07-24T10:20:48Z</time>
      </trkpt>
      <trkpt lat="45.53682" lon="6.81161">
        <ele>2209.6489257812</ele>
        <time>2014-07-24T10:20:50Z</time>
      </trkpt>
      <trkpt lat="45.53681" lon="6.81161">
        <ele>2209.6867675781</ele>
        <time>2014-07-24T10:20:52Z</time>
      </trkpt>
      <trkpt lat="45.53687" lon="6.8116">
        <ele>2210.2143554688</ele>
        <time>2014-07-24T10:20:58Z</time>
      </trkpt>
      <trkpt lat="45.53691" lon="6.81157">
        <ele>2210.4367675781</ele>
        <time>2014-07-24T10:21:02Z</time>
      </trkpt>
      <trkpt lat="45.53696" lon="6.81148">
        <ele>2210.685546875</ele>
        <time>2014-07-24T10:21:08Z</time>
      </trkpt>
      <trkpt lat="45.53698" lon="6.8114">
        <ele>2210.4985351562</ele>
        <time>2014-07-24T10:21:14Z</time>
      </trkpt>
      <trkpt lat="45.53697" lon="6.81138">
        <ele>2210.0224609375</ele>
        <time>2014-07-24T10:21:18Z</time>
      </trkpt>
      <trkpt lat="45.537" lon="6.81105">
        <ele>2209.3581542969</ele>
        <time>2014-07-24T10:21:38Z</time>
      </trkpt>
      <trkpt lat="45.53722" lon="6.81046">
        <ele>2217.3754882812</ele>
        <time>2014-07-24T10:22:22Z</time>
      </trkpt>
      <trkpt lat="45.53724" lon="6.81045">
        <ele>2217.9008789062</ele>
        <time>2014-07-24T10:22:24Z</time>
      </trkpt>
      <trkpt lat="45.53753" lon="6.80993">
        <ele>2221.9318847656</ele>
        <time>2014-07-24T10:23:12Z</time>
      </trkpt>
      <trkpt lat="45.53753" lon="6.8099">
        <ele>2221.7875976562</ele>
        <time>2014-07-24T10:23:14Z</time>
      </trkpt>
      <trkpt lat="45.53753" lon="6.8099">
        <ele>2221.63671875</ele>
        <time>2014-07-24T10:23:16Z</time>
      </trkpt>
      <trkpt lat="45.53759" lon="6.80983">
        <ele>2223.0168457031</ele>
        <time>2014-07-24T10:23:26Z</time>
      </trkpt>
      <trkpt lat="45.53759" lon="6.80982">
        <ele>2222.8588867188</ele>
        <time>2014-07-24T10:23:30Z</time>
      </trkpt>
      <trkpt lat="45.53759" lon="6.80982">
        <ele>2222.8657226562</ele>
        <time>2014-07-24T10:23:32Z</time>
      </trkpt>
      <trkpt lat="45.53759" lon="6.80982">
        <ele>2222.9755859375</ele>
        <time>2014-07-24T10:23:34Z</time>
      </trkpt>
      <trkpt lat="45.53759" lon="6.80982">
        <ele>2222.955078125</ele>
        <time>2014-07-24T10:23:36Z</time>
      </trkpt>
      <trkpt lat="45.53759" lon="6.80982">
        <ele>2222.955078125</ele>
        <time>2014-07-24T10:23:38Z</time>
      </trkpt>
      <trkpt lat="45.53789" lon="6.80942">
        <ele>2227.02734375</ele>
        <time>2014-07-24T10:24:20Z</time>
      </trkpt>
      <trkpt lat="45.53793" lon="6.80941">
        <ele>2228.3864746094</ele>
        <time>2014-07-24T10:24:24Z</time>
      </trkpt>
      <trkpt lat="45.53795" lon="6.80939">
        <ele>2229.1362304688</ele>
        <time>2014-07-24T10:24:28Z</time>
      </trkpt>
      <trkpt lat="45.53798" lon="6.80941">
        <ele>2230.5751953125</ele>
        <time>2014-07-24T10:24:30Z</time>
      </trkpt>
      <trkpt lat="45.53807" lon="6.80953">
        <ele>2236.4157714844</ele>
        <time>2014-07-24T10:24:42Z</time>
      </trkpt>
      <trkpt lat="45.53809" lon="6.80957">
        <ele>2236.7607421875</ele>
        <time>2014-07-24T10:24:46Z</time>
      </trkpt>
      <trkpt lat="45.53811" lon="6.80958">
        <ele>2236.7412109375</ele>
        <time>2014-07-24T10:24:48Z</time>
      </trkpt>
      <trkpt lat="45.53815" lon="6.80962">
        <ele>2237.2673339844</ele>
        <time>2014-07-24T10:24:52Z</time>
      </trkpt>
      <trkpt lat="45.53815" lon="6.80963">
        <ele>2237.5004882812</ele>
        <time>2014-07-24T10:24:54Z</time>
      </trkpt>
      <trkpt lat="45.53815" lon="6.80964">
        <ele>2237.6005859375</ele>
        <time>2014-07-24T10:24:56Z</time>
      </trkpt>
      <trkpt lat="45.53815" lon="6.80964">
        <ele>2237.7431640625</ele>
        <time>2014-07-24T10:24:58Z</time>
      </trkpt>
      <trkpt lat="45.53814" lon="6.80965">
        <ele>2237.916015625</ele>
        <time>2014-07-24T10:25:00Z</time>
      </trkpt>
      <trkpt lat="45.53814" lon="6.80965">
        <ele>2237.916015625</ele>
        <time>2014-07-24T10:25:02Z</time>
      </trkpt>
      <trkpt lat="45.53814" lon="6.80965">
        <ele>2237.9255371094</ele>
        <time>2014-07-24T10:25:04Z</time>
      </trkpt>
      <trkpt lat="45.53814" lon="6.80965">
        <ele>2237.9350585938</ele>
        <time>2014-07-24T10:25:06Z</time>
      </trkpt>
      <trkpt lat="45.53814" lon="6.80965">
        <ele>2237.9445800781</ele>
        <time>2014-07-24T10:25:08Z</time>
      </trkpt>
      <trkpt lat="45.53814" lon="6.80965">
        <ele>2237.9350585938</ele>
        <time>2014-07-24T10:25:10Z</time>
      </trkpt>
      <trkpt lat="45.53816" lon="6.80968">
        <ele>2238.4260253906</ele>
        <time>2014-07-24T10:25:16Z</time>
      </trkpt>
      <trkpt lat="45.53817" lon="6.80971">
        <ele>2238.8603515625</ele>
        <time>2014-07-24T10:25:18Z</time>
      </trkpt>
      <trkpt lat="45.53819" lon="6.80972">
        <ele>2238.890625</ele>
        <time>2014-07-24T10:25:20Z</time>
      </trkpt>
      <trkpt lat="45.5382" lon="6.80974">
        <ele>2239.1213378906</ele>
        <time>2014-07-24T10:25:22Z</time>
      </trkpt>
      <trkpt lat="45.53822" lon="6.80974">
        <ele>2239.1242675781</ele>
        <time>2014-07-24T10:25:24Z</time>
      </trkpt>
      <trkpt lat="45.53825" lon="6.80977">
        <ele>2239.3889160156</ele>
        <time>2014-07-24T10:25:28Z</time>
      </trkpt>
      <trkpt lat="45.53828" lon="6.80982">
        <ele>2240.0744628906</ele>
        <time>2014-07-24T10:25:34Z</time>
      </trkpt>
      <trkpt lat="45.53829" lon="6.80984">
        <ele>2240.3193359375</ele>
        <time>2014-07-24T10:25:36Z</time>
      </trkpt>
      <trkpt lat="45.53845" lon="6.81024">
        <ele>2242.4333496094</ele>
        <time>2014-07-24T10:26:10Z</time>
      </trkpt>
      <trkpt lat="45.53845" lon="6.81029">
        <ele>2243.2622070312</ele>
        <time>2014-07-24T10:26:14Z</time>
      </trkpt>
      <trkpt lat="45.53848" lon="6.81035">
        <ele>2244.041015625</ele>
        <time>2014-07-24T10:26:18Z</time>
      </trkpt>
      <trkpt lat="45.53848" lon="6.81038">
        <ele>2244.6774902344</ele>
        <time>2014-07-24T10:26:20Z</time>
      </trkpt>
      <trkpt lat="45.53849" lon="6.8104">
        <ele>2245.0947265625</ele>
        <time>2014-07-24T10:26:22Z</time>
      </trkpt>
      <trkpt lat="45.53849" lon="6.81043">
        <ele>2245.6689453125</ele>
        <time>2014-07-24T10:26:24Z</time>
      </trkpt>
      <trkpt lat="45.53852" lon="6.81052">
        <ele>2247.7768554688</ele>
        <time>2014-07-24T10:26:31Z</time>
      </trkpt>
      <trkpt lat="45.53856" lon="6.81059">
        <ele>2248.8588867188</ele>
        <time>2014-07-24T10:26:37Z</time>
      </trkpt>
      <trkpt lat="45.53858" lon="6.81061">
        <ele>2248.9782714844</ele>
        <time>2014-07-24T10:26:39Z</time>
      </trkpt>
      <trkpt lat="45.53858" lon="6.81064">
        <ele>2249.4060058594</ele>
        <time>2014-07-24T10:26:41Z</time>
      </trkpt>
      <trkpt lat="45.53857" lon="6.81066">
        <ele>2249.7578125</ele>
        <time>2014-07-24T10:26:43Z</time>
      </trkpt>
      <trkpt lat="45.53859" lon="6.81072">
        <ele>2250.4436035156</ele>
        <time>2014-07-24T10:26:47Z</time>
      </trkpt>
      <trkpt lat="45.53861" lon="6.81076">
        <ele>2250.9284667969</ele>
        <time>2014-07-24T10:26:51Z</time>
      </trkpt>
      <trkpt lat="45.53861" lon="6.81076">
        <ele>2250.9326171875</ele>
        <time>2014-07-24T10:26:52Z</time>
      </trkpt>
      <trkpt lat="45.53861" lon="6.81077">
        <ele>2251.0568847656</ele>
        <time>2014-07-24T10:26:55Z</time>
      </trkpt>
      <trkpt lat="45.53862" lon="6.81079">
        <ele>2251.314453125</ele>
        <time>2014-07-24T10:26:57Z</time>
      </trkpt>
      <trkpt lat="45.53864" lon="6.81081">
        <ele>2251.5615234375</ele>
        <time>2014-07-24T10:26:59Z</time>
      </trkpt>
      <trkpt lat="45.5387" lon="6.81094">
        <ele>2253.5891113281</ele>
        <time>2014-07-24T10:27:11Z</time>
      </trkpt>
      <trkpt lat="45.53878" lon="6.81103">
        <ele>2255.2236328125</ele>
        <time>2014-07-24T10:27:23Z</time>
      </trkpt>
      <trkpt lat="45.5388" lon="6.81107">
        <ele>2255.9729003906</ele>
        <time>2014-07-24T10:27:29Z</time>
      </trkpt>
      <trkpt lat="45.53881" lon="6.81108">
        <ele>2256.2141113281</ele>
        <time>2014-07-24T10:27:31Z</time>
      </trkpt>
      <trkpt lat="45.53884" lon="6.81111">
        <ele>2256.865234375</ele>
        <time>2014-07-24T10:27:35Z</time>
      </trkpt>
      <trkpt lat="45.53889" lon="6.81124">
        <ele>2258.8488769531</ele>
        <time>2014-07-24T10:27:47Z</time>
      </trkpt>
      <trkpt lat="45.53891" lon="6.81125">
        <ele>2259.3693847656</ele>
        <time>2014-07-24T10:27:49Z</time>
      </trkpt>
      <trkpt lat="45.53892" lon="6.81126">
        <ele>2259.7111816406</ele>
        <time>2014-07-24T10:27:51Z</time>
      </trkpt>
      <trkpt lat="45.53894" lon="6.81125">
        <ele>2260.0600585938</ele>
        <time>2014-07-24T10:27:53Z</time>
      </trkpt>
      <trkpt lat="45.53914" lon="6.81112">
        <ele>2260.7451171875</ele>
        <time>2014-07-24T10:28:13Z</time>
      </trkpt>
      <trkpt lat="45.53916" lon="6.81111">
        <ele>2260.9213867188</ele>
        <time>2014-07-24T10:28:15Z</time>
      </trkpt>
      <trkpt lat="45.53918" lon="6.8111">
        <ele>2260.8466796875</ele>
        <time>2014-07-24T10:28:17Z</time>
      </trkpt>
      <trkpt lat="45.5392" lon="6.81111">
        <ele>2261.3896484375</ele>
        <time>2014-07-24T10:28:19Z</time>
      </trkpt>
      <trkpt lat="45.53923" lon="6.81115">
        <ele>2263.17578125</ele>
        <time>2014-07-24T10:28:23Z</time>
      </trkpt>
      <trkpt lat="45.53922" lon="6.81121">
        <ele>2264.3718261719</ele>
        <time>2014-07-24T10:28:29Z</time>
      </trkpt>
      <trkpt lat="45.53913" lon="6.81131">
        <ele>2264.4992675781</ele>
        <time>2014-07-24T10:28:41Z</time>
      </trkpt>
      <trkpt lat="45.53903" lon="6.81162">
        <ele>2268.6633300781</ele>
        <time>2014-07-24T10:29:05Z</time>
      </trkpt>
      <trkpt lat="45.53893" lon="6.81183">
        <ele>2272.4499511719</ele>
        <time>2014-07-24T10:29:25Z</time>
      </trkpt>
      <trkpt lat="45.53893" lon="6.81186">
        <ele>2273.0649414062</ele>
        <time>2014-07-24T10:29:27Z</time>
      </trkpt>
      <trkpt lat="45.53878" lon="6.81206">
        <ele>2275.5051269531</ele>
        <time>2014-07-24T10:29:51Z</time>
      </trkpt>
      <trkpt lat="45.53876" lon="6.81206">
        <ele>2275.3491210938</ele>
        <time>2014-07-24T10:29:53Z</time>
      </trkpt>
      <trkpt lat="45.53873" lon="6.81209">
        <ele>2275.2629394531</ele>
        <time>2014-07-24T10:29:57Z</time>
      </trkpt>
      <trkpt lat="45.53872" lon="6.8122">
        <ele>2277.3615722656</ele>
        <time>2014-07-24T10:30:07Z</time>
      </trkpt>
      <trkpt lat="45.53873" lon="6.81223">
        <ele>2278.0061035156</ele>
        <time>2014-07-24T10:30:09Z</time>
      </trkpt>
      <trkpt lat="45.53875" lon="6.81226">
        <ele>2279.2282714844</ele>
        <time>2014-07-24T10:30:15Z</time>
      </trkpt>
      <trkpt lat="45.53881" lon="6.81224">
        <ele>2280.1791992188</ele>
        <time>2014-07-24T10:30:21Z</time>
      </trkpt>
      <trkpt lat="45.53882" lon="6.81223">
        <ele>2280.4418945312</ele>
        <time>2014-07-24T10:30:23Z</time>
      </trkpt>
      <trkpt lat="45.53883" lon="6.81223">
        <ele>2280.6804199219</ele>
        <time>2014-07-24T10:30:25Z</time>
      </trkpt>
      <trkpt lat="45.53887" lon="6.81222">
        <ele>2281.5817871094</ele>
        <time>2014-07-24T10:30:29Z</time>
      </trkpt>
      <trkpt lat="45.53889" lon="6.81221">
        <ele>2281.7556152344</ele>
        <time>2014-07-24T10:30:31Z</time>
      </trkpt>
      <trkpt lat="45.53896" lon="6.8122">
        <ele>2282.6623535156</ele>
        <time>2014-07-24T10:30:37Z</time>
      </trkpt>
      <trkpt lat="45.53907" lon="6.81215">
        <ele>2283.2727050781</ele>
        <time>2014-07-24T10:30:49Z</time>
      </trkpt>
      <trkpt lat="45.5391" lon="6.81212">
        <ele>2282.9038085938</ele>
        <time>2014-07-24T10:30:53Z</time>
      </trkpt>
      <trkpt lat="45.53912" lon="6.81211">
        <ele>2282.9401855469</ele>
        <time>2014-07-24T10:30:55Z</time>
      </trkpt>
      <trkpt lat="45.53915" lon="6.81207">
        <ele>2282.4108886719</ele>
        <time>2014-07-24T10:30:59Z</time>
      </trkpt>
      <trkpt lat="45.53916" lon="6.81207">
        <ele>2282.5466308594</ele>
        <time>2014-07-24T10:31:01Z</time>
      </trkpt>
      <trkpt lat="45.53918" lon="6.81207">
        <ele>2283.3620605469</ele>
        <time>2014-07-24T10:31:03Z</time>
      </trkpt>
      <trkpt lat="45.5392" lon="6.81208">
        <ele>2284.4243164062</ele>
        <time>2014-07-24T10:31:05Z</time>
      </trkpt>
      <trkpt lat="45.53922" lon="6.8121">
        <ele>2285.6899414062</ele>
        <time>2014-07-24T10:31:07Z</time>
      </trkpt>
      <trkpt lat="45.53923" lon="6.81215">
        <ele>2287.5219726562</ele>
        <time>2014-07-24T10:31:11Z</time>
      </trkpt>
      <trkpt lat="45.53921" lon="6.81219">
        <ele>2287.9345703125</ele>
        <time>2014-07-24T10:31:15Z</time>
      </trkpt>
      <trkpt lat="45.53922" lon="6.81221">
        <ele>2288.76953125</ele>
        <time>2014-07-24T10:31:17Z</time>
      </trkpt>
      <trkpt lat="45.53921" lon="6.81221">
        <ele>2288.4018554688</ele>
        <time>2014-07-24T10:31:19Z</time>
      </trkpt>
      <trkpt lat="45.5391" lon="6.81236">
        <ele>2289.6105957031</ele>
        <time>2014-07-24T10:31:37Z</time>
      </trkpt>
      <trkpt lat="45.53907" lon="6.81243">
        <ele>2290.3566894531</ele>
        <time>2014-07-24T10:31:43Z</time>
      </trkpt>
      <trkpt lat="45.53906" lon="6.81243">
        <ele>2290.3122558594</ele>
        <time>2014-07-24T10:31:45Z</time>
      </trkpt>
      <trkpt lat="45.53906" lon="6.81244">
        <ele>2290.412109375</ele>
        <time>2014-07-24T10:31:47Z</time>
      </trkpt>
      <trkpt lat="45.53906" lon="6.81245">
        <ele>2290.7053222656</ele>
        <time>2014-07-24T10:31:49Z</time>
      </trkpt>
      <trkpt lat="45.53888" lon="6.81289">
        <ele>2299.2482910156</ele>
        <time>2014-07-24T10:32:23Z</time>
      </trkpt>
      <trkpt lat="45.53872" lon="6.81311">
        <ele>2304.07421875</ele>
        <time>2014-07-24T10:32:45Z</time>
      </trkpt>
      <trkpt lat="45.53869" lon="6.81312">
        <ele>2304.3430175781</ele>
        <time>2014-07-24T10:32:47Z</time>
      </trkpt>
      <trkpt lat="45.53866" lon="6.81312">
        <ele>2304.302734375</ele>
        <time>2014-07-24T10:32:49Z</time>
      </trkpt>
      <trkpt lat="45.5386" lon="6.81314">
        <ele>2304.6730957031</ele>
        <time>2014-07-24T10:32:55Z</time>
      </trkpt>
      <trkpt lat="45.53857" lon="6.81325">
        <ele>2308.6606445312</ele>
        <time>2014-07-24T10:33:05Z</time>
      </trkpt>
      <trkpt lat="45.53859" lon="6.81326">
        <ele>2309.1540527344</ele>
        <time>2014-07-24T10:33:07Z</time>
      </trkpt>
      <trkpt lat="45.53869" lon="6.81324">
        <ele>2308.0087890625</ele>
        <time>2014-07-24T10:33:17Z</time>
      </trkpt>
      <trkpt lat="45.53885" lon="6.81308">
        <ele>2303.2885742188</ele>
        <time>2014-07-24T10:33:37Z</time>
      </trkpt>
      <trkpt lat="45.53886" lon="6.81307">
        <ele>2303.1811523438</ele>
        <time>2014-07-24T10:33:39Z</time>
      </trkpt>
      <trkpt lat="45.53892" lon="6.81307">
        <ele>2304.013671875</ele>
        <time>2014-07-24T10:33:45Z</time>
      </trkpt>
      <trkpt lat="45.53894" lon="6.81307">
        <ele>2304.3852539062</ele>
        <time>2014-07-24T10:33:47Z</time>
      </trkpt>
      <trkpt lat="45.53896" lon="6.81308">
        <ele>2304.9616699219</ele>
        <time>2014-07-24T10:33:49Z</time>
      </trkpt>
      <trkpt lat="45.53897" lon="6.81308">
        <ele>2305.4108886719</ele>
        <time>2014-07-24T10:33:51Z</time>
      </trkpt>
      <trkpt lat="45.53899" lon="6.81308">
        <ele>2305.7260742188</ele>
        <time>2014-07-24T10:33:53Z</time>
      </trkpt>
      <trkpt lat="45.539" lon="6.81307">
        <ele>2305.7238769531</ele>
        <time>2014-07-24T10:33:55Z</time>
      </trkpt>
      <trkpt lat="45.53904" lon="6.81305">
        <ele>2306.08984375</ele>
        <time>2014-07-24T10:33:59Z</time>
      </trkpt>
      <trkpt lat="45.53907" lon="6.81305">
        <ele>2306.728515625</ele>
        <time>2014-07-24T10:34:03Z</time>
      </trkpt>
      <trkpt lat="45.53917" lon="6.81303">
        <ele>2308.6213378906</ele>
        <time>2014-07-24T10:34:13Z</time>
      </trkpt>
      <trkpt lat="45.53927" lon="6.81298">
        <ele>2310.5783691406</ele>
        <time>2014-07-24T10:34:23Z</time>
      </trkpt>
      <trkpt lat="45.53974" lon="6.81239">
        <ele>2315.3864746094</ele>
        <time>2014-07-24T10:35:28Z</time>
      </trkpt>
      <trkpt lat="45.53979" lon="6.81223">
        <ele>2313.1479492188</ele>
        <time>2014-07-24T10:35:42Z</time>
      </trkpt>
      <trkpt lat="45.53983" lon="6.81221">
        <ele>2314.388671875</ele>
        <time>2014-07-24T10:35:46Z</time>
      </trkpt>
      <trkpt lat="45.53985" lon="6.81222">
        <ele>2315.3928222656</ele>
        <time>2014-07-24T10:35:48Z</time>
      </trkpt>
      <trkpt lat="45.53986" lon="6.81223">
        <ele>2316.4165039062</ele>
        <time>2014-07-24T10:35:50Z</time>
      </trkpt>
      <trkpt lat="45.53988" lon="6.81225">
        <ele>2317.4189453125</ele>
        <time>2014-07-24T10:35:52Z</time>
      </trkpt>
      <trkpt lat="45.53993" lon="6.8123">
        <ele>2321.2504882812</ele>
        <time>2014-07-24T10:36:00Z</time>
      </trkpt>
      <trkpt lat="45.54002" lon="6.81236">
        <ele>2325.6154785156</ele>
        <time>2014-07-24T10:36:08Z</time>
      </trkpt>
      <trkpt lat="45.54018" lon="6.81245">
        <ele>2326.9018554688</ele>
        <time>2014-07-24T10:36:28Z</time>
      </trkpt>
      <trkpt lat="45.5402" lon="6.81246">
        <ele>2327.0187988281</ele>
        <time>2014-07-24T10:36:30Z</time>
      </trkpt>
      <trkpt lat="45.54021" lon="6.81247">
        <ele>2327.2941894531</ele>
        <time>2014-07-24T10:36:32Z</time>
      </trkpt>
      <trkpt lat="45.54026" lon="6.81249">
        <ele>2327.8520507812</ele>
        <time>2014-07-24T10:36:36Z</time>
      </trkpt>
      <trkpt lat="45.54028" lon="6.8125">
        <ele>2327.93359375</ele>
        <time>2014-07-24T10:36:38Z</time>
      </trkpt>
      <trkpt lat="45.54029" lon="6.81251">
        <ele>2328.1550292969</ele>
        <time>2014-07-24T10:36:40Z</time>
      </trkpt>
      <trkpt lat="45.54037" lon="6.81254">
        <ele>2328.4887695312</ele>
        <time>2014-07-24T10:36:48Z</time>
      </trkpt>
      <trkpt lat="45.54039" lon="6.81255">
        <ele>2328.7556152344</ele>
        <time>2014-07-24T10:36:50Z</time>
      </trkpt>
      <trkpt lat="45.54048" lon="6.81256">
        <ele>2328.5847167969</ele>
        <time>2014-07-24T10:36:58Z</time>
      </trkpt>
      <trkpt lat="45.54054" lon="6.81261">
        <ele>2330.2172851562</ele>
        <time>2014-07-24T10:37:06Z</time>
      </trkpt>
      <trkpt lat="45.54061" lon="6.81265">
        <ele>2330.7424316406</ele>
        <time>2014-07-24T10:37:14Z</time>
      </trkpt>
      <trkpt lat="45.54065" lon="6.81266">
        <ele>2330.7109375</ele>
        <time>2014-07-24T10:37:18Z</time>
      </trkpt>
      <trkpt lat="45.54067" lon="6.81268">
        <ele>2331.2036132812</ele>
        <time>2014-07-24T10:37:20Z</time>
      </trkpt>
      <trkpt lat="45.5408" lon="6.81274">
        <ele>2331.1267089844</ele>
        <time>2014-07-24T10:37:34Z</time>
      </trkpt>
      <trkpt lat="45.54081" lon="6.81274">
        <ele>2330.6569824219</ele>
        <time>2014-07-24T10:37:36Z</time>
      </trkpt>
      <trkpt lat="45.54083" lon="6.81274">
        <ele>2330.5847167969</ele>
        <time>2014-07-24T10:37:38Z</time>
      </trkpt>
      <trkpt lat="45.54089" lon="6.81279">
        <ele>2332.8051757812</ele>
        <time>2014-07-24T10:37:44Z</time>
      </trkpt>
      <trkpt lat="45.5409" lon="6.81281">
        <ele>2333.986328125</ele>
        <time>2014-07-24T10:37:46Z</time>
      </trkpt>
      <trkpt lat="45.54095" lon="6.81286">
        <ele>2336.3471679688</ele>
        <time>2014-07-24T10:37:52Z</time>
      </trkpt>
      <trkpt lat="45.54099" lon="6.81292">
        <ele>2339.1879882812</ele>
        <time>2014-07-24T10:37:58Z</time>
      </trkpt>
      <trkpt lat="45.54101" lon="6.81294">
        <ele>2339.8217773438</ele>
        <time>2014-07-24T10:38:00Z</time>
      </trkpt>
      <trkpt lat="45.54102" lon="6.81296">
        <ele>2340.4938964844</ele>
        <time>2014-07-24T10:38:02Z</time>
      </trkpt>
      <trkpt lat="45.54103" lon="6.81296">
        <ele>2340.5939941406</ele>
        <time>2014-07-24T10:38:04Z</time>
      </trkpt>
      <trkpt lat="45.54103" lon="6.81296">
        <ele>2340.6833496094</ele>
        <time>2014-07-24T10:38:06Z</time>
      </trkpt>
      <trkpt lat="45.54103" lon="6.81296">
        <ele>2340.7280273438</ele>
        <time>2014-07-24T10:38:08Z</time>
      </trkpt>
      <trkpt lat="45.54103" lon="6.81296">
        <ele>2340.638671875</ele>
        <time>2014-07-24T10:38:10Z</time>
      </trkpt>
      <trkpt lat="45.54103" lon="6.81296">
        <ele>2340.3972167969</ele>
        <time>2014-07-24T10:38:12Z</time>
      </trkpt>
      <trkpt lat="45.54103" lon="6.81295">
        <ele>2340.2419433594</ele>
        <time>2014-07-24T10:38:16Z</time>
      </trkpt>
      <trkpt lat="45.54104" lon="6.81296">
        <ele>2340.2026367188</ele>
        <time>2014-07-24T10:38:18Z</time>
      </trkpt>
      <trkpt lat="45.54104" lon="6.81296">
        <ele>2340.2468261719</ele>
        <time>2014-07-24T10:38:20Z</time>
      </trkpt>
      <trkpt lat="45.54104" lon="6.81296">
        <ele>2340.2468261719</ele>
        <time>2014-07-24T10:38:22Z</time>
      </trkpt>
      <trkpt lat="45.54104" lon="6.81296">
        <ele>2340.1630859375</ele>
        <time>2014-07-24T10:38:24Z</time>
      </trkpt>
      <trkpt lat="45.54104" lon="6.81296">
        <ele>2340.1630859375</ele>
        <time>2014-07-24T10:38:26Z</time>
      </trkpt>
      <trkpt lat="45.54104" lon="6.81295">
        <ele>2340.1193847656</ele>
        <time>2014-07-24T10:38:30Z</time>
      </trkpt>
      <trkpt lat="45.54104" lon="6.81296">
        <ele>2340.447265625</ele>
        <time>2014-07-24T10:38:38Z</time>
      </trkpt>
      <trkpt lat="45.54104" lon="6.81296">
        <ele>2340.3161621094</ele>
        <time>2014-07-24T10:38:42Z</time>
      </trkpt>
      <trkpt lat="45.54105" lon="6.81296">
        <ele>2340.0397949219</ele>
        <time>2014-07-24T10:38:46Z</time>
      </trkpt>
      <trkpt lat="45.54105" lon="6.81296">
        <ele>2340.0830078125</ele>
        <time>2014-07-24T10:38:48Z</time>
      </trkpt>
      <trkpt lat="45.54104" lon="6.81297">
        <ele>2340.7534179688</ele>
        <time>2014-07-24T10:38:52Z</time>
      </trkpt>
      <trkpt lat="45.54103" lon="6.81297">
        <ele>2341.0856933594</ele>
        <time>2014-07-24T10:38:54Z</time>
      </trkpt>
      <trkpt lat="45.54103" lon="6.81297">
        <ele>2341.1303710938</ele>
        <time>2014-07-24T10:38:56Z</time>
      </trkpt>
      <trkpt lat="45.54102" lon="6.81298">
        <ele>2341.60546875</ele>
        <time>2014-07-24T10:38:58Z</time>
      </trkpt>
      <trkpt lat="45.54102" lon="6.81298">
        <ele>2341.6982421875</ele>
        <time>2014-07-24T10:39:00Z</time>
      </trkpt>
      <trkpt lat="45.54102" lon="6.81298">
        <ele>2341.9523925781</ele>
        <time>2014-07-24T10:39:02Z</time>
      </trkpt>
      <trkpt lat="45.54101" lon="6.81298">
        <ele>2342.0700683594</ele>
        <time>2014-07-24T10:39:04Z</time>
      </trkpt>
      <trkpt lat="45.541" lon="6.81298">
        <ele>2342.0959472656</ele>
        <time>2014-07-24T10:39:06Z</time>
      </trkpt>
      <trkpt lat="45.541" lon="6.81298">
        <ele>2342.048828125</ele>
        <time>2014-07-24T10:39:08Z</time>
      </trkpt>
      <trkpt lat="45.541" lon="6.81299">
        <ele>2342.2604980469</ele>
        <time>2014-07-24T10:39:10Z</time>
      </trkpt>
      <trkpt lat="45.54102" lon="6.813">
        <ele>2342.7578125</ele>
        <time>2014-07-24T10:39:12Z</time>
      </trkpt>
      <trkpt lat="45.54104" lon="6.81301">
        <ele>2342.9116210938</ele>
        <time>2014-07-24T10:39:14Z</time>
      </trkpt>
      <trkpt lat="45.54104" lon="6.81302">
        <ele>2343.0703125</ele>
        <time>2014-07-24T10:39:16Z</time>
      </trkpt>
      <trkpt lat="45.54105" lon="6.81302">
        <ele>2342.8601074219</ele>
        <time>2014-07-24T10:39:17Z</time>
      </trkpt>
      <trkpt lat="45.54105" lon="6.81302">
        <ele>2343.0969238281</ele>
        <time>2014-07-24T10:39:22Z</time>
      </trkpt>
      <trkpt lat="45.54105" lon="6.81303">
        <ele>2343.1826171875</ele>
        <time>2014-07-24T10:39:24Z</time>
      </trkpt>
      <trkpt lat="45.54106" lon="6.81304">
        <ele>2343.435546875</ele>
        <time>2014-07-24T10:39:26Z</time>
      </trkpt>
      <trkpt lat="45.54106" lon="6.81304">
        <ele>2343.4516601562</ele>
        <time>2014-07-24T10:39:28Z</time>
      </trkpt>
      <trkpt lat="45.54106" lon="6.81304">
        <ele>2343.6198730469</ele>
        <time>2014-07-24T10:39:32Z</time>
      </trkpt>
      <trkpt lat="45.54106" lon="6.81304">
        <ele>2343.6198730469</ele>
        <time>2014-07-24T10:39:34Z</time>
      </trkpt>
      <trkpt lat="45.54107" lon="6.81304">
        <ele>2343.6123046875</ele>
        <time>2014-07-24T10:39:36Z</time>
      </trkpt>
      <trkpt lat="45.54109" lon="6.81311">
        <ele>2344.8876953125</ele>
        <time>2014-07-24T10:39:42Z</time>
      </trkpt>
      <trkpt lat="45.54111" lon="6.81314">
        <ele>2345.2509765625</ele>
        <time>2014-07-24T10:39:44Z</time>
      </trkpt>
      <trkpt lat="45.54111" lon="6.81318">
        <ele>2346.0170898438</ele>
        <time>2014-07-24T10:39:46Z</time>
      </trkpt>
      <trkpt lat="45.54113" lon="6.81321">
        <ele>2346.6137695312</ele>
        <time>2014-07-24T10:39:48Z</time>
      </trkpt>
      <trkpt lat="45.54114" lon="6.8133">
        <ele>2348.6994628906</ele>
        <time>2014-07-24T10:39:54Z</time>
      </trkpt>
      <trkpt lat="45.54116" lon="6.81332">
        <ele>2349.0830078125</ele>
        <time>2014-07-24T10:39:56Z</time>
      </trkpt>
      <trkpt lat="45.54118" lon="6.81334">
        <ele>2349.0952148438</ele>
        <time>2014-07-24T10:39:58Z</time>
      </trkpt>
      <trkpt lat="45.54139" lon="6.81365">
        <ele>2349.6853027344</ele>
        <time>2014-07-24T10:40:22Z</time>
      </trkpt>
      <trkpt lat="45.5414" lon="6.81367">
        <ele>2349.931640625</ele>
        <time>2014-07-24T10:40:24Z</time>
      </trkpt>
      <trkpt lat="45.5417" lon="6.81392">
        <ele>2349.640625</ele>
        <time>2014-07-24T10:40:52Z</time>
      </trkpt>
      <trkpt lat="45.54172" lon="6.81394">
        <ele>2350.0571289062</ele>
        <time>2014-07-24T10:40:54Z</time>
      </trkpt>
      <trkpt lat="45.54176" lon="6.81396">
        <ele>2350.3193359375</ele>
        <time>2014-07-24T10:40:58Z</time>
      </trkpt>
      <trkpt lat="45.54184" lon="6.81397">
        <ele>2349.7351074219</ele>
        <time>2014-07-24T10:41:04Z</time>
      </trkpt>
      <trkpt lat="45.54189" lon="6.81395">
        <ele>2348.5754394531</ele>
        <time>2014-07-24T10:41:08Z</time>
      </trkpt>
      <trkpt lat="45.54211" lon="6.8137">
        <ele>2344.0520019531</ele>
        <time>2014-07-24T10:41:30Z</time>
      </trkpt>
      <trkpt lat="45.54215" lon="6.81363">
        <ele>2343.1999511719</ele>
        <time>2014-07-24T10:41:36Z</time>
      </trkpt>
      <trkpt lat="45.54219" lon="6.81366">
        <ele>2343.5925292969</ele>
        <time>2014-07-24T10:41:42Z</time>
      </trkpt>
      <trkpt lat="45.54221" lon="6.81367">
        <ele>2343.6240234375</ele>
        <time>2014-07-24T10:41:44Z</time>
      </trkpt>
      <trkpt lat="45.54223" lon="6.81367">
        <ele>2343.6337890625</ele>
        <time>2014-07-24T10:41:46Z</time>
      </trkpt>
      <trkpt lat="45.54224" lon="6.81366">
        <ele>2343.6389160156</ele>
        <time>2014-07-24T10:41:48Z</time>
      </trkpt>
      <trkpt lat="45.54227" lon="6.81366">
        <ele>2343.8393554688</ele>
        <time>2014-07-24T10:41:52Z</time>
      </trkpt>
      <trkpt lat="45.54238" lon="6.81371">
        <ele>2344.80859375</ele>
        <time>2014-07-24T10:42:04Z</time>
      </trkpt>
      <trkpt lat="45.54239" lon="6.81373">
        <ele>2344.9443359375</ele>
        <time>2014-07-24T10:42:06Z</time>
      </trkpt>
      <trkpt lat="45.54241" lon="6.81374">
        <ele>2345.0847167969</ele>
        <time>2014-07-24T10:42:08Z</time>
      </trkpt>
      <trkpt lat="45.54244" lon="6.81374">
        <ele>2345.2204589844</ele>
        <time>2014-07-24T10:42:10Z</time>
      </trkpt>
      <trkpt lat="45.54246" lon="6.81375">
        <ele>2345.3374023438</ele>
        <time>2014-07-24T10:42:12Z</time>
      </trkpt>
      <trkpt lat="45.54248" lon="6.81377">
        <ele>2345.4953613281</ele>
        <time>2014-07-24T10:42:14Z</time>
      </trkpt>
      <trkpt lat="45.5425" lon="6.81379">
        <ele>2345.6596679688</ele>
        <time>2014-07-24T10:42:18Z</time>
      </trkpt>
      <trkpt lat="45.54255" lon="6.81379">
        <ele>2346.0908203125</ele>
        <time>2014-07-24T10:42:24Z</time>
      </trkpt>
      <trkpt lat="45.54256" lon="6.81379">
        <ele>2346.27734375</ele>
        <time>2014-07-24T10:42:26Z</time>
      </trkpt>
      <trkpt lat="45.54258" lon="6.8138">
        <ele>2346.4301757812</ele>
        <time>2014-07-24T10:42:28Z</time>
      </trkpt>
      <trkpt lat="45.54259" lon="6.8138">
        <ele>2346.6135253906</ele>
        <time>2014-07-24T10:42:30Z</time>
      </trkpt>
      <trkpt lat="45.54261" lon="6.81381">
        <ele>2346.8129882812</ele>
        <time>2014-07-24T10:42:32Z</time>
      </trkpt>
      <trkpt lat="45.54266" lon="6.81383">
        <ele>2347.4536132812</ele>
        <time>2014-07-24T10:42:38Z</time>
      </trkpt>
      <trkpt lat="45.54269" lon="6.81384">
        <ele>2347.7319335938</ele>
        <time>2014-07-24T10:42:40Z</time>
      </trkpt>
      <trkpt lat="45.54271" lon="6.81385">
        <ele>2347.9548339844</ele>
        <time>2014-07-24T10:42:42Z</time>
      </trkpt>
      <trkpt lat="45.54275" lon="6.81393">
        <ele>2349.0275878906</ele>
        <time>2014-07-24T10:42:50Z</time>
      </trkpt>
      <trkpt lat="45.54277" lon="6.81394">
        <ele>2349.212890625</ele>
        <time>2014-07-24T10:42:52Z</time>
      </trkpt>
      <trkpt lat="45.54281" lon="6.81398">
        <ele>2350.0563964844</ele>
        <time>2014-07-24T10:43:00Z</time>
      </trkpt>
      <trkpt lat="45.54285" lon="6.814">
        <ele>2350.6213378906</ele>
        <time>2014-07-24T10:43:06Z</time>
      </trkpt>
      <trkpt lat="45.54285" lon="6.81401">
        <ele>2350.7885742188</ele>
        <time>2014-07-24T10:43:08Z</time>
      </trkpt>
      <trkpt lat="45.54289" lon="6.81403">
        <ele>2351.4821777344</ele>
        <time>2014-07-24T10:43:14Z</time>
      </trkpt>
      <trkpt lat="45.5429" lon="6.81404">
        <ele>2351.6096191406</ele>
        <time>2014-07-24T10:43:16Z</time>
      </trkpt>
      <trkpt lat="45.54291" lon="6.81404">
        <ele>2351.8132324219</ele>
        <time>2014-07-24T10:43:18Z</time>
      </trkpt>
      <trkpt lat="45.54292" lon="6.81405">
        <ele>2352.0329589844</ele>
        <time>2014-07-24T10:43:20Z</time>
      </trkpt>
      <trkpt lat="45.54296" lon="6.81405">
        <ele>2352.5339355469</ele>
        <time>2014-07-24T10:43:24Z</time>
      </trkpt>
      <trkpt lat="45.54301" lon="6.81409">
        <ele>2353.5927734375</ele>
        <time>2014-07-24T10:43:30Z</time>
      </trkpt>
      <trkpt lat="45.54306" lon="6.81419">
        <ele>2355.1704101562</ele>
        <time>2014-07-24T10:43:38Z</time>
      </trkpt>
      <trkpt lat="45.54305" lon="6.81424">
        <ele>2355.4321289062</ele>
        <time>2014-07-24T10:43:42Z</time>
      </trkpt>
      <trkpt lat="45.54305" lon="6.81427">
        <ele>2355.7067871094</ele>
        <time>2014-07-24T10:43:44Z</time>
      </trkpt>
      <trkpt lat="45.54305" lon="6.8144">
        <ele>2356.6296386719</ele>
        <time>2014-07-24T10:43:52Z</time>
      </trkpt>
      <trkpt lat="45.54306" lon="6.81442">
        <ele>2356.931640625</ele>
        <time>2014-07-24T10:43:54Z</time>
      </trkpt>
      <trkpt lat="45.54305" lon="6.81459">
        <ele>2359.6704101562</ele>
        <time>2014-07-24T10:44:06Z</time>
      </trkpt>
      <trkpt lat="45.54307" lon="6.81461">
        <ele>2360.26171875</ele>
        <time>2014-07-24T10:44:08Z</time>
      </trkpt>
      <trkpt lat="45.54308" lon="6.81464">
        <ele>2360.7932128906</ele>
        <time>2014-07-24T10:44:10Z</time>
      </trkpt>
      <trkpt lat="45.54313" lon="6.8147">
        <ele>2362.7321777344</ele>
        <time>2014-07-24T10:44:16Z</time>
      </trkpt>
      <trkpt lat="45.54314" lon="6.81472">
        <ele>2363.1567382812</ele>
        <time>2014-07-24T10:44:18Z</time>
      </trkpt>
      <trkpt lat="45.54316" lon="6.81475">
        <ele>2363.98046875</ele>
        <time>2014-07-24T10:44:22Z</time>
      </trkpt>
      <trkpt lat="45.54321" lon="6.81476">
        <ele>2364.8229980469</ele>
        <time>2014-07-24T10:44:26Z</time>
      </trkpt>
      <trkpt lat="45.54322" lon="6.81477">
        <ele>2365.0319824219</ele>
        <time>2014-07-24T10:44:28Z</time>
      </trkpt>
      <trkpt lat="45.54324" lon="6.81475">
        <ele>2365.123046875</ele>
        <time>2014-07-24T10:44:30Z</time>
      </trkpt>
      <trkpt lat="45.54332" lon="6.81474">
        <ele>2365.9963378906</ele>
        <time>2014-07-24T10:44:38Z</time>
      </trkpt>
      <trkpt lat="45.5434" lon="6.81469">
        <ele>2366.2087402344</ele>
        <time>2014-07-24T10:44:46Z</time>
      </trkpt>
      <trkpt lat="45.54341" lon="6.81469">
        <ele>2366.2739257812</ele>
        <time>2014-07-24T10:44:48Z</time>
      </trkpt>
      <trkpt lat="45.54341" lon="6.8147">
        <ele>2366.3376464844</ele>
        <time>2014-07-24T10:44:50Z</time>
      </trkpt>
      <trkpt lat="45.54342" lon="6.81468">
        <ele>2366.2338867188</ele>
        <time>2014-07-24T10:44:52Z</time>
      </trkpt>
      <trkpt lat="45.54345" lon="6.81464">
        <ele>2366.2639160156</ele>
        <time>2014-07-24T10:44:56Z</time>
      </trkpt>
      <trkpt lat="45.54348" lon="6.81464">
        <ele>2366.4243164062</ele>
        <time>2014-07-24T10:44:58Z</time>
      </trkpt>
      <trkpt lat="45.54349" lon="6.81463">
        <ele>2366.4877929688</ele>
        <time>2014-07-24T10:45:00Z</time>
      </trkpt>
      <trkpt lat="45.54351" lon="6.81462">
        <ele>2366.658203125</ele>
        <time>2014-07-24T10:45:02Z</time>
      </trkpt>
      <trkpt lat="45.54353" lon="6.81463">
        <ele>2366.8269042969</ele>
        <time>2014-07-24T10:45:04Z</time>
      </trkpt>
      <trkpt lat="45.54354" lon="6.81462">
        <ele>2366.90625</ele>
        <time>2014-07-24T10:45:06Z</time>
      </trkpt>
      <trkpt lat="45.54356" lon="6.81462">
        <ele>2367.1457519531</ele>
        <time>2014-07-24T10:45:10Z</time>
      </trkpt>
      <trkpt lat="45.54359" lon="6.8146">
        <ele>2367.3388671875</ele>
        <time>2014-07-24T10:45:14Z</time>
      </trkpt>
      <trkpt lat="45.5436" lon="6.8146">
        <ele>2367.4616699219</ele>
        <time>2014-07-24T10:45:16Z</time>
      </trkpt>
      <trkpt lat="45.54361" lon="6.8146">
        <ele>2367.5324707031</ele>
        <time>2014-07-24T10:45:18Z</time>
      </trkpt>
      <trkpt lat="45.54362" lon="6.8146">
        <ele>2367.6589355469</ele>
        <time>2014-07-24T10:45:20Z</time>
      </trkpt>
      <trkpt lat="45.54366" lon="6.81459">
        <ele>2368.3212890625</ele>
        <time>2014-07-24T10:45:28Z</time>
      </trkpt>
      <trkpt lat="45.54368" lon="6.8146">
        <ele>2368.7338867188</ele>
        <time>2014-07-24T10:45:32Z</time>
      </trkpt>
      <trkpt lat="45.54371" lon="6.81461">
        <ele>2369.1892089844</ele>
        <time>2014-07-24T10:45:36Z</time>
      </trkpt>
      <trkpt lat="45.54373" lon="6.81462">
        <ele>2369.564453125</ele>
        <time>2014-07-24T10:45:40Z</time>
      </trkpt>
      <trkpt lat="45.54375" lon="6.81462">
        <ele>2370.0400390625</ele>
        <time>2014-07-24T10:45:44Z</time>
      </trkpt>
      <trkpt lat="45.54377" lon="6.81463">
        <ele>2370.2634277344</ele>
        <time>2014-07-24T10:45:46Z</time>
      </trkpt>
      <trkpt lat="45.54379" lon="6.81462">
        <ele>2370.6081542969</ele>
        <time>2014-07-24T10:45:50Z</time>
      </trkpt>
      <trkpt lat="45.5438" lon="6.81462">
        <ele>2370.8078613281</ele>
        <time>2014-07-24T10:45:52Z</time>
      </trkpt>
      <trkpt lat="45.54393" lon="6.81461">
        <ele>2373.0988769531</ele>
        <time>2014-07-24T10:46:04Z</time>
      </trkpt>
      <trkpt lat="45.54395" lon="6.81461">
        <ele>2373.6103515625</ele>
        <time>2014-07-24T10:46:06Z</time>
      </trkpt>
      <trkpt lat="45.54398" lon="6.81461">
        <ele>2374.568359375</ele>
        <time>2014-07-24T10:46:10Z</time>
      </trkpt>
      <trkpt lat="45.54409" lon="6.81456">
        <ele>2376.9099121094</ele>
        <time>2014-07-24T10:46:20Z</time>
      </trkpt>
      <trkpt lat="45.54412" lon="6.81456">
        <ele>2377.6960449219</ele>
        <time>2014-07-24T10:46:24Z</time>
      </trkpt>
      <trkpt lat="45.54414" lon="6.81456">
        <ele>2378.2521972656</ele>
        <time>2014-07-24T10:46:26Z</time>
      </trkpt>
      <trkpt lat="45.54416" lon="6.81454">
        <ele>2378.5852050781</ele>
        <time>2014-07-24T10:46:28Z</time>
      </trkpt>
      <trkpt lat="45.54421" lon="6.81452">
        <ele>2378.7883300781</ele>
        <time>2014-07-24T10:46:34Z</time>
      </trkpt>
      <trkpt lat="45.54425" lon="6.81454">
        <ele>2379.0715332031</ele>
        <time>2014-07-24T10:46:38Z</time>
      </trkpt>
      <trkpt lat="45.54428" lon="6.81457">
        <ele>2379.3679199219</ele>
        <time>2014-07-24T10:46:42Z</time>
      </trkpt>
      <trkpt lat="45.54447" lon="6.81467">
        <ele>2380</ele>
        <time>2014-07-24T10:47:00Z</time>
      </trkpt>
      <trkpt lat="45.54451" lon="6.81467">
        <ele>2380</ele>
        <time>2014-07-24T10:47:04Z</time>
      </trkpt>
      <trkpt lat="45.54455" lon="6.81469">
        <ele>2380</ele>
        <time>2014-07-24T10:47:08Z</time>
      </trkpt>
      <trkpt lat="45.5447" lon="6.81469">
        <ele>2380</ele>
        <time>2014-07-24T10:47:22Z</time>
      </trkpt>
      <trkpt lat="45.54475" lon="6.81471">
        <ele>2380</ele>
        <time>2014-07-24T10:47:26Z</time>
      </trkpt>
      <trkpt lat="45.54476" lon="6.8147">
        <ele>2380</ele>
        <time>2014-07-24T10:47:28Z</time>
      </trkpt>
      <trkpt lat="45.54477" lon="6.81469">
        <ele>2380</ele>
        <time>2014-07-24T10:47:30Z</time>
      </trkpt>
      <trkpt lat="45.54477" lon="6.81467">
        <ele>2380</ele>
        <time>2014-07-24T10:47:32Z</time>
      </trkpt>
      <trkpt lat="45.54477" lon="6.81464">
        <ele>2380</ele>
        <time>2014-07-24T10:47:34Z</time>
      </trkpt>
      <trkpt lat="45.54477" lon="6.81461">
        <ele>2380</ele>
        <time>2014-07-24T10:47:36Z</time>
      </trkpt>
      <trkpt lat="45.54479" lon="6.8146">
        <ele>2380</ele>
        <time>2014-07-24T10:47:38Z</time>
      </trkpt>
      <trkpt lat="45.5448" lon="6.81459">
        <ele>2380</ele>
        <time>2014-07-24T10:47:40Z</time>
      </trkpt>
      <trkpt lat="45.54484" lon="6.81459">
        <ele>2380</ele>
        <time>2014-07-24T10:47:44Z</time>
      </trkpt>
      <trkpt lat="45.54489" lon="6.81457">
        <ele>2380</ele>
        <time>2014-07-24T10:47:50Z</time>
      </trkpt>
      <trkpt lat="45.54491" lon="6.81457">
        <ele>2380</ele>
        <time>2014-07-24T10:47:52Z</time>
      </trkpt>
      <trkpt lat="45.54496" lon="6.81455">
        <ele>2380</ele>
        <time>2014-07-24T10:47:58Z</time>
      </trkpt>
      <trkpt lat="45.545" lon="6.81452">
        <ele>2380</ele>
        <time>2014-07-24T10:48:04Z</time>
      </trkpt>
      <trkpt lat="45.54502" lon="6.81451">
        <ele>2380</ele>
        <time>2014-07-24T10:48:06Z</time>
      </trkpt>
      <trkpt lat="45.54505" lon="6.8145">
        <ele>2380</ele>
        <time>2014-07-24T10:48:10Z</time>
      </trkpt>
      <trkpt lat="45.54507" lon="6.81448">
        <ele>2380</ele>
        <time>2014-07-24T10:48:12Z</time>
      </trkpt>
      <trkpt lat="45.5451" lon="6.8144">
        <ele>2380.1674804688</ele>
        <time>2014-07-24T10:48:18Z</time>
      </trkpt>
      <trkpt lat="45.54511" lon="6.81438">
        <ele>2380.2814941406</ele>
        <time>2014-07-24T10:48:20Z</time>
      </trkpt>
      <trkpt lat="45.54515" lon="6.81437">
        <ele>2380.4189453125</ele>
        <time>2014-07-24T10:48:24Z</time>
      </trkpt>
      <trkpt lat="45.54516" lon="6.81437">
        <ele>2380.4458007812</ele>
        <time>2014-07-24T10:48:26Z</time>
      </trkpt>
      <trkpt lat="45.54519" lon="6.81436">
        <ele>2380.6137695312</ele>
        <time>2014-07-24T10:48:32Z</time>
      </trkpt>
      <trkpt lat="45.54522" lon="6.81433">
        <ele>2380.9965820312</ele>
        <time>2014-07-24T10:48:38Z</time>
      </trkpt>
      <trkpt lat="45.54525" lon="6.81427">
        <ele>2381.7229003906</ele>
        <time>2014-07-24T10:48:46Z</time>
      </trkpt>
      <trkpt lat="45.54526" lon="6.81425">
        <ele>2381.9519042969</ele>
        <time>2014-07-24T10:48:48Z</time>
      </trkpt>
      <trkpt lat="45.54527" lon="6.81425">
        <ele>2382.0686035156</ele>
        <time>2014-07-24T10:48:50Z</time>
      </trkpt>
      <trkpt lat="45.5453" lon="6.81426">
        <ele>2382.3767089844</ele>
        <time>2014-07-24T10:48:56Z</time>
      </trkpt>
      <trkpt lat="45.54531" lon="6.81425">
        <ele>2382.6486816406</ele>
        <time>2014-07-24T10:48:58Z</time>
      </trkpt>
      <trkpt lat="45.54533" lon="6.81425">
        <ele>2382.8791503906</ele>
        <time>2014-07-24T10:49:00Z</time>
      </trkpt>
      <trkpt lat="45.54535" lon="6.81426">
        <ele>2383.1196289062</ele>
        <time>2014-07-24T10:49:04Z</time>
      </trkpt>
      <trkpt lat="45.54536" lon="6.81426">
        <ele>2383.3759765625</ele>
        <time>2014-07-24T10:49:06Z</time>
      </trkpt>
      <trkpt lat="45.5454" lon="6.81422">
        <ele>2384.3332519531</ele>
        <time>2014-07-24T10:49:14Z</time>
      </trkpt>
      <trkpt lat="45.54541" lon="6.8142">
        <ele>2384.5695800781</ele>
        <time>2014-07-24T10:49:16Z</time>
      </trkpt>
      <trkpt lat="45.54543" lon="6.81418">
        <ele>2385.0986328125</ele>
        <time>2014-07-24T10:49:20Z</time>
      </trkpt>
      <trkpt lat="45.54544" lon="6.81417">
        <ele>2385.2543945312</ele>
        <time>2014-07-24T10:49:22Z</time>
      </trkpt>
      <trkpt lat="45.54545" lon="6.81416">
        <ele>2385.4907226562</ele>
        <time>2014-07-24T10:49:24Z</time>
      </trkpt>
      <trkpt lat="45.54547" lon="6.81415">
        <ele>2385.8820800781</ele>
        <time>2014-07-24T10:49:28Z</time>
      </trkpt>
      <trkpt lat="45.54548" lon="6.81414">
        <ele>2386.0537109375</ele>
        <time>2014-07-24T10:49:30Z</time>
      </trkpt>
      <trkpt lat="45.54548" lon="6.81414">
        <ele>2386.1774902344</ele>
        <time>2014-07-24T10:49:32Z</time>
      </trkpt>
      <trkpt lat="45.54552" lon="6.8141">
        <ele>2386.9499511719</ele>
        <time>2014-07-24T10:49:40Z</time>
      </trkpt>
      <trkpt lat="45.54552" lon="6.81409">
        <ele>2387.0734863281</ele>
        <time>2014-07-24T10:49:42Z</time>
      </trkpt>
      <trkpt lat="45.54554" lon="6.81408">
        <ele>2387.3962402344</ele>
        <time>2014-07-24T10:49:46Z</time>
      </trkpt>
      <trkpt lat="45.54555" lon="6.81408">
        <ele>2387.5541992188</ele>
        <time>2014-07-24T10:49:48Z</time>
      </trkpt>
      <trkpt lat="45.54557" lon="6.81408">
        <ele>2387.9765625</ele>
        <time>2014-07-24T10:49:52Z</time>
      </trkpt>
      <trkpt lat="45.54559" lon="6.81406">
        <ele>2388.4323730469</ele>
        <time>2014-07-24T10:49:56Z</time>
      </trkpt>
      <trkpt lat="45.5456" lon="6.81403">
        <ele>2389.0385742188</ele>
        <time>2014-07-24T10:50:00Z</time>
      </trkpt>
      <trkpt lat="45.54562" lon="6.81401">
        <ele>2389.5854492188</ele>
        <time>2014-07-24T10:50:04Z</time>
      </trkpt>
      <trkpt lat="45.54564" lon="6.81399">
        <ele>2390.2416992188</ele>
        <time>2014-07-24T10:50:08Z</time>
      </trkpt>
      <trkpt lat="45.54565" lon="6.81398">
        <ele>2390.5075683594</ele>
        <time>2014-07-24T10:50:10Z</time>
      </trkpt>
      <trkpt lat="45.54567" lon="6.81397">
        <ele>2391.2436523438</ele>
        <time>2014-07-24T10:50:14Z</time>
      </trkpt>
      <trkpt lat="45.54568" lon="6.81397">
        <ele>2391.4865722656</ele>
        <time>2014-07-24T10:50:16Z</time>
      </trkpt>
      <trkpt lat="45.54568" lon="6.81396">
        <ele>2391.5874023438</ele>
        <time>2014-07-24T10:50:18Z</time>
      </trkpt>
      <trkpt lat="45.54568" lon="6.81397">
        <ele>2391.4655761719</ele>
        <time>2014-07-24T10:50:20Z</time>
      </trkpt>
      <trkpt lat="45.54568" lon="6.81397">
        <ele>2391.4655761719</ele>
        <time>2014-07-24T10:50:22Z</time>
      </trkpt>
      <trkpt lat="45.54568" lon="6.81397">
        <ele>2391.4697265625</ele>
        <time>2014-07-24T10:50:24Z</time>
      </trkpt>
      <trkpt lat="45.54568" lon="6.81398">
        <ele>2391.3898925781</ele>
        <time>2014-07-24T10:50:34Z</time>
      </trkpt>
      <trkpt lat="45.54568" lon="6.81398">
        <ele>2391.3898925781</ele>
        <time>2014-07-24T10:50:36Z</time>
      </trkpt>
      <trkpt lat="45.54568" lon="6.81398">
        <ele>2391.3898925781</ele>
        <time>2014-07-24T10:50:38Z</time>
      </trkpt>
      <trkpt lat="45.54568" lon="6.81398">
        <ele>2391.3898925781</ele>
        <time>2014-07-24T10:50:40Z</time>
      </trkpt>
      <trkpt lat="45.54568" lon="6.81397">
        <ele>2391.3232421875</ele>
        <time>2014-07-24T10:50:42Z</time>
      </trkpt>
      <trkpt lat="45.54569" lon="6.81396">
        <ele>2391.7807617188</ele>
        <time>2014-07-24T10:50:48Z</time>
      </trkpt>
      <trkpt lat="45.5457" lon="6.81396">
        <ele>2391.93359375</ele>
        <time>2014-07-24T10:50:50Z</time>
      </trkpt>
      <trkpt lat="45.54571" lon="6.81395">
        <ele>2392.2817382812</ele>
        <time>2014-07-24T10:50:52Z</time>
      </trkpt>
      <trkpt lat="45.54572" lon="6.81395">
        <ele>2392.6901855469</ele>
        <time>2014-07-24T10:50:56Z</time>
      </trkpt>
      <trkpt lat="45.54573" lon="6.81395">
        <ele>2392.86328125</ele>
        <time>2014-07-24T10:50:58Z</time>
      </trkpt>
      <trkpt lat="45.54575" lon="6.81394">
        <ele>2393.2778320312</ele>
        <time>2014-07-24T10:51:02Z</time>
      </trkpt>
      <trkpt lat="45.54576" lon="6.81393">
        <ele>2393.7646484375</ele>
        <time>2014-07-24T10:51:06Z</time>
      </trkpt>
      <trkpt lat="45.54577" lon="6.81392">
        <ele>2394.1948242188</ele>
        <time>2014-07-24T10:51:08Z</time>
      </trkpt>
      <trkpt lat="45.54579" lon="6.8139">
        <ele>2394.80078125</ele>
        <time>2014-07-24T10:51:12Z</time>
      </trkpt>
      <trkpt lat="45.54581" lon="6.8139">
        <ele>2395.232421875</ele>
        <time>2014-07-24T10:51:14Z</time>
      </trkpt>
      <trkpt lat="45.54584" lon="6.8139">
        <ele>2396.1254882812</ele>
        <time>2014-07-24T10:51:20Z</time>
      </trkpt>
      <trkpt lat="45.54585" lon="6.8139">
        <ele>2396.3142089844</ele>
        <time>2014-07-24T10:51:22Z</time>
      </trkpt>
      <trkpt lat="45.54588" lon="6.8139">
        <ele>2397.3540039062</ele>
        <time>2014-07-24T10:51:28Z</time>
      </trkpt>
      <trkpt lat="45.54589" lon="6.8139">
        <ele>2397.6555175781</ele>
        <time>2014-07-24T10:51:30Z</time>
      </trkpt>
      <trkpt lat="45.5459" lon="6.81389">
        <ele>2397.8461914062</ele>
        <time>2014-07-24T10:51:32Z</time>
      </trkpt>
      <trkpt lat="45.54591" lon="6.81388">
        <ele>2398.2707519531</ele>
        <time>2014-07-24T10:51:34Z</time>
      </trkpt>
      <trkpt lat="45.54592" lon="6.81388">
        <ele>2398.6352539062</ele>
        <time>2014-07-24T10:51:36Z</time>
      </trkpt>
      <trkpt lat="45.54599" lon="6.81392">
        <ele>2400.3649902344</ele>
        <time>2014-07-24T10:51:48Z</time>
      </trkpt>
      <trkpt lat="45.54601" lon="6.81395">
        <ele>2400.7189941406</ele>
        <time>2014-07-24T10:51:52Z</time>
      </trkpt>
      <trkpt lat="45.54602" lon="6.81394">
        <ele>2401.1086425781</ele>
        <time>2014-07-24T10:51:54Z</time>
      </trkpt>
      <trkpt lat="45.54605" lon="6.81387">
        <ele>2402.3149414062</ele>
        <time>2014-07-24T10:52:02Z</time>
      </trkpt>
      <trkpt lat="45.5461" lon="6.81384">
        <ele>2403.7160644531</ele>
        <time>2014-07-24T10:52:10Z</time>
      </trkpt>
      <trkpt lat="45.54613" lon="6.81385">
        <ele>2404.6098632812</ele>
        <time>2014-07-24T10:52:14Z</time>
      </trkpt>
      <trkpt lat="45.54614" lon="6.81385">
        <ele>2405.0358886719</ele>
        <time>2014-07-24T10:52:16Z</time>
      </trkpt>
      <trkpt lat="45.54615" lon="6.81385">
        <ele>2405.32421875</ele>
        <time>2014-07-24T10:52:18Z</time>
      </trkpt>
      <trkpt lat="45.54619" lon="6.81383">
        <ele>2406.9650878906</ele>
        <time>2014-07-24T10:52:24Z</time>
      </trkpt>
      <trkpt lat="45.5462" lon="6.81382">
        <ele>2407.4438476562</ele>
        <time>2014-07-24T10:52:26Z</time>
      </trkpt>
      <trkpt lat="45.54622" lon="6.81375">
        <ele>2408.4421386719</ele>
        <time>2014-07-24T10:52:34Z</time>
      </trkpt>
      <trkpt lat="45.54622" lon="6.81375">
        <ele>2408.4821777344</ele>
        <time>2014-07-24T10:52:36Z</time>
      </trkpt>
      <trkpt lat="45.54622" lon="6.81374">
        <ele>2408.671875</ele>
        <time>2014-07-24T10:52:38Z</time>
      </trkpt>
      <trkpt lat="45.54624" lon="6.81374">
        <ele>2409.2990722656</ele>
        <time>2014-07-24T10:52:40Z</time>
      </trkpt>
      <trkpt lat="45.54625" lon="6.81375">
        <ele>2409.5903320312</ele>
        <time>2014-07-24T10:52:42Z</time>
      </trkpt>
      <trkpt lat="45.54625" lon="6.81374">
        <ele>2409.9155273438</ele>
        <time>2014-07-24T10:52:44Z</time>
      </trkpt>
      <trkpt lat="45.54626" lon="6.81375">
        <ele>2410.19140625</ele>
        <time>2014-07-24T10:52:48Z</time>
      </trkpt>
      <trkpt lat="45.54628" lon="6.81374">
        <ele>2410.9018554688</ele>
        <time>2014-07-24T10:52:50Z</time>
      </trkpt>
      <trkpt lat="45.5463" lon="6.8137">
        <ele>2412.1416015625</ele>
        <time>2014-07-24T10:52:56Z</time>
      </trkpt>
      <trkpt lat="45.5463" lon="6.81367">
        <ele>2412.5378417969</ele>
        <time>2014-07-24T10:53:02Z</time>
      </trkpt>
      <trkpt lat="45.54631" lon="6.81365">
        <ele>2413.0107421875</ele>
        <time>2014-07-24T10:53:04Z</time>
      </trkpt>
      <trkpt lat="45.54631" lon="6.81342">
        <ele>2415.7316894531</ele>
        <time>2014-07-24T10:53:30Z</time>
      </trkpt>
      <trkpt lat="45.54631" lon="6.81342">
        <ele>2415.9516601562</ele>
        <time>2014-07-24T10:53:32Z</time>
      </trkpt>
      <trkpt lat="45.54631" lon="6.81343">
        <ele>2415.8901367188</ele>
        <time>2014-07-24T10:53:36Z</time>
      </trkpt>
      <trkpt lat="45.54632" lon="6.81344">
        <ele>2416.1745605469</ele>
        <time>2014-07-24T10:53:38Z</time>
      </trkpt>
      <trkpt lat="45.54633" lon="6.81344">
        <ele>2416.6003417969</ele>
        <time>2014-07-24T10:53:40Z</time>
      </trkpt>
      <trkpt lat="45.54634" lon="6.81335">
        <ele>2418.126953125</ele>
        <time>2014-07-24T10:53:52Z</time>
      </trkpt>
      <trkpt lat="45.54634" lon="6.81334">
        <ele>2418.6611328125</ele>
        <time>2014-07-24T10:53:54Z</time>
      </trkpt>
      <trkpt lat="45.54636" lon="6.81337">
        <ele>2418.98046875</ele>
        <time>2014-07-24T10:54:00Z</time>
      </trkpt>
      <trkpt lat="45.54638" lon="6.81338">
        <ele>2419.6533203125</ele>
        <time>2014-07-24T10:54:02Z</time>
      </trkpt>
      <trkpt lat="45.54638" lon="6.81338">
        <ele>2419.775390625</ele>
        <time>2014-07-24T10:54:04Z</time>
      </trkpt>
      <trkpt lat="45.54639" lon="6.81336">
        <ele>2420.4494628906</ele>
        <time>2014-07-24T10:54:08Z</time>
      </trkpt>
      <trkpt lat="45.54639" lon="6.81336">
        <ele>2420.9216308594</ele>
        <time>2014-07-24T10:54:10Z</time>
      </trkpt>
      <trkpt lat="45.54639" lon="6.81334">
        <ele>2420.8469238281</ele>
        <time>2014-07-24T10:54:14Z</time>
      </trkpt>
      <trkpt lat="45.54639" lon="6.81332">
        <ele>2421.3227539062</ele>
        <time>2014-07-24T10:54:16Z</time>
      </trkpt>
      <trkpt lat="45.54639" lon="6.81332">
        <ele>2421.2065429688</ele>
        <time>2014-07-24T10:54:18Z</time>
      </trkpt>
      <trkpt lat="45.54639" lon="6.81331">
        <ele>2421.4685058594</ele>
        <time>2014-07-24T10:54:20Z</time>
      </trkpt>
      <trkpt lat="45.54639" lon="6.81331">
        <ele>2421.4858398438</ele>
        <time>2014-07-24T10:54:22Z</time>
      </trkpt>
      <trkpt lat="45.54639" lon="6.81331">
        <ele>2421.6728515625</ele>
        <time>2014-07-24T10:54:24Z</time>
      </trkpt>
      <trkpt lat="45.54639" lon="6.81331">
        <ele>2421.6643066406</ele>
        <time>2014-07-24T10:54:25Z</time>
      </trkpt>
      <trkpt lat="45.54641" lon="6.81333">
        <ele>2422.0778808594</ele>
        <time>2014-07-24T10:54:32Z</time>
      </trkpt>
      <trkpt lat="45.54642" lon="6.81333">
        <ele>2422.4885253906</ele>
        <time>2014-07-24T10:54:34Z</time>
      </trkpt>
      <trkpt lat="45.54642" lon="6.81334">
        <ele>2422.5959472656</ele>
        <time>2014-07-24T10:54:36Z</time>
      </trkpt>
      <trkpt lat="45.54643" lon="6.81334">
        <ele>2422.9453125</ele>
        <time>2014-07-24T10:54:38Z</time>
      </trkpt>
      <trkpt lat="45.54645" lon="6.81335">
        <ele>2423.4411621094</ele>
        <time>2014-07-24T10:54:42Z</time>
      </trkpt>
      <trkpt lat="45.54646" lon="6.81336">
        <ele>2424.01953125</ele>
        <time>2014-07-24T10:54:48Z</time>
      </trkpt>
      <trkpt lat="45.54646" lon="6.81336">
        <ele>2424.0268554688</ele>
        <time>2014-07-24T10:54:52Z</time>
      </trkpt>
      <trkpt lat="45.54646" lon="6.81336">
        <ele>2423.990234375</ele>
        <time>2014-07-24T10:54:54Z</time>
      </trkpt>
      <trkpt lat="45.54646" lon="6.81336">
        <ele>2423.990234375</ele>
        <time>2014-07-24T10:54:56Z</time>
      </trkpt>
      <trkpt lat="45.54647" lon="6.81337">
        <ele>2424.3146972656</ele>
        <time>2014-07-24T10:54:58Z</time>
      </trkpt>
      <trkpt lat="45.54648" lon="6.81337">
        <ele>2424.67578125</ele>
        <time>2014-07-24T10:55:00Z</time>
      </trkpt>
      <trkpt lat="45.54649" lon="6.81336">
        <ele>2425.0595703125</ele>
        <time>2014-07-24T10:55:02Z</time>
      </trkpt>
      <trkpt lat="45.54651" lon="6.81335">
        <ele>2426.2966308594</ele>
        <time>2014-07-24T10:55:04Z</time>
      </trkpt>
      <trkpt lat="45.54656" lon="6.8133">
        <ele>2429.5383300781</ele>
        <time>2014-07-24T10:55:14Z</time>
      </trkpt>
      <trkpt lat="45.54657" lon="6.8133">
        <ele>2430.0395507812</ele>
        <time>2014-07-24T10:55:16Z</time>
      </trkpt>
      <trkpt lat="45.54658" lon="6.8133">
        <ele>2430.4309082031</ele>
        <time>2014-07-24T10:55:18Z</time>
      </trkpt>
      <trkpt lat="45.54661" lon="6.81332">
        <ele>2431.5073242188</ele>
        <time>2014-07-24T10:55:24Z</time>
      </trkpt>
      <trkpt lat="45.54662" lon="6.81332">
        <ele>2432</ele>
        <time>2014-07-24T10:55:26Z</time>
      </trkpt>
      <trkpt lat="45.54664" lon="6.8133">
        <ele>2433.2272949219</ele>
        <time>2014-07-24T10:55:30Z</time>
      </trkpt>
      <trkpt lat="45.54665" lon="6.8133">
        <ele>2433.7458496094</ele>
        <time>2014-07-24T10:55:32Z</time>
      </trkpt>
      <trkpt lat="45.54666" lon="6.8133">
        <ele>2434.3156738281</ele>
        <time>2014-07-24T10:55:34Z</time>
      </trkpt>
      <trkpt lat="45.54669" lon="6.81329">
        <ele>2435.5732421875</ele>
        <time>2014-07-24T10:55:38Z</time>
      </trkpt>
      <trkpt lat="45.5467" lon="6.81328">
        <ele>2436.0114746094</ele>
        <time>2014-07-24T10:55:40Z</time>
      </trkpt>
      <trkpt lat="45.54671" lon="6.81326">
        <ele>2436.8532714844</ele>
        <time>2014-07-24T10:55:44Z</time>
      </trkpt>
      <trkpt lat="45.54675" lon="6.81325">
        <ele>2438.2963867188</ele>
        <time>2014-07-24T10:55:50Z</time>
      </trkpt>
      <trkpt lat="45.54676" lon="6.81323">
        <ele>2438.8288574219</ele>
        <time>2014-07-24T10:55:52Z</time>
      </trkpt>
      <trkpt lat="45.5468" lon="6.8132">
        <ele>2440.3046875</ele>
        <time>2014-07-24T10:55:58Z</time>
      </trkpt>
      <trkpt lat="45.54681" lon="6.81319">
        <ele>2440.75390625</ele>
        <time>2014-07-24T10:56:00Z</time>
      </trkpt>
      <trkpt lat="45.54684" lon="6.81311">
        <ele>2442.2707519531</ele>
        <time>2014-07-24T10:56:10Z</time>
      </trkpt>
      <trkpt lat="45.54686" lon="6.81308">
        <ele>2442.8891601562</ele>
        <time>2014-07-24T10:56:14Z</time>
      </trkpt>
      <trkpt lat="45.54689" lon="6.81306">
        <ele>2443.7221679688</ele>
        <time>2014-07-24T10:56:20Z</time>
      </trkpt>
      <trkpt lat="45.54691" lon="6.81303">
        <ele>2444.7658691406</ele>
        <time>2014-07-24T10:56:26Z</time>
      </trkpt>
      <trkpt lat="45.54697" lon="6.81299">
        <ele>2446.6760253906</ele>
        <time>2014-07-24T10:56:36Z</time>
      </trkpt>
      <trkpt lat="45.54697" lon="6.81298">
        <ele>2446.8664550781</ele>
        <time>2014-07-24T10:56:38Z</time>
      </trkpt>
      <trkpt lat="45.54699" lon="6.81298">
        <ele>2447.1962890625</ele>
        <time>2014-07-24T10:56:40Z</time>
      </trkpt>
      <trkpt lat="45.54704" lon="6.81295">
        <ele>2448.3400878906</ele>
        <time>2014-07-24T10:56:50Z</time>
      </trkpt>
      <trkpt lat="45.54704" lon="6.81293">
        <ele>2448.5202636719</ele>
        <time>2014-07-24T10:56:52Z</time>
      </trkpt>
      <trkpt lat="45.5471" lon="6.81291">
        <ele>2449.4956054688</ele>
        <time>2014-07-24T10:57:00Z</time>
      </trkpt>
      <trkpt lat="45.54711" lon="6.8129">
        <ele>2449.6069335938</ele>
        <time>2014-07-24T10:57:02Z</time>
      </trkpt>
      <trkpt lat="45.54712" lon="6.8129">
        <ele>2449.7783203125</ele>
        <time>2014-07-24T10:57:04Z</time>
      </trkpt>
      <trkpt lat="45.54716" lon="6.81288">
        <ele>2450.1357421875</ele>
        <time>2014-07-24T10:57:10Z</time>
      </trkpt>
      <trkpt lat="45.54717" lon="6.81288">
        <ele>2450.2421875</ele>
        <time>2014-07-24T10:57:12Z</time>
      </trkpt>
      <trkpt lat="45.54723" lon="6.81285">
        <ele>2450.8740234375</ele>
        <time>2014-07-24T10:57:20Z</time>
      </trkpt>
      <trkpt lat="45.54726" lon="6.81284">
        <ele>2451.7963867188</ele>
        <time>2014-07-24T10:57:24Z</time>
      </trkpt>
      <trkpt lat="45.54728" lon="6.81284">
        <ele>2452.4011230469</ele>
        <time>2014-07-24T10:57:26Z</time>
      </trkpt>
      <trkpt lat="45.54736" lon="6.81283">
        <ele>2454.7038574219</ele>
        <time>2014-07-24T10:57:36Z</time>
      </trkpt>
      <trkpt lat="45.54739" lon="6.8128">
        <ele>2455.4243164062</ele>
        <time>2014-07-24T10:57:40Z</time>
      </trkpt>
      <trkpt lat="45.54742" lon="6.81278">
        <ele>2456.3127441406</ele>
        <time>2014-07-24T10:57:44Z</time>
      </trkpt>
      <trkpt lat="45.54744" lon="6.81277">
        <ele>2456.9401855469</ele>
        <time>2014-07-24T10:57:46Z</time>
      </trkpt>
      <trkpt lat="45.54745" lon="6.81277">
        <ele>2457.5537109375</ele>
        <time>2014-07-24T10:57:48Z</time>
      </trkpt>
      <trkpt lat="45.54747" lon="6.81277">
        <ele>2458.2026367188</ele>
        <time>2014-07-24T10:57:50Z</time>
      </trkpt>
      <trkpt lat="45.54749" lon="6.81276">
        <ele>2458.7019042969</ele>
        <time>2014-07-24T10:57:52Z</time>
      </trkpt>
      <trkpt lat="45.54753" lon="6.81274">
        <ele>2459.7497558594</ele>
        <time>2014-07-24T10:57:58Z</time>
      </trkpt>
      <trkpt lat="45.54757" lon="6.81273">
        <ele>2460.3037109375</ele>
        <time>2014-07-24T10:58:02Z</time>
      </trkpt>
      <trkpt lat="45.5476" lon="6.81273">
        <ele>2460.8337402344</ele>
        <time>2014-07-24T10:58:06Z</time>
      </trkpt>
      <trkpt lat="45.54786" lon="6.81263">
        <ele>2465.5500488281</ele>
        <time>2014-07-24T10:58:38Z</time>
      </trkpt>
      <trkpt lat="45.54789" lon="6.81258">
        <ele>2466.3063964844</ele>
        <time>2014-07-24T10:58:44Z</time>
      </trkpt>
      <trkpt lat="45.54798" lon="6.81249">
        <ele>2468.2609863281</ele>
        <time>2014-07-24T10:59:00Z</time>
      </trkpt>
      <trkpt lat="45.548" lon="6.81249">
        <ele>2468.6599121094</ele>
        <time>2014-07-24T10:59:02Z</time>
      </trkpt>
      <trkpt lat="45.54802" lon="6.81245">
        <ele>2468.9982910156</ele>
        <time>2014-07-24T10:59:08Z</time>
      </trkpt>
      <trkpt lat="45.54807" lon="6.81242">
        <ele>2469.6662597656</ele>
        <time>2014-07-24T10:59:14Z</time>
      </trkpt>
      <trkpt lat="45.54808" lon="6.81242">
        <ele>2470.0986328125</ele>
        <time>2014-07-24T10:59:16Z</time>
      </trkpt>
      <trkpt lat="45.54816" lon="6.81237">
        <ele>2471.4418945312</ele>
        <time>2014-07-24T10:59:28Z</time>
      </trkpt>
      <trkpt lat="45.54818" lon="6.81236">
        <ele>2471.9682617188</ele>
        <time>2014-07-24T10:59:32Z</time>
      </trkpt>
      <trkpt lat="45.54821" lon="6.81234">
        <ele>2472.3022460938</ele>
        <time>2014-07-24T10:59:36Z</time>
      </trkpt>
      <trkpt lat="45.54822" lon="6.81233">
        <ele>2472.5266113281</ele>
        <time>2014-07-24T10:59:38Z</time>
      </trkpt>
      <trkpt lat="45.54823" lon="6.81232">
        <ele>2472.6953125</ele>
        <time>2014-07-24T10:59:40Z</time>
      </trkpt>
      <trkpt lat="45.54824" lon="6.81232">
        <ele>2473.0400390625</ele>
        <time>2014-07-24T10:59:42Z</time>
      </trkpt>
      <trkpt lat="45.54829" lon="6.81229">
        <ele>2473.8366699219</ele>
        <time>2014-07-24T10:59:50Z</time>
      </trkpt>
      <trkpt lat="45.54832" lon="6.81229">
        <ele>2474.4365234375</ele>
        <time>2014-07-24T10:59:54Z</time>
      </trkpt>
      <trkpt lat="45.54835" lon="6.81228">
        <ele>2475.0239257812</ele>
        <time>2014-07-24T11:00:00Z</time>
      </trkpt>
      <trkpt lat="45.54836" lon="6.81227">
        <ele>2475.2043457031</ele>
        <time>2014-07-24T11:00:02Z</time>
      </trkpt>
      <trkpt lat="45.54837" lon="6.81226">
        <ele>2475.2609863281</ele>
        <time>2014-07-24T11:00:04Z</time>
      </trkpt>
      <trkpt lat="45.54845" lon="6.81223">
        <ele>2476.6875</ele>
        <time>2014-07-24T11:00:16Z</time>
      </trkpt>
      <trkpt lat="45.54846" lon="6.81222">
        <ele>2476.7707519531</ele>
        <time>2014-07-24T11:00:18Z</time>
      </trkpt>
      <trkpt lat="45.54848" lon="6.81223">
        <ele>2477.1508789062</ele>
        <time>2014-07-24T11:00:20Z</time>
      </trkpt>
      <trkpt lat="45.54849" lon="6.81222">
        <ele>2477.3671875</ele>
        <time>2014-07-24T11:00:22Z</time>
      </trkpt>
      <trkpt lat="45.54852" lon="6.81219">
        <ele>2477.9567871094</ele>
        <time>2014-07-24T11:00:28Z</time>
      </trkpt>
      <trkpt lat="45.54853" lon="6.81219">
        <ele>2478.2038574219</ele>
        <time>2014-07-24T11:00:30Z</time>
      </trkpt>
      <trkpt lat="45.54855" lon="6.81218">
        <ele>2478.4111328125</ele>
        <time>2014-07-24T11:00:32Z</time>
      </trkpt>
      <trkpt lat="45.54856" lon="6.81218">
        <ele>2478.6560058594</ele>
        <time>2014-07-24T11:00:34Z</time>
      </trkpt>
      <trkpt lat="45.54858" lon="6.81216">
        <ele>2479.0922851562</ele>
        <time>2014-07-24T11:00:38Z</time>
      </trkpt>
      <trkpt lat="45.54858" lon="6.81216">
        <ele>2479.1513671875</ele>
        <time>2014-07-24T11:00:40Z</time>
      </trkpt>
      <trkpt lat="45.54859" lon="6.81215">
        <ele>2479.3098144531</ele>
        <time>2014-07-24T11:00:42Z</time>
      </trkpt>
      <trkpt lat="45.54862" lon="6.81213">
        <ele>2479.9392089844</ele>
        <time>2014-07-24T11:00:48Z</time>
      </trkpt>
      <trkpt lat="45.54862" lon="6.81212">
        <ele>2479.8923339844</ele>
        <time>2014-07-24T11:00:50Z</time>
      </trkpt>
      <trkpt lat="45.54863" lon="6.81212">
        <ele>2480.1823730469</ele>
        <time>2014-07-24T11:00:52Z</time>
      </trkpt>
      <trkpt lat="45.54865" lon="6.81213">
        <ele>2480.9291992188</ele>
        <time>2014-07-24T11:00:56Z</time>
      </trkpt>
      <trkpt lat="45.54866" lon="6.81213">
        <ele>2481.3591308594</ele>
        <time>2014-07-24T11:00:58Z</time>
      </trkpt>
      <trkpt lat="45.54866" lon="6.81213">
        <ele>2481.6372070312</ele>
        <time>2014-07-24T11:01:00Z</time>
      </trkpt>
      <trkpt lat="45.5487" lon="6.81207">
        <ele>2482.7697753906</ele>
        <time>2014-07-24T11:01:10Z</time>
      </trkpt>
      <trkpt lat="45.54871" lon="6.81207">
        <ele>2483.2075195312</ele>
        <time>2014-07-24T11:01:12Z</time>
      </trkpt>
      <trkpt lat="45.54872" lon="6.81208">
        <ele>2483.658203125</ele>
        <time>2014-07-24T11:01:14Z</time>
      </trkpt>
      <trkpt lat="45.54872" lon="6.81208">
        <ele>2483.5126953125</ele>
        <time>2014-07-24T11:01:16Z</time>
      </trkpt>
      <trkpt lat="45.54873" lon="6.81207">
        <ele>2483.7893066406</ele>
        <time>2014-07-24T11:01:18Z</time>
      </trkpt>
      <trkpt lat="45.54877" lon="6.81201">
        <ele>2485.427734375</ele>
        <time>2014-07-24T11:01:26Z</time>
      </trkpt>
      <trkpt lat="45.54882" lon="6.81199">
        <ele>2487.1826171875</ele>
        <time>2014-07-24T11:01:34Z</time>
      </trkpt>
      <trkpt lat="45.54883" lon="6.81199">
        <ele>2487.7775878906</ele>
        <time>2014-07-24T11:01:36Z</time>
      </trkpt>
      <trkpt lat="45.54883" lon="6.81199">
        <ele>2487.7797851562</ele>
        <time>2014-07-24T11:01:38Z</time>
      </trkpt>
      <trkpt lat="45.54884" lon="6.81198">
        <ele>2488.2202148438</ele>
        <time>2014-07-24T11:01:40Z</time>
      </trkpt>
      <trkpt lat="45.54885" lon="6.81197">
        <ele>2488.5119628906</ele>
        <time>2014-07-24T11:01:42Z</time>
      </trkpt>
      <trkpt lat="45.54887" lon="6.81197">
        <ele>2489.111328125</ele>
        <time>2014-07-24T11:01:44Z</time>
      </trkpt>
      <trkpt lat="45.54887" lon="6.81197">
        <ele>2489.412109375</ele>
        <time>2014-07-24T11:01:46Z</time>
      </trkpt>
      <trkpt lat="45.54889" lon="6.81197">
        <ele>2489.8605957031</ele>
        <time>2014-07-24T11:01:48Z</time>
      </trkpt>
      <trkpt lat="45.54892" lon="6.81193">
        <ele>2490.9240722656</ele>
        <time>2014-07-24T11:01:54Z</time>
      </trkpt>
      <trkpt lat="45.54895" lon="6.81192">
        <ele>2492.2951660156</ele>
        <time>2014-07-24T11:02:00Z</time>
      </trkpt>
      <trkpt lat="45.54898" lon="6.81195">
        <ele>2493.1672363281</ele>
        <time>2014-07-24T11:02:06Z</time>
      </trkpt>
      <trkpt lat="45.549" lon="6.81193">
        <ele>2493.8413085938</ele>
        <time>2014-07-24T11:02:10Z</time>
      </trkpt>
      <trkpt lat="45.549" lon="6.8119">
        <ele>2494.1042480469</ele>
        <time>2014-07-24T11:02:12Z</time>
      </trkpt>
      <trkpt lat="45.54902" lon="6.81191">
        <ele>2494.6706542969</ele>
        <time>2014-07-24T11:02:14Z</time>
      </trkpt>
      <trkpt lat="45.54902" lon="6.81191">
        <ele>2494.8120117188</ele>
        <time>2014-07-24T11:02:16Z</time>
      </trkpt>
      <trkpt lat="45.54903" lon="6.81191">
        <ele>2495.2333984375</ele>
        <time>2014-07-24T11:02:18Z</time>
      </trkpt>
      <trkpt lat="45.54904" lon="6.81192">
        <ele>2495.5114746094</ele>
        <time>2014-07-24T11:02:20Z</time>
      </trkpt>
      <trkpt lat="45.54905" lon="6.81193">
        <ele>2495.6459960938</ele>
        <time>2014-07-24T11:02:22Z</time>
      </trkpt>
      <trkpt lat="45.54905" lon="6.81193">
        <ele>2495.9274902344</ele>
        <time>2014-07-24T11:02:24Z</time>
      </trkpt>
      <trkpt lat="45.54906" lon="6.81192">
        <ele>2496.0720214844</ele>
        <time>2014-07-24T11:02:26Z</time>
      </trkpt>
      <trkpt lat="45.54907" lon="6.81192">
        <ele>2496.4924316406</ele>
        <time>2014-07-24T11:02:28Z</time>
      </trkpt>
      <trkpt lat="45.54907" lon="6.81191">
        <ele>2496.6354980469</ele>
        <time>2014-07-24T11:02:30Z</time>
      </trkpt>
      <trkpt lat="45.54908" lon="6.8119">
        <ele>2496.9309082031</ele>
        <time>2014-07-24T11:02:32Z</time>
      </trkpt>
      <trkpt lat="45.54908" lon="6.8119">
        <ele>2496.9348144531</ele>
        <time>2014-07-24T11:02:33Z</time>
      </trkpt>
      <trkpt lat="45.54909" lon="6.8119">
        <ele>2497.2253417969</ele>
        <time>2014-07-24T11:02:35Z</time>
      </trkpt>
      <trkpt lat="45.54909" lon="6.8119">
        <ele>2497.369140625</ele>
        <time>2014-07-24T11:02:38Z</time>
      </trkpt>
      <trkpt lat="45.54909" lon="6.8119">
        <ele>2497.369140625</ele>
        <time>2014-07-24T11:02:40Z</time>
      </trkpt>
      <trkpt lat="45.54909" lon="6.8119">
        <ele>2497.365234375</ele>
        <time>2014-07-24T11:02:44Z</time>
      </trkpt>
      <trkpt lat="45.54909" lon="6.8119">
        <ele>2497.2231445312</ele>
        <time>2014-07-24T11:02:46Z</time>
      </trkpt>
      <trkpt lat="45.54909" lon="6.8119">
        <ele>2497.224609375</ele>
        <time>2014-07-24T11:02:48Z</time>
      </trkpt>
      <trkpt lat="45.54909" lon="6.8119">
        <ele>2497.224609375</ele>
        <time>2014-07-24T11:02:50Z</time>
      </trkpt>
      <trkpt lat="45.54909" lon="6.81189">
        <ele>2497.2275390625</ele>
        <time>2014-07-24T11:02:52Z</time>
      </trkpt>
      <trkpt lat="45.54911" lon="6.81186">
        <ele>2498.2990722656</ele>
        <time>2014-07-24T11:03:00Z</time>
      </trkpt>
      <trkpt lat="45.54912" lon="6.81185">
        <ele>2498.4792480469</ele>
        <time>2014-07-24T11:03:02Z</time>
      </trkpt>
      <trkpt lat="45.54914" lon="6.81183">
        <ele>2499.4089355469</ele>
        <time>2014-07-24T11:03:06Z</time>
      </trkpt>
      <trkpt lat="45.54915" lon="6.81182">
        <ele>2499.7451171875</ele>
        <time>2014-07-24T11:03:08Z</time>
      </trkpt>
      <trkpt lat="45.54916" lon="6.81182">
        <ele>2500.171875</ele>
        <time>2014-07-24T11:03:10Z</time>
      </trkpt>
      <trkpt lat="45.54918" lon="6.81182">
        <ele>2500.8361816406</ele>
        <time>2014-07-24T11:03:14Z</time>
      </trkpt>
      <trkpt lat="45.54919" lon="6.81181">
        <ele>2501.3459472656</ele>
        <time>2014-07-24T11:03:16Z</time>
      </trkpt>
      <trkpt lat="45.54923" lon="6.81175">
        <ele>2502.6296386719</ele>
        <time>2014-07-24T11:03:24Z</time>
      </trkpt>
      <trkpt lat="45.54924" lon="6.81175">
        <ele>2503.0158691406</ele>
        <time>2014-07-24T11:03:26Z</time>
      </trkpt>
      <trkpt lat="45.54926" lon="6.81173">
        <ele>2503.5759277344</ele>
        <time>2014-07-24T11:03:30Z</time>
      </trkpt>
      <trkpt lat="45.54926" lon="6.81172">
        <ele>2503.8422851562</ele>
        <time>2014-07-24T11:03:32Z</time>
      </trkpt>
      <trkpt lat="45.54929" lon="6.81172">
        <ele>2504.5961914062</ele>
        <time>2014-07-24T11:03:36Z</time>
      </trkpt>
      <trkpt lat="45.54929" lon="6.81171">
        <ele>2504.8759765625</ele>
        <time>2014-07-24T11:03:38Z</time>
      </trkpt>
      <trkpt lat="45.54932" lon="6.8117">
        <ele>2505.6677246094</ele>
        <time>2014-07-24T11:03:42Z</time>
      </trkpt>
      <trkpt lat="45.54932" lon="6.81169">
        <ele>2505.8349609375</ele>
        <time>2014-07-24T11:03:44Z</time>
      </trkpt>
      <trkpt lat="45.54935" lon="6.81167">
        <ele>2506.8215332031</ele>
        <time>2014-07-24T11:03:48Z</time>
      </trkpt>
      <trkpt lat="45.54935" lon="6.81165">
        <ele>2506.9956054688</ele>
        <time>2014-07-24T11:03:50Z</time>
      </trkpt>
      <trkpt lat="45.54935" lon="6.81163">
        <ele>2506.8459472656</ele>
        <time>2014-07-24T11:03:52Z</time>
      </trkpt>
      <trkpt lat="45.54939" lon="6.81154">
        <ele>2507.203125</ele>
        <time>2014-07-24T11:04:02Z</time>
      </trkpt>
      <trkpt lat="45.54943" lon="6.8115">
        <ele>2507.8972167969</ele>
        <time>2014-07-24T11:04:06Z</time>
      </trkpt>
      <trkpt lat="45.54943" lon="6.81149">
        <ele>2507.8278808594</ele>
        <time>2014-07-24T11:04:08Z</time>
      </trkpt>
      <trkpt lat="45.54947" lon="6.81145">
        <ele>2508.1381835938</ele>
        <time>2014-07-24T11:04:14Z</time>
      </trkpt>
      <trkpt lat="45.54949" lon="6.8114">
        <ele>2507.9030761719</ele>
        <time>2014-07-24T11:04:18Z</time>
      </trkpt>
      <trkpt lat="45.54952" lon="6.81137">
        <ele>2508.638671875</ele>
        <time>2014-07-24T11:04:22Z</time>
      </trkpt>
      <trkpt lat="45.54954" lon="6.81132">
        <ele>2509.5415039062</ele>
        <time>2014-07-24T11:04:26Z</time>
      </trkpt>
      <trkpt lat="45.54954" lon="6.81131">
        <ele>2509.6596679688</ele>
        <time>2014-07-24T11:04:28Z</time>
      </trkpt>
      <trkpt lat="45.54954" lon="6.81131">
        <ele>2509.7458496094</ele>
        <time>2014-07-24T11:04:36Z</time>
      </trkpt>
      <trkpt lat="45.54955" lon="6.81131">
        <ele>2509.9235839844</ele>
        <time>2014-07-24T11:04:38Z</time>
      </trkpt>
      <trkpt lat="45.54957" lon="6.81131">
        <ele>2510.2612304688</ele>
        <time>2014-07-24T11:04:40Z</time>
      </trkpt>
      <trkpt lat="45.54958" lon="6.81131">
        <ele>2510.4621582031</ele>
        <time>2014-07-24T11:04:42Z</time>
      </trkpt>
      <trkpt lat="45.54959" lon="6.81132">
        <ele>2510.4382324219</ele>
        <time>2014-07-24T11:04:44Z</time>
      </trkpt>
      <trkpt lat="45.54962" lon="6.81134">
        <ele>2510.8681640625</ele>
        <time>2014-07-24T11:04:48Z</time>
      </trkpt>
      <trkpt lat="45.54968" lon="6.81134">
        <ele>2511.8508300781</ele>
        <time>2014-07-24T11:04:54Z</time>
      </trkpt>
      <trkpt lat="45.54971" lon="6.81137">
        <ele>2512.03125</ele>
        <time>2014-07-24T11:04:58Z</time>
      </trkpt>
      <trkpt lat="45.54974" lon="6.81139">
        <ele>2512.412109375</ele>
        <time>2014-07-24T11:05:02Z</time>
      </trkpt>
      <trkpt lat="45.54976" lon="6.8114">
        <ele>2512.8591308594</ele>
        <time>2014-07-24T11:05:04Z</time>
      </trkpt>
      <trkpt lat="45.54984" lon="6.8115">
        <ele>2514.8171386719</ele>
        <time>2014-07-24T11:05:16Z</time>
      </trkpt>
      <trkpt lat="45.5499" lon="6.81153">
        <ele>2515.8208007812</ele>
        <time>2014-07-24T11:05:22Z</time>
      </trkpt>
      <trkpt lat="45.54992" lon="6.81154">
        <ele>2516.244140625</ele>
        <time>2014-07-24T11:05:26Z</time>
      </trkpt>
      <trkpt lat="45.54998" lon="6.81157">
        <ele>2517.0561523438</ele>
        <time>2014-07-24T11:05:32Z</time>
      </trkpt>
      <trkpt lat="45.54999" lon="6.81158">
        <ele>2517.1369628906</ele>
        <time>2014-07-24T11:05:34Z</time>
      </trkpt>
      <trkpt lat="45.54999" lon="6.81158">
        <ele>2517.1862792969</ele>
        <time>2014-07-24T11:05:35Z</time>
      </trkpt>
      <trkpt lat="45.55" lon="6.81159">
        <ele>2517.228515625</ele>
        <time>2014-07-24T11:05:38Z</time>
      </trkpt>
      <trkpt lat="45.55" lon="6.81159">
        <ele>2517.2270507812</ele>
        <time>2014-07-24T11:05:40Z</time>
      </trkpt>
      <trkpt lat="45.55001" lon="6.81158">
        <ele>2517.4267578125</ele>
        <time>2014-07-24T11:05:44Z</time>
      </trkpt>
      <trkpt lat="45.55002" lon="6.81159">
        <ele>2517.6047363281</ele>
        <time>2014-07-24T11:05:46Z</time>
      </trkpt>
      <trkpt lat="45.55004" lon="6.8116">
        <ele>2517.9501953125</ele>
        <time>2014-07-24T11:05:48Z</time>
      </trkpt>
      <trkpt lat="45.55007" lon="6.81162">
        <ele>2518.4968261719</ele>
        <time>2014-07-24T11:05:52Z</time>
      </trkpt>
      <trkpt lat="45.55009" lon="6.81164">
        <ele>2518.6767578125</ele>
        <time>2014-07-24T11:05:54Z</time>
      </trkpt>
      <trkpt lat="45.55009" lon="6.81166">
        <ele>2518.6069335938</ele>
        <time>2014-07-24T11:05:56Z</time>
      </trkpt>
      <trkpt lat="45.55009" lon="6.81166">
        <ele>2518.6579589844</ele>
        <time>2014-07-24T11:05:58Z</time>
      </trkpt>
      <trkpt lat="45.55009" lon="6.81166">
        <ele>2518.7268066406</ele>
        <time>2014-07-24T11:06:00Z</time>
      </trkpt>
      <trkpt lat="45.55009" lon="6.81166">
        <ele>2518.7268066406</ele>
        <time>2014-07-24T11:06:02Z</time>
      </trkpt>
      <trkpt lat="45.55011" lon="6.81126">
        <ele>2521.1298828125</ele>
        <time>2014-07-24T11:06:30Z</time>
      </trkpt>
      <trkpt lat="45.55013" lon="6.81125">
        <ele>2521.5412597656</ele>
        <time>2014-07-24T11:06:32Z</time>
      </trkpt>
      <trkpt lat="45.55016" lon="6.81125">
        <ele>2522.3356933594</ele>
        <time>2014-07-24T11:06:38Z</time>
      </trkpt>
      <trkpt lat="45.55019" lon="6.81123">
        <ele>2522.9953613281</ele>
        <time>2014-07-24T11:06:42Z</time>
      </trkpt>
      <trkpt lat="45.55019" lon="6.81122">
        <ele>2523.1435546875</ele>
        <time>2014-07-24T11:06:44Z</time>
      </trkpt>
      <trkpt lat="45.55023" lon="6.81119">
        <ele>2524.2585449219</ele>
        <time>2014-07-24T11:06:52Z</time>
      </trkpt>
      <trkpt lat="45.55023" lon="6.81117">
        <ele>2524.455078125</ele>
        <time>2014-07-24T11:06:54Z</time>
      </trkpt>
      <trkpt lat="45.55023" lon="6.81113">
        <ele>2524.6149902344</ele>
        <time>2014-07-24T11:07:00Z</time>
      </trkpt>
      <trkpt lat="45.55022" lon="6.81112">
        <ele>2524.4956054688</ele>
        <time>2014-07-24T11:07:02Z</time>
      </trkpt>
      <trkpt lat="45.55021" lon="6.811">
        <ele>2525.515625</ele>
        <time>2014-07-24T11:07:16Z</time>
      </trkpt>
      <trkpt lat="45.55024" lon="6.81081">
        <ele>2528.1943359375</ele>
        <time>2014-07-24T11:07:40Z</time>
      </trkpt>
      <trkpt lat="45.55023" lon="6.81077">
        <ele>2528.5544433594</ele>
        <time>2014-07-24T11:07:44Z</time>
      </trkpt>
      <trkpt lat="45.55035" lon="6.81026">
        <ele>2537.2807617188</ele>
        <time>2014-07-24T11:08:32Z</time>
      </trkpt>
      <trkpt lat="45.55034" lon="6.81023">
        <ele>2537.630859375</ele>
        <time>2014-07-24T11:08:34Z</time>
      </trkpt>
      <trkpt lat="45.55039" lon="6.81017">
        <ele>2539.1416015625</ele>
        <time>2014-07-24T11:08:44Z</time>
      </trkpt>
      <trkpt lat="45.5504" lon="6.81017">
        <ele>2539.1896972656</ele>
        <time>2014-07-24T11:08:46Z</time>
      </trkpt>
      <trkpt lat="45.5503" lon="6.81">
        <ele>2540.25390625</ele>
        <time>2014-07-24T11:39:40Z</time>
      </trkpt>
      <trkpt lat="45.55029" lon="6.80995">
        <ele>2540.9736328125</ele>
        <time>2014-07-24T11:39:44Z</time>
      </trkpt>
      <trkpt lat="45.55027" lon="6.80991">
        <ele>2541.5317382812</ele>
        <time>2014-07-24T11:39:48Z</time>
      </trkpt>
      <trkpt lat="45.5502" lon="6.80955">
        <ele>2548.5422363281</ele>
        <time>2014-07-24T11:40:12Z</time>
      </trkpt>
      <trkpt lat="45.55019" lon="6.80954">
        <ele>2548.8146972656</ele>
        <time>2014-07-24T11:40:14Z</time>
      </trkpt>
      <trkpt lat="45.55017" lon="6.80944">
        <ele>2550.8999023438</ele>
        <time>2014-07-24T11:40:22Z</time>
      </trkpt>
      <trkpt lat="45.55019" lon="6.8094">
        <ele>2552.0568847656</ele>
        <time>2014-07-24T11:40:26Z</time>
      </trkpt>
      <trkpt lat="45.55019" lon="6.80939">
        <ele>2552.5356445312</ele>
        <time>2014-07-24T11:40:28Z</time>
      </trkpt>
      <trkpt lat="45.55022" lon="6.80935">
        <ele>2553.8581542969</ele>
        <time>2014-07-24T11:40:34Z</time>
      </trkpt>
      <trkpt lat="45.55023" lon="6.80932">
        <ele>2554.9538574219</ele>
        <time>2014-07-24T11:40:40Z</time>
      </trkpt>
      <trkpt lat="45.55023" lon="6.80925">
        <ele>2556.685546875</ele>
        <time>2014-07-24T11:40:46Z</time>
      </trkpt>
      <trkpt lat="45.5502" lon="6.80918">
        <ele>2558.3210449219</ele>
        <time>2014-07-24T11:40:54Z</time>
      </trkpt>
      <trkpt lat="45.55013" lon="6.80901">
        <ele>2560.1713867188</ele>
        <time>2014-07-24T11:41:12Z</time>
      </trkpt>
      <trkpt lat="45.55011" lon="6.80899">
        <ele>2560.2705078125</ele>
        <time>2014-07-24T11:41:14Z</time>
      </trkpt>
      <trkpt lat="45.5501" lon="6.80896">
        <ele>2560.6850585938</ele>
        <time>2014-07-24T11:41:18Z</time>
      </trkpt>
      <trkpt lat="45.55011" lon="6.80894">
        <ele>2561.1291503906</ele>
        <time>2014-07-24T11:41:20Z</time>
      </trkpt>
      <trkpt lat="45.55008" lon="6.80886">
        <ele>2562.533203125</ele>
        <time>2014-07-24T11:41:28Z</time>
      </trkpt>
      <trkpt lat="45.54999" lon="6.80875">
        <ele>2564.7690429688</ele>
        <time>2014-07-24T11:41:42Z</time>
      </trkpt>
      <trkpt lat="45.54997" lon="6.80874">
        <ele>2564.4260253906</ele>
        <time>2014-07-24T11:41:44Z</time>
      </trkpt>
      <trkpt lat="45.54994" lon="6.80871">
        <ele>2564.3671875</ele>
        <time>2014-07-24T11:41:48Z</time>
      </trkpt>
      <trkpt lat="45.54992" lon="6.80866">
        <ele>2565.0390625</ele>
        <time>2014-07-24T11:41:54Z</time>
      </trkpt>
      <trkpt lat="45.5499" lon="6.80864">
        <ele>2564.8754882812</ele>
        <time>2014-07-24T11:41:58Z</time>
      </trkpt>
      <trkpt lat="45.54988" lon="6.80859">
        <ele>2565.5363769531</ele>
        <time>2014-07-24T11:42:04Z</time>
      </trkpt>
      <trkpt lat="45.5498" lon="6.80852">
        <ele>2565.3088378906</ele>
        <time>2014-07-24T11:42:12Z</time>
      </trkpt>
      <trkpt lat="45.5498" lon="6.80851">
        <ele>2565.4938964844</ele>
        <time>2014-07-24T11:42:14Z</time>
      </trkpt>
      <trkpt lat="45.54982" lon="6.80851">
        <ele>2565.7836914062</ele>
        <time>2014-07-24T11:42:16Z</time>
      </trkpt>
      <trkpt lat="45.54986" lon="6.80858">
        <ele>2565.2775878906</ele>
        <time>2014-07-24T11:42:24Z</time>
      </trkpt>
      <trkpt lat="45.54987" lon="6.80859">
        <ele>2565.5290527344</ele>
        <time>2014-07-24T11:42:26Z</time>
      </trkpt>
      <trkpt lat="45.54988" lon="6.80859">
        <ele>2565.6513671875</ele>
        <time>2014-07-24T11:42:28Z</time>
      </trkpt>
      <trkpt lat="45.54988" lon="6.80859">
        <ele>2565.6513671875</ele>
        <time>2014-07-24T11:42:30Z</time>
      </trkpt>
      <trkpt lat="45.54988" lon="6.80858">
        <ele>2565.7280273438</ele>
        <time>2014-07-24T11:42:38Z</time>
      </trkpt>
      <trkpt lat="45.54991" lon="6.80852">
        <ele>2568.4243164062</ele>
        <time>2014-07-24T11:42:44Z</time>
      </trkpt>
      <trkpt lat="45.54993" lon="6.80851">
        <ele>2569.4438476562</ele>
        <time>2014-07-24T11:42:46Z</time>
      </trkpt>
      <trkpt lat="45.55008" lon="6.80845">
        <ele>2571.9460449219</ele>
        <time>2014-07-24T11:43:00Z</time>
      </trkpt>
      <trkpt lat="45.5501" lon="6.80844">
        <ele>2571.9748535156</ele>
        <time>2014-07-24T11:43:02Z</time>
      </trkpt>
      <trkpt lat="45.55014" lon="6.80839">
        <ele>2572.4174804688</ele>
        <time>2014-07-24T11:43:08Z</time>
      </trkpt>
      <trkpt lat="45.55014" lon="6.80839">
        <ele>2572.3610839844</ele>
        <time>2014-07-24T11:43:12Z</time>
      </trkpt>
      <trkpt lat="45.55014" lon="6.80838">
        <ele>2572.5021972656</ele>
        <time>2014-07-24T11:43:18Z</time>
      </trkpt>
      <trkpt lat="45.55014" lon="6.80838">
        <ele>2572.4782714844</ele>
        <time>2014-07-24T11:43:20Z</time>
      </trkpt>
      <trkpt lat="45.55014" lon="6.80838">
        <ele>2572.4594726562</ele>
        <time>2014-07-24T11:43:22Z</time>
      </trkpt>
      <trkpt lat="45.55015" lon="6.80838">
        <ele>2572.4074707031</ele>
        <time>2014-07-24T11:43:24Z</time>
      </trkpt>
      <trkpt lat="45.55015" lon="6.80838">
        <ele>2572.4443359375</ele>
        <time>2014-07-24T11:43:28Z</time>
      </trkpt>
      <trkpt lat="45.55015" lon="6.80838">
        <ele>2572.4443359375</ele>
        <time>2014-07-24T11:43:30Z</time>
      </trkpt>
      <trkpt lat="45.55015" lon="6.80838">
        <ele>2572.3549804688</ele>
        <time>2014-07-24T11:43:32Z</time>
      </trkpt>
      <trkpt lat="45.55015" lon="6.80838">
        <ele>2572.345703125</ele>
        <time>2014-07-24T11:43:34Z</time>
      </trkpt>
      <trkpt lat="45.55016" lon="6.80838">
        <ele>2572.2751464844</ele>
        <time>2014-07-24T11:43:36Z</time>
      </trkpt>
      <trkpt lat="45.55016" lon="6.80839">
        <ele>2572.1655273438</ele>
        <time>2014-07-24T11:43:42Z</time>
      </trkpt>
      <trkpt lat="45.55015" lon="6.80839">
        <ele>2572.2077636719</ele>
        <time>2014-07-24T11:43:44Z</time>
      </trkpt>
      <trkpt lat="45.55015" lon="6.80839">
        <ele>2572.1708984375</ele>
        <time>2014-07-24T11:43:48Z</time>
      </trkpt>
      <trkpt lat="45.55015" lon="6.80839">
        <ele>2572.1708984375</ele>
        <time>2014-07-24T11:43:50Z</time>
      </trkpt>
      <trkpt lat="45.55015" lon="6.80839">
        <ele>2572.1525878906</ele>
        <time>2014-07-24T11:43:52Z</time>
      </trkpt>
      <trkpt lat="45.55015" lon="6.80839">
        <ele>2572.1525878906</ele>
        <time>2014-07-24T11:43:54Z</time>
      </trkpt>
      <trkpt lat="45.55015" lon="6.80839">
        <ele>2572.1525878906</ele>
        <time>2014-07-24T11:43:55Z</time>
      </trkpt>
      <trkpt lat="45.55009" lon="6.80836">
        <ele>2573.8713378906</ele>
        <time>2014-07-24T11:44:04Z</time>
      </trkpt>
      <trkpt lat="45.55002" lon="6.80837">
        <ele>2574.7180175781</ele>
        <time>2014-07-24T11:44:11Z</time>
      </trkpt>
      <trkpt lat="45.55001" lon="6.80839">
        <ele>2574.4362792969</ele>
        <time>2014-07-24T11:44:13Z</time>
      </trkpt>
      <trkpt lat="45.54999" lon="6.8084">
        <ele>2573.9296875</ele>
        <time>2014-07-24T11:44:15Z</time>
      </trkpt>
      <trkpt lat="45.54997" lon="6.80841">
        <ele>2573.25390625</ele>
        <time>2014-07-24T11:44:17Z</time>
      </trkpt>
      <trkpt lat="45.54992" lon="6.80843">
        <ele>2571.29296875</ele>
        <time>2014-07-24T11:44:21Z</time>
      </trkpt>
      <trkpt lat="45.54986" lon="6.80844">
        <ele>2569.0227050781</ele>
        <time>2014-07-24T11:44:27Z</time>
      </trkpt>
      <trkpt lat="45.54974" lon="6.80844">
        <ele>2565.4204101562</ele>
        <time>2014-07-24T11:44:37Z</time>
      </trkpt>
      <trkpt lat="45.54971" lon="6.80843">
        <ele>2564.9877929688</ele>
        <time>2014-07-24T11:44:39Z</time>
      </trkpt>
      <trkpt lat="45.54967" lon="6.8084">
        <ele>2565.1960449219</ele>
        <time>2014-07-24T11:44:43Z</time>
      </trkpt>
      <trkpt lat="45.54963" lon="6.80838">
        <ele>2564.9392089844</ele>
        <time>2014-07-24T11:44:47Z</time>
      </trkpt>
      <trkpt lat="45.5496" lon="6.80836">
        <ele>2565.2309570312</ele>
        <time>2014-07-24T11:44:51Z</time>
      </trkpt>
      <trkpt lat="45.54957" lon="6.80825">
        <ele>2568.4714355469</ele>
        <time>2014-07-24T11:45:03Z</time>
      </trkpt>
      <trkpt lat="45.54956" lon="6.80824">
        <ele>2568.7375488281</ele>
        <time>2014-07-24T11:45:05Z</time>
      </trkpt>
      <trkpt lat="45.54956" lon="6.80821">
        <ele>2569.6149902344</ele>
        <time>2014-07-24T11:45:09Z</time>
      </trkpt>
      <trkpt lat="45.54955" lon="6.80819">
        <ele>2570.2741699219</ele>
        <time>2014-07-24T11:45:15Z</time>
      </trkpt>
      <trkpt lat="45.54955" lon="6.80815">
        <ele>2571.7038574219</ele>
        <time>2014-07-24T11:45:19Z</time>
      </trkpt>
      <trkpt lat="45.54942" lon="6.8079">
        <ele>2578.1203613281</ele>
        <time>2014-07-24T11:45:53Z</time>
      </trkpt>
      <trkpt lat="45.54942" lon="6.80789">
        <ele>2578.8828125</ele>
        <time>2014-07-24T11:45:55Z</time>
      </trkpt>
      <trkpt lat="45.54941" lon="6.80788">
        <ele>2578.9411621094</ele>
        <time>2014-07-24T11:45:57Z</time>
      </trkpt>
      <trkpt lat="45.54941" lon="6.80776">
        <ele>2583.619140625</ele>
        <time>2014-07-24T11:46:13Z</time>
      </trkpt>
      <trkpt lat="45.5494" lon="6.80776">
        <ele>2583.1672363281</ele>
        <time>2014-07-24T11:46:15Z</time>
      </trkpt>
      <trkpt lat="45.54939" lon="6.80774">
        <ele>2583.3981933594</ele>
        <time>2014-07-24T11:46:17Z</time>
      </trkpt>
      <trkpt lat="45.54938" lon="6.80774">
        <ele>2582.9765625</ele>
        <time>2014-07-24T11:46:19Z</time>
      </trkpt>
      <trkpt lat="45.54932" lon="6.80761">
        <ele>2583.9621582031</ele>
        <time>2014-07-24T11:46:37Z</time>
      </trkpt>
      <trkpt lat="45.54932" lon="6.80757">
        <ele>2585.3725585938</ele>
        <time>2014-07-24T11:46:43Z</time>
      </trkpt>
      <trkpt lat="45.54929" lon="6.80749">
        <ele>2586.5981445312</ele>
        <time>2014-07-24T11:46:55Z</time>
      </trkpt>
      <trkpt lat="45.5493" lon="6.80746">
        <ele>2588.1481933594</ele>
        <time>2014-07-24T11:47:01Z</time>
      </trkpt>
      <trkpt lat="45.54928" lon="6.8074">
        <ele>2589.3706054688</ele>
        <time>2014-07-24T11:47:11Z</time>
      </trkpt>
      <trkpt lat="45.54926" lon="6.80737">
        <ele>2589.1403808594</ele>
        <time>2014-07-24T11:47:17Z</time>
      </trkpt>
      <trkpt lat="45.54924" lon="6.80731">
        <ele>2590.5295410156</ele>
        <time>2014-07-24T11:47:29Z</time>
      </trkpt>
      <trkpt lat="45.54924" lon="6.80731">
        <ele>2590.1943359375</ele>
        <time>2014-07-24T11:47:31Z</time>
      </trkpt>
      <trkpt lat="45.54922" lon="6.80722">
        <ele>2592.2873535156</ele>
        <time>2014-07-24T11:47:47Z</time>
      </trkpt>
      <trkpt lat="45.54922" lon="6.80722">
        <ele>2592.2731933594</ele>
        <time>2014-07-24T11:47:49Z</time>
      </trkpt>
      <trkpt lat="45.54922" lon="6.8072">
        <ele>2593.3994140625</ele>
        <time>2014-07-24T11:47:51Z</time>
      </trkpt>
      <trkpt lat="45.54923" lon="6.8072">
        <ele>2593.7358398438</ele>
        <time>2014-07-24T11:47:52Z</time>
      </trkpt>
      <trkpt lat="45.54923" lon="6.80716">
        <ele>2595.3012695312</ele>
        <time>2014-07-24T11:47:58Z</time>
      </trkpt>
      <trkpt lat="45.54923" lon="6.80717">
        <ele>2595.2602539062</ele>
        <time>2014-07-24T11:48:01Z</time>
      </trkpt>
      <trkpt lat="45.54926" lon="6.80698">
        <ele>2604.6809082031</ele>
        <time>2014-07-24T11:48:31Z</time>
      </trkpt>
      <trkpt lat="45.54926" lon="6.80698">
        <ele>2605.3745117188</ele>
        <time>2014-07-24T11:48:33Z</time>
      </trkpt>
      <trkpt lat="45.54926" lon="6.80699">
        <ele>2604.8801269531</ele>
        <time>2014-07-24T11:48:35Z</time>
      </trkpt>
      <trkpt lat="45.54927" lon="6.80699">
        <ele>2605.3264160156</ele>
        <time>2014-07-24T11:48:37Z</time>
      </trkpt>
      <trkpt lat="45.54927" lon="6.80699">
        <ele>2605.6010742188</ele>
        <time>2014-07-24T11:48:39Z</time>
      </trkpt>
      <trkpt lat="45.54928" lon="6.80698">
        <ele>2606.5417480469</ele>
        <time>2014-07-24T11:48:41Z</time>
      </trkpt>
      <trkpt lat="45.54929" lon="6.80697">
        <ele>2607.4892578125</ele>
        <time>2014-07-24T11:48:43Z</time>
      </trkpt>
      <trkpt lat="45.5493" lon="6.80697">
        <ele>2607.7229003906</ele>
        <time>2014-07-24T11:48:45Z</time>
      </trkpt>
      <trkpt lat="45.5493" lon="6.80698">
        <ele>2607.6611328125</ele>
        <time>2014-07-24T11:48:47Z</time>
      </trkpt>
      <trkpt lat="45.54931" lon="6.80697">
        <ele>2608.6909179688</ele>
        <time>2014-07-24T11:48:49Z</time>
      </trkpt>
      <trkpt lat="45.54931" lon="6.80696">
        <ele>2608.9174804688</ele>
        <time>2014-07-24T11:48:52Z</time>
      </trkpt>
      <trkpt lat="45.54931" lon="6.80697">
        <ele>2608.7939453125</ele>
        <time>2014-07-24T11:48:55Z</time>
      </trkpt>
      <trkpt lat="45.54932" lon="6.80695">
        <ele>2610.318359375</ele>
        <time>2014-07-24T11:48:59Z</time>
      </trkpt>
      <trkpt lat="45.54933" lon="6.80695">
        <ele>2610.744140625</ele>
        <time>2014-07-24T11:49:01Z</time>
      </trkpt>
      <trkpt lat="45.54934" lon="6.80694">
        <ele>2611.7895507812</ele>
        <time>2014-07-24T11:49:05Z</time>
      </trkpt>
      <trkpt lat="45.54934" lon="6.80694">
        <ele>2611.9997558594</ele>
        <time>2014-07-24T11:49:07Z</time>
      </trkpt>
      <trkpt lat="45.54936" lon="6.80692">
        <ele>2613.9758300781</ele>
        <time>2014-07-24T11:49:11Z</time>
      </trkpt>
      <trkpt lat="45.54937" lon="6.80692">
        <ele>2614.4528808594</ele>
        <time>2014-07-24T11:49:13Z</time>
      </trkpt>
      <trkpt lat="45.54937" lon="6.80692">
        <ele>2614.7648925781</ele>
        <time>2014-07-24T11:49:15Z</time>
      </trkpt>
      <trkpt lat="45.54939" lon="6.80691">
        <ele>2615.9008789062</ele>
        <time>2014-07-24T11:49:19Z</time>
      </trkpt>
      <trkpt lat="45.54941" lon="6.80691">
        <ele>2617.2309570312</ele>
        <time>2014-07-24T11:49:21Z</time>
      </trkpt>
      <trkpt lat="45.54942" lon="6.8069">
        <ele>2618.1215820312</ele>
        <time>2014-07-24T11:49:23Z</time>
      </trkpt>
      <trkpt lat="45.54944" lon="6.80689">
        <ele>2620.1071777344</ele>
        <time>2014-07-24T11:49:29Z</time>
      </trkpt>
      <trkpt lat="45.54944" lon="6.8069">
        <ele>2619.7470703125</ele>
        <time>2014-07-24T11:49:31Z</time>
      </trkpt>
      <trkpt lat="45.54945" lon="6.8069">
        <ele>2619.8894042969</ele>
        <time>2014-07-24T11:49:33Z</time>
      </trkpt>
      <trkpt lat="45.54945" lon="6.8069">
        <ele>2619.8583984375</ele>
        <time>2014-07-24T11:49:35Z</time>
      </trkpt>
      <trkpt lat="45.54945" lon="6.8069">
        <ele>2619.8205566406</ele>
        <time>2014-07-24T11:49:37Z</time>
      </trkpt>
      <trkpt lat="45.54945" lon="6.8069">
        <ele>2619.8464355469</ele>
        <time>2014-07-24T11:49:39Z</time>
      </trkpt>
      <trkpt lat="45.54945" lon="6.8069">
        <ele>2619.8276367188</ele>
        <time>2014-07-24T11:49:41Z</time>
      </trkpt>
      <trkpt lat="45.54945" lon="6.8069">
        <ele>2619.7829589844</ele>
        <time>2014-07-24T11:49:43Z</time>
      </trkpt>
      <trkpt lat="45.54945" lon="6.8069">
        <ele>2619.9907226562</ele>
        <time>2014-07-24T11:49:45Z</time>
      </trkpt>
      <trkpt lat="45.54945" lon="6.8069">
        <ele>2619.908203125</ele>
        <time>2014-07-24T11:49:47Z</time>
      </trkpt>
      <trkpt lat="45.54944" lon="6.8069">
        <ele>2619.78515625</ele>
        <time>2014-07-24T11:49:49Z</time>
      </trkpt>
      <trkpt lat="45.54944" lon="6.80689">
        <ele>2619.6398925781</ele>
        <time>2014-07-24T11:49:51Z</time>
      </trkpt>
      <trkpt lat="45.54944" lon="6.8069">
        <ele>2619.6015625</ele>
        <time>2014-07-24T11:49:53Z</time>
      </trkpt>
      <trkpt lat="45.54944" lon="6.80689">
        <ele>2619.8986816406</ele>
        <time>2014-07-24T11:49:55Z</time>
      </trkpt>
      <trkpt lat="45.54944" lon="6.80689">
        <ele>2620.0502929688</ele>
        <time>2014-07-24T11:49:59Z</time>
      </trkpt>
      <trkpt lat="45.54944" lon="6.80689">
        <ele>2619.849609375</ele>
        <time>2014-07-24T11:50:01Z</time>
      </trkpt>
      <trkpt lat="45.54944" lon="6.80688">
        <ele>2620.0212402344</ele>
        <time>2014-07-24T11:50:05Z</time>
      </trkpt>
      <trkpt lat="45.54943" lon="6.80689">
        <ele>2619.7448730469</ele>
        <time>2014-07-24T11:50:07Z</time>
      </trkpt>
      <trkpt lat="45.54943" lon="6.80689">
        <ele>2619.6682128906</ele>
        <time>2014-07-24T11:50:09Z</time>
      </trkpt>
      <trkpt lat="45.54943" lon="6.80689">
        <ele>2619.390625</ele>
        <time>2014-07-24T11:50:11Z</time>
      </trkpt>
      <trkpt lat="45.54943" lon="6.80689">
        <ele>2619.390625</ele>
        <time>2014-07-24T11:50:13Z</time>
      </trkpt>
      <trkpt lat="45.54943" lon="6.80689">
        <ele>2619.4099121094</ele>
        <time>2014-07-24T11:50:15Z</time>
      </trkpt>
      <trkpt lat="45.54943" lon="6.80689">
        <ele>2619.4099121094</ele>
        <time>2014-07-24T11:50:17Z</time>
      </trkpt>
      <trkpt lat="45.54943" lon="6.80689">
        <ele>2619.390625</ele>
        <time>2014-07-24T11:50:19Z</time>
      </trkpt>
      <trkpt lat="45.54943" lon="6.80689">
        <ele>2619.6682128906</ele>
        <time>2014-07-24T11:50:21Z</time>
      </trkpt>
      <trkpt lat="45.54943" lon="6.80689">
        <ele>2619.6682128906</ele>
        <time>2014-07-24T11:50:23Z</time>
      </trkpt>
      <trkpt lat="45.54943" lon="6.80689">
        <ele>2619.6296386719</ele>
        <time>2014-07-24T11:50:25Z</time>
      </trkpt>
      <trkpt lat="45.54943" lon="6.80689">
        <ele>2619.6296386719</ele>
        <time>2014-07-24T11:50:27Z</time>
      </trkpt>
      <trkpt lat="45.54943" lon="6.80689">
        <ele>2619.6105957031</ele>
        <time>2014-07-24T11:50:29Z</time>
      </trkpt>
      <trkpt lat="45.54944" lon="6.80689">
        <ele>2619.8112792969</ele>
        <time>2014-07-24T11:50:31Z</time>
      </trkpt>
      <trkpt lat="45.54944" lon="6.80689">
        <ele>2619.6970214844</ele>
        <time>2014-07-24T11:50:33Z</time>
      </trkpt>
      <trkpt lat="45.54944" lon="6.80689">
        <ele>2619.6589355469</ele>
        <time>2014-07-24T11:50:35Z</time>
      </trkpt>
      <trkpt lat="45.54943" lon="6.8069">
        <ele>2619.3803710938</ele>
        <time>2014-07-24T11:50:37Z</time>
      </trkpt>
      <trkpt lat="45.54943" lon="6.8069">
        <ele>2619.1694335938</ele>
        <time>2014-07-24T11:50:41Z</time>
      </trkpt>
      <trkpt lat="45.54943" lon="6.8069">
        <ele>2619.1694335938</ele>
        <time>2014-07-24T11:50:43Z</time>
      </trkpt>
      <trkpt lat="45.54943" lon="6.8069">
        <ele>2619.24609375</ele>
        <time>2014-07-24T11:50:45Z</time>
      </trkpt>
      <trkpt lat="45.54943" lon="6.80689">
        <ele>2619.3994140625</ele>
        <time>2014-07-24T11:50:49Z</time>
      </trkpt>
      <trkpt lat="45.54944" lon="6.80689">
        <ele>2619.7922363281</ele>
        <time>2014-07-24T11:50:51Z</time>
      </trkpt>
      <trkpt lat="45.54944" lon="6.80688">
        <ele>2620.2880859375</ele>
        <time>2014-07-24T11:50:57Z</time>
      </trkpt>
      <trkpt lat="45.54943" lon="6.8069">
        <ele>2619.3803710938</ele>
        <time>2014-07-24T11:51:02Z</time>
      </trkpt>
      <trkpt lat="45.54944" lon="6.80689">
        <ele>2619.7731933594</ele>
        <time>2014-07-24T11:51:05Z</time>
      </trkpt>
      <trkpt lat="45.54944" lon="6.80689">
        <ele>2619.7160644531</ele>
        <time>2014-07-24T11:51:07Z</time>
      </trkpt>
      <trkpt lat="45.54944" lon="6.80689">
        <ele>2619.6779785156</ele>
        <time>2014-07-24T11:51:09Z</time>
      </trkpt>
      <trkpt lat="45.54944" lon="6.80689">
        <ele>2619.6589355469</ele>
        <time>2014-07-24T11:51:11Z</time>
      </trkpt>
      <trkpt lat="45.54944" lon="6.80689">
        <ele>2619.6970214844</ele>
        <time>2014-07-24T11:51:13Z</time>
      </trkpt>
      <trkpt lat="45.54944" lon="6.80689">
        <ele>2619.7160644531</ele>
        <time>2014-07-24T11:51:15Z</time>
      </trkpt>
      <trkpt lat="45.54944" lon="6.80689">
        <ele>2619.8112792969</ele>
        <time>2014-07-24T11:51:17Z</time>
      </trkpt>
      <trkpt lat="45.54944" lon="6.80689">
        <ele>2619.8112792969</ele>
        <time>2014-07-24T11:51:19Z</time>
      </trkpt>
      <trkpt lat="45.54944" lon="6.80689">
        <ele>2619.9934082031</ele>
        <time>2014-07-24T11:51:21Z</time>
      </trkpt>
      <trkpt lat="45.54944" lon="6.80689">
        <ele>2619.9934082031</ele>
        <time>2014-07-24T11:51:23Z</time>
      </trkpt>
      <trkpt lat="45.54944" lon="6.80689">
        <ele>2619.7922363281</ele>
        <time>2014-07-24T11:51:25Z</time>
      </trkpt>
      <trkpt lat="45.54944" lon="6.80689">
        <ele>2619.7731933594</ele>
        <time>2014-07-24T11:51:27Z</time>
      </trkpt>
      <trkpt lat="45.54944" lon="6.80689">
        <ele>2620.0502929688</ele>
        <time>2014-07-24T11:51:29Z</time>
      </trkpt>
      <trkpt lat="45.54945" lon="6.80688">
        <ele>2620.7717285156</ele>
        <time>2014-07-24T11:51:31Z</time>
      </trkpt>
      <trkpt lat="45.54948" lon="6.80687">
        <ele>2621.8017578125</ele>
        <time>2014-07-24T11:51:35Z</time>
      </trkpt>
      <trkpt lat="45.54949" lon="6.80686">
        <ele>2622.33203125</ele>
        <time>2014-07-24T11:51:37Z</time>
      </trkpt>
      <trkpt lat="45.5495" lon="6.80686">
        <ele>2622.5913085938</ele>
        <time>2014-07-24T11:51:39Z</time>
      </trkpt>
      <trkpt lat="45.54951" lon="6.80685">
        <ele>2623.1525878906</ele>
        <time>2014-07-24T11:51:41Z</time>
      </trkpt>
      <trkpt lat="45.54952" lon="6.80684">
        <ele>2623.7019042969</ele>
        <time>2014-07-24T11:51:43Z</time>
      </trkpt>
      <trkpt lat="45.54952" lon="6.80682">
        <ele>2624.5773925781</ele>
        <time>2014-07-24T11:51:45Z</time>
      </trkpt>
      <trkpt lat="45.54953" lon="6.80682">
        <ele>2624.96875</ele>
        <time>2014-07-24T11:51:47Z</time>
      </trkpt>
      <trkpt lat="45.54955" lon="6.80678">
        <ele>2626.6579589844</ele>
        <time>2014-07-24T11:51:53Z</time>
      </trkpt>
      <trkpt lat="45.54955" lon="6.80678">
        <ele>2626.9104003906</ele>
        <time>2014-07-24T11:51:55Z</time>
      </trkpt>
      <trkpt lat="45.54955" lon="6.80678">
        <ele>2626.8981933594</ele>
        <time>2014-07-24T11:51:57Z</time>
      </trkpt>
      <trkpt lat="45.54955" lon="6.80678">
        <ele>2626.9360351562</ele>
        <time>2014-07-24T11:51:59Z</time>
      </trkpt>
      <trkpt lat="45.54955" lon="6.80678">
        <ele>2626.9172363281</ele>
        <time>2014-07-24T11:52:01Z</time>
      </trkpt>
      <trkpt lat="45.54956" lon="6.80678">
        <ele>2627.0561523438</ele>
        <time>2014-07-24T11:52:03Z</time>
      </trkpt>
      <trkpt lat="45.54956" lon="6.80678">
        <ele>2627.0561523438</ele>
        <time>2014-07-24T11:52:05Z</time>
      </trkpt>
      <trkpt lat="45.54956" lon="6.80677">
        <ele>2627.1506347656</ele>
        <time>2014-07-24T11:52:09Z</time>
      </trkpt>
      <trkpt lat="45.54956" lon="6.80678">
        <ele>2627.1318359375</ele>
        <time>2014-07-24T11:52:11Z</time>
      </trkpt>
      <trkpt lat="45.54956" lon="6.80677">
        <ele>2627.2072753906</ele>
        <time>2014-07-24T11:52:15Z</time>
      </trkpt>
      <trkpt lat="45.54956" lon="6.80677">
        <ele>2627.1884765625</ele>
        <time>2014-07-24T11:52:17Z</time>
      </trkpt>
      <trkpt lat="45.54955" lon="6.80677">
        <ele>2627.1247558594</ele>
        <time>2014-07-24T11:52:19Z</time>
      </trkpt>
      <trkpt lat="45.54955" lon="6.80677">
        <ele>2627.3703613281</ele>
        <time>2014-07-24T11:52:21Z</time>
      </trkpt>
      <trkpt lat="45.54954" lon="6.80674">
        <ele>2628.0036621094</ele>
        <time>2014-07-24T11:52:27Z</time>
      </trkpt>
      <trkpt lat="45.54953" lon="6.80674">
        <ele>2628.05859375</ele>
        <time>2014-07-24T11:52:29Z</time>
      </trkpt>
      <trkpt lat="45.5495" lon="6.80664">
        <ele>2631.1574707031</ele>
        <time>2014-07-24T11:52:43Z</time>
      </trkpt>
      <trkpt lat="45.5495" lon="6.80662">
        <ele>2632.17578125</ele>
        <time>2014-07-24T11:52:45Z</time>
      </trkpt>
      <trkpt lat="45.54948" lon="6.8066">
        <ele>2632.4660644531</ele>
        <time>2014-07-24T11:52:49Z</time>
      </trkpt>
      <trkpt lat="45.54948" lon="6.80659">
        <ele>2633.0090332031</ele>
        <time>2014-07-24T11:52:51Z</time>
      </trkpt>
      <trkpt lat="45.54948" lon="6.80659">
        <ele>2632.8588867188</ele>
        <time>2014-07-24T11:52:53Z</time>
      </trkpt>
      <trkpt lat="45.54947" lon="6.80658">
        <ele>2633.4116210938</ele>
        <time>2014-07-24T11:52:55Z</time>
      </trkpt>
      <trkpt lat="45.54945" lon="6.80657">
        <ele>2633.2373046875</ele>
        <time>2014-07-24T11:52:59Z</time>
      </trkpt>
      <trkpt lat="45.54943" lon="6.80655">
        <ele>2633.7829589844</ele>
        <time>2014-07-24T11:53:03Z</time>
      </trkpt>
      <trkpt lat="45.54943" lon="6.80654">
        <ele>2634.125</ele>
        <time>2014-07-24T11:53:05Z</time>
      </trkpt>
      <trkpt lat="45.54942" lon="6.80653">
        <ele>2634.0676269531</ele>
        <time>2014-07-24T11:53:09Z</time>
      </trkpt>
      <trkpt lat="45.54941" lon="6.80651">
        <ele>2634.8884277344</ele>
        <time>2014-07-24T11:53:13Z</time>
      </trkpt>
      <trkpt lat="45.54936" lon="6.80648">
        <ele>2634.7619628906</ele>
        <time>2014-07-24T11:53:23Z</time>
      </trkpt>
      <trkpt lat="45.54931" lon="6.80641">
        <ele>2637.3923339844</ele>
        <time>2014-07-24T11:53:35Z</time>
      </trkpt>
      <trkpt lat="45.54931" lon="6.80639">
        <ele>2638.6022949219</ele>
        <time>2014-07-24T11:53:39Z</time>
      </trkpt>
      <trkpt lat="45.54932" lon="6.80634">
        <ele>2640.9045410156</ele>
        <time>2014-07-24T11:53:47Z</time>
      </trkpt>
      <trkpt lat="45.54932" lon="6.80634">
        <ele>2641.0090332031</ele>
        <time>2014-07-24T11:53:49Z</time>
      </trkpt>
      <trkpt lat="45.54932" lon="6.80633">
        <ele>2641.5859375</ele>
        <time>2014-07-24T11:53:53Z</time>
      </trkpt>
      <trkpt lat="45.54933" lon="6.80631">
        <ele>2642.25</ele>
        <time>2014-07-24T11:53:55Z</time>
      </trkpt>
      <trkpt lat="45.54933" lon="6.80632">
        <ele>2642.166015625</ele>
        <time>2014-07-24T11:53:57Z</time>
      </trkpt>
      <trkpt lat="45.54932" lon="6.80624">
        <ele>2645.5573730469</ele>
        <time>2014-07-24T11:54:09Z</time>
      </trkpt>
      <trkpt lat="45.54933" lon="6.80623">
        <ele>2646.0236816406</ele>
        <time>2014-07-24T11:54:11Z</time>
      </trkpt>
      <trkpt lat="45.54933" lon="6.80619">
        <ele>2648.0063476562</ele>
        <time>2014-07-24T11:54:19Z</time>
      </trkpt>
      <trkpt lat="45.54932" lon="6.80618">
        <ele>2648.0544433594</ele>
        <time>2014-07-24T11:54:21Z</time>
      </trkpt>
      <trkpt lat="45.54932" lon="6.80616">
        <ele>2648.9428710938</ele>
        <time>2014-07-24T11:54:25Z</time>
      </trkpt>
      <trkpt lat="45.54932" lon="6.80611">
        <ele>2651.1462402344</ele>
        <time>2014-07-24T11:54:35Z</time>
      </trkpt>
      <trkpt lat="45.54932" lon="6.80611">
        <ele>2651.3630371094</ele>
        <time>2014-07-24T11:54:37Z</time>
      </trkpt>
      <trkpt lat="45.54932" lon="6.80609">
        <ele>2652.1540527344</ele>
        <time>2014-07-24T11:54:39Z</time>
      </trkpt>
      <trkpt lat="45.54932" lon="6.80609">
        <ele>2652.2841796875</ele>
        <time>2014-07-24T11:54:41Z</time>
      </trkpt>
      <trkpt lat="45.54932" lon="6.80608">
        <ele>2652.8986816406</ele>
        <time>2014-07-24T11:54:43Z</time>
      </trkpt>
      <trkpt lat="45.54932" lon="6.80605">
        <ele>2654.0617675781</ele>
        <time>2014-07-24T11:54:47Z</time>
      </trkpt>
      <trkpt lat="45.54931" lon="6.80604">
        <ele>2654.5146484375</ele>
        <time>2014-07-24T11:54:51Z</time>
      </trkpt>
      <trkpt lat="45.54931" lon="6.80603">
        <ele>2654.8857421875</ele>
        <time>2014-07-24T11:54:53Z</time>
      </trkpt>
      <trkpt lat="45.54931" lon="6.80597">
        <ele>2657.8544921875</ele>
        <time>2014-07-24T11:55:01Z</time>
      </trkpt>
      <trkpt lat="45.5493" lon="6.80597">
        <ele>2658.0244140625</ele>
        <time>2014-07-24T11:55:03Z</time>
      </trkpt>
      <trkpt lat="45.5493" lon="6.80595">
        <ele>2658.7194824219</ele>
        <time>2014-07-24T11:55:07Z</time>
      </trkpt>
      <trkpt lat="45.5493" lon="6.80595">
        <ele>2658.9113769531</ele>
        <time>2014-07-24T11:55:09Z</time>
      </trkpt>
      <trkpt lat="45.54929" lon="6.8059">
        <ele>2661.2106933594</ele>
        <time>2014-07-24T11:55:17Z</time>
      </trkpt>
      <trkpt lat="45.5493" lon="6.80588">
        <ele>2662.1779785156</ele>
        <time>2014-07-24T11:55:19Z</time>
      </trkpt>
      <trkpt lat="45.54929" lon="6.80587">
        <ele>2662.52734375</ele>
        <time>2014-07-24T11:55:21Z</time>
      </trkpt>
      <trkpt lat="45.5493" lon="6.80584">
        <ele>2664.1203613281</ele>
        <time>2014-07-24T11:55:25Z</time>
      </trkpt>
      <trkpt lat="45.54929" lon="6.80583">
        <ele>2664.2600097656</ele>
        <time>2014-07-24T11:55:27Z</time>
      </trkpt>
      <trkpt lat="45.5493" lon="6.80582">
        <ele>2664.9521484375</ele>
        <time>2014-07-24T11:55:29Z</time>
      </trkpt>
      <trkpt lat="45.54929" lon="6.80581">
        <ele>2665.0461425781</ele>
        <time>2014-07-24T11:55:31Z</time>
      </trkpt>
      <trkpt lat="45.54929" lon="6.8058">
        <ele>2665.6047363281</ele>
        <time>2014-07-24T11:55:35Z</time>
      </trkpt>
      <trkpt lat="45.54928" lon="6.8058">
        <ele>2665.5368652344</ele>
        <time>2014-07-24T11:55:37Z</time>
      </trkpt>
      <trkpt lat="45.54927" lon="6.80579">
        <ele>2665.8283691406</ele>
        <time>2014-07-24T11:55:39Z</time>
      </trkpt>
      <trkpt lat="45.54923" lon="6.80577">
        <ele>2665.8095703125</ele>
        <time>2014-07-24T11:55:47Z</time>
      </trkpt>
      <trkpt lat="45.54922" lon="6.80576">
        <ele>2666.1633300781</ele>
        <time>2014-07-24T11:55:49Z</time>
      </trkpt>
      <trkpt lat="45.54919" lon="6.80576">
        <ele>2665.9133300781</ele>
        <time>2014-07-24T11:55:53Z</time>
      </trkpt>
      <trkpt lat="45.54918" lon="6.80575">
        <ele>2666.3610839844</ele>
        <time>2014-07-24T11:55:55Z</time>
      </trkpt>
      <trkpt lat="45.54915" lon="6.80571">
        <ele>2667.1076660156</ele>
        <time>2014-07-24T11:56:03Z</time>
      </trkpt>
      <trkpt lat="45.54913" lon="6.80571">
        <ele>2666.9846191406</ele>
        <time>2014-07-24T11:56:05Z</time>
      </trkpt>
      <trkpt lat="45.54911" lon="6.80568">
        <ele>2667.609375</ele>
        <time>2014-07-24T11:56:09Z</time>
      </trkpt>
      <trkpt lat="45.5491" lon="6.80568">
        <ele>2667.3820800781</ele>
        <time>2014-07-24T11:56:11Z</time>
      </trkpt>
      <trkpt lat="45.54909" lon="6.80567">
        <ele>2667.6564941406</ele>
        <time>2014-07-24T11:56:13Z</time>
      </trkpt>
      <trkpt lat="45.54908" lon="6.80567">
        <ele>2667.4074707031</ele>
        <time>2014-07-24T11:56:15Z</time>
      </trkpt>
      <trkpt lat="45.54908" lon="6.80565">
        <ele>2668.4816894531</ele>
        <time>2014-07-24T11:56:19Z</time>
      </trkpt>
      <trkpt lat="45.54904" lon="6.80558">
        <ele>2670.5693359375</ele>
        <time>2014-07-24T11:56:29Z</time>
      </trkpt>
      <trkpt lat="45.54903" lon="6.80558">
        <ele>2670.2307128906</ele>
        <time>2014-07-24T11:56:31Z</time>
      </trkpt>
      <trkpt lat="45.549" lon="6.80556">
        <ele>2670.5744628906</ele>
        <time>2014-07-24T11:56:37Z</time>
      </trkpt>
      <trkpt lat="45.549" lon="6.80555">
        <ele>2670.9291992188</ele>
        <time>2014-07-24T11:56:39Z</time>
      </trkpt>
      <trkpt lat="45.54898" lon="6.80555">
        <ele>2670.3503417969</ele>
        <time>2014-07-24T11:56:41Z</time>
      </trkpt>
      <trkpt lat="45.54897" lon="6.80555">
        <ele>2670.2854003906</ele>
        <time>2014-07-24T11:56:43Z</time>
      </trkpt>
      <trkpt lat="45.54894" lon="6.80556">
        <ele>2669.2919921875</ele>
        <time>2014-07-24T11:56:47Z</time>
      </trkpt>
      <trkpt lat="45.54892" lon="6.80555">
        <ele>2669.1232910156</ele>
        <time>2014-07-24T11:56:49Z</time>
      </trkpt>
      <trkpt lat="45.5489" lon="6.80551">
        <ele>2670.5837402344</ele>
        <time>2014-07-24T11:56:57Z</time>
      </trkpt>
      <trkpt lat="45.54886" lon="6.80548">
        <ele>2672.8481445312</ele>
        <time>2014-07-24T11:57:05Z</time>
      </trkpt>
      <trkpt lat="45.54878" lon="6.80535">
        <ele>2680.732421875</ele>
        <time>2014-07-24T11:57:25Z</time>
      </trkpt>
      <trkpt lat="45.54858" lon="6.80516">
        <ele>2691.8576660156</ele>
        <time>2014-07-24T11:58:01Z</time>
      </trkpt>
      <trkpt lat="45.54857" lon="6.80515">
        <ele>2692.3659667969</ele>
        <time>2014-07-24T11:58:03Z</time>
      </trkpt>
      <trkpt lat="45.54856" lon="6.80514">
        <ele>2692.8859863281</ele>
        <time>2014-07-24T11:58:07Z</time>
      </trkpt>
      <trkpt lat="45.54855" lon="6.80512">
        <ele>2693.5656738281</ele>
        <time>2014-07-24T11:58:09Z</time>
      </trkpt>
      <trkpt lat="45.54855" lon="6.80511">
        <ele>2693.9113769531</ele>
        <time>2014-07-24T11:58:11Z</time>
      </trkpt>
      <trkpt lat="45.54855" lon="6.80511">
        <ele>2694.2082519531</ele>
        <time>2014-07-24T11:58:13Z</time>
      </trkpt>
      <trkpt lat="45.54852" lon="6.80507">
        <ele>2696.05078125</ele>
        <time>2014-07-24T11:58:19Z</time>
      </trkpt>
      <trkpt lat="45.54851" lon="6.80506">
        <ele>2696.3996582031</ele>
        <time>2014-07-24T11:58:21Z</time>
      </trkpt>
      <trkpt lat="45.54851" lon="6.80506">
        <ele>2696.4775390625</ele>
        <time>2014-07-24T11:58:23Z</time>
      </trkpt>
      <trkpt lat="45.54849" lon="6.80506">
        <ele>2696.2961425781</ele>
        <time>2014-07-24T11:58:25Z</time>
      </trkpt>
      <trkpt lat="45.54845" lon="6.80503">
        <ele>2697.4860839844</ele>
        <time>2014-07-24T11:58:31Z</time>
      </trkpt>
      <trkpt lat="45.54844" lon="6.80503">
        <ele>2697.5314941406</ele>
        <time>2014-07-24T11:58:33Z</time>
      </trkpt>
      <trkpt lat="45.54842" lon="6.80502">
        <ele>2697.873046875</ele>
        <time>2014-07-24T11:58:35Z</time>
      </trkpt>
      <trkpt lat="45.54842" lon="6.80502">
        <ele>2698.3227539062</ele>
        <time>2014-07-24T11:58:37Z</time>
      </trkpt>
      <trkpt lat="45.54841" lon="6.80503">
        <ele>2697.4619140625</ele>
        <time>2014-07-24T11:58:39Z</time>
      </trkpt>
      <trkpt lat="45.54839" lon="6.80504">
        <ele>2696.6430664062</ele>
        <time>2014-07-24T11:58:41Z</time>
      </trkpt>
      <trkpt lat="45.54837" lon="6.80504">
        <ele>2696.2346191406</ele>
        <time>2014-07-24T11:58:43Z</time>
      </trkpt>
      <trkpt lat="45.54836" lon="6.80505">
        <ele>2695.4934082031</ele>
        <time>2014-07-24T11:58:45Z</time>
      </trkpt>
      <trkpt lat="45.54833" lon="6.80506">
        <ele>2695.0100097656</ele>
        <time>2014-07-24T11:58:49Z</time>
      </trkpt>
      <trkpt lat="45.54831" lon="6.80506">
        <ele>2694.6015625</ele>
        <time>2014-07-24T11:58:53Z</time>
      </trkpt>
      <trkpt lat="45.5483" lon="6.80505">
        <ele>2694.7802734375</ele>
        <time>2014-07-24T11:58:55Z</time>
      </trkpt>
      <trkpt lat="45.54829" lon="6.80505">
        <ele>2694.5180664062</ele>
        <time>2014-07-24T11:58:57Z</time>
      </trkpt>
      <trkpt lat="45.54826" lon="6.80504">
        <ele>2695.1728515625</ele>
        <time>2014-07-24T11:59:05Z</time>
      </trkpt>
      <trkpt lat="45.54825" lon="6.80504">
        <ele>2694.9514160156</ele>
        <time>2014-07-24T11:59:07Z</time>
      </trkpt>
      <trkpt lat="45.54825" lon="6.80502">
        <ele>2696.0454101562</ele>
        <time>2014-07-24T11:59:11Z</time>
      </trkpt>
      <trkpt lat="45.54823" lon="6.805">
        <ele>2697.1818847656</ele>
        <time>2014-07-24T11:59:15Z</time>
      </trkpt>
      <trkpt lat="45.54822" lon="6.805">
        <ele>2696.9599609375</ele>
        <time>2014-07-24T11:59:17Z</time>
      </trkpt>
      <trkpt lat="45.5482" lon="6.80501">
        <ele>2696.09765625</ele>
        <time>2014-07-24T11:59:19Z</time>
      </trkpt>
      <trkpt lat="45.54819" lon="6.80501">
        <ele>2696.0983886719</ele>
        <time>2014-07-24T11:59:21Z</time>
      </trkpt>
      <trkpt lat="45.54819" lon="6.80501">
        <ele>2695.5356445312</ele>
        <time>2014-07-24T11:59:23Z</time>
      </trkpt>
      <trkpt lat="45.54819" lon="6.80501">
        <ele>2695.8879394531</ele>
        <time>2014-07-24T11:59:25Z</time>
      </trkpt>
      <trkpt lat="45.54819" lon="6.80499">
        <ele>2696.3344726562</ele>
        <time>2014-07-24T11:59:29Z</time>
      </trkpt>
      <trkpt lat="45.5482" lon="6.80498">
        <ele>2696.4431152344</ele>
        <time>2014-07-24T11:59:35Z</time>
      </trkpt>
      <trkpt lat="45.54819" lon="6.80496">
        <ele>2696.2946777344</ele>
        <time>2014-07-24T11:59:37Z</time>
      </trkpt>
      <trkpt lat="45.5482" lon="6.80495">
        <ele>2696.2751464844</ele>
        <time>2014-07-24T11:59:39Z</time>
      </trkpt>
      <trkpt lat="45.54819" lon="6.80493">
        <ele>2696.1369628906</ele>
        <time>2014-07-24T11:59:41Z</time>
      </trkpt>
      <trkpt lat="45.5482" lon="6.80489">
        <ele>2695.9477539062</ele>
        <time>2014-07-24T11:59:47Z</time>
      </trkpt>
      <trkpt lat="45.54821" lon="6.80488">
        <ele>2696.0334472656</ele>
        <time>2014-07-24T11:59:49Z</time>
      </trkpt>
      <trkpt lat="45.54824" lon="6.80487">
        <ele>2696.189453125</ele>
        <time>2014-07-24T11:59:51Z</time>
      </trkpt>
      <trkpt lat="45.54826" lon="6.80487">
        <ele>2696.37890625</ele>
        <time>2014-07-24T11:59:53Z</time>
      </trkpt>
      <trkpt lat="45.54827" lon="6.80486">
        <ele>2696.5148925781</ele>
        <time>2014-07-24T11:59:55Z</time>
      </trkpt>
      <trkpt lat="45.54829" lon="6.80487">
        <ele>2696.6948242188</ele>
        <time>2014-07-24T11:59:57Z</time>
      </trkpt>
      <trkpt lat="45.54834" lon="6.80485">
        <ele>2696.9919433594</ele>
        <time>2014-07-24T12:00:03Z</time>
      </trkpt>
      <trkpt lat="45.54839" lon="6.80485">
        <ele>2697.4807128906</ele>
        <time>2014-07-24T12:00:07Z</time>
      </trkpt>
      <trkpt lat="45.54847" lon="6.80483">
        <ele>2698.2607421875</ele>
        <time>2014-07-24T12:00:17Z</time>
      </trkpt>
      <trkpt lat="45.54848" lon="6.80483">
        <ele>2698.3115234375</ele>
        <time>2014-07-24T12:00:18Z</time>
      </trkpt>
      <trkpt lat="45.5485" lon="6.80482">
        <ele>2698.6003417969</ele>
        <time>2014-07-24T12:00:21Z</time>
      </trkpt>
      <trkpt lat="45.54852" lon="6.80482">
        <ele>2698.8493652344</ele>
        <time>2014-07-24T12:00:23Z</time>
      </trkpt>
      <trkpt lat="45.54853" lon="6.80481">
        <ele>2698.9606933594</ele>
        <time>2014-07-24T12:00:25Z</time>
      </trkpt>
      <trkpt lat="45.54856" lon="6.80481">
        <ele>2699.3674316406</ele>
        <time>2014-07-24T12:00:29Z</time>
      </trkpt>
      <trkpt lat="45.54865" lon="6.80482">
        <ele>2700.0390625</ele>
        <time>2014-07-24T12:00:39Z</time>
      </trkpt>
      <trkpt lat="45.54869" lon="6.80482">
        <ele>2700.0769042969</ele>
        <time>2014-07-24T12:00:43Z</time>
      </trkpt>
      <trkpt lat="45.5487" lon="6.80482">
        <ele>2700.1025390625</ele>
        <time>2014-07-24T12:00:45Z</time>
      </trkpt>
      <trkpt lat="45.54872" lon="6.80482">
        <ele>2700.1184082031</ele>
        <time>2014-07-24T12:00:47Z</time>
      </trkpt>
      <trkpt lat="45.54874" lon="6.80481">
        <ele>2700.1662597656</ele>
        <time>2014-07-24T12:00:51Z</time>
      </trkpt>
      <trkpt lat="45.54875" lon="6.8048">
        <ele>2700.2175292969</ele>
        <time>2014-07-24T12:00:53Z</time>
      </trkpt>
      <trkpt lat="45.54877" lon="6.80479">
        <ele>2700.2700195312</ele>
        <time>2014-07-24T12:00:55Z</time>
      </trkpt>
      <trkpt lat="45.54881" lon="6.80475">
        <ele>2700.5783691406</ele>
        <time>2014-07-24T12:01:02Z</time>
      </trkpt>
      <trkpt lat="45.54881" lon="6.80473">
        <ele>2700.6804199219</ele>
        <time>2014-07-24T12:01:04Z</time>
      </trkpt>
      <trkpt lat="45.54911" lon="6.80451">
        <ele>2700.7282714844</ele>
        <time>2014-07-24T12:01:38Z</time>
      </trkpt>
      <trkpt lat="45.54912" lon="6.80451">
        <ele>2701.1479492188</ele>
        <time>2014-07-24T12:01:40Z</time>
      </trkpt>
      <trkpt lat="45.54913" lon="6.80451">
        <ele>2701.3681640625</ele>
        <time>2014-07-24T12:01:42Z</time>
      </trkpt>
      <trkpt lat="45.54917" lon="6.80446">
        <ele>2701.5085449219</ele>
        <time>2014-07-24T12:01:48Z</time>
      </trkpt>
      <trkpt lat="45.54919" lon="6.80446">
        <ele>2701.9602050781</ele>
        <time>2014-07-24T12:01:50Z</time>
      </trkpt>
      <trkpt lat="45.54924" lon="6.80441">
        <ele>2702.9072265625</ele>
        <time>2014-07-24T12:02:00Z</time>
      </trkpt>
      <trkpt lat="45.5493" lon="6.80425">
        <ele>2702.9711914062</ele>
        <time>2014-07-24T12:02:24Z</time>
      </trkpt>
      <trkpt lat="45.54931" lon="6.80424">
        <ele>2703.4309082031</ele>
        <time>2014-07-24T12:02:28Z</time>
      </trkpt>
      <trkpt lat="45.54932" lon="6.80423">
        <ele>2703.4477539062</ele>
        <time>2014-07-24T12:02:32Z</time>
      </trkpt>
      <trkpt lat="45.54933" lon="6.80422">
        <ele>2704.166015625</ele>
        <time>2014-07-24T12:02:36Z</time>
      </trkpt>
      <trkpt lat="45.54934" lon="6.8042">
        <ele>2704.5695800781</ele>
        <time>2014-07-24T12:02:40Z</time>
      </trkpt>
      <trkpt lat="45.54935" lon="6.8042">
        <ele>2705.1569824219</ele>
        <time>2014-07-24T12:02:42Z</time>
      </trkpt>
      <trkpt lat="45.54937" lon="6.80422">
        <ele>2706.2224121094</ele>
        <time>2014-07-24T12:02:46Z</time>
      </trkpt>
      <trkpt lat="45.54938" lon="6.80423">
        <ele>2706.6584472656</ele>
        <time>2014-07-24T12:02:48Z</time>
      </trkpt>
      <trkpt lat="45.54937" lon="6.80423">
        <ele>2706.2717285156</ele>
        <time>2014-07-24T12:02:50Z</time>
      </trkpt>
      <trkpt lat="45.5494" lon="6.80417">
        <ele>2707.2751464844</ele>
        <time>2014-07-24T12:02:58Z</time>
      </trkpt>
      <trkpt lat="45.54942" lon="6.80415">
        <ele>2707.8618164062</ele>
        <time>2014-07-24T12:03:02Z</time>
      </trkpt>
      <trkpt lat="45.54942" lon="6.80415">
        <ele>2707.9956054688</ele>
        <time>2014-07-24T12:03:04Z</time>
      </trkpt>
      <trkpt lat="45.54942" lon="6.80415">
        <ele>2708.0815429688</ele>
        <time>2014-07-24T12:03:05Z</time>
      </trkpt>
      <trkpt lat="45.54942" lon="6.80415">
        <ele>2708.0129394531</ele>
        <time>2014-07-24T12:03:08Z</time>
      </trkpt>
      <trkpt lat="45.54942" lon="6.80415">
        <ele>2708.1982421875</ele>
        <time>2014-07-24T12:03:10Z</time>
      </trkpt>
      <trkpt lat="45.54942" lon="6.80415">
        <ele>2708.1640625</ele>
        <time>2014-07-24T12:03:12Z</time>
      </trkpt>
      <trkpt lat="45.54942" lon="6.80415">
        <ele>2708.1811523438</ele>
        <time>2014-07-24T12:03:14Z</time>
      </trkpt>
      <trkpt lat="45.54955" lon="6.80404">
        <ele>2710.8225097656</ele>
        <time>2014-07-24T12:03:44Z</time>
      </trkpt>
      <trkpt lat="45.54956" lon="6.80404">
        <ele>2711.130859375</ele>
        <time>2014-07-24T12:03:46Z</time>
      </trkpt>
      <trkpt lat="45.54956" lon="6.80404">
        <ele>2711.1452636719</ele>
        <time>2014-07-24T12:03:47Z</time>
      </trkpt>
      <trkpt lat="45.54956" lon="6.80404">
        <ele>2711.29296875</ele>
        <time>2014-07-24T12:03:50Z</time>
      </trkpt>
      <trkpt lat="45.54957" lon="6.80404">
        <ele>2711.7160644531</ele>
        <time>2014-07-24T12:03:52Z</time>
      </trkpt>
      <trkpt lat="45.54958" lon="6.80404">
        <ele>2712.0317382812</ele>
        <time>2014-07-24T12:03:54Z</time>
      </trkpt>
      <trkpt lat="45.54958" lon="6.80404">
        <ele>2711.9899902344</ele>
        <time>2014-07-24T12:03:56Z</time>
      </trkpt>
      <trkpt lat="45.54958" lon="6.80404">
        <ele>2712.00390625</ele>
        <time>2014-07-24T12:03:58Z</time>
      </trkpt>
      <trkpt lat="45.54958" lon="6.80404">
        <ele>2712.1936035156</ele>
        <time>2014-07-24T12:04:00Z</time>
      </trkpt>
      <trkpt lat="45.54958" lon="6.80404">
        <ele>2712.2072753906</ele>
        <time>2014-07-24T12:04:02Z</time>
      </trkpt>
      <trkpt lat="45.54958" lon="6.80404">
        <ele>2712.4106445312</ele>
        <time>2014-07-24T12:04:04Z</time>
      </trkpt>
      <trkpt lat="45.54961" lon="6.80403">
        <ele>2713.5017089844</ele>
        <time>2014-07-24T12:09:22Z</time>
      </trkpt>
      <trkpt lat="45.54959" lon="6.80402">
        <ele>2712.2614746094</ele>
        <time>2014-07-24T12:09:26Z</time>
      </trkpt>
      <trkpt lat="45.5495" lon="6.80409">
        <ele>2709.6904296875</ele>
        <time>2014-07-24T12:09:40Z</time>
      </trkpt>
      <trkpt lat="45.54948" lon="6.80409">
        <ele>2709.0363769531</ele>
        <time>2014-07-24T12:09:42Z</time>
      </trkpt>
      <trkpt lat="45.54944" lon="6.80412">
        <ele>2707.9099121094</ele>
        <time>2014-07-24T12:09:48Z</time>
      </trkpt>
      <trkpt lat="45.54935" lon="6.80423">
        <ele>2705.0827636719</ele>
        <time>2014-07-24T12:10:02Z</time>
      </trkpt>
      <trkpt lat="45.54935" lon="6.80424">
        <ele>2705.2321777344</ele>
        <time>2014-07-24T12:10:06Z</time>
      </trkpt>
      <trkpt lat="45.54934" lon="6.80424">
        <ele>2705.0402832031</ele>
        <time>2014-07-24T12:10:07Z</time>
      </trkpt>
      <trkpt lat="45.54935" lon="6.80424">
        <ele>2705.1628417969</ele>
        <time>2014-07-24T12:10:10Z</time>
      </trkpt>
      <trkpt lat="45.54934" lon="6.80424">
        <ele>2704.9528808594</ele>
        <time>2014-07-24T12:10:12Z</time>
      </trkpt>
      <trkpt lat="45.54934" lon="6.80424">
        <ele>2704.9638671875</ele>
        <time>2014-07-24T12:10:16Z</time>
      </trkpt>
      <trkpt lat="45.54935" lon="6.80424">
        <ele>2705.1520996094</ele>
        <time>2014-07-24T12:10:18Z</time>
      </trkpt>
      <trkpt lat="45.54935" lon="6.80424">
        <ele>2705.1520996094</ele>
        <time>2014-07-24T12:10:20Z</time>
      </trkpt>
      <trkpt lat="45.54935" lon="6.80424">
        <ele>2705.1520996094</ele>
        <time>2014-07-24T12:10:22Z</time>
      </trkpt>
      <trkpt lat="45.54935" lon="6.80423">
        <ele>2705.5002441406</ele>
        <time>2014-07-24T12:10:26Z</time>
      </trkpt>
      <trkpt lat="45.54935" lon="6.80423">
        <ele>2705.4799804688</ele>
        <time>2014-07-24T12:10:27Z</time>
      </trkpt>
      <trkpt lat="45.54936" lon="6.80422">
        <ele>2705.6420898438</ele>
        <time>2014-07-24T12:10:30Z</time>
      </trkpt>
      <trkpt lat="45.54936" lon="6.80422">
        <ele>2705.83984375</ele>
        <time>2014-07-24T12:10:32Z</time>
      </trkpt>
      <trkpt lat="45.54936" lon="6.80422">
        <ele>2705.7778320312</ele>
        <time>2014-07-24T12:10:36Z</time>
      </trkpt>
      <trkpt lat="45.54937" lon="6.80422">
        <ele>2705.9543457031</ele>
        <time>2014-07-24T12:10:38Z</time>
      </trkpt>
      <trkpt lat="45.54937" lon="6.80422">
        <ele>2705.958984375</ele>
        <time>2014-07-24T12:10:40Z</time>
      </trkpt>
      <trkpt lat="45.54937" lon="6.80422">
        <ele>2706.1643066406</ele>
        <time>2014-07-24T12:10:42Z</time>
      </trkpt>
      <trkpt lat="45.54937" lon="6.80422">
        <ele>2706.1687011719</ele>
        <time>2014-07-24T12:10:44Z</time>
      </trkpt>
      <trkpt lat="45.54937" lon="6.80422">
        <ele>2706.3823242188</ele>
        <time>2014-07-24T12:10:46Z</time>
      </trkpt>
      <trkpt lat="45.54937" lon="6.80422">
        <ele>2706.4213867188</ele>
        <time>2014-07-24T12:10:50Z</time>
      </trkpt>
      <trkpt lat="45.54937" lon="6.80422">
        <ele>2706.4040527344</ele>
        <time>2014-07-24T12:10:54Z</time>
      </trkpt>
      <trkpt lat="45.54937" lon="6.80422">
        <ele>2706.3911132812</ele>
        <time>2014-07-24T12:10:56Z</time>
      </trkpt>
      <trkpt lat="45.54937" lon="6.80422">
        <ele>2706.4213867188</ele>
        <time>2014-07-24T12:11:00Z</time>
      </trkpt>
      <trkpt lat="45.54937" lon="6.80422">
        <ele>2706.2224121094</ele>
        <time>2014-07-24T12:11:02Z</time>
      </trkpt>
      <trkpt lat="45.54937" lon="6.80422">
        <ele>2706.2358398438</ele>
        <time>2014-07-24T12:11:04Z</time>
      </trkpt>
      <trkpt lat="45.54937" lon="6.80423">
        <ele>2706.0747070312</ele>
        <time>2014-07-24T12:11:06Z</time>
      </trkpt>
      <trkpt lat="45.54935" lon="6.80433">
        <ele>2706.3325195312</ele>
        <time>2014-07-24T12:11:16Z</time>
      </trkpt>
      <trkpt lat="45.54933" lon="6.80433">
        <ele>2705.4118652344</ele>
        <time>2014-07-24T12:11:18Z</time>
      </trkpt>
      <trkpt lat="45.54931" lon="6.80433">
        <ele>2704.474609375</ele>
        <time>2014-07-24T12:11:20Z</time>
      </trkpt>
      <trkpt lat="45.54914" lon="6.8045">
        <ele>2701.359375</ele>
        <time>2014-07-24T12:11:42Z</time>
      </trkpt>
      <trkpt lat="45.54885" lon="6.80467">
        <ele>2698.9992675781</ele>
        <time>2014-07-24T12:12:08Z</time>
      </trkpt>
      <trkpt lat="45.54882" lon="6.80473">
        <ele>2700.7243652344</ele>
        <time>2014-07-24T12:12:12Z</time>
      </trkpt>
      <trkpt lat="45.54881" lon="6.80475">
        <ele>2700.560546875</ele>
        <time>2014-07-24T12:12:14Z</time>
      </trkpt>
      <trkpt lat="45.54879" lon="6.80478">
        <ele>2700.404296875</ele>
        <time>2014-07-24T12:12:16Z</time>
      </trkpt>
      <trkpt lat="45.54871" lon="6.80483">
        <ele>2700.0705566406</ele>
        <time>2014-07-24T12:12:24Z</time>
      </trkpt>
      <trkpt lat="45.5482" lon="6.80489">
        <ele>2695.9833984375</ele>
        <time>2014-07-24T12:13:06Z</time>
      </trkpt>
      <trkpt lat="45.54818" lon="6.8049">
        <ele>2695.7836914062</ele>
        <time>2014-07-24T12:13:08Z</time>
      </trkpt>
      <trkpt lat="45.54815" lon="6.8049">
        <ele>2695.4846191406</ele>
        <time>2014-07-24T12:13:10Z</time>
      </trkpt>
      <trkpt lat="45.54809" lon="6.80488">
        <ele>2694.7990722656</ele>
        <time>2014-07-24T12:13:14Z</time>
      </trkpt>
      <trkpt lat="45.54808" lon="6.80487">
        <ele>2694.6748046875</ele>
        <time>2014-07-24T12:13:16Z</time>
      </trkpt>
      <trkpt lat="45.54803" lon="6.80486">
        <ele>2694.541015625</ele>
        <time>2014-07-24T12:13:20Z</time>
      </trkpt>
      <trkpt lat="45.54799" lon="6.80486">
        <ele>2694.6052246094</ele>
        <time>2014-07-24T12:13:24Z</time>
      </trkpt>
      <trkpt lat="45.54799" lon="6.80487">
        <ele>2694.5979003906</ele>
        <time>2014-07-24T12:13:26Z</time>
      </trkpt>
      <trkpt lat="45.54799" lon="6.80488">
        <ele>2694.5795898438</ele>
        <time>2014-07-24T12:13:30Z</time>
      </trkpt>
      <trkpt lat="45.54799" lon="6.80488">
        <ele>2694.5834960938</ele>
        <time>2014-07-24T12:13:32Z</time>
      </trkpt>
      <trkpt lat="45.54795" lon="6.80487">
        <ele>2694.6662597656</ele>
        <time>2014-07-24T12:13:36Z</time>
      </trkpt>
      <trkpt lat="45.54793" lon="6.80487">
        <ele>2694.7084960938</ele>
        <time>2014-07-24T12:13:38Z</time>
      </trkpt>
      <trkpt lat="45.54777" lon="6.80479">
        <ele>2694.8330078125</ele>
        <time>2014-07-24T12:13:52Z</time>
      </trkpt>
      <trkpt lat="45.54767" lon="6.80478">
        <ele>2693.4372558594</ele>
        <time>2014-07-24T12:14:00Z</time>
      </trkpt>
      <trkpt lat="45.54764" lon="6.80479">
        <ele>2692.7644042969</ele>
        <time>2014-07-24T12:14:04Z</time>
      </trkpt>
      <trkpt lat="45.54763" lon="6.80479">
        <ele>2692.5908203125</ele>
        <time>2014-07-24T12:14:06Z</time>
      </trkpt>
      <trkpt lat="45.5476" lon="6.8048">
        <ele>2691.8352050781</ele>
        <time>2014-07-24T12:14:10Z</time>
      </trkpt>
      <trkpt lat="45.54744" lon="6.80481">
        <ele>2689.1687011719</ele>
        <time>2014-07-24T12:14:26Z</time>
      </trkpt>
      <trkpt lat="45.54733" lon="6.80478">
        <ele>2688.5051269531</ele>
        <time>2014-07-24T12:14:38Z</time>
      </trkpt>
      <trkpt lat="45.54731" lon="6.80476">
        <ele>2688.458984375</ele>
        <time>2014-07-24T12:14:42Z</time>
      </trkpt>
      <trkpt lat="45.5473" lon="6.80474">
        <ele>2688.4951171875</ele>
        <time>2014-07-24T12:14:44Z</time>
      </trkpt>
      <trkpt lat="45.54726" lon="6.80471">
        <ele>2687.2312011719</ele>
        <time>2014-07-24T12:14:50Z</time>
      </trkpt>
      <trkpt lat="45.54725" lon="6.80471">
        <ele>2686.7263183594</ele>
        <time>2014-07-24T12:14:52Z</time>
      </trkpt>
      <trkpt lat="45.54724" lon="6.8047">
        <ele>2686.0495605469</ele>
        <time>2014-07-24T12:14:54Z</time>
      </trkpt>
      <trkpt lat="45.54724" lon="6.80469">
        <ele>2685.8605957031</ele>
        <time>2014-07-24T12:14:56Z</time>
      </trkpt>
      <trkpt lat="45.54722" lon="6.80469">
        <ele>2685.322265625</ele>
        <time>2014-07-24T12:15:00Z</time>
      </trkpt>
      <trkpt lat="45.54722" lon="6.80469">
        <ele>2685.4768066406</ele>
        <time>2014-07-24T12:15:01Z</time>
      </trkpt>
      <trkpt lat="45.54722" lon="6.80469">
        <ele>2685.0905761719</ele>
        <time>2014-07-24T12:15:06Z</time>
      </trkpt>
      <trkpt lat="45.54722" lon="6.80469">
        <ele>2685.0390625</ele>
        <time>2014-07-24T12:15:08Z</time>
      </trkpt>
      <trkpt lat="45.54723" lon="6.80468">
        <ele>2685.0583496094</ele>
        <time>2014-07-24T12:15:10Z</time>
      </trkpt>
      <trkpt lat="45.54723" lon="6.80468">
        <ele>2684.8786621094</ele>
        <time>2014-07-24T12:15:12Z</time>
      </trkpt>
      <trkpt lat="45.54723" lon="6.80468">
        <ele>2684.7392578125</ele>
        <time>2014-07-24T12:15:14Z</time>
      </trkpt>
      <trkpt lat="45.54723" lon="6.80467">
        <ele>2684.1257324219</ele>
        <time>2014-07-24T12:15:20Z</time>
      </trkpt>
      <trkpt lat="45.54723" lon="6.80466">
        <ele>2684.1682128906</ele>
        <time>2014-07-24T12:15:22Z</time>
      </trkpt>
      <trkpt lat="45.54723" lon="6.80467">
        <ele>2684.1938476562</ele>
        <time>2014-07-24T12:15:24Z</time>
      </trkpt>
      <trkpt lat="45.54723" lon="6.80467">
        <ele>2684.1000976562</ele>
        <time>2014-07-24T12:15:26Z</time>
      </trkpt>
      <trkpt lat="45.54723" lon="6.80467">
        <ele>2684.2790527344</ele>
        <time>2014-07-24T12:15:28Z</time>
      </trkpt>
      <trkpt lat="45.54722" lon="6.80467">
        <ele>2683.6501464844</ele>
        <time>2014-07-24T12:15:30Z</time>
      </trkpt>
      <trkpt lat="45.54721" lon="6.80467">
        <ele>2682.5720214844</ele>
        <time>2014-07-24T12:15:32Z</time>
      </trkpt>
      <trkpt lat="45.54718" lon="6.80469">
        <ele>2681.1232910156</ele>
        <time>2014-07-24T12:15:38Z</time>
      </trkpt>
      <trkpt lat="45.54717" lon="6.80469">
        <ele>2679.8054199219</ele>
        <time>2014-07-24T12:15:40Z</time>
      </trkpt>
      <trkpt lat="45.54716" lon="6.80469">
        <ele>2678.7768554688</ele>
        <time>2014-07-24T12:15:42Z</time>
      </trkpt>
      <trkpt lat="45.54712" lon="6.80473">
        <ele>2676</ele>
        <time>2014-07-24T12:15:52Z</time>
      </trkpt>
      <trkpt lat="45.54712" lon="6.80473">
        <ele>2675.9206542969</ele>
        <time>2014-07-24T12:15:56Z</time>
      </trkpt>
      <trkpt lat="45.54712" lon="6.80473">
        <ele>2675.9921875</ele>
        <time>2014-07-24T12:16:04Z</time>
      </trkpt>
      <trkpt lat="45.54712" lon="6.80473">
        <ele>2676.3466796875</ele>
        <time>2014-07-24T12:16:08Z</time>
      </trkpt>
      <trkpt lat="45.54712" lon="6.80473">
        <ele>2675.9763183594</ele>
        <time>2014-07-24T12:16:10Z</time>
      </trkpt>
      <trkpt lat="45.54712" lon="6.80473">
        <ele>2676.3696289062</ele>
        <time>2014-07-24T12:16:12Z</time>
      </trkpt>
      <trkpt lat="45.54712" lon="6.80472">
        <ele>2676.2473144531</ele>
        <time>2014-07-24T12:16:18Z</time>
      </trkpt>
      <trkpt lat="45.54712" lon="6.80472">
        <ele>2676.4365234375</ele>
        <time>2014-07-24T12:16:22Z</time>
      </trkpt>
      <trkpt lat="45.54712" lon="6.80473">
        <ele>2676.7114257812</ele>
        <time>2014-07-24T12:16:28Z</time>
      </trkpt>
      <trkpt lat="45.54712" lon="6.80473">
        <ele>2676.7041015625</ele>
        <time>2014-07-24T12:16:30Z</time>
      </trkpt>
      <trkpt lat="45.54712" lon="6.80473">
        <ele>2676.7778320312</ele>
        <time>2014-07-24T12:16:36Z</time>
      </trkpt>
      <trkpt lat="45.54713" lon="6.80473">
        <ele>2677.1848144531</ele>
        <time>2014-07-24T12:16:38Z</time>
      </trkpt>
      <trkpt lat="45.54713" lon="6.80473">
        <ele>2677.1918945312</ele>
        <time>2014-07-24T12:16:40Z</time>
      </trkpt>
      <trkpt lat="45.54713" lon="6.80473">
        <ele>2677.2131347656</ele>
        <time>2014-07-24T12:16:42Z</time>
      </trkpt>
      <trkpt lat="45.54713" lon="6.80474">
        <ele>2677.6176757812</ele>
        <time>2014-07-24T12:16:44Z</time>
      </trkpt>
      <trkpt lat="45.54713" lon="6.80474">
        <ele>2677.6381835938</ele>
        <time>2014-07-24T12:16:46Z</time>
      </trkpt>
      <trkpt lat="45.54713" lon="6.80474">
        <ele>2677.2414550781</ele>
        <time>2014-07-24T12:16:48Z</time>
      </trkpt>
      <trkpt lat="45.54713" lon="6.80473">
        <ele>2677.2202148438</ele>
        <time>2014-07-24T12:16:50Z</time>
      </trkpt>
      <trkpt lat="45.54713" lon="6.80473">
        <ele>2677.2131347656</ele>
        <time>2014-07-24T12:16:52Z</time>
      </trkpt>
      <trkpt lat="45.54713" lon="6.80473">
        <ele>2677.1918945312</ele>
        <time>2014-07-24T12:16:54Z</time>
      </trkpt>
      <trkpt lat="45.54713" lon="6.80473">
        <ele>2677.1848144531</ele>
        <time>2014-07-24T12:16:56Z</time>
      </trkpt>
      <trkpt lat="45.54712" lon="6.80474">
        <ele>2676.5988769531</ele>
        <time>2014-07-24T12:17:02Z</time>
      </trkpt>
      <trkpt lat="45.54712" lon="6.80474">
        <ele>2676.5529785156</ele>
        <time>2014-07-24T12:17:12Z</time>
      </trkpt>
      <trkpt lat="45.54712" lon="6.80474">
        <ele>2676.1506347656</ele>
        <time>2014-07-24T12:17:14Z</time>
      </trkpt>
      <trkpt lat="45.54712" lon="6.80474">
        <ele>2676.1584472656</ele>
        <time>2014-07-24T12:17:16Z</time>
      </trkpt>
      <trkpt lat="45.54712" lon="6.80474">
        <ele>2676.4765625</ele>
        <time>2014-07-24T12:17:24Z</time>
      </trkpt>
      <trkpt lat="45.54712" lon="6.80474">
        <ele>2676.8735351562</ele>
        <time>2014-07-24T12:17:26Z</time>
      </trkpt>
      <trkpt lat="45.54712" lon="6.80474">
        <ele>2676.8439941406</ele>
        <time>2014-07-24T12:17:30Z</time>
      </trkpt>
      <trkpt lat="45.54713" lon="6.80474">
        <ele>2677.234375</ele>
        <time>2014-07-24T12:17:32Z</time>
      </trkpt>
      <trkpt lat="45.54712" lon="6.80473">
        <ele>2676.7336425781</ele>
        <time>2014-07-24T12:17:38Z</time>
      </trkpt>
      <trkpt lat="45.54718" lon="6.80469">
        <ele>2680.416015625</ele>
        <time>2014-07-24T12:17:46Z</time>
      </trkpt>
      <trkpt lat="45.54719" lon="6.80469">
        <ele>2681.5847167969</ele>
        <time>2014-07-24T12:17:48Z</time>
      </trkpt>
      <trkpt lat="45.54719" lon="6.80469">
        <ele>2682.3461914062</ele>
        <time>2014-07-24T12:17:50Z</time>
      </trkpt>
      <trkpt lat="45.5472" lon="6.8047">
        <ele>2682.7873535156</ele>
        <time>2014-07-24T12:17:52Z</time>
      </trkpt>
      <trkpt lat="45.54721" lon="6.80467">
        <ele>2683.185546875</ele>
        <time>2014-07-24T12:17:56Z</time>
      </trkpt>
      <trkpt lat="45.54723" lon="6.80467">
        <ele>2684.2790527344</ele>
        <time>2014-07-24T12:17:58Z</time>
      </trkpt>
      <trkpt lat="45.54725" lon="6.80467">
        <ele>2684.8195800781</ele>
        <time>2014-07-24T12:18:00Z</time>
      </trkpt>
      <trkpt lat="45.54728" lon="6.80468">
        <ele>2686.1284179688</ele>
        <time>2014-07-24T12:18:02Z</time>
      </trkpt>
      <trkpt lat="45.54731" lon="6.80469">
        <ele>2687.2524414062</ele>
        <time>2014-07-24T12:18:06Z</time>
      </trkpt>
      <trkpt lat="45.54733" lon="6.80471">
        <ele>2688.6005859375</ele>
        <time>2014-07-24T12:18:10Z</time>
      </trkpt>
      <trkpt lat="45.54733" lon="6.80472">
        <ele>2689.3459472656</ele>
        <time>2014-07-24T12:18:12Z</time>
      </trkpt>
      <trkpt lat="45.54738" lon="6.80477">
        <ele>2689.4184570312</ele>
        <time>2014-07-24T12:18:18Z</time>
      </trkpt>
      <trkpt lat="45.54749" lon="6.8048">
        <ele>2690.1730957031</ele>
        <time>2014-07-24T12:18:30Z</time>
      </trkpt>
      <trkpt lat="45.54753" lon="6.80478">
        <ele>2691.3879394531</ele>
        <time>2014-07-24T12:18:34Z</time>
      </trkpt>
      <trkpt lat="45.5477" lon="6.80477">
        <ele>2693.9294433594</ele>
        <time>2014-07-24T12:18:52Z</time>
      </trkpt>
      <trkpt lat="45.54778" lon="6.80479">
        <ele>2694.9611816406</ele>
        <time>2014-07-24T12:18:58Z</time>
      </trkpt>
      <trkpt lat="45.54785" lon="6.80484">
        <ele>2694.888671875</ele>
        <time>2014-07-24T12:19:04Z</time>
      </trkpt>
      <trkpt lat="45.54791" lon="6.80486">
        <ele>2694.7531738281</ele>
        <time>2014-07-24T12:19:10Z</time>
      </trkpt>
      <trkpt lat="45.54798" lon="6.80487">
        <ele>2694.6235351562</ele>
        <time>2014-07-24T12:19:16Z</time>
      </trkpt>
      <trkpt lat="45.54809" lon="6.80487">
        <ele>2694.8193359375</ele>
        <time>2014-07-24T12:19:26Z</time>
      </trkpt>
      <trkpt lat="45.54814" lon="6.8049">
        <ele>2695.3020019531</ele>
        <time>2014-07-24T12:19:30Z</time>
      </trkpt>
      <trkpt lat="45.54821" lon="6.80489">
        <ele>2696.0747070312</ele>
        <time>2014-07-24T12:19:36Z</time>
      </trkpt>
      <trkpt lat="45.54826" lon="6.80486">
        <ele>2696.3857421875</ele>
        <time>2014-07-24T12:19:42Z</time>
      </trkpt>
      <trkpt lat="45.54828" lon="6.80486">
        <ele>2696.5295410156</ele>
        <time>2014-07-24T12:19:44Z</time>
      </trkpt>
      <trkpt lat="45.54832" lon="6.80485">
        <ele>2696.6611328125</ele>
        <time>2014-07-24T12:19:48Z</time>
      </trkpt>
      <trkpt lat="45.5485" lon="6.80484">
        <ele>2698.6201171875</ele>
        <time>2014-07-24T12:20:02Z</time>
      </trkpt>
      <trkpt lat="45.54862" lon="6.80481">
        <ele>2700.0092773438</ele>
        <time>2014-07-24T12:20:12Z</time>
      </trkpt>
      <trkpt lat="45.54866" lon="6.80482">
        <ele>2700.0539550781</ele>
        <time>2014-07-24T12:20:16Z</time>
      </trkpt>
      <trkpt lat="45.54867" lon="6.80481">
        <ele>2700.0778808594</ele>
        <time>2014-07-24T12:20:18Z</time>
      </trkpt>
      <trkpt lat="45.54869" lon="6.80477">
        <ele>2700.1970214844</ele>
        <time>2014-07-24T12:20:22Z</time>
      </trkpt>
      <trkpt lat="45.54869" lon="6.80475">
        <ele>2700.2175292969</ele>
        <time>2014-07-24T12:20:24Z</time>
      </trkpt>
      <trkpt lat="45.54854" lon="6.80473">
        <ele>2698.7976074219</ele>
        <time>2014-07-24T12:20:36Z</time>
      </trkpt>
      <trkpt lat="45.54851" lon="6.80471">
        <ele>2697.5908203125</ele>
        <time>2014-07-24T12:20:38Z</time>
      </trkpt>
      <trkpt lat="45.54845" lon="6.80459">
        <ele>2689.4963378906</ele>
        <time>2014-07-24T12:20:48Z</time>
      </trkpt>
      <trkpt lat="45.54842" lon="6.80457">
        <ele>2687.8034667969</ele>
        <time>2014-07-24T12:20:52Z</time>
      </trkpt>
      <trkpt lat="45.54842" lon="6.80455">
        <ele>2686.6091308594</ele>
        <time>2014-07-24T12:20:54Z</time>
      </trkpt>
      <trkpt lat="45.5485" lon="6.80429">
        <ele>2674.2880859375</ele>
        <time>2014-07-24T12:21:14Z</time>
      </trkpt>
      <trkpt lat="45.54863" lon="6.80408">
        <ele>2664.5788574219</ele>
        <time>2014-07-24T12:21:32Z</time>
      </trkpt>
      <trkpt lat="45.54864" lon="6.80407">
        <ele>2664.8771972656</ele>
        <time>2014-07-24T12:21:34Z</time>
      </trkpt>
      <trkpt lat="45.54873" lon="6.80387">
        <ele>2658.326171875</ele>
        <time>2014-07-24T12:22:00Z</time>
      </trkpt>
      <trkpt lat="45.54877" lon="6.80347">
        <ele>2647.3937988281</ele>
        <time>2014-07-24T12:22:34Z</time>
      </trkpt>
      <trkpt lat="45.54879" lon="6.80345">
        <ele>2647.7272949219</ele>
        <time>2014-07-24T12:22:38Z</time>
      </trkpt>
      <trkpt lat="45.54886" lon="6.80306">
        <ele>2638.9460449219</ele>
        <time>2014-07-24T12:23:16Z</time>
      </trkpt>
      <trkpt lat="45.54892" lon="6.8029">
        <ele>2632.1008300781</ele>
        <time>2014-07-24T12:23:36Z</time>
      </trkpt>
      <trkpt lat="45.54898" lon="6.80283">
        <ele>2630.1208496094</ele>
        <time>2014-07-24T12:23:46Z</time>
      </trkpt>
      <trkpt lat="45.549" lon="6.8028">
        <ele>2629.0812988281</ele>
        <time>2014-07-24T12:23:50Z</time>
      </trkpt>
      <trkpt lat="45.54902" lon="6.80279">
        <ele>2629.1513671875</ele>
        <time>2014-07-24T12:23:52Z</time>
      </trkpt>
      <trkpt lat="45.54902" lon="6.8028">
        <ele>2629.6088867188</ele>
        <time>2014-07-24T12:23:54Z</time>
      </trkpt>
      <trkpt lat="45.54906" lon="6.80271">
        <ele>2624.4230957031</ele>
        <time>2014-07-24T12:24:04Z</time>
      </trkpt>
      <trkpt lat="45.54909" lon="6.80268">
        <ele>2623.3994140625</ele>
        <time>2014-07-24T12:24:08Z</time>
      </trkpt>
      <trkpt lat="45.54924" lon="6.80237">
        <ele>2609.8571777344</ele>
        <time>2014-07-24T12:24:38Z</time>
      </trkpt>
      <trkpt lat="45.54924" lon="6.80237">
        <ele>2610.0610351562</ele>
        <time>2014-07-24T12:24:40Z</time>
      </trkpt>
      <trkpt lat="45.54926" lon="6.80238">
        <ele>2611.6850585938</ele>
        <time>2014-07-24T12:24:43Z</time>
      </trkpt>
      <trkpt lat="45.54926" lon="6.80238">
        <ele>2611.8317871094</ele>
        <time>2014-07-24T12:24:46Z</time>
      </trkpt>
      <trkpt lat="45.54927" lon="6.80238">
        <ele>2612.2666015625</ele>
        <time>2014-07-24T12:24:48Z</time>
      </trkpt>
      <trkpt lat="45.54927" lon="6.80237">
        <ele>2612.3395996094</ele>
        <time>2014-07-24T12:24:50Z</time>
      </trkpt>
      <trkpt lat="45.54929" lon="6.80237">
        <ele>2613.3139648438</ele>
        <time>2014-07-24T12:24:52Z</time>
      </trkpt>
      <trkpt lat="45.54936" lon="6.80227">
        <ele>2612.9694824219</ele>
        <time>2014-07-24T12:25:06Z</time>
      </trkpt>
      <trkpt lat="45.54936" lon="6.80226">
        <ele>2612.1638183594</ele>
        <time>2014-07-24T12:25:08Z</time>
      </trkpt>
      <trkpt lat="45.54937" lon="6.80228">
        <ele>2613.4260253906</ele>
        <time>2014-07-24T12:25:12Z</time>
      </trkpt>
      <trkpt lat="45.54937" lon="6.80228">
        <ele>2614.2575683594</ele>
        <time>2014-07-24T12:25:14Z</time>
      </trkpt>
      <trkpt lat="45.54937" lon="6.80228">
        <ele>2614.2575683594</ele>
        <time>2014-07-24T12:25:15Z</time>
      </trkpt>
      <trkpt lat="45.54938" lon="6.80228">
        <ele>2614.5261230469</ele>
        <time>2014-07-24T12:25:18Z</time>
      </trkpt>
      <trkpt lat="45.54938" lon="6.80228">
        <ele>2614.794921875</ele>
        <time>2014-07-24T12:25:20Z</time>
      </trkpt>
      <trkpt lat="45.54938" lon="6.80228">
        <ele>2614.4731445312</ele>
        <time>2014-07-24T12:25:22Z</time>
      </trkpt>
      <trkpt lat="45.54938" lon="6.80228">
        <ele>2614.3400878906</ele>
        <time>2014-07-24T12:25:24Z</time>
      </trkpt>
      <trkpt lat="45.54938" lon="6.80228">
        <ele>2614.5793457031</ele>
        <time>2014-07-24T12:25:28Z</time>
      </trkpt>
      <trkpt lat="45.54938" lon="6.80228">
        <ele>2614.6325683594</ele>
        <time>2014-07-24T12:25:30Z</time>
      </trkpt>
      <trkpt lat="45.54938" lon="6.80228">
        <ele>2614.9274902344</ele>
        <time>2014-07-24T12:25:32Z</time>
      </trkpt>
      <trkpt lat="45.54938" lon="6.80228">
        <ele>2614.794921875</ele>
        <time>2014-07-24T12:25:36Z</time>
      </trkpt>
      <trkpt lat="45.54938" lon="6.80228">
        <ele>2614.8215332031</ele>
        <time>2014-07-24T12:25:38Z</time>
      </trkpt>
      <trkpt lat="45.54939" lon="6.80228">
        <ele>2615.1430664062</ele>
        <time>2014-07-24T12:25:40Z</time>
      </trkpt>
      <trkpt lat="45.54939" lon="6.80228">
        <ele>2615.1430664062</ele>
        <time>2014-07-24T12:25:42Z</time>
      </trkpt>
      <trkpt lat="45.54939" lon="6.80228">
        <ele>2615.4116210938</ele>
        <time>2014-07-24T12:25:44Z</time>
      </trkpt>
      <trkpt lat="45.54939" lon="6.80228">
        <ele>2615.4645996094</ele>
        <time>2014-07-24T12:25:46Z</time>
      </trkpt>
      <trkpt lat="45.54939" lon="6.80229">
        <ele>2615.8913574219</ele>
        <time>2014-07-24T12:25:48Z</time>
      </trkpt>
      <trkpt lat="45.54939" lon="6.80229">
        <ele>2615.9968261719</ele>
        <time>2014-07-24T12:25:50Z</time>
      </trkpt>
      <trkpt lat="45.54939" lon="6.80229">
        <ele>2615.9440917969</ele>
        <time>2014-07-24T12:25:52Z</time>
      </trkpt>
      <trkpt lat="45.54939" lon="6.80229">
        <ele>2615.9440917969</ele>
        <time>2014-07-24T12:25:54Z</time>
      </trkpt>
      <trkpt lat="45.5494" lon="6.80229">
        <ele>2616.2121582031</ele>
        <time>2014-07-24T12:25:56Z</time>
      </trkpt>
      <trkpt lat="45.5494" lon="6.80229">
        <ele>2616.1857910156</ele>
        <time>2014-07-24T12:25:58Z</time>
      </trkpt>
      <trkpt lat="45.5494" lon="6.80229">
        <ele>2616.427734375</ele>
        <time>2014-07-24T12:26:00Z</time>
      </trkpt>
      <trkpt lat="45.5494" lon="6.80228">
        <ele>2616.1384277344</ele>
        <time>2014-07-24T12:26:06Z</time>
      </trkpt>
      <trkpt lat="45.5494" lon="6.80228">
        <ele>2616.2497558594</ele>
        <time>2014-07-24T12:26:08Z</time>
      </trkpt>
      <trkpt lat="45.5494" lon="6.80228">
        <ele>2616.197265625</ele>
        <time>2014-07-24T12:26:10Z</time>
      </trkpt>
      <trkpt lat="45.5494" lon="6.80228">
        <ele>2616.3022460938</ele>
        <time>2014-07-24T12:26:12Z</time>
      </trkpt>
      <trkpt lat="45.5494" lon="6.80228">
        <ele>2616.2758789062</ele>
        <time>2014-07-24T12:26:14Z</time>
      </trkpt>
      <trkpt lat="45.5494" lon="6.80229">
        <ele>2616.5908203125</ele>
        <time>2014-07-24T12:26:22Z</time>
      </trkpt>
      <trkpt lat="45.5494" lon="6.80229">
        <ele>2616.375</ele>
        <time>2014-07-24T12:26:24Z</time>
      </trkpt>
      <trkpt lat="45.5494" lon="6.80229">
        <ele>2616.4013671875</ele>
        <time>2014-07-24T12:26:26Z</time>
      </trkpt>
      <trkpt lat="45.5494" lon="6.80229">
        <ele>2616.7221679688</ele>
        <time>2014-07-24T12:26:28Z</time>
      </trkpt>
      <trkpt lat="45.5494" lon="6.80229">
        <ele>2616.6171875</ele>
        <time>2014-07-24T12:26:30Z</time>
      </trkpt>
      <trkpt lat="45.5494" lon="6.80228">
        <ele>2616.3547363281</ele>
        <time>2014-07-24T12:26:36Z</time>
      </trkpt>
      <trkpt lat="45.5494" lon="6.80228">
        <ele>2616.0595703125</ele>
        <time>2014-07-24T12:26:38Z</time>
      </trkpt>
      <trkpt lat="45.5494" lon="6.80228">
        <ele>2615.8491210938</ele>
        <time>2014-07-24T12:26:44Z</time>
      </trkpt>
      <trkpt lat="45.5494" lon="6.80228">
        <ele>2615.580078125</ele>
        <time>2014-07-24T12:26:46Z</time>
      </trkpt>
      <trkpt lat="45.5494" lon="6.80228">
        <ele>2615.6325683594</ele>
        <time>2014-07-24T12:26:48Z</time>
      </trkpt>
      <trkpt lat="45.5494" lon="6.80228">
        <ele>2615.6325683594</ele>
        <time>2014-07-24T12:26:50Z</time>
      </trkpt>
      <trkpt lat="45.5494" lon="6.80228">
        <ele>2615.6064453125</ele>
        <time>2014-07-24T12:26:52Z</time>
      </trkpt>
      <trkpt lat="45.5494" lon="6.80228">
        <ele>2615.7380371094</ele>
        <time>2014-07-24T12:26:56Z</time>
      </trkpt>
      <trkpt lat="45.5494" lon="6.80228">
        <ele>2616.0070800781</ele>
        <time>2014-07-24T12:26:58Z</time>
      </trkpt>
      <trkpt lat="45.5494" lon="6.80228">
        <ele>2616.0859375</ele>
        <time>2014-07-24T12:27:00Z</time>
      </trkpt>
      <trkpt lat="45.5494" lon="6.80228">
        <ele>2616.0859375</ele>
        <time>2014-07-24T12:27:02Z</time>
      </trkpt>
      <trkpt lat="45.5494" lon="6.80228">
        <ele>2616.1911621094</ele>
        <time>2014-07-24T12:27:04Z</time>
      </trkpt>
      <trkpt lat="45.5494" lon="6.80229">
        <ele>2616.5908203125</ele>
        <time>2014-07-24T12:27:06Z</time>
      </trkpt>
      <trkpt lat="45.5494" lon="6.80229">
        <ele>2616.6433105469</ele>
        <time>2014-07-24T12:27:08Z</time>
      </trkpt>
      <trkpt lat="45.54941" lon="6.80229">
        <ele>2616.8854980469</ele>
        <time>2014-07-24T12:27:10Z</time>
      </trkpt>
      <trkpt lat="45.54941" lon="6.80228">
        <ele>2616.7282714844</ele>
        <time>2014-07-24T12:27:16Z</time>
      </trkpt>
      <trkpt lat="45.54941" lon="6.80228">
        <ele>2616.7282714844</ele>
        <time>2014-07-24T12:27:18Z</time>
      </trkpt>
      <trkpt lat="45.54941" lon="6.80228">
        <ele>2616.6235351562</ele>
        <time>2014-07-24T12:27:20Z</time>
      </trkpt>
      <trkpt lat="45.54941" lon="6.80228">
        <ele>2616.5187988281</ele>
        <time>2014-07-24T12:27:24Z</time>
      </trkpt>
      <trkpt lat="45.54941" lon="6.80228">
        <ele>2616.7875976562</ele>
        <time>2014-07-24T12:27:26Z</time>
      </trkpt>
      <trkpt lat="45.54942" lon="6.80228">
        <ele>2617.1088867188</ele>
        <time>2014-07-24T12:27:28Z</time>
      </trkpt>
      <trkpt lat="45.54942" lon="6.80228">
        <ele>2617.0043945312</ele>
        <time>2014-07-24T12:27:30Z</time>
      </trkpt>
      <trkpt lat="45.54942" lon="6.80228">
        <ele>2617.2736816406</ele>
        <time>2014-07-24T12:27:32Z</time>
      </trkpt>
      <trkpt lat="45.54943" lon="6.80223">
        <ele>2615.1633300781</ele>
        <time>2014-07-24T12:27:40Z</time>
      </trkpt>
      <trkpt lat="45.54945" lon="6.80221">
        <ele>2615.7041015625</ele>
        <time>2014-07-24T12:27:48Z</time>
      </trkpt>
      <trkpt lat="45.54945" lon="6.80219">
        <ele>2614.8508300781</ele>
        <time>2014-07-24T12:27:50Z</time>
      </trkpt>
      <trkpt lat="45.54946" lon="6.80217">
        <ele>2614.0295410156</ele>
        <time>2014-07-24T12:27:54Z</time>
      </trkpt>
      <trkpt lat="45.54947" lon="6.80217">
        <ele>2614.1059570312</ele>
        <time>2014-07-24T12:27:56Z</time>
      </trkpt>
      <trkpt lat="45.54948" lon="6.80213">
        <ele>2612.7072753906</ele>
        <time>2014-07-24T12:28:02Z</time>
      </trkpt>
      <trkpt lat="45.54948" lon="6.80213">
        <ele>2612.7751464844</ele>
        <time>2014-07-24T12:28:04Z</time>
      </trkpt>
      <trkpt lat="45.54948" lon="6.80213">
        <ele>2612.513671875</ele>
        <time>2014-07-24T12:28:05Z</time>
      </trkpt>
      <trkpt lat="45.54947" lon="6.80212">
        <ele>2612.2709960938</ele>
        <time>2014-07-24T12:28:08Z</time>
      </trkpt>
      <trkpt lat="45.54947" lon="6.80212">
        <ele>2611.6989746094</ele>
        <time>2014-07-24T12:28:10Z</time>
      </trkpt>
      <trkpt lat="45.54945" lon="6.80211">
        <ele>2610.8967285156</ele>
        <time>2014-07-24T12:28:12Z</time>
      </trkpt>
      <trkpt lat="45.54941" lon="6.80209">
        <ele>2607.2990722656</ele>
        <time>2014-07-24T12:28:18Z</time>
      </trkpt>
      <trkpt lat="45.54938" lon="6.80208">
        <ele>2604.4262695312</ele>
        <time>2014-07-24T12:28:22Z</time>
      </trkpt>
      <trkpt lat="45.54936" lon="6.80208">
        <ele>2603.3681640625</ele>
        <time>2014-07-24T12:28:24Z</time>
      </trkpt>
      <trkpt lat="45.54935" lon="6.80208">
        <ele>2602.1730957031</ele>
        <time>2014-07-24T12:28:26Z</time>
      </trkpt>
      <trkpt lat="45.54934" lon="6.80208">
        <ele>2601.1901855469</ele>
        <time>2014-07-24T12:28:28Z</time>
      </trkpt>
      <trkpt lat="45.54933" lon="6.80208">
        <ele>2600.7416992188</ele>
        <time>2014-07-24T12:28:30Z</time>
      </trkpt>
      <trkpt lat="45.54931" lon="6.80208">
        <ele>2599.5224609375</ele>
        <time>2014-07-24T12:28:32Z</time>
      </trkpt>
      <trkpt lat="45.54929" lon="6.80206">
        <ele>2596.7612304688</ele>
        <time>2014-07-24T12:28:36Z</time>
      </trkpt>
      <trkpt lat="45.5493" lon="6.80197">
        <ele>2593.0305175781</ele>
        <time>2014-07-24T12:28:48Z</time>
      </trkpt>
      <trkpt lat="45.54929" lon="6.80197">
        <ele>2592.5024414062</ele>
        <time>2014-07-24T12:28:50Z</time>
      </trkpt>
      <trkpt lat="45.5493" lon="6.80195">
        <ele>2592.0085449219</ele>
        <time>2014-07-24T12:28:53Z</time>
      </trkpt>
      <trkpt lat="45.54928" lon="6.80193">
        <ele>2590.4372558594</ele>
        <time>2014-07-24T12:28:56Z</time>
      </trkpt>
      <trkpt lat="45.54926" lon="6.80193">
        <ele>2588.9211425781</ele>
        <time>2014-07-24T12:28:58Z</time>
      </trkpt>
      <trkpt lat="45.54924" lon="6.80192">
        <ele>2587.291015625</ele>
        <time>2014-07-24T12:29:00Z</time>
      </trkpt>
      <trkpt lat="45.54923" lon="6.80192">
        <ele>2586.1198730469</ele>
        <time>2014-07-24T12:29:02Z</time>
      </trkpt>
      <trkpt lat="45.54919" lon="6.8019">
        <ele>2582.7521972656</ele>
        <time>2014-07-24T12:29:06Z</time>
      </trkpt>
      <trkpt lat="45.54919" lon="6.80181">
        <ele>2580.0270996094</ele>
        <time>2014-07-24T12:29:14Z</time>
      </trkpt>
      <trkpt lat="45.54918" lon="6.80179">
        <ele>2578.9782714844</ele>
        <time>2014-07-24T12:29:16Z</time>
      </trkpt>
      <trkpt lat="45.54921" lon="6.8017">
        <ele>2578.7536621094</ele>
        <time>2014-07-24T12:29:26Z</time>
      </trkpt>
      <trkpt lat="45.5492" lon="6.80169">
        <ele>2577.6887207031</ele>
        <time>2014-07-24T12:29:28Z</time>
      </trkpt>
      <trkpt lat="45.54919" lon="6.80164">
        <ele>2576.4130859375</ele>
        <time>2014-07-24T12:29:34Z</time>
      </trkpt>
      <trkpt lat="45.5492" lon="6.80164">
        <ele>2576.6655273438</ele>
        <time>2014-07-24T12:29:36Z</time>
      </trkpt>
      <trkpt lat="45.54919" lon="6.80162">
        <ele>2575.5908203125</ele>
        <time>2014-07-24T12:29:38Z</time>
      </trkpt>
      <trkpt lat="45.54918" lon="6.80154">
        <ele>2573.7763671875</ele>
        <time>2014-07-24T12:29:48Z</time>
      </trkpt>
      <trkpt lat="45.54917" lon="6.80153">
        <ele>2572.8049316406</ele>
        <time>2014-07-24T12:29:50Z</time>
      </trkpt>
      <trkpt lat="45.54916" lon="6.8015">
        <ele>2571.8352050781</ele>
        <time>2014-07-24T12:29:54Z</time>
      </trkpt>
      <trkpt lat="45.54916" lon="6.8015">
        <ele>2571.3842773438</ele>
        <time>2014-07-24T12:29:56Z</time>
      </trkpt>
      <trkpt lat="45.54913" lon="6.80149">
        <ele>2569.9196777344</ele>
        <time>2014-07-24T12:29:58Z</time>
      </trkpt>
      <trkpt lat="45.54912" lon="6.80147">
        <ele>2568.8005371094</ele>
        <time>2014-07-24T12:30:00Z</time>
      </trkpt>
      <trkpt lat="45.54909" lon="6.80135">
        <ele>2566.0107421875</ele>
        <time>2014-07-24T12:30:10Z</time>
      </trkpt>
      <trkpt lat="45.54907" lon="6.80134">
        <ele>2565.2534179688</ele>
        <time>2014-07-24T12:30:12Z</time>
      </trkpt>
      <trkpt lat="45.54906" lon="6.80134">
        <ele>2564.6000976562</ele>
        <time>2014-07-24T12:30:14Z</time>
      </trkpt>
      <trkpt lat="45.54905" lon="6.80134">
        <ele>2563.6987304688</ele>
        <time>2014-07-24T12:30:16Z</time>
      </trkpt>
      <trkpt lat="45.54903" lon="6.80135">
        <ele>2562.9895019531</ele>
        <time>2014-07-24T12:30:18Z</time>
      </trkpt>
      <trkpt lat="45.54902" lon="6.80134">
        <ele>2561.9296875</ele>
        <time>2014-07-24T12:30:20Z</time>
      </trkpt>
      <trkpt lat="45.54892" lon="6.80115">
        <ele>2555.5</ele>
        <time>2014-07-24T12:30:34Z</time>
      </trkpt>
      <trkpt lat="45.5489" lon="6.80114">
        <ele>2553.783203125</ele>
        <time>2014-07-24T12:30:36Z</time>
      </trkpt>
      <trkpt lat="45.54887" lon="6.80112">
        <ele>2551.7875976562</ele>
        <time>2014-07-24T12:30:40Z</time>
      </trkpt>
      <trkpt lat="45.54886" lon="6.80106">
        <ele>2551.8024902344</ele>
        <time>2014-07-24T12:30:48Z</time>
      </trkpt>
      <trkpt lat="45.54877" lon="6.80124">
        <ele>2545.6877441406</ele>
        <time>2014-07-24T12:31:10Z</time>
      </trkpt>
      <trkpt lat="45.54878" lon="6.80125">
        <ele>2546.4985351562</ele>
        <time>2014-07-24T12:31:12Z</time>
      </trkpt>
      <trkpt lat="45.54878" lon="6.80125">
        <ele>2546.5068359375</ele>
        <time>2014-07-24T12:31:13Z</time>
      </trkpt>
      <trkpt lat="45.54877" lon="6.80124">
        <ele>2545.666015625</ele>
        <time>2014-07-24T12:31:16Z</time>
      </trkpt>
      <trkpt lat="45.54874" lon="6.80116">
        <ele>2543.373046875</ele>
        <time>2014-07-24T12:31:24Z</time>
      </trkpt>
      <trkpt lat="45.54873" lon="6.80115">
        <ele>2542.265625</ele>
        <time>2014-07-24T12:31:26Z</time>
      </trkpt>
      <trkpt lat="45.54872" lon="6.80113">
        <ele>2541.6535644531</ele>
        <time>2014-07-24T12:31:28Z</time>
      </trkpt>
      <trkpt lat="45.5487" lon="6.80112">
        <ele>2540.0336914062</ele>
        <time>2014-07-24T12:31:30Z</time>
      </trkpt>
      <trkpt lat="45.54866" lon="6.80106">
        <ele>2538.3920898438</ele>
        <time>2014-07-24T12:31:36Z</time>
      </trkpt>
      <trkpt lat="45.54866" lon="6.80106">
        <ele>2537.9008789062</ele>
        <time>2014-07-24T12:31:38Z</time>
      </trkpt>
      <trkpt lat="45.54865" lon="6.80105">
        <ele>2537.6801757812</ele>
        <time>2014-07-24T12:31:40Z</time>
      </trkpt>
      <trkpt lat="45.54865" lon="6.80106">
        <ele>2537.0888671875</ele>
        <time>2014-07-24T12:31:42Z</time>
      </trkpt>
      <trkpt lat="45.54863" lon="6.80107">
        <ele>2536.1232910156</ele>
        <time>2014-07-24T12:31:44Z</time>
      </trkpt>
      <trkpt lat="45.54864" lon="6.80109">
        <ele>2536.4375</ele>
        <time>2014-07-24T12:31:46Z</time>
      </trkpt>
      <trkpt lat="45.54864" lon="6.80112">
        <ele>2535.8354492188</ele>
        <time>2014-07-24T12:31:50Z</time>
      </trkpt>
      <trkpt lat="45.54861" lon="6.80122">
        <ele>2534.1013183594</ele>
        <time>2014-07-24T12:32:02Z</time>
      </trkpt>
      <trkpt lat="45.54858" lon="6.80123">
        <ele>2532.0708007812</ele>
        <time>2014-07-24T12:32:06Z</time>
      </trkpt>
      <trkpt lat="45.54856" lon="6.80123">
        <ele>2530.7526855469</ele>
        <time>2014-07-24T12:32:08Z</time>
      </trkpt>
      <trkpt lat="45.54855" lon="6.80122">
        <ele>2530.1826171875</ele>
        <time>2014-07-24T12:32:10Z</time>
      </trkpt>
      <trkpt lat="45.54854" lon="6.80123">
        <ele>2529.7290039062</ele>
        <time>2014-07-24T12:32:12Z</time>
      </trkpt>
      <trkpt lat="45.54853" lon="6.80124">
        <ele>2528.7612304688</ele>
        <time>2014-07-24T12:32:14Z</time>
      </trkpt>
      <trkpt lat="45.54851" lon="6.80124">
        <ele>2527.7414550781</ele>
        <time>2014-07-24T12:32:16Z</time>
      </trkpt>
      <trkpt lat="45.5485" lon="6.80125">
        <ele>2526.8129882812</ele>
        <time>2014-07-24T12:32:18Z</time>
      </trkpt>
      <trkpt lat="45.54845" lon="6.80126">
        <ele>2523.7102050781</ele>
        <time>2014-07-24T12:32:24Z</time>
      </trkpt>
      <trkpt lat="45.54843" lon="6.80126">
        <ele>2522.365234375</ele>
        <time>2014-07-24T12:32:26Z</time>
      </trkpt>
      <trkpt lat="45.54841" lon="6.80125">
        <ele>2521.0700683594</ele>
        <time>2014-07-24T12:32:28Z</time>
      </trkpt>
      <trkpt lat="45.54835" lon="6.80119">
        <ele>2516.0163574219</ele>
        <time>2014-07-24T12:32:38Z</time>
      </trkpt>
      <trkpt lat="45.54832" lon="6.80124">
        <ele>2514.7614746094</ele>
        <time>2014-07-24T12:32:46Z</time>
      </trkpt>
      <trkpt lat="45.54831" lon="6.80123">
        <ele>2513.9113769531</ele>
        <time>2014-07-24T12:32:48Z</time>
      </trkpt>
      <trkpt lat="45.54829" lon="6.80123">
        <ele>2513.3251953125</ele>
        <time>2014-07-24T12:32:50Z</time>
      </trkpt>
      <trkpt lat="45.54828" lon="6.80126">
        <ele>2513.0971679688</ele>
        <time>2014-07-24T12:32:52Z</time>
      </trkpt>
      <trkpt lat="45.54826" lon="6.80127">
        <ele>2511.8234863281</ele>
        <time>2014-07-24T12:32:56Z</time>
      </trkpt>
      <trkpt lat="45.54824" lon="6.80127">
        <ele>2511.21875</ele>
        <time>2014-07-24T12:32:58Z</time>
      </trkpt>
      <trkpt lat="45.54824" lon="6.80129">
        <ele>2511.2634277344</ele>
        <time>2014-07-24T12:33:00Z</time>
      </trkpt>
      <trkpt lat="45.54822" lon="6.80127">
        <ele>2509.7368164062</ele>
        <time>2014-07-24T12:33:02Z</time>
      </trkpt>
      <trkpt lat="45.54819" lon="6.80119">
        <ele>2506.4094238281</ele>
        <time>2014-07-24T12:33:12Z</time>
      </trkpt>
      <trkpt lat="45.54819" lon="6.80118">
        <ele>2506.2021484375</ele>
        <time>2014-07-24T12:33:20Z</time>
      </trkpt>
      <trkpt lat="45.54819" lon="6.80118">
        <ele>2506.2114257812</ele>
        <time>2014-07-24T12:33:22Z</time>
      </trkpt>
      <trkpt lat="45.54819" lon="6.80118">
        <ele>2506.4536132812</ele>
        <time>2014-07-24T12:33:24Z</time>
      </trkpt>
      <trkpt lat="45.54819" lon="6.80118">
        <ele>2506.1926269531</ele>
        <time>2014-07-24T12:33:26Z</time>
      </trkpt>
      <trkpt lat="45.54818" lon="6.80119">
        <ele>2505.64453125</ele>
        <time>2014-07-24T12:33:28Z</time>
      </trkpt>
      <trkpt lat="45.54817" lon="6.80116">
        <ele>2504.7231445312</ele>
        <time>2014-07-24T12:33:32Z</time>
      </trkpt>
      <trkpt lat="45.54814" lon="6.80121">
        <ele>2503.9018554688</ele>
        <time>2014-07-24T12:33:40Z</time>
      </trkpt>
      <trkpt lat="45.54812" lon="6.8012">
        <ele>2502.5888671875</ele>
        <time>2014-07-24T12:33:42Z</time>
      </trkpt>
      <trkpt lat="45.54811" lon="6.80119">
        <ele>2501.6572265625</ele>
        <time>2014-07-24T12:33:44Z</time>
      </trkpt>
      <trkpt lat="45.5481" lon="6.80119">
        <ele>2500.9067382812</ele>
        <time>2014-07-24T12:33:46Z</time>
      </trkpt>
      <trkpt lat="45.54809" lon="6.80118">
        <ele>2500.0698242188</ele>
        <time>2014-07-24T12:33:48Z</time>
      </trkpt>
      <trkpt lat="45.54807" lon="6.80118">
        <ele>2499.2041015625</ele>
        <time>2014-07-24T12:33:50Z</time>
      </trkpt>
      <trkpt lat="45.54804" lon="6.80116">
        <ele>2497.1047363281</ele>
        <time>2014-07-24T12:33:54Z</time>
      </trkpt>
      <trkpt lat="45.54803" lon="6.80115">
        <ele>2496.1215820312</ele>
        <time>2014-07-24T12:33:56Z</time>
      </trkpt>
      <trkpt lat="45.548" lon="6.80113">
        <ele>2494.3525390625</ele>
        <time>2014-07-24T12:34:00Z</time>
      </trkpt>
      <trkpt lat="45.54799" lon="6.80113">
        <ele>2493.7856445312</ele>
        <time>2014-07-24T12:34:02Z</time>
      </trkpt>
      <trkpt lat="45.54798" lon="6.80113">
        <ele>2493.0844726562</ele>
        <time>2014-07-24T12:34:04Z</time>
      </trkpt>
      <trkpt lat="45.54795" lon="6.80114">
        <ele>2491.71875</ele>
        <time>2014-07-24T12:34:08Z</time>
      </trkpt>
      <trkpt lat="45.54789" lon="6.80119">
        <ele>2489.2985839844</ele>
        <time>2014-07-24T12:34:18Z</time>
      </trkpt>
      <trkpt lat="45.54789" lon="6.80119">
        <ele>2488.857421875</ele>
        <time>2014-07-24T12:34:20Z</time>
      </trkpt>
      <trkpt lat="45.54787" lon="6.8012">
        <ele>2488.111328125</ele>
        <time>2014-07-24T12:34:22Z</time>
      </trkpt>
      <trkpt lat="45.54784" lon="6.80122">
        <ele>2487.0778808594</ele>
        <time>2014-07-24T12:34:26Z</time>
      </trkpt>
      <trkpt lat="45.54783" lon="6.80121">
        <ele>2486.0407714844</ele>
        <time>2014-07-24T12:34:28Z</time>
      </trkpt>
      <trkpt lat="45.54783" lon="6.80122">
        <ele>2486.46484375</ele>
        <time>2014-07-24T12:34:30Z</time>
      </trkpt>
      <trkpt lat="45.54782" lon="6.80123">
        <ele>2486.2963867188</ele>
        <time>2014-07-24T12:34:33Z</time>
      </trkpt>
      <trkpt lat="45.54782" lon="6.80124">
        <ele>2486.4265136719</ele>
        <time>2014-07-24T12:34:36Z</time>
      </trkpt>
      <trkpt lat="45.54781" lon="6.80121">
        <ele>2484.7827148438</ele>
        <time>2014-07-24T12:34:42Z</time>
      </trkpt>
      <trkpt lat="45.54779" lon="6.80122">
        <ele>2484.2407226562</ele>
        <time>2014-07-24T12:34:44Z</time>
      </trkpt>
      <trkpt lat="45.54779" lon="6.80123">
        <ele>2483.99609375</ele>
        <time>2014-07-24T12:34:46Z</time>
      </trkpt>
      <trkpt lat="45.54777" lon="6.80123">
        <ele>2483.5231933594</ele>
        <time>2014-07-24T12:34:48Z</time>
      </trkpt>
      <trkpt lat="45.54775" lon="6.80122">
        <ele>2482.7814941406</ele>
        <time>2014-07-24T12:34:50Z</time>
      </trkpt>
      <trkpt lat="45.54774" lon="6.80117">
        <ele>2481.5764160156</ele>
        <time>2014-07-24T12:34:54Z</time>
      </trkpt>
      <trkpt lat="45.54773" lon="6.80117">
        <ele>2481.3498535156</ele>
        <time>2014-07-24T12:34:56Z</time>
      </trkpt>
      <trkpt lat="45.54772" lon="6.80118">
        <ele>2481.30859375</ele>
        <time>2014-07-24T12:34:58Z</time>
      </trkpt>
      <trkpt lat="45.5477" lon="6.80116">
        <ele>2480.2683105469</ele>
        <time>2014-07-24T12:35:02Z</time>
      </trkpt>
      <trkpt lat="45.54769" lon="6.80114">
        <ele>2479.6708984375</ele>
        <time>2014-07-24T12:35:06Z</time>
      </trkpt>
      <trkpt lat="45.54768" lon="6.80113">
        <ele>2479.2692871094</ele>
        <time>2014-07-24T12:35:08Z</time>
      </trkpt>
      <trkpt lat="45.54768" lon="6.80111">
        <ele>2478.9499511719</ele>
        <time>2014-07-24T12:35:10Z</time>
      </trkpt>
      <trkpt lat="45.54767" lon="6.80111">
        <ele>2478.7749023438</ele>
        <time>2014-07-24T12:35:12Z</time>
      </trkpt>
      <trkpt lat="45.54766" lon="6.80112">
        <ele>2478.6513671875</ele>
        <time>2014-07-24T12:35:14Z</time>
      </trkpt>
      <trkpt lat="45.54763" lon="6.80116">
        <ele>2478.9191894531</ele>
        <time>2014-07-24T12:35:20Z</time>
      </trkpt>
      <trkpt lat="45.54763" lon="6.80115">
        <ele>2478.5895996094</ele>
        <time>2014-07-24T12:35:22Z</time>
      </trkpt>
      <trkpt lat="45.54762" lon="6.80115">
        <ele>2478.3525390625</ele>
        <time>2014-07-24T12:35:24Z</time>
      </trkpt>
      <trkpt lat="45.54758" lon="6.80118">
        <ele>2478.1259765625</ele>
        <time>2014-07-24T12:35:32Z</time>
      </trkpt>
      <trkpt lat="45.54757" lon="6.80118">
        <ele>2477.9716796875</ele>
        <time>2014-07-24T12:35:34Z</time>
      </trkpt>
      <trkpt lat="45.54757" lon="6.80117">
        <ele>2477.9096679688</ele>
        <time>2014-07-24T12:35:36Z</time>
      </trkpt>
      <trkpt lat="45.54755" lon="6.80119">
        <ele>2477.9611816406</ele>
        <time>2014-07-24T12:35:40Z</time>
      </trkpt>
      <trkpt lat="45.54754" lon="6.80119">
        <ele>2477.5493164062</ele>
        <time>2014-07-24T12:35:42Z</time>
      </trkpt>
      <trkpt lat="45.54752" lon="6.80121">
        <ele>2477.5905761719</ele>
        <time>2014-07-24T12:35:46Z</time>
      </trkpt>
      <trkpt lat="45.54751" lon="6.80121">
        <ele>2477.3845214844</ele>
        <time>2014-07-24T12:35:48Z</time>
      </trkpt>
      <trkpt lat="45.54751" lon="6.8012">
        <ele>2477.0239257812</ele>
        <time>2014-07-24T12:35:50Z</time>
      </trkpt>
      <trkpt lat="45.5475" lon="6.80119">
        <ele>2476.7768554688</ele>
        <time>2014-07-24T12:35:52Z</time>
      </trkpt>
      <trkpt lat="45.54749" lon="6.8012">
        <ele>2476.6613769531</ele>
        <time>2014-07-24T12:35:54Z</time>
      </trkpt>
      <trkpt lat="45.54746" lon="6.80123">
        <ele>2476.5732421875</ele>
        <time>2014-07-24T12:36:00Z</time>
      </trkpt>
      <trkpt lat="45.54743" lon="6.80124">
        <ele>2475.8127441406</ele>
        <time>2014-07-24T12:36:04Z</time>
      </trkpt>
      <trkpt lat="45.5474" lon="6.80125">
        <ele>2475.3188476562</ele>
        <time>2014-07-24T12:36:08Z</time>
      </trkpt>
      <trkpt lat="45.54739" lon="6.80125">
        <ele>2474.9357910156</ele>
        <time>2014-07-24T12:36:10Z</time>
      </trkpt>
      <trkpt lat="45.54725" lon="6.80137">
        <ele>2473.6193847656</ele>
        <time>2014-07-24T12:36:26Z</time>
      </trkpt>
      <trkpt lat="45.54724" lon="6.80137">
        <ele>2473.0959472656</ele>
        <time>2014-07-24T12:36:28Z</time>
      </trkpt>
      <trkpt lat="45.54722" lon="6.80139">
        <ele>2472.9697265625</ele>
        <time>2014-07-24T12:36:30Z</time>
      </trkpt>
      <trkpt lat="45.54721" lon="6.80139">
        <ele>2472.6860351562</ele>
        <time>2014-07-24T12:36:32Z</time>
      </trkpt>
      <trkpt lat="45.54719" lon="6.80138">
        <ele>2472.0949707031</ele>
        <time>2014-07-24T12:36:36Z</time>
      </trkpt>
      <trkpt lat="45.54718" lon="6.80138">
        <ele>2471.8159179688</ele>
        <time>2014-07-24T12:36:38Z</time>
      </trkpt>
      <trkpt lat="45.54716" lon="6.80137">
        <ele>2471.267578125</ele>
        <time>2014-07-24T12:36:40Z</time>
      </trkpt>
      <trkpt lat="45.54714" lon="6.80137">
        <ele>2470.8200683594</ele>
        <time>2014-07-24T12:36:42Z</time>
      </trkpt>
      <trkpt lat="45.54712" lon="6.80136">
        <ele>2470.22265625</ele>
        <time>2014-07-24T12:36:44Z</time>
      </trkpt>
      <trkpt lat="45.54709" lon="6.80136">
        <ele>2469.646484375</ele>
        <time>2014-07-24T12:36:48Z</time>
      </trkpt>
      <trkpt lat="45.54707" lon="6.80136">
        <ele>2469.2687988281</ele>
        <time>2014-07-24T12:36:50Z</time>
      </trkpt>
      <trkpt lat="45.54704" lon="6.80136">
        <ele>2468.5053710938</ele>
        <time>2014-07-24T12:36:54Z</time>
      </trkpt>
      <trkpt lat="45.54702" lon="6.80135">
        <ele>2468.0568847656</ele>
        <time>2014-07-24T12:36:56Z</time>
      </trkpt>
      <trkpt lat="45.547" lon="6.80135">
        <ele>2467.6396484375</ele>
        <time>2014-07-24T12:36:58Z</time>
      </trkpt>
      <trkpt lat="45.54694" lon="6.80129">
        <ele>2465.5695800781</ele>
        <time>2014-07-24T12:37:04Z</time>
      </trkpt>
      <trkpt lat="45.54693" lon="6.80127">
        <ele>2465.09375</ele>
        <time>2014-07-24T12:37:06Z</time>
      </trkpt>
      <trkpt lat="45.54693" lon="6.80124">
        <ele>2464.7153320312</ele>
        <time>2014-07-24T12:37:08Z</time>
      </trkpt>
      <trkpt lat="45.54691" lon="6.80122">
        <ele>2463.9389648438</ele>
        <time>2014-07-24T12:37:12Z</time>
      </trkpt>
      <trkpt lat="45.5469" lon="6.8012">
        <ele>2463.5971679688</ele>
        <time>2014-07-24T12:37:14Z</time>
      </trkpt>
      <trkpt lat="45.54689" lon="6.80119">
        <ele>2463.3657226562</ele>
        <time>2014-07-24T12:37:16Z</time>
      </trkpt>
      <trkpt lat="45.54686" lon="6.80109">
        <ele>2461.7468261719</ele>
        <time>2014-07-24T12:37:24Z</time>
      </trkpt>
      <trkpt lat="45.54686" lon="6.80107">
        <ele>2461.2976074219</ele>
        <time>2014-07-24T12:37:26Z</time>
      </trkpt>
      <trkpt lat="45.5468" lon="6.80102">
        <ele>2459.7709960938</ele>
        <time>2014-07-24T12:37:32Z</time>
      </trkpt>
      <trkpt lat="45.54678" lon="6.80096">
        <ele>2458.373046875</ele>
        <time>2014-07-24T12:37:38Z</time>
      </trkpt>
      <trkpt lat="45.54678" lon="6.80092">
        <ele>2457.591796875</ele>
        <time>2014-07-24T12:37:44Z</time>
      </trkpt>
      <trkpt lat="45.54678" lon="6.80093">
        <ele>2457.76171875</ele>
        <time>2014-07-24T12:37:48Z</time>
      </trkpt>
      <trkpt lat="45.54678" lon="6.80093">
        <ele>2457.7170410156</ele>
        <time>2014-07-24T12:37:50Z</time>
      </trkpt>
      <trkpt lat="45.54678" lon="6.80093">
        <ele>2457.7585449219</ele>
        <time>2014-07-24T12:37:52Z</time>
      </trkpt>
      <trkpt lat="45.54678" lon="6.80092">
        <ele>2457.5805664062</ele>
        <time>2014-07-24T12:37:58Z</time>
      </trkpt>
      <trkpt lat="45.54678" lon="6.80092">
        <ele>2457.6340332031</ele>
        <time>2014-07-24T12:38:02Z</time>
      </trkpt>
      <trkpt lat="45.54678" lon="6.80092">
        <ele>2457.6340332031</ele>
        <time>2014-07-24T12:38:04Z</time>
      </trkpt>
      <trkpt lat="45.54678" lon="6.80092">
        <ele>2457.6428222656</ele>
        <time>2014-07-24T12:38:06Z</time>
      </trkpt>
      <trkpt lat="45.54679" lon="6.80092">
        <ele>2457.7192382812</ele>
        <time>2014-07-24T12:38:09Z</time>
      </trkpt>
      <trkpt lat="45.54679" lon="6.80091">
        <ele>2457.5078125</ele>
        <time>2014-07-24T12:38:14Z</time>
      </trkpt>
      <trkpt lat="45.54679" lon="6.8009">
        <ele>2457.4990234375</ele>
        <time>2014-07-24T12:38:16Z</time>
      </trkpt>
      <trkpt lat="45.54679" lon="6.8009">
        <ele>2457.4553222656</ele>
        <time>2014-07-24T12:38:20Z</time>
      </trkpt>
      <trkpt lat="45.54679" lon="6.80091">
        <ele>2457.6743164062</ele>
        <time>2014-07-24T12:38:30Z</time>
      </trkpt>
      <trkpt lat="45.54679" lon="6.80091">
        <ele>2457.6655273438</ele>
        <time>2014-07-24T12:38:32Z</time>
      </trkpt>
      <trkpt lat="45.54679" lon="6.80093">
        <ele>2457.9372558594</ele>
        <time>2014-07-24T12:38:42Z</time>
      </trkpt>
      <trkpt lat="45.54679" lon="6.80093">
        <ele>2457.9040527344</ele>
        <time>2014-07-24T12:38:44Z</time>
      </trkpt>
      <trkpt lat="45.54679" lon="6.80094">
        <ele>2458.0715332031</ele>
        <time>2014-07-24T12:38:50Z</time>
      </trkpt>
      <trkpt lat="45.54678" lon="6.80094">
        <ele>2458.0219726562</ele>
        <time>2014-07-24T12:38:52Z</time>
      </trkpt>
      <trkpt lat="45.54678" lon="6.80093">
        <ele>2457.9067382812</ele>
        <time>2014-07-24T12:38:54Z</time>
      </trkpt>
      <trkpt lat="45.54678" lon="6.80093">
        <ele>2457.7438964844</ele>
        <time>2014-07-24T12:38:56Z</time>
      </trkpt>
      <trkpt lat="45.54676" lon="6.80092">
        <ele>2457.2963867188</ele>
        <time>2014-07-24T12:38:58Z</time>
      </trkpt>
      <trkpt lat="45.54675" lon="6.80089">
        <ele>2456.5512695312</ele>
        <time>2014-07-24T12:39:02Z</time>
      </trkpt>
      <trkpt lat="45.54663" lon="6.8008">
        <ele>2451.2138671875</ele>
        <time>2014-07-24T12:39:14Z</time>
      </trkpt>
      <trkpt lat="45.54658" lon="6.80076">
        <ele>2447.8190917969</ele>
        <time>2014-07-24T12:39:20Z</time>
      </trkpt>
      <trkpt lat="45.54656" lon="6.80074">
        <ele>2446.4008789062</ele>
        <time>2014-07-24T12:39:24Z</time>
      </trkpt>
      <trkpt lat="45.54653" lon="6.80073">
        <ele>2445.3107910156</ele>
        <time>2014-07-24T12:39:28Z</time>
      </trkpt>
      <trkpt lat="45.54652" lon="6.80057">
        <ele>2439.4033203125</ele>
        <time>2014-07-24T12:39:38Z</time>
      </trkpt>
      <trkpt lat="45.54649" lon="6.80049">
        <ele>2437.0109863281</ele>
        <time>2014-07-24T12:39:44Z</time>
      </trkpt>
      <trkpt lat="45.54647" lon="6.80043">
        <ele>2435.6225585938</ele>
        <time>2014-07-24T12:39:48Z</time>
      </trkpt>
      <trkpt lat="45.54648" lon="6.8004">
        <ele>2435.2094726562</ele>
        <time>2014-07-24T12:39:50Z</time>
      </trkpt>
      <trkpt lat="45.54649" lon="6.80039">
        <ele>2435.0251464844</ele>
        <time>2014-07-24T12:39:52Z</time>
      </trkpt>
      <trkpt lat="45.54647" lon="6.80038">
        <ele>2434.6391601562</ele>
        <time>2014-07-24T12:39:54Z</time>
      </trkpt>
      <trkpt lat="45.54645" lon="6.80031">
        <ele>2433.0861816406</ele>
        <time>2014-07-24T12:40:00Z</time>
      </trkpt>
      <trkpt lat="45.54645" lon="6.80029">
        <ele>2432.693359375</ele>
        <time>2014-07-24T12:40:02Z</time>
      </trkpt>
      <trkpt lat="45.54643" lon="6.80024">
        <ele>2431.7292480469</ele>
        <time>2014-07-24T12:40:08Z</time>
      </trkpt>
      <trkpt lat="45.54643" lon="6.80019">
        <ele>2430.9741210938</ele>
        <time>2014-07-24T12:40:14Z</time>
      </trkpt>
      <trkpt lat="45.54642" lon="6.80017">
        <ele>2430.6376953125</ele>
        <time>2014-07-24T12:40:16Z</time>
      </trkpt>
      <trkpt lat="45.54642" lon="6.80015">
        <ele>2430.458984375</ele>
        <time>2014-07-24T12:40:18Z</time>
      </trkpt>
      <trkpt lat="45.5464" lon="6.80014">
        <ele>2430.0952148438</ele>
        <time>2014-07-24T12:40:20Z</time>
      </trkpt>
      <trkpt lat="45.54636" lon="6.80015">
        <ele>2429.7829589844</ele>
        <time>2014-07-24T12:40:26Z</time>
      </trkpt>
      <trkpt lat="45.54634" lon="6.80014">
        <ele>2429.5466308594</ele>
        <time>2014-07-24T12:40:28Z</time>
      </trkpt>
      <trkpt lat="45.54633" lon="6.80015">
        <ele>2429.5554199219</ele>
        <time>2014-07-24T12:40:30Z</time>
      </trkpt>
      <trkpt lat="45.54632" lon="6.80014">
        <ele>2429.2902832031</ele>
        <time>2014-07-24T12:40:32Z</time>
      </trkpt>
      <trkpt lat="45.54631" lon="6.80013">
        <ele>2429.015625</ele>
        <time>2014-07-24T12:40:34Z</time>
      </trkpt>
      <trkpt lat="45.54631" lon="6.80012">
        <ele>2428.8950195312</ele>
        <time>2014-07-24T12:40:36Z</time>
      </trkpt>
      <trkpt lat="45.5463" lon="6.80012">
        <ele>2428.595703125</ele>
        <time>2014-07-24T12:40:38Z</time>
      </trkpt>
      <trkpt lat="45.54624" lon="6.80004">
        <ele>2426.5795898438</ele>
        <time>2014-07-24T12:40:48Z</time>
      </trkpt>
      <trkpt lat="45.54622" lon="6.80003">
        <ele>2426.1364746094</ele>
        <time>2014-07-24T12:40:50Z</time>
      </trkpt>
      <trkpt lat="45.5462" lon="6.80001">
        <ele>2425.400390625</ele>
        <time>2014-07-24T12:40:54Z</time>
      </trkpt>
      <trkpt lat="45.5461" lon="6.79977">
        <ele>2420.5400390625</ele>
        <time>2014-07-24T12:41:12Z</time>
      </trkpt>
      <trkpt lat="45.54601" lon="6.79967">
        <ele>2416.5568847656</ele>
        <time>2014-07-24T12:41:22Z</time>
      </trkpt>
      <trkpt lat="45.54599" lon="6.79966">
        <ele>2415.7353515625</ele>
        <time>2014-07-24T12:41:24Z</time>
      </trkpt>
      <trkpt lat="45.54592" lon="6.79957">
        <ele>2412.8095703125</ele>
        <time>2014-07-24T12:41:32Z</time>
      </trkpt>
      <trkpt lat="45.54588" lon="6.79954">
        <ele>2411.1875</ele>
        <time>2014-07-24T12:41:36Z</time>
      </trkpt>
      <trkpt lat="45.54584" lon="6.79955">
        <ele>2409.9184570312</ele>
        <time>2014-07-24T12:41:40Z</time>
      </trkpt>
      <trkpt lat="45.54583" lon="6.79954">
        <ele>2409.6015625</ele>
        <time>2014-07-24T12:41:42Z</time>
      </trkpt>
      <trkpt lat="45.54581" lon="6.79953">
        <ele>2409.3403320312</ele>
        <time>2014-07-24T12:41:44Z</time>
      </trkpt>
      <trkpt lat="45.5458" lon="6.79954">
        <ele>2409.2143554688</ele>
        <time>2014-07-24T12:41:46Z</time>
      </trkpt>
      <trkpt lat="45.54573" lon="6.79953">
        <ele>2408.1918945312</ele>
        <time>2014-07-24T12:41:54Z</time>
      </trkpt>
      <trkpt lat="45.5457" lon="6.79954">
        <ele>2408.0017089844</ele>
        <time>2014-07-24T12:41:56Z</time>
      </trkpt>
      <trkpt lat="45.54568" lon="6.79957">
        <ele>2408.0424804688</ele>
        <time>2014-07-24T12:42:00Z</time>
      </trkpt>
      <trkpt lat="45.5457" lon="6.79957">
        <ele>2408.1752929688</ele>
        <time>2014-07-24T12:42:02Z</time>
      </trkpt>
      <trkpt lat="45.5457" lon="6.79955">
        <ele>2408.0324707031</ele>
        <time>2014-07-24T12:42:04Z</time>
      </trkpt>
      <trkpt lat="45.54568" lon="6.79938">
        <ele>2406.470703125</ele>
        <time>2014-07-24T12:42:18Z</time>
      </trkpt>
      <trkpt lat="45.54568" lon="6.79938">
        <ele>2406.4938964844</ele>
        <time>2014-07-24T12:42:19Z</time>
      </trkpt>
      <trkpt lat="45.54569" lon="6.79942">
        <ele>2406.8657226562</ele>
        <time>2014-07-24T12:42:24Z</time>
      </trkpt>
      <trkpt lat="45.54569" lon="6.79942">
        <ele>2406.8640136719</ele>
        <time>2014-07-24T12:42:26Z</time>
      </trkpt>
      <trkpt lat="45.5457" lon="6.79941">
        <ele>2406.9150390625</ele>
        <time>2014-07-24T12:42:28Z</time>
      </trkpt>
      <trkpt lat="45.5457" lon="6.79942">
        <ele>2406.9797363281</ele>
        <time>2014-07-24T12:42:30Z</time>
      </trkpt>
      <trkpt lat="45.5457" lon="6.79942">
        <ele>2407.0390625</ele>
        <time>2014-07-24T12:42:32Z</time>
      </trkpt>
      <trkpt lat="45.54571" lon="6.79942">
        <ele>2407.0983886719</ele>
        <time>2014-07-24T12:42:34Z</time>
      </trkpt>
      <trkpt lat="45.54571" lon="6.79941">
        <ele>2407.0922851562</ele>
        <time>2014-07-24T12:42:36Z</time>
      </trkpt>
      <trkpt lat="45.54571" lon="6.79941">
        <ele>2407.1442871094</ele>
        <time>2014-07-24T12:42:38Z</time>
      </trkpt>
      <trkpt lat="45.54571" lon="6.79941">
        <ele>2407.1381835938</ele>
        <time>2014-07-24T12:42:40Z</time>
      </trkpt>
      <trkpt lat="45.54571" lon="6.79941">
        <ele>2407.0737304688</ele>
        <time>2014-07-24T12:42:42Z</time>
      </trkpt>
      <trkpt lat="45.54571" lon="6.79941">
        <ele>2407.1352539062</ele>
        <time>2014-07-24T12:42:44Z</time>
      </trkpt>
      <trkpt lat="45.54571" lon="6.79941">
        <ele>2407.0783691406</ele>
        <time>2014-07-24T12:42:46Z</time>
      </trkpt>
      <trkpt lat="45.54571" lon="6.79941">
        <ele>2407.1276855469</ele>
        <time>2014-07-24T12:42:48Z</time>
      </trkpt>
      <trkpt lat="45.54571" lon="6.79941">
        <ele>2407.1276855469</ele>
        <time>2014-07-24T12:42:50Z</time>
      </trkpt>
      <trkpt lat="45.54571" lon="6.79941">
        <ele>2407.123046875</ele>
        <time>2014-07-24T12:42:54Z</time>
      </trkpt>
      <trkpt lat="45.54571" lon="6.79941">
        <ele>2407.1411132812</ele>
        <time>2014-07-24T12:42:58Z</time>
      </trkpt>
      <trkpt lat="45.54571" lon="6.79941">
        <ele>2407.142578125</ele>
        <time>2014-07-24T12:43:00Z</time>
      </trkpt>
      <trkpt lat="45.54571" lon="6.79941">
        <ele>2407.1411132812</ele>
        <time>2014-07-24T12:43:02Z</time>
      </trkpt>
      <trkpt lat="45.54571" lon="6.79941">
        <ele>2407.1381835938</ele>
        <time>2014-07-24T12:43:04Z</time>
      </trkpt>
      <trkpt lat="45.54571" lon="6.79941">
        <ele>2407.1381835938</ele>
        <time>2014-07-24T12:43:06Z</time>
      </trkpt>
      <trkpt lat="45.54571" lon="6.79941">
        <ele>2407.1291503906</ele>
        <time>2014-07-24T12:43:10Z</time>
      </trkpt>
      <trkpt lat="45.54572" lon="6.79941">
        <ele>2407.1892089844</ele>
        <time>2014-07-24T12:43:12Z</time>
      </trkpt>
      <trkpt lat="45.54572" lon="6.79941">
        <ele>2407.2548828125</ele>
        <time>2014-07-24T12:43:14Z</time>
      </trkpt>
      <trkpt lat="45.54572" lon="6.79941">
        <ele>2407.2548828125</ele>
        <time>2014-07-24T12:43:15Z</time>
      </trkpt>
      <trkpt lat="45.54572" lon="6.79941">
        <ele>2407.3103027344</ele>
        <time>2014-07-24T12:43:18Z</time>
      </trkpt>
      <trkpt lat="45.54572" lon="6.79941">
        <ele>2407.3061523438</ele>
        <time>2014-07-24T12:43:20Z</time>
      </trkpt>
      <trkpt lat="45.54573" lon="6.79941">
        <ele>2407.3596191406</ele>
        <time>2014-07-24T12:43:22Z</time>
      </trkpt>
      <trkpt lat="45.54573" lon="6.7994">
        <ele>2407.3542480469</ele>
        <time>2014-07-24T12:43:26Z</time>
      </trkpt>
      <trkpt lat="45.54573" lon="6.79941">
        <ele>2407.4157714844</ele>
        <time>2014-07-24T12:43:28Z</time>
      </trkpt>
      <trkpt lat="45.54573" lon="6.79941">
        <ele>2407.4169921875</ele>
        <time>2014-07-24T12:43:30Z</time>
      </trkpt>
      <trkpt lat="45.54573" lon="6.79941">
        <ele>2407.4157714844</ele>
        <time>2014-07-24T12:43:32Z</time>
      </trkpt>
      <trkpt lat="45.54573" lon="6.7994">
        <ele>2407.46484375</ele>
        <time>2014-07-24T12:43:34Z</time>
      </trkpt>
      <trkpt lat="45.54573" lon="6.7994">
        <ele>2407.4599609375</ele>
        <time>2014-07-24T12:43:36Z</time>
      </trkpt>
      <trkpt lat="45.54574" lon="6.7994">
        <ele>2407.5146484375</ele>
        <time>2014-07-24T12:43:38Z</time>
      </trkpt>
      <trkpt lat="45.54574" lon="6.7994">
        <ele>2407.5168457031</ele>
        <time>2014-07-24T12:43:42Z</time>
      </trkpt>
      <trkpt lat="45.54574" lon="6.7994">
        <ele>2407.5192871094</ele>
        <time>2014-07-24T12:43:44Z</time>
      </trkpt>
      <trkpt lat="45.54574" lon="6.7994">
        <ele>2407.5808105469</ele>
        <time>2014-07-24T12:43:46Z</time>
      </trkpt>
      <trkpt lat="45.54574" lon="6.7994">
        <ele>2407.5808105469</ele>
        <time>2014-07-24T12:43:48Z</time>
      </trkpt>
      <trkpt lat="45.54574" lon="6.7994">
        <ele>2407.5842285156</ele>
        <time>2014-07-24T12:43:50Z</time>
      </trkpt>
      <trkpt lat="45.54574" lon="6.7994">
        <ele>2407.5808105469</ele>
        <time>2014-07-24T12:43:52Z</time>
      </trkpt>
      <trkpt lat="45.54575" lon="6.7994">
        <ele>2407.6379394531</ele>
        <time>2014-07-24T12:43:54Z</time>
      </trkpt>
      <trkpt lat="45.54575" lon="6.7994">
        <ele>2407.6303710938</ele>
        <time>2014-07-24T12:43:57Z</time>
      </trkpt>
      <trkpt lat="45.54575" lon="6.7994">
        <ele>2407.7529296875</ele>
        <time>2014-07-24T12:44:02Z</time>
      </trkpt>
      <trkpt lat="45.54575" lon="6.7994">
        <ele>2407.7578125</ele>
        <time>2014-07-24T12:44:04Z</time>
      </trkpt>
      <trkpt lat="45.54575" lon="6.7994">
        <ele>2407.7016601562</ele>
        <time>2014-07-24T12:44:06Z</time>
      </trkpt>
      <trkpt lat="45.54575" lon="6.79941">
        <ele>2407.7097167969</ele>
        <time>2014-07-24T12:44:10Z</time>
      </trkpt>
      <trkpt lat="45.54575" lon="6.7994">
        <ele>2407.7067871094</ele>
        <time>2014-07-24T12:44:12Z</time>
      </trkpt>
      <trkpt lat="45.54575" lon="6.7994">
        <ele>2407.7058105469</ele>
        <time>2014-07-24T12:44:14Z</time>
      </trkpt>
      <trkpt lat="45.54575" lon="6.7994">
        <ele>2407.6455078125</ele>
        <time>2014-07-24T12:44:16Z</time>
      </trkpt>
      <trkpt lat="45.54575" lon="6.7994">
        <ele>2407.7058105469</ele>
        <time>2014-07-24T12:44:18Z</time>
      </trkpt>
      <trkpt lat="45.54575" lon="6.7994">
        <ele>2407.6975097656</ele>
        <time>2014-07-24T12:44:24Z</time>
      </trkpt>
      <trkpt lat="45.54575" lon="6.7994">
        <ele>2407.7026367188</ele>
        <time>2014-07-24T12:44:26Z</time>
      </trkpt>
      <trkpt lat="45.54575" lon="6.7994">
        <ele>2407.7587890625</ele>
        <time>2014-07-24T12:44:28Z</time>
      </trkpt>
      <trkpt lat="45.54575" lon="6.7994">
        <ele>2407.6962890625</ele>
        <time>2014-07-24T12:44:30Z</time>
      </trkpt>
      <trkpt lat="45.54568" lon="6.79932">
        <ele>2406.2990722656</ele>
        <time>2014-07-24T12:44:40Z</time>
      </trkpt>
      <trkpt lat="45.54567" lon="6.79931">
        <ele>2406.1557617188</ele>
        <time>2014-07-24T12:44:42Z</time>
      </trkpt>
      <trkpt lat="45.54567" lon="6.79931">
        <ele>2406.1437988281</ele>
        <time>2014-07-24T12:44:46Z</time>
      </trkpt>
      <trkpt lat="45.54567" lon="6.7993">
        <ele>2406.0495605469</ele>
        <time>2014-07-24T12:44:48Z</time>
      </trkpt>
      <trkpt lat="45.54567" lon="6.7993">
        <ele>2406.0473632812</ele>
        <time>2014-07-24T12:44:49Z</time>
      </trkpt>
      <trkpt lat="45.54568" lon="6.7993">
        <ele>2406.1791992188</ele>
        <time>2014-07-24T12:44:52Z</time>
      </trkpt>
      <trkpt lat="45.54568" lon="6.7993">
        <ele>2406.1831054688</ele>
        <time>2014-07-24T12:44:54Z</time>
      </trkpt>
      <trkpt lat="45.54567" lon="6.7993">
        <ele>2406.0886230469</ele>
        <time>2014-07-24T12:44:56Z</time>
      </trkpt>
      <trkpt lat="45.54562" lon="6.79926">
        <ele>2404.9553222656</ele>
        <time>2014-07-24T12:45:02Z</time>
      </trkpt>
      <trkpt lat="45.54559" lon="6.79917">
        <ele>2403.7744140625</ele>
        <time>2014-07-24T12:45:08Z</time>
      </trkpt>
      <trkpt lat="45.54556" lon="6.79911">
        <ele>2403.7512207031</ele>
        <time>2014-07-24T12:45:14Z</time>
      </trkpt>
      <trkpt lat="45.54554" lon="6.7991">
        <ele>2403.5354003906</ele>
        <time>2014-07-24T12:45:16Z</time>
      </trkpt>
      <trkpt lat="45.5455" lon="6.79909">
        <ele>2402.7280273438</ele>
        <time>2014-07-24T12:45:20Z</time>
      </trkpt>
      <trkpt lat="45.54539" lon="6.79899">
        <ele>2400.5805664062</ele>
        <time>2014-07-24T12:45:30Z</time>
      </trkpt>
      <trkpt lat="45.54538" lon="6.79899">
        <ele>2400.0024414062</ele>
        <time>2014-07-24T12:45:32Z</time>
      </trkpt>
      <trkpt lat="45.54536" lon="6.79899">
        <ele>2399.4396972656</ele>
        <time>2014-07-24T12:45:34Z</time>
      </trkpt>
      <trkpt lat="45.54534" lon="6.79898">
        <ele>2398.9968261719</ele>
        <time>2014-07-24T12:45:36Z</time>
      </trkpt>
      <trkpt lat="45.54532" lon="6.79897">
        <ele>2398.2905273438</ele>
        <time>2014-07-24T12:45:38Z</time>
      </trkpt>
      <trkpt lat="45.5453" lon="6.79898">
        <ele>2397.6789550781</ele>
        <time>2014-07-24T12:45:40Z</time>
      </trkpt>
      <trkpt lat="45.54528" lon="6.79896">
        <ele>2397.2084960938</ele>
        <time>2014-07-24T12:45:42Z</time>
      </trkpt>
      <trkpt lat="45.54524" lon="6.79884">
        <ele>2395.4152832031</ele>
        <time>2014-07-24T12:45:50Z</time>
      </trkpt>
      <trkpt lat="45.54523" lon="6.79883">
        <ele>2394.916015625</ele>
        <time>2014-07-24T12:45:52Z</time>
      </trkpt>
      <trkpt lat="45.54522" lon="6.79881">
        <ele>2394.4790039062</ele>
        <time>2014-07-24T12:45:54Z</time>
      </trkpt>
      <trkpt lat="45.54524" lon="6.79857">
        <ele>2392.5871582031</ele>
        <time>2014-07-24T12:46:12Z</time>
      </trkpt>
      <trkpt lat="45.5452" lon="6.79846">
        <ele>2390.0952148438</ele>
        <time>2014-07-24T12:46:22Z</time>
      </trkpt>
      <trkpt lat="45.54519" lon="6.79837">
        <ele>2388.744140625</ele>
        <time>2014-07-24T12:46:30Z</time>
      </trkpt>
      <trkpt lat="45.54518" lon="6.79834">
        <ele>2387.7795410156</ele>
        <time>2014-07-24T12:46:34Z</time>
      </trkpt>
      <trkpt lat="45.54517" lon="6.79834">
        <ele>2387.6625976562</ele>
        <time>2014-07-24T12:46:36Z</time>
      </trkpt>
      <trkpt lat="45.54517" lon="6.79833">
        <ele>2387.3735351562</ele>
        <time>2014-07-24T12:46:38Z</time>
      </trkpt>
      <trkpt lat="45.54517" lon="6.79831">
        <ele>2386.7709960938</ele>
        <time>2014-07-24T12:46:46Z</time>
      </trkpt>
      <trkpt lat="45.54516" lon="6.79832">
        <ele>2386.6782226562</ele>
        <time>2014-07-24T12:46:48Z</time>
      </trkpt>
      <trkpt lat="45.54509" lon="6.79809">
        <ele>2377.2541503906</ele>
        <time>2014-07-24T12:47:06Z</time>
      </trkpt>
      <trkpt lat="45.54509" lon="6.7981">
        <ele>2377.3312988281</ele>
        <time>2014-07-24T12:47:08Z</time>
      </trkpt>
      <trkpt lat="45.54509" lon="6.7981">
        <ele>2377.1923828125</ele>
        <time>2014-07-24T12:47:10Z</time>
      </trkpt>
      <trkpt lat="45.54509" lon="6.79809">
        <ele>2377.0378417969</ele>
        <time>2014-07-24T12:47:14Z</time>
      </trkpt>
      <trkpt lat="45.54509" lon="6.79809">
        <ele>2377.099609375</ele>
        <time>2014-07-24T12:47:16Z</time>
      </trkpt>
      <trkpt lat="45.54509" lon="6.79809">
        <ele>2377.0842285156</ele>
        <time>2014-07-24T12:47:18Z</time>
      </trkpt>
      <trkpt lat="45.5451" lon="6.79809">
        <ele>2377.1149902344</ele>
        <time>2014-07-24T12:47:20Z</time>
      </trkpt>
      <trkpt lat="45.5451" lon="6.79808">
        <ele>2376.9914550781</ele>
        <time>2014-07-24T12:47:22Z</time>
      </trkpt>
      <trkpt lat="45.5451" lon="6.79808">
        <ele>2377.1149902344</ele>
        <time>2014-07-24T12:47:24Z</time>
      </trkpt>
      <trkpt lat="45.5451" lon="6.79808">
        <ele>2377.2077636719</ele>
        <time>2014-07-24T12:47:32Z</time>
      </trkpt>
      <trkpt lat="45.5451" lon="6.79808">
        <ele>2377.2077636719</ele>
        <time>2014-07-24T12:47:34Z</time>
      </trkpt>
      <trkpt lat="45.5451" lon="6.79808">
        <ele>2377.1613769531</ele>
        <time>2014-07-24T12:47:36Z</time>
      </trkpt>
      <trkpt lat="45.5451" lon="6.79808">
        <ele>2377.0532226562</ele>
        <time>2014-07-24T12:47:38Z</time>
      </trkpt>
      <trkpt lat="45.5451" lon="6.79808">
        <ele>2377.0532226562</ele>
        <time>2014-07-24T12:47:40Z</time>
      </trkpt>
      <trkpt lat="45.5451" lon="6.79808">
        <ele>2377.0532226562</ele>
        <time>2014-07-24T12:47:42Z</time>
      </trkpt>
      <trkpt lat="45.5451" lon="6.79808">
        <ele>2377.0532226562</ele>
        <time>2014-07-24T12:47:44Z</time>
      </trkpt>
      <trkpt lat="45.5451" lon="6.79809">
        <ele>2377.1767578125</ele>
        <time>2014-07-24T12:47:48Z</time>
      </trkpt>
      <trkpt lat="45.5451" lon="6.79809">
        <ele>2377.3776855469</ele>
        <time>2014-07-24T12:47:50Z</time>
      </trkpt>
      <trkpt lat="45.5451" lon="6.79809">
        <ele>2377.2541503906</ele>
        <time>2014-07-24T12:47:54Z</time>
      </trkpt>
      <trkpt lat="45.5451" lon="6.79809">
        <ele>2377.26953125</ele>
        <time>2014-07-24T12:47:56Z</time>
      </trkpt>
      <trkpt lat="45.5451" lon="6.79809">
        <ele>2377.3623046875</ele>
        <time>2014-07-24T12:47:58Z</time>
      </trkpt>
      <trkpt lat="45.5451" lon="6.79808">
        <ele>2377.1459960938</ele>
        <time>2014-07-24T12:48:02Z</time>
      </trkpt>
      <trkpt lat="45.54511" lon="6.79808">
        <ele>2377.2541503906</ele>
        <time>2014-07-24T12:48:04Z</time>
      </trkpt>
      <trkpt lat="45.54511" lon="6.79808">
        <ele>2377.2387695312</ele>
        <time>2014-07-24T12:48:06Z</time>
      </trkpt>
      <trkpt lat="45.54511" lon="6.79808">
        <ele>2377.3776855469</ele>
        <time>2014-07-24T12:48:08Z</time>
      </trkpt>
      <trkpt lat="45.54511" lon="6.79808">
        <ele>2377.3159179688</ele>
        <time>2014-07-24T12:48:14Z</time>
      </trkpt>
      <trkpt lat="45.54512" lon="6.79807">
        <ele>2377.3623046875</ele>
        <time>2014-07-24T12:48:16Z</time>
      </trkpt>
      <trkpt lat="45.54512" lon="6.79807">
        <ele>2377.1613769531</ele>
        <time>2014-07-24T12:48:20Z</time>
      </trkpt>
      <trkpt lat="45.54512" lon="6.79807">
        <ele>2377.099609375</ele>
        <time>2014-07-24T12:48:22Z</time>
      </trkpt>
      <trkpt lat="45.54512" lon="6.79807">
        <ele>2377.1613769531</ele>
        <time>2014-07-24T12:48:24Z</time>
      </trkpt>
      <trkpt lat="45.54511" lon="6.79807">
        <ele>2377.099609375</ele>
        <time>2014-07-24T12:48:26Z</time>
      </trkpt>
      <trkpt lat="45.54511" lon="6.79807">
        <ele>2377.1923828125</ele>
        <time>2014-07-24T12:48:30Z</time>
      </trkpt>
      <trkpt lat="45.54511" lon="6.79807">
        <ele>2377.0686035156</ele>
        <time>2014-07-24T12:48:32Z</time>
      </trkpt>
      <trkpt lat="45.54511" lon="6.79807">
        <ele>2376.9914550781</ele>
        <time>2014-07-24T12:48:38Z</time>
      </trkpt>
      <trkpt lat="45.54511" lon="6.79807">
        <ele>2376.9914550781</ele>
        <time>2014-07-24T12:48:40Z</time>
      </trkpt>
      <trkpt lat="45.54511" lon="6.79807">
        <ele>2376.9450683594</ele>
        <time>2014-07-24T12:48:42Z</time>
      </trkpt>
      <trkpt lat="45.54511" lon="6.79807">
        <ele>2377.1149902344</ele>
        <time>2014-07-24T12:48:44Z</time>
      </trkpt>
      <trkpt lat="45.54511" lon="6.79807">
        <ele>2377.0224609375</ele>
        <time>2014-07-24T12:48:46Z</time>
      </trkpt>
      <trkpt lat="45.54511" lon="6.79807">
        <ele>2376.9914550781</ele>
        <time>2014-07-24T12:48:48Z</time>
      </trkpt>
      <trkpt lat="45.54511" lon="6.79807">
        <ele>2376.9604492188</ele>
        <time>2014-07-24T12:48:50Z</time>
      </trkpt>
      <trkpt lat="45.54511" lon="6.79807">
        <ele>2377.0686035156</ele>
        <time>2014-07-24T12:48:52Z</time>
      </trkpt>
      <trkpt lat="45.54511" lon="6.79807">
        <ele>2377.0378417969</ele>
        <time>2014-07-24T12:48:54Z</time>
      </trkpt>
      <trkpt lat="45.54512" lon="6.79807">
        <ele>2377.1767578125</ele>
        <time>2014-07-24T12:48:56Z</time>
      </trkpt>
      <trkpt lat="45.54512" lon="6.79807">
        <ele>2377.2541503906</ele>
        <time>2014-07-24T12:48:58Z</time>
      </trkpt>
      <trkpt lat="45.54512" lon="6.79807">
        <ele>2377.3930664062</ele>
        <time>2014-07-24T12:49:00Z</time>
      </trkpt>
      <trkpt lat="45.54512" lon="6.79807">
        <ele>2377.1923828125</ele>
        <time>2014-07-24T12:49:02Z</time>
      </trkpt>
      <trkpt lat="45.54512" lon="6.79806">
        <ele>2376.9760742188</ele>
        <time>2014-07-24T12:49:06Z</time>
      </trkpt>
      <trkpt lat="45.54512" lon="6.79807">
        <ele>2377.1149902344</ele>
        <time>2014-07-24T12:49:10Z</time>
      </trkpt>
      <trkpt lat="45.54512" lon="6.79807">
        <ele>2377.3159179688</ele>
        <time>2014-07-24T12:49:11Z</time>
      </trkpt>
      <trkpt lat="45.54512" lon="6.79807">
        <ele>2377.5939941406</ele>
        <time>2014-07-24T12:49:14Z</time>
      </trkpt>
      <trkpt lat="45.54512" lon="6.79807">
        <ele>2377.5322265625</ele>
        <time>2014-07-24T12:49:16Z</time>
      </trkpt>
      <trkpt lat="45.54512" lon="6.79807">
        <ele>2377.3469238281</ele>
        <time>2014-07-24T12:49:18Z</time>
      </trkpt>
      <trkpt lat="45.54512" lon="6.79807">
        <ele>2377.439453125</ele>
        <time>2014-07-24T12:49:20Z</time>
      </trkpt>
      <trkpt lat="45.54512" lon="6.79807">
        <ele>2377.3930664062</ele>
        <time>2014-07-24T12:49:22Z</time>
      </trkpt>
      <trkpt lat="45.54513" lon="6.79807">
        <ele>2377.4858398438</ele>
        <time>2014-07-24T12:49:24Z</time>
      </trkpt>
      <trkpt lat="45.54513" lon="6.79806">
        <ele>2377.4240722656</ele>
        <time>2014-07-24T12:49:28Z</time>
      </trkpt>
      <trkpt lat="45.54513" lon="6.79806">
        <ele>2377.5322265625</ele>
        <time>2014-07-24T12:49:30Z</time>
      </trkpt>
      <trkpt lat="45.54513" lon="6.79806">
        <ele>2377.3623046875</ele>
        <time>2014-07-24T12:49:36Z</time>
      </trkpt>
      <trkpt lat="45.54513" lon="6.79805">
        <ele>2376.9509277344</ele>
        <time>2014-07-24T12:49:38Z</time>
      </trkpt>
      <trkpt lat="45.54513" lon="6.79803">
        <ele>2375.8217773438</ele>
        <time>2014-07-24T12:49:39Z</time>
      </trkpt>
      <trkpt lat="45.54514" lon="6.79804">
        <ele>2376.4135742188</ele>
        <time>2014-07-24T12:49:42Z</time>
      </trkpt>
      <trkpt lat="45.54514" lon="6.79804">
        <ele>2376.4135742188</ele>
        <time>2014-07-24T12:49:44Z</time>
      </trkpt>
      <trkpt lat="45.54514" lon="6.79804">
        <ele>2376.4714355469</ele>
        <time>2014-07-24T12:49:46Z</time>
      </trkpt>
      <trkpt lat="45.54514" lon="6.79804">
        <ele>2376.6428222656</ele>
        <time>2014-07-24T12:49:48Z</time>
      </trkpt>
      <trkpt lat="45.54514" lon="6.79804">
        <ele>2376.6428222656</ele>
        <time>2014-07-24T12:49:50Z</time>
      </trkpt>
      <trkpt lat="45.54514" lon="6.79804">
        <ele>2376.8452148438</ele>
        <time>2014-07-24T12:49:52Z</time>
      </trkpt>
      <trkpt lat="45.54514" lon="6.79805">
        <ele>2377.111328125</ele>
        <time>2014-07-24T12:49:58Z</time>
      </trkpt>
      <trkpt lat="45.54514" lon="6.79805">
        <ele>2377.111328125</ele>
        <time>2014-07-24T12:50:00Z</time>
      </trkpt>
      <trkpt lat="45.54514" lon="6.79805">
        <ele>2377.1408691406</ele>
        <time>2014-07-24T12:50:02Z</time>
      </trkpt>
      <trkpt lat="45.54514" lon="6.79805">
        <ele>2376.9934082031</ele>
        <time>2014-07-24T12:50:04Z</time>
      </trkpt>
      <trkpt lat="45.54514" lon="6.79804">
        <ele>2376.8181152344</ele>
        <time>2014-07-24T12:50:06Z</time>
      </trkpt>
      <trkpt lat="45.54514" lon="6.79804">
        <ele>2376.5551757812</ele>
        <time>2014-07-24T12:50:08Z</time>
      </trkpt>
      <trkpt lat="45.54514" lon="6.79804">
        <ele>2376.2114257812</ele>
        <time>2014-07-24T12:50:10Z</time>
      </trkpt>
      <trkpt lat="45.54514" lon="6.79804">
        <ele>2376.4091796875</ele>
        <time>2014-07-24T12:50:12Z</time>
      </trkpt>
      <trkpt lat="45.54514" lon="6.79804">
        <ele>2376.8474121094</ele>
        <time>2014-07-24T12:50:18Z</time>
      </trkpt>
      <trkpt lat="45.54514" lon="6.79805">
        <ele>2376.9057617188</ele>
        <time>2014-07-24T12:50:20Z</time>
      </trkpt>
      <trkpt lat="45.54514" lon="6.79805">
        <ele>2376.8469238281</ele>
        <time>2014-07-24T12:50:22Z</time>
      </trkpt>
      <trkpt lat="45.54514" lon="6.79805">
        <ele>2376.9914550781</ele>
        <time>2014-07-24T12:50:24Z</time>
      </trkpt>
      <trkpt lat="45.54513" lon="6.79805">
        <ele>2376.9865722656</ele>
        <time>2014-07-24T12:50:26Z</time>
      </trkpt>
      <trkpt lat="45.54513" lon="6.79805">
        <ele>2377.0151367188</ele>
        <time>2014-07-24T12:50:28Z</time>
      </trkpt>
      <trkpt lat="45.54513" lon="6.79805">
        <ele>2376.9865722656</ele>
        <time>2014-07-24T12:50:30Z</time>
      </trkpt>
      <trkpt lat="45.54512" lon="6.79807">
        <ele>2377.3312988281</ele>
        <time>2014-07-24T12:50:34Z</time>
      </trkpt>
      <trkpt lat="45.54512" lon="6.79806">
        <ele>2376.9914550781</ele>
        <time>2014-07-24T12:50:36Z</time>
      </trkpt>
      <trkpt lat="45.54511" lon="6.79807">
        <ele>2377.0686035156</ele>
        <time>2014-07-24T12:50:38Z</time>
      </trkpt>
      <trkpt lat="45.54511" lon="6.79807">
        <ele>2377.099609375</ele>
        <time>2014-07-24T12:50:40Z</time>
      </trkpt>
      <trkpt lat="45.54508" lon="6.79808">
        <ele>2376.3117675781</ele>
        <time>2014-07-24T12:50:44Z</time>
      </trkpt>
      <trkpt lat="45.54506" lon="6.79807">
        <ele>2375.2919921875</ele>
        <time>2014-07-24T12:50:46Z</time>
      </trkpt>
      <trkpt lat="45.54502" lon="6.7981">
        <ele>2375.0910644531</ele>
        <time>2014-07-24T12:50:50Z</time>
      </trkpt>
      <trkpt lat="45.5449" lon="6.79819">
        <ele>2383.5827636719</ele>
        <time>2014-07-24T12:51:04Z</time>
      </trkpt>
      <trkpt lat="45.54483" lon="6.79826">
        <ele>2387.7609863281</ele>
        <time>2014-07-24T12:51:12Z</time>
      </trkpt>
      <trkpt lat="45.54467" lon="6.79829">
        <ele>2389.2561035156</ele>
        <time>2014-07-24T12:51:24Z</time>
      </trkpt>
      <trkpt lat="45.54463" lon="6.79831">
        <ele>2386.4270019531</ele>
        <time>2014-07-24T12:51:28Z</time>
      </trkpt>
      <trkpt lat="45.54458" lon="6.79832">
        <ele>2384.0444335938</ele>
        <time>2014-07-24T12:51:32Z</time>
      </trkpt>
      <trkpt lat="45.54454" lon="6.7983">
        <ele>2382.3828125</ele>
        <time>2014-07-24T12:51:36Z</time>
      </trkpt>
      <trkpt lat="45.54453" lon="6.79827">
        <ele>2383.1586914062</ele>
        <time>2014-07-24T12:51:38Z</time>
      </trkpt>
      <trkpt lat="45.54453" lon="6.79828">
        <ele>2382.9868164062</ele>
        <time>2014-07-24T12:51:40Z</time>
      </trkpt>
      <trkpt lat="45.54452" lon="6.79828">
        <ele>2382.6813964844</ele>
        <time>2014-07-24T12:51:42Z</time>
      </trkpt>
      <trkpt lat="45.54449" lon="6.7983">
        <ele>2380.7277832031</ele>
        <time>2014-07-24T12:51:46Z</time>
      </trkpt>
      <trkpt lat="45.54445" lon="6.79836">
        <ele>2376.2746582031</ele>
        <time>2014-07-24T12:51:54Z</time>
      </trkpt>
      <trkpt lat="45.54444" lon="6.79836">
        <ele>2376.109375</ele>
        <time>2014-07-24T12:51:56Z</time>
      </trkpt>
      <trkpt lat="45.54443" lon="6.79839">
        <ele>2374.9553222656</ele>
        <time>2014-07-24T12:52:00Z</time>
      </trkpt>
      <trkpt lat="45.54441" lon="6.7984">
        <ele>2374.1005859375</ele>
        <time>2014-07-24T12:52:02Z</time>
      </trkpt>
      <trkpt lat="45.5444" lon="6.79841">
        <ele>2373.6723632812</ele>
        <time>2014-07-24T12:52:04Z</time>
      </trkpt>
      <trkpt lat="45.54435" lon="6.79844">
        <ele>2371.6821289062</ele>
        <time>2014-07-24T12:52:10Z</time>
      </trkpt>
      <trkpt lat="45.54424" lon="6.79855">
        <ele>2366.0620117188</ele>
        <time>2014-07-24T12:52:24Z</time>
      </trkpt>
      <trkpt lat="45.54422" lon="6.7986">
        <ele>2364.5776367188</ele>
        <time>2014-07-24T12:52:28Z</time>
      </trkpt>
      <trkpt lat="45.54422" lon="6.79861">
        <ele>2364.3791503906</ele>
        <time>2014-07-24T12:52:30Z</time>
      </trkpt>
      <trkpt lat="45.54422" lon="6.79862">
        <ele>2364.4311523438</ele>
        <time>2014-07-24T12:52:32Z</time>
      </trkpt>
      <trkpt lat="45.54422" lon="6.79862">
        <ele>2364.603515625</ele>
        <time>2014-07-24T12:52:34Z</time>
      </trkpt>
      <trkpt lat="45.54422" lon="6.79862">
        <ele>2364.5290527344</ele>
        <time>2014-07-24T12:52:36Z</time>
      </trkpt>
      <trkpt lat="45.5442" lon="6.79862">
        <ele>2364.015625</ele>
        <time>2014-07-24T12:52:40Z</time>
      </trkpt>
      <trkpt lat="45.54405" lon="6.79854">
        <ele>2362.8371582031</ele>
        <time>2014-07-24T12:52:56Z</time>
      </trkpt>
      <trkpt lat="45.54403" lon="6.79854">
        <ele>2362.5405273438</ele>
        <time>2014-07-24T12:52:58Z</time>
      </trkpt>
      <trkpt lat="45.54401" lon="6.79854">
        <ele>2362.2663574219</ele>
        <time>2014-07-24T12:53:00Z</time>
      </trkpt>
      <trkpt lat="45.54399" lon="6.79854">
        <ele>2362.1098632812</ele>
        <time>2014-07-24T12:53:02Z</time>
      </trkpt>
      <trkpt lat="45.54395" lon="6.79854">
        <ele>2361.5046386719</ele>
        <time>2014-07-24T12:53:06Z</time>
      </trkpt>
      <trkpt lat="45.54391" lon="6.79856">
        <ele>2360.8127441406</ele>
        <time>2014-07-24T12:53:10Z</time>
      </trkpt>
      <trkpt lat="45.54388" lon="6.79859">
        <ele>2360.1591796875</ele>
        <time>2014-07-24T12:53:14Z</time>
      </trkpt>
      <trkpt lat="45.54382" lon="6.79862">
        <ele>2359.8591308594</ele>
        <time>2014-07-24T12:53:20Z</time>
      </trkpt>
      <trkpt lat="45.54371" lon="6.79862">
        <ele>2359.3713378906</ele>
        <time>2014-07-24T12:53:30Z</time>
      </trkpt>
      <trkpt lat="45.54368" lon="6.79863">
        <ele>2359.2707519531</ele>
        <time>2014-07-24T12:53:32Z</time>
      </trkpt>
      <trkpt lat="45.54364" lon="6.79862">
        <ele>2359.0830078125</ele>
        <time>2014-07-24T12:53:36Z</time>
      </trkpt>
      <trkpt lat="45.5436" lon="6.79859">
        <ele>2359.0944824219</ele>
        <time>2014-07-24T12:53:40Z</time>
      </trkpt>
      <trkpt lat="45.54358" lon="6.7986">
        <ele>2358.7209472656</ele>
        <time>2014-07-24T12:53:42Z</time>
      </trkpt>
      <trkpt lat="45.54356" lon="6.79861">
        <ele>2358.1462402344</ele>
        <time>2014-07-24T12:53:44Z</time>
      </trkpt>
      <trkpt lat="45.54354" lon="6.79862">
        <ele>2357.6311035156</ele>
        <time>2014-07-24T12:53:46Z</time>
      </trkpt>
      <trkpt lat="45.54352" lon="6.79863">
        <ele>2357.1733398438</ele>
        <time>2014-07-24T12:53:48Z</time>
      </trkpt>
      <trkpt lat="45.54343" lon="6.79866">
        <ele>2355.3442382812</ele>
        <time>2014-07-24T12:53:54Z</time>
      </trkpt>
      <trkpt lat="45.54342" lon="6.79867">
        <ele>2354.8017578125</ele>
        <time>2014-07-24T12:53:56Z</time>
      </trkpt>
      <trkpt lat="45.54335" lon="6.79869">
        <ele>2353.2504882812</ele>
        <time>2014-07-24T12:54:02Z</time>
      </trkpt>
      <trkpt lat="45.54335" lon="6.79869">
        <ele>2353.3540039062</ele>
        <time>2014-07-24T12:54:04Z</time>
      </trkpt>
      <trkpt lat="45.54335" lon="6.79869">
        <ele>2353.2744140625</ele>
        <time>2014-07-24T12:54:06Z</time>
      </trkpt>
      <trkpt lat="45.54335" lon="6.79868">
        <ele>2353.3137207031</ele>
        <time>2014-07-24T12:54:08Z</time>
      </trkpt>
      <trkpt lat="45.54335" lon="6.79869">
        <ele>2353.3022460938</ele>
        <time>2014-07-24T12:54:10Z</time>
      </trkpt>
      <trkpt lat="45.54335" lon="6.79869">
        <ele>2353.3088378906</ele>
        <time>2014-07-24T12:54:12Z</time>
      </trkpt>
      <trkpt lat="45.54335" lon="6.79869">
        <ele>2353.3022460938</ele>
        <time>2014-07-24T12:54:14Z</time>
      </trkpt>
      <trkpt lat="45.54321" lon="6.79871">
        <ele>2352.6735839844</ele>
        <time>2014-07-24T12:54:28Z</time>
      </trkpt>
      <trkpt lat="45.54314" lon="6.79875">
        <ele>2351.9270019531</ele>
        <time>2014-07-24T12:54:34Z</time>
      </trkpt>
      <trkpt lat="45.54311" lon="6.79876">
        <ele>2351.771484375</ele>
        <time>2014-07-24T12:54:36Z</time>
      </trkpt>
      <trkpt lat="45.54297" lon="6.79886">
        <ele>2348.0388183594</ele>
        <time>2014-07-24T12:54:48Z</time>
      </trkpt>
      <trkpt lat="45.54296" lon="6.79886">
        <ele>2347.8259277344</ele>
        <time>2014-07-24T12:54:50Z</time>
      </trkpt>
      <trkpt lat="45.54294" lon="6.79886">
        <ele>2347.3698730469</ele>
        <time>2014-07-24T12:54:52Z</time>
      </trkpt>
      <trkpt lat="45.54292" lon="6.79887">
        <ele>2346.9030761719</ele>
        <time>2014-07-24T12:54:54Z</time>
      </trkpt>
      <trkpt lat="45.54272" lon="6.79913">
        <ele>2340.5056152344</ele>
        <time>2014-07-24T12:55:16Z</time>
      </trkpt>
      <trkpt lat="45.54265" lon="6.79929">
        <ele>2338.986328125</ele>
        <time>2014-07-24T12:55:28Z</time>
      </trkpt>
      <trkpt lat="45.54263" lon="6.79931">
        <ele>2338.6547851562</ele>
        <time>2014-07-24T12:55:30Z</time>
      </trkpt>
      <trkpt lat="45.5426" lon="6.79932">
        <ele>2338.1057128906</ele>
        <time>2014-07-24T12:55:34Z</time>
      </trkpt>
      <trkpt lat="45.54259" lon="6.79932">
        <ele>2338.0300292969</ele>
        <time>2014-07-24T12:55:36Z</time>
      </trkpt>
      <trkpt lat="45.54257" lon="6.79933">
        <ele>2337.5524902344</ele>
        <time>2014-07-24T12:55:38Z</time>
      </trkpt>
      <trkpt lat="45.54253" lon="6.79931">
        <ele>2337.2458496094</ele>
        <time>2014-07-24T12:55:42Z</time>
      </trkpt>
      <trkpt lat="45.5425" lon="6.79931">
        <ele>2336.8823242188</ele>
        <time>2014-07-24T12:55:44Z</time>
      </trkpt>
      <trkpt lat="45.54247" lon="6.79932">
        <ele>2336.4150390625</ele>
        <time>2014-07-24T12:55:46Z</time>
      </trkpt>
      <trkpt lat="45.54242" lon="6.79929">
        <ele>2336.5571289062</ele>
        <time>2014-07-24T12:55:52Z</time>
      </trkpt>
      <trkpt lat="45.54232" lon="6.79921">
        <ele>2336.76953125</ele>
        <time>2014-07-24T12:56:02Z</time>
      </trkpt>
      <trkpt lat="45.54226" lon="6.7992">
        <ele>2336.0336914062</ele>
        <time>2014-07-24T12:56:08Z</time>
      </trkpt>
      <trkpt lat="45.5421" lon="6.79922">
        <ele>2333.5915527344</ele>
        <time>2014-07-24T12:56:20Z</time>
      </trkpt>
      <trkpt lat="45.54209" lon="6.79923">
        <ele>2333.294921875</ele>
        <time>2014-07-24T12:56:22Z</time>
      </trkpt>
      <trkpt lat="45.54203" lon="6.79929">
        <ele>2331.5283203125</ele>
        <time>2014-07-24T12:56:30Z</time>
      </trkpt>
      <trkpt lat="45.542" lon="6.7993">
        <ele>2330.9995117188</ele>
        <time>2014-07-24T12:56:32Z</time>
      </trkpt>
      <trkpt lat="45.54197" lon="6.79931">
        <ele>2330.4326171875</ele>
        <time>2014-07-24T12:56:34Z</time>
      </trkpt>
      <trkpt lat="45.54191" lon="6.79934">
        <ele>2328.3520507812</ele>
        <time>2014-07-24T12:56:40Z</time>
      </trkpt>
      <trkpt lat="45.54187" lon="6.79938">
        <ele>2326.5446777344</ele>
        <time>2014-07-24T12:56:44Z</time>
      </trkpt>
      <trkpt lat="45.54184" lon="6.79941">
        <ele>2324.6877441406</ele>
        <time>2014-07-24T12:56:48Z</time>
      </trkpt>
      <trkpt lat="45.54174" lon="6.79944">
        <ele>2320.7866210938</ele>
        <time>2014-07-24T12:56:56Z</time>
      </trkpt>
      <trkpt lat="45.54173" lon="6.79945">
        <ele>2320.0517578125</ele>
        <time>2014-07-24T12:56:58Z</time>
      </trkpt>
      <trkpt lat="45.54171" lon="6.79946">
        <ele>2319.2502441406</ele>
        <time>2014-07-24T12:57:00Z</time>
      </trkpt>
      <trkpt lat="45.54169" lon="6.79946">
        <ele>2318.4553222656</ele>
        <time>2014-07-24T12:57:02Z</time>
      </trkpt>
      <trkpt lat="45.54161" lon="6.79951">
        <ele>2313.625</ele>
        <time>2014-07-24T12:57:10Z</time>
      </trkpt>
      <trkpt lat="45.54154" lon="6.79961">
        <ele>2308.2265625</ele>
        <time>2014-07-24T12:57:18Z</time>
      </trkpt>
      <trkpt lat="45.54152" lon="6.79961">
        <ele>2307.3640136719</ele>
        <time>2014-07-24T12:57:20Z</time>
      </trkpt>
      <trkpt lat="45.54144" lon="6.79957">
        <ele>2304.8098144531</ele>
        <time>2014-07-24T12:57:28Z</time>
      </trkpt>
      <trkpt lat="45.54142" lon="6.79957">
        <ele>2303.9262695312</ele>
        <time>2014-07-24T12:57:30Z</time>
      </trkpt>
      <trkpt lat="45.54134" lon="6.79956">
        <ele>2300.8288574219</ele>
        <time>2014-07-24T12:57:38Z</time>
      </trkpt>
      <trkpt lat="45.54132" lon="6.79955">
        <ele>2300.1201171875</ele>
        <time>2014-07-24T12:57:40Z</time>
      </trkpt>
      <trkpt lat="45.54128" lon="6.79954">
        <ele>2298.357421875</ele>
        <time>2014-07-24T12:57:44Z</time>
      </trkpt>
      <trkpt lat="45.54126" lon="6.79955">
        <ele>2297.5766601562</ele>
        <time>2014-07-24T12:57:46Z</time>
      </trkpt>
      <trkpt lat="45.54126" lon="6.79954">
        <ele>2297.7814941406</ele>
        <time>2014-07-24T12:57:48Z</time>
      </trkpt>
      <trkpt lat="45.54124" lon="6.79955">
        <ele>2297.1428222656</ele>
        <time>2014-07-24T12:57:50Z</time>
      </trkpt>
      <trkpt lat="45.54121" lon="6.79956">
        <ele>2295.5295410156</ele>
        <time>2014-07-24T12:57:54Z</time>
      </trkpt>
      <trkpt lat="45.54117" lon="6.79957">
        <ele>2293.8186035156</ele>
        <time>2014-07-24T12:57:58Z</time>
      </trkpt>
      <trkpt lat="45.54113" lon="6.79956">
        <ele>2292.4904785156</ele>
        <time>2014-07-24T12:58:02Z</time>
      </trkpt>
      <trkpt lat="45.54111" lon="6.79956">
        <ele>2291.8576660156</ele>
        <time>2014-07-24T12:58:04Z</time>
      </trkpt>
      <trkpt lat="45.5411" lon="6.79956">
        <ele>2291.4248046875</ele>
        <time>2014-07-24T12:58:06Z</time>
      </trkpt>
      <trkpt lat="45.54103" lon="6.79954">
        <ele>2290.3493652344</ele>
        <time>2014-07-24T12:58:14Z</time>
      </trkpt>
      <trkpt lat="45.54102" lon="6.79954">
        <ele>2290.0498046875</ele>
        <time>2014-07-24T12:58:16Z</time>
      </trkpt>
      <trkpt lat="45.541" lon="6.79953">
        <ele>2289.7490234375</ele>
        <time>2014-07-24T12:58:18Z</time>
      </trkpt>
      <trkpt lat="45.54099" lon="6.79951">
        <ele>2289.4997558594</ele>
        <time>2014-07-24T12:58:20Z</time>
      </trkpt>
      <trkpt lat="45.54095" lon="6.79949">
        <ele>2288.6389160156</ele>
        <time>2014-07-24T12:58:24Z</time>
      </trkpt>
      <trkpt lat="45.54094" lon="6.79947">
        <ele>2288.154296875</ele>
        <time>2014-07-24T12:58:26Z</time>
      </trkpt>
      <trkpt lat="45.54092" lon="6.79946">
        <ele>2287.6940917969</ele>
        <time>2014-07-24T12:58:30Z</time>
      </trkpt>
      <trkpt lat="45.54092" lon="6.79945">
        <ele>2287.6528320312</ele>
        <time>2014-07-24T12:58:32Z</time>
      </trkpt>
      <trkpt lat="45.54091" lon="6.79945">
        <ele>2287.3127441406</ele>
        <time>2014-07-24T12:58:34Z</time>
      </trkpt>
      <trkpt lat="45.54085" lon="6.79937">
        <ele>2286.4362792969</ele>
        <time>2014-07-24T12:58:42Z</time>
      </trkpt>
      <trkpt lat="45.54085" lon="6.79936">
        <ele>2286.5090332031</ele>
        <time>2014-07-24T12:58:44Z</time>
      </trkpt>
      <trkpt lat="45.54084" lon="6.79936">
        <ele>2286.2561035156</ele>
        <time>2014-07-24T12:58:46Z</time>
      </trkpt>
      <trkpt lat="45.54084" lon="6.79936">
        <ele>2286.1403808594</ele>
        <time>2014-07-24T12:58:47Z</time>
      </trkpt>
      <trkpt lat="45.54084" lon="6.79935">
        <ele>2286.2360839844</ele>
        <time>2014-07-24T12:58:52Z</time>
      </trkpt>
      <trkpt lat="45.54084" lon="6.79935">
        <ele>2286.4348144531</ele>
        <time>2014-07-24T12:58:54Z</time>
      </trkpt>
      <trkpt lat="45.54084" lon="6.7993">
        <ele>2286.8947753906</ele>
        <time>2014-07-24T12:58:58Z</time>
      </trkpt>
      <trkpt lat="45.54073" lon="6.79913">
        <ele>2284.3171386719</ele>
        <time>2014-07-24T12:59:14Z</time>
      </trkpt>
      <trkpt lat="45.54066" lon="6.79911">
        <ele>2281.9052734375</ele>
        <time>2014-07-24T12:59:20Z</time>
      </trkpt>
      <trkpt lat="45.54065" lon="6.79911">
        <ele>2281.2985839844</ele>
        <time>2014-07-24T12:59:22Z</time>
      </trkpt>
      <trkpt lat="45.54058" lon="6.79917">
        <ele>2279.0849609375</ele>
        <time>2014-07-24T12:59:30Z</time>
      </trkpt>
      <trkpt lat="45.54056" lon="6.79918">
        <ele>2278.333984375</ele>
        <time>2014-07-24T12:59:32Z</time>
      </trkpt>
      <trkpt lat="45.54053" lon="6.79921">
        <ele>2277.7651367188</ele>
        <time>2014-07-24T12:59:36Z</time>
      </trkpt>
      <trkpt lat="45.54051" lon="6.79922">
        <ele>2277.5178222656</ele>
        <time>2014-07-24T12:59:38Z</time>
      </trkpt>
      <trkpt lat="45.54045" lon="6.79929">
        <ele>2276.9853515625</ele>
        <time>2014-07-24T12:59:46Z</time>
      </trkpt>
      <trkpt lat="45.54044" lon="6.79931">
        <ele>2277.04296875</ele>
        <time>2014-07-24T12:59:48Z</time>
      </trkpt>
      <trkpt lat="45.54044" lon="6.79933">
        <ele>2277.2646484375</ele>
        <time>2014-07-24T12:59:50Z</time>
      </trkpt>
      <trkpt lat="45.54042" lon="6.79936">
        <ele>2277.1857910156</ele>
        <time>2014-07-24T12:59:54Z</time>
      </trkpt>
      <trkpt lat="45.54042" lon="6.79938">
        <ele>2277.3591308594</ele>
        <time>2014-07-24T12:59:56Z</time>
      </trkpt>
      <trkpt lat="45.54041" lon="6.7994">
        <ele>2277.4389648438</ele>
        <time>2014-07-24T12:59:58Z</time>
      </trkpt>
      <trkpt lat="45.54042" lon="6.79941">
        <ele>2277.6906738281</ele>
        <time>2014-07-24T13:00:00Z</time>
      </trkpt>
      <trkpt lat="45.54042" lon="6.79942">
        <ele>2277.7622070312</ele>
        <time>2014-07-24T13:00:02Z</time>
      </trkpt>
      <trkpt lat="45.54042" lon="6.79942">
        <ele>2277.9006347656</ele>
        <time>2014-07-24T13:00:04Z</time>
      </trkpt>
      <trkpt lat="45.54041" lon="6.79945">
        <ele>2277.9326171875</ele>
        <time>2014-07-24T13:00:08Z</time>
      </trkpt>
      <trkpt lat="45.54042" lon="6.79947">
        <ele>2277.953125</ele>
        <time>2014-07-24T13:00:10Z</time>
      </trkpt>
      <trkpt lat="45.54039" lon="6.79954">
        <ele>2277.1958007812</ele>
        <time>2014-07-24T13:00:16Z</time>
      </trkpt>
      <trkpt lat="45.54037" lon="6.79956">
        <ele>2276.8725585938</ele>
        <time>2014-07-24T13:00:18Z</time>
      </trkpt>
      <trkpt lat="45.54033" lon="6.79954">
        <ele>2276.0830078125</ele>
        <time>2014-07-24T13:00:24Z</time>
      </trkpt>
      <trkpt lat="45.5403" lon="6.79955">
        <ele>2275.5939941406</ele>
        <time>2014-07-24T13:00:28Z</time>
      </trkpt>
      <trkpt lat="45.54028" lon="6.79955">
        <ele>2275.3596191406</ele>
        <time>2014-07-24T13:00:30Z</time>
      </trkpt>
      <trkpt lat="45.54025" lon="6.79952">
        <ele>2275.0563964844</ele>
        <time>2014-07-24T13:00:34Z</time>
      </trkpt>
      <trkpt lat="45.54024" lon="6.79949">
        <ele>2275.0427246094</ele>
        <time>2014-07-24T13:00:36Z</time>
      </trkpt>
      <trkpt lat="45.54021" lon="6.79947">
        <ele>2274.640625</ele>
        <time>2014-07-24T13:00:40Z</time>
      </trkpt>
      <trkpt lat="45.5402" lon="6.79947">
        <ele>2274.3842773438</ele>
        <time>2014-07-24T13:00:42Z</time>
      </trkpt>
      <trkpt lat="45.54018" lon="6.79946">
        <ele>2274.0910644531</ele>
        <time>2014-07-24T13:00:44Z</time>
      </trkpt>
      <trkpt lat="45.54015" lon="6.79943">
        <ele>2273.5393066406</ele>
        <time>2014-07-24T13:00:48Z</time>
      </trkpt>
      <trkpt lat="45.54012" lon="6.79941">
        <ele>2272.8879394531</ele>
        <time>2014-07-24T13:00:52Z</time>
      </trkpt>
      <trkpt lat="45.54011" lon="6.79939">
        <ele>2272.5441894531</ele>
        <time>2014-07-24T13:00:54Z</time>
      </trkpt>
      <trkpt lat="45.5401" lon="6.79938">
        <ele>2272.3532714844</ele>
        <time>2014-07-24T13:00:56Z</time>
      </trkpt>
      <trkpt lat="45.53999" lon="6.79929">
        <ele>2270.1049804688</ele>
        <time>2014-07-24T13:01:08Z</time>
      </trkpt>
      <trkpt lat="45.53975" lon="6.79888">
        <ele>2250.5493164062</ele>
        <time>2014-07-24T13:01:50Z</time>
      </trkpt>
      <trkpt lat="45.53969" lon="6.79885">
        <ele>2246.7651367188</ele>
        <time>2014-07-24T13:01:58Z</time>
      </trkpt>
      <trkpt lat="45.53968" lon="6.79886">
        <ele>2245.96875</ele>
        <time>2014-07-24T13:02:00Z</time>
      </trkpt>
      <trkpt lat="45.53967" lon="6.79889">
        <ele>2245.1447753906</ele>
        <time>2014-07-24T13:02:02Z</time>
      </trkpt>
      <trkpt lat="45.53965" lon="6.79894">
        <ele>2245.275390625</ele>
        <time>2014-07-24T13:02:06Z</time>
      </trkpt>
      <trkpt lat="45.53962" lon="6.79895">
        <ele>2244.0808105469</ele>
        <time>2014-07-24T13:02:08Z</time>
      </trkpt>
      <trkpt lat="45.5396" lon="6.79894">
        <ele>2242.6643066406</ele>
        <time>2014-07-24T13:02:10Z</time>
      </trkpt>
      <trkpt lat="45.53958" lon="6.7989">
        <ele>2240.4479980469</ele>
        <time>2014-07-24T13:02:14Z</time>
      </trkpt>
      <trkpt lat="45.53948" lon="6.79876">
        <ele>2236.8911132812</ele>
        <time>2014-07-24T13:02:26Z</time>
      </trkpt>
      <trkpt lat="45.53944" lon="6.79874">
        <ele>2234.673828125</ele>
        <time>2014-07-24T13:02:30Z</time>
      </trkpt>
      <trkpt lat="45.53937" lon="6.79869">
        <ele>2231.4270019531</ele>
        <time>2014-07-24T13:02:38Z</time>
      </trkpt>
      <trkpt lat="45.53936" lon="6.79869">
        <ele>2230.9489746094</ele>
        <time>2014-07-24T13:02:40Z</time>
      </trkpt>
      <trkpt lat="45.53936" lon="6.79869">
        <ele>2230.6962890625</ele>
        <time>2014-07-24T13:02:42Z</time>
      </trkpt>
      <trkpt lat="45.53935" lon="6.79868">
        <ele>2230.3269042969</ele>
        <time>2014-07-24T13:02:44Z</time>
      </trkpt>
      <trkpt lat="45.53935" lon="6.79869">
        <ele>2230.0192871094</ele>
        <time>2014-07-24T13:02:46Z</time>
      </trkpt>
      <trkpt lat="45.53935" lon="6.79869">
        <ele>2230.1076660156</ele>
        <time>2014-07-24T13:02:48Z</time>
      </trkpt>
      <trkpt lat="45.53935" lon="6.7987">
        <ele>2229.8161621094</ele>
        <time>2014-07-24T13:02:50Z</time>
      </trkpt>
      <trkpt lat="45.53934" lon="6.7987">
        <ele>2229.5793457031</ele>
        <time>2014-07-24T13:02:52Z</time>
      </trkpt>
      <trkpt lat="45.53934" lon="6.79869">
        <ele>2229.7099609375</ele>
        <time>2014-07-24T13:03:00Z</time>
      </trkpt>
      <trkpt lat="45.53934" lon="6.79869">
        <ele>2229.5122070312</ele>
        <time>2014-07-24T13:03:02Z</time>
      </trkpt>
      <trkpt lat="45.53934" lon="6.79869">
        <ele>2229.5500488281</ele>
        <time>2014-07-24T13:03:06Z</time>
      </trkpt>
      <trkpt lat="45.53934" lon="6.79869">
        <ele>2229.3249511719</ele>
        <time>2014-07-24T13:03:08Z</time>
      </trkpt>
      <trkpt lat="45.53934" lon="6.79868">
        <ele>2229.5876464844</ele>
        <time>2014-07-24T13:03:10Z</time>
      </trkpt>
      <trkpt lat="45.53934" lon="6.79868">
        <ele>2229.5971679688</ele>
        <time>2014-07-24T13:03:12Z</time>
      </trkpt>
      <trkpt lat="45.53934" lon="6.79868">
        <ele>2229.8686523438</ele>
        <time>2014-07-24T13:03:14Z</time>
      </trkpt>
      <trkpt lat="45.53934" lon="6.79868">
        <ele>2229.9060058594</ele>
        <time>2014-07-24T13:03:15Z</time>
      </trkpt>
      <trkpt lat="45.53935" lon="6.79868">
        <ele>2230.2316894531</ele>
        <time>2014-07-24T13:03:18Z</time>
      </trkpt>
      <trkpt lat="45.53935" lon="6.79867">
        <ele>2230.3332519531</ele>
        <time>2014-07-24T13:03:26Z</time>
      </trkpt>
      <trkpt lat="45.53934" lon="6.79867">
        <ele>2229.9174804688</ele>
        <time>2014-07-24T13:03:28Z</time>
      </trkpt>
      <trkpt lat="45.53933" lon="6.79865">
        <ele>2229.5546875</ele>
        <time>2014-07-24T13:03:32Z</time>
      </trkpt>
      <trkpt lat="45.53916" lon="6.79856">
        <ele>2222.6328125</ele>
        <time>2014-07-24T13:03:50Z</time>
      </trkpt>
      <trkpt lat="45.53911" lon="6.79855">
        <ele>2221.0383300781</ele>
        <time>2014-07-24T13:03:54Z</time>
      </trkpt>
      <trkpt lat="45.53905" lon="6.79852">
        <ele>2219.5083007812</ele>
        <time>2014-07-24T13:04:00Z</time>
      </trkpt>
      <trkpt lat="45.53878" lon="6.79823">
        <ele>2219.2900390625</ele>
        <time>2014-07-24T13:04:30Z</time>
      </trkpt>
      <trkpt lat="45.5384" lon="6.79755">
        <ele>2213.2795410156</ele>
        <time>2014-07-24T13:06:44Z</time>
      </trkpt>
      <trkpt lat="45.53834" lon="6.79715">
        <ele>2209.5666503906</ele>
        <time>2014-07-24T13:07:08Z</time>
      </trkpt>
      <trkpt lat="45.53833" lon="6.79713">
        <ele>2209.263671875</ele>
        <time>2014-07-24T13:07:10Z</time>
      </trkpt>
      <trkpt lat="45.53831" lon="6.79711">
        <ele>2208.7700195312</ele>
        <time>2014-07-24T13:07:12Z</time>
      </trkpt>
      <trkpt lat="45.53822" lon="6.79697">
        <ele>2206.7041015625</ele>
        <time>2014-07-24T13:07:24Z</time>
      </trkpt>
      <trkpt lat="45.53811" lon="6.79692">
        <ele>2203.3842773438</ele>
        <time>2014-07-24T13:07:34Z</time>
      </trkpt>
      <trkpt lat="45.53806" lon="6.79692">
        <ele>2201.8439941406</ele>
        <time>2014-07-24T13:07:38Z</time>
      </trkpt>
      <trkpt lat="45.53801" lon="6.79694">
        <ele>2200.640625</ele>
        <time>2014-07-24T13:07:44Z</time>
      </trkpt>
      <trkpt lat="45.53798" lon="6.79694">
        <ele>2200.0522460938</ele>
        <time>2014-07-24T13:07:46Z</time>
      </trkpt>
      <trkpt lat="45.53796" lon="6.79694">
        <ele>2199.5446777344</ele>
        <time>2014-07-24T13:07:48Z</time>
      </trkpt>
      <trkpt lat="45.53787" lon="6.79697">
        <ele>2197.46484375</ele>
        <time>2014-07-24T13:07:56Z</time>
      </trkpt>
      <trkpt lat="45.53784" lon="6.79702">
        <ele>2197.1840820312</ele>
        <time>2014-07-24T13:07:58Z</time>
      </trkpt>
      <trkpt lat="45.53782" lon="6.79704">
        <ele>2196.8515625</ele>
        <time>2014-07-24T13:08:00Z</time>
      </trkpt>
      <trkpt lat="45.53779" lon="6.79704">
        <ele>2196.3994140625</ele>
        <time>2014-07-24T13:08:02Z</time>
      </trkpt>
      <trkpt lat="45.53767" lon="6.79712">
        <ele>2194.5517578125</ele>
        <time>2014-07-24T13:08:14Z</time>
      </trkpt>
      <trkpt lat="45.53765" lon="6.79713">
        <ele>2194.1506347656</ele>
        <time>2014-07-24T13:08:16Z</time>
      </trkpt>
      <trkpt lat="45.53722" lon="6.79741">
        <ele>2186.7822265625</ele>
        <time>2014-07-24T13:08:56Z</time>
      </trkpt>
      <trkpt lat="45.53701" lon="6.79761">
        <ele>2180.3542480469</ele>
        <time>2014-07-24T13:09:14Z</time>
      </trkpt>
      <trkpt lat="45.53699" lon="6.79761">
        <ele>2179.81640625</ele>
        <time>2014-07-24T13:09:16Z</time>
      </trkpt>
      <trkpt lat="45.53694" lon="6.79759">
        <ele>2178.0720214844</ele>
        <time>2014-07-24T13:09:21Z</time>
      </trkpt>
      <trkpt lat="45.53693" lon="6.79758">
        <ele>2177.921875</ele>
        <time>2014-07-24T13:09:24Z</time>
      </trkpt>
      <trkpt lat="45.53694" lon="6.79757">
        <ele>2178.0212402344</ele>
        <time>2014-07-24T13:09:26Z</time>
      </trkpt>
      <trkpt lat="45.53693" lon="6.79757">
        <ele>2177.8776855469</ele>
        <time>2014-07-24T13:09:28Z</time>
      </trkpt>
      <trkpt lat="45.53691" lon="6.7975">
        <ele>2176.9248046875</ele>
        <time>2014-07-24T13:09:34Z</time>
      </trkpt>
      <trkpt lat="45.5369" lon="6.79739">
        <ele>2175.5888671875</ele>
        <time>2014-07-24T13:09:54Z</time>
      </trkpt>
      <trkpt lat="45.53689" lon="6.79737">
        <ele>2174.9633789062</ele>
        <time>2014-07-24T13:09:58Z</time>
      </trkpt>
      <trkpt lat="45.53689" lon="6.79735">
        <ele>2174.7512207031</ele>
        <time>2014-07-24T13:10:00Z</time>
      </trkpt>
      <trkpt lat="45.53688" lon="6.79733">
        <ele>2174.2365722656</ele>
        <time>2014-07-24T13:10:04Z</time>
      </trkpt>
      <trkpt lat="45.53688" lon="6.79733">
        <ele>2174.2082519531</ele>
        <time>2014-07-24T13:10:05Z</time>
      </trkpt>
      <trkpt lat="45.53689" lon="6.79732">
        <ele>2174.4094238281</ele>
        <time>2014-07-24T13:10:08Z</time>
      </trkpt>
      <trkpt lat="45.53689" lon="6.79732">
        <ele>2174.3806152344</ele>
        <time>2014-07-24T13:10:10Z</time>
      </trkpt>
      <trkpt lat="45.53689" lon="6.79732">
        <ele>2174.4760742188</ele>
        <time>2014-07-24T13:10:12Z</time>
      </trkpt>
      <trkpt lat="45.53689" lon="6.79732">
        <ele>2174.4375</ele>
        <time>2014-07-24T13:10:14Z</time>
      </trkpt>
      <trkpt lat="45.53689" lon="6.79731">
        <ele>2174.2941894531</ele>
        <time>2014-07-24T13:10:16Z</time>
      </trkpt>
      <trkpt lat="45.53689" lon="6.79731">
        <ele>2174.3989257812</ele>
        <time>2014-07-24T13:10:18Z</time>
      </trkpt>
      <trkpt lat="45.53689" lon="6.79731">
        <ele>2174.4182128906</ele>
        <time>2014-07-24T13:10:22Z</time>
      </trkpt>
      <trkpt lat="45.5369" lon="6.79731">
        <ele>2174.5278320312</ele>
        <time>2014-07-24T13:10:24Z</time>
      </trkpt>
      <trkpt lat="45.53689" lon="6.79731">
        <ele>2174.3845214844</ele>
        <time>2014-07-24T13:10:26Z</time>
      </trkpt>
      <trkpt lat="45.53689" lon="6.79731">
        <ele>2174.3845214844</ele>
        <time>2014-07-24T13:10:28Z</time>
      </trkpt>
      <trkpt lat="45.53689" lon="6.79731">
        <ele>2174.3940429688</ele>
        <time>2014-07-24T13:10:30Z</time>
      </trkpt>
      <trkpt lat="45.53689" lon="6.79731">
        <ele>2174.2990722656</ele>
        <time>2014-07-24T13:10:32Z</time>
      </trkpt>
      <trkpt lat="45.53689" lon="6.79732">
        <ele>2174.3134765625</ele>
        <time>2014-07-24T13:10:34Z</time>
      </trkpt>
      <trkpt lat="45.53689" lon="6.79732">
        <ele>2174.3278808594</ele>
        <time>2014-07-24T13:10:36Z</time>
      </trkpt>
      <trkpt lat="45.53689" lon="6.79732">
        <ele>2174.3181152344</ele>
        <time>2014-07-24T13:10:38Z</time>
      </trkpt>
      <trkpt lat="45.53689" lon="6.79732">
        <ele>2174.4375</ele>
        <time>2014-07-24T13:10:40Z</time>
      </trkpt>
      <trkpt lat="45.53689" lon="6.79732">
        <ele>2174.4375</ele>
        <time>2014-07-24T13:10:42Z</time>
      </trkpt>
      <trkpt lat="45.5369" lon="6.79732">
        <ele>2174.5422363281</ele>
        <time>2014-07-24T13:10:44Z</time>
      </trkpt>
      <trkpt lat="45.5369" lon="6.79732">
        <ele>2174.5568847656</ele>
        <time>2014-07-24T13:10:46Z</time>
      </trkpt>
      <trkpt lat="45.53689" lon="6.79732">
        <ele>2174.4711914062</ele>
        <time>2014-07-24T13:10:48Z</time>
      </trkpt>
      <trkpt lat="45.53689" lon="6.79732">
        <ele>2174.4809570312</ele>
        <time>2014-07-24T13:10:50Z</time>
      </trkpt>
      <trkpt lat="45.5369" lon="6.79732">
        <ele>2174.6005859375</ele>
        <time>2014-07-24T13:10:52Z</time>
      </trkpt>
      <trkpt lat="45.5369" lon="6.79732">
        <ele>2174.6005859375</ele>
        <time>2014-07-24T13:10:54Z</time>
      </trkpt>
      <trkpt lat="45.5369" lon="6.79732">
        <ele>2174.6296386719</ele>
        <time>2014-07-24T13:10:56Z</time>
      </trkpt>
      <trkpt lat="45.5369" lon="6.79733">
        <ele>2174.6586914062</ele>
        <time>2014-07-24T13:10:58Z</time>
      </trkpt>
      <trkpt lat="45.53689" lon="6.79732">
        <ele>2174.5100097656</ele>
        <time>2014-07-24T13:11:00Z</time>
      </trkpt>
      <trkpt lat="45.53689" lon="6.79698">
        <ele>2171.7294921875</ele>
        <time>2014-07-24T13:11:24Z</time>
      </trkpt>
      <trkpt lat="45.53685" lon="6.7969">
        <ele>2169.7026367188</ele>
        <time>2014-07-24T13:11:30Z</time>
      </trkpt>
      <trkpt lat="45.5368" lon="6.7969">
        <ele>2168.4272460938</ele>
        <time>2014-07-24T13:11:34Z</time>
      </trkpt>
      <trkpt lat="45.53676" lon="6.79692">
        <ele>2167.4658203125</ele>
        <time>2014-07-24T13:11:38Z</time>
      </trkpt>
      <trkpt lat="45.53673" lon="6.797">
        <ele>2167.1838378906</ele>
        <time>2014-07-24T13:11:46Z</time>
      </trkpt>
      <trkpt lat="45.53669" lon="6.79704">
        <ele>2166.4523925781</ele>
        <time>2014-07-24T13:11:50Z</time>
      </trkpt>
      <trkpt lat="45.53666" lon="6.79714">
        <ele>2166.1694335938</ele>
        <time>2014-07-24T13:11:58Z</time>
      </trkpt>
      <trkpt lat="45.53662" lon="6.79716">
        <ele>2165.43359375</ele>
        <time>2014-07-24T13:12:02Z</time>
      </trkpt>
      <trkpt lat="45.53659" lon="6.79722">
        <ele>2164.9411621094</ele>
        <time>2014-07-24T13:12:10Z</time>
      </trkpt>
      <trkpt lat="45.53659" lon="6.79723">
        <ele>2165.0183105469</ele>
        <time>2014-07-24T13:12:18Z</time>
      </trkpt>
      <trkpt lat="45.53659" lon="6.79723">
        <ele>2165.0270996094</ele>
        <time>2014-07-24T13:12:20Z</time>
      </trkpt>
      <trkpt lat="45.5364" lon="6.79735">
        <ele>2160.8400878906</ele>
        <time>2014-07-24T13:12:40Z</time>
      </trkpt>
      <trkpt lat="45.5364" lon="6.79734">
        <ele>2160.7290039062</ele>
        <time>2014-07-24T13:12:42Z</time>
      </trkpt>
      <trkpt lat="45.5364" lon="6.79734">
        <ele>2160.7290039062</ele>
        <time>2014-07-24T13:12:43Z</time>
      </trkpt>
      <trkpt lat="45.5364" lon="6.79733">
        <ele>2160.6931152344</ele>
        <time>2014-07-24T13:12:46Z</time>
      </trkpt>
      <trkpt lat="45.5364" lon="6.79733">
        <ele>2160.7893066406</ele>
        <time>2014-07-24T13:12:48Z</time>
      </trkpt>
      <trkpt lat="45.5364" lon="6.79733">
        <ele>2160.7966308594</ele>
        <time>2014-07-24T13:12:50Z</time>
      </trkpt>
      <trkpt lat="45.53639" lon="6.79734">
        <ele>2160.4951171875</ele>
        <time>2014-07-24T13:12:52Z</time>
      </trkpt>
      <trkpt lat="45.53638" lon="6.79735">
        <ele>2160.2873535156</ele>
        <time>2014-07-24T13:12:54Z</time>
      </trkpt>
      <trkpt lat="45.53635" lon="6.79737">
        <ele>2159.0771484375</ele>
        <time>2014-07-24T13:12:58Z</time>
      </trkpt>
      <trkpt lat="45.53633" lon="6.79737">
        <ele>2158.3449707031</ele>
        <time>2014-07-24T13:13:00Z</time>
      </trkpt>
      <trkpt lat="45.53633" lon="6.79737">
        <ele>2158.20703125</ele>
        <time>2014-07-24T13:13:02Z</time>
      </trkpt>
      <trkpt lat="45.53631" lon="6.79737">
        <ele>2157.6193847656</ele>
        <time>2014-07-24T13:13:04Z</time>
      </trkpt>
      <trkpt lat="45.53622" lon="6.79721">
        <ele>2154.0134277344</ele>
        <time>2014-07-24T13:13:22Z</time>
      </trkpt>
      <trkpt lat="45.53619" lon="6.7972">
        <ele>2152.71875</ele>
        <time>2014-07-24T13:13:26Z</time>
      </trkpt>
      <trkpt lat="45.53617" lon="6.7972">
        <ele>2152.0673828125</ele>
        <time>2014-07-24T13:13:28Z</time>
      </trkpt>
      <trkpt lat="45.53614" lon="6.79719">
        <ele>2150.9985351562</ele>
        <time>2014-07-24T13:13:32Z</time>
      </trkpt>
      <trkpt lat="45.53613" lon="6.79719">
        <ele>2150.4799804688</ele>
        <time>2014-07-24T13:13:34Z</time>
      </trkpt>
      <trkpt lat="45.53611" lon="6.7972">
        <ele>2149.9572753906</ele>
        <time>2014-07-24T13:13:36Z</time>
      </trkpt>
      <trkpt lat="45.53608" lon="6.79723">
        <ele>2148.8586425781</ele>
        <time>2014-07-24T13:13:40Z</time>
      </trkpt>
      <trkpt lat="45.53607" lon="6.79725">
        <ele>2148.4467773438</ele>
        <time>2014-07-24T13:13:42Z</time>
      </trkpt>
      <trkpt lat="45.53603" lon="6.79727">
        <ele>2147.2106933594</ele>
        <time>2014-07-24T13:13:46Z</time>
      </trkpt>
      <trkpt lat="45.53598" lon="6.79728">
        <ele>2145.4252929688</ele>
        <time>2014-07-24T13:13:52Z</time>
      </trkpt>
      <trkpt lat="45.53592" lon="6.79737">
        <ele>2143.0908203125</ele>
        <time>2014-07-24T13:14:02Z</time>
      </trkpt>
      <trkpt lat="45.53592" lon="6.79738">
        <ele>2142.9536132812</ele>
        <time>2014-07-24T13:14:04Z</time>
      </trkpt>
      <trkpt lat="45.5359" lon="6.79739">
        <ele>2142.404296875</ele>
        <time>2014-07-24T13:14:06Z</time>
      </trkpt>
      <trkpt lat="45.53588" lon="6.79739">
        <ele>2141.7175292969</ele>
        <time>2014-07-24T13:14:08Z</time>
      </trkpt>
      <trkpt lat="45.53553" lon="6.79659">
        <ele>2125.6040039062</ele>
        <time>2014-07-24T13:15:10Z</time>
      </trkpt>
      <trkpt lat="45.53542" lon="6.79606">
        <ele>2119.8696289062</ele>
        <time>2014-07-24T13:15:46Z</time>
      </trkpt>
      <trkpt lat="45.53535" lon="6.79595">
        <ele>2115.6486816406</ele>
        <time>2014-07-24T13:15:58Z</time>
      </trkpt>
      <trkpt lat="45.53534" lon="6.79594">
        <ele>2115.0888671875</ele>
        <time>2014-07-24T13:16:00Z</time>
      </trkpt>
      <trkpt lat="45.53532" lon="6.79594">
        <ele>2114.4072265625</ele>
        <time>2014-07-24T13:16:02Z</time>
      </trkpt>
      <trkpt lat="45.53531" lon="6.79592">
        <ele>2113.7958984375</ele>
        <time>2014-07-24T13:16:04Z</time>
      </trkpt>
      <trkpt lat="45.53529" lon="6.79589">
        <ele>2112.546875</ele>
        <time>2014-07-24T13:16:08Z</time>
      </trkpt>
      <trkpt lat="45.53527" lon="6.79587">
        <ele>2112.013671875</ele>
        <time>2014-07-24T13:16:10Z</time>
      </trkpt>
      <trkpt lat="45.53526" lon="6.79586">
        <ele>2111.3605957031</ele>
        <time>2014-07-24T13:16:12Z</time>
      </trkpt>
      <trkpt lat="45.53522" lon="6.79582">
        <ele>2109.7175292969</ele>
        <time>2014-07-24T13:16:18Z</time>
      </trkpt>
      <trkpt lat="45.53521" lon="6.7958">
        <ele>2109.3820800781</ele>
        <time>2014-07-24T13:16:20Z</time>
      </trkpt>
      <trkpt lat="45.53506" lon="6.79563">
        <ele>2103.6821289062</ele>
        <time>2014-07-24T13:16:44Z</time>
      </trkpt>
      <trkpt lat="45.53504" lon="6.79563">
        <ele>2103.1733398438</ele>
        <time>2014-07-24T13:16:46Z</time>
      </trkpt>
      <trkpt lat="45.535" lon="6.79563">
        <ele>2101.7290039062</ele>
        <time>2014-07-24T13:16:50Z</time>
      </trkpt>
      <trkpt lat="45.53497" lon="6.79566">
        <ele>2099.6025390625</ele>
        <time>2014-07-24T13:16:54Z</time>
      </trkpt>
      <trkpt lat="45.53496" lon="6.79566">
        <ele>2098.833984375</ele>
        <time>2014-07-24T13:16:56Z</time>
      </trkpt>
      <trkpt lat="45.53494" lon="6.79567">
        <ele>2097.51953125</ele>
        <time>2014-07-24T13:16:58Z</time>
      </trkpt>
      <trkpt lat="45.53492" lon="6.79567">
        <ele>2096.2458496094</ele>
        <time>2014-07-24T13:17:00Z</time>
      </trkpt>
      <trkpt lat="45.53489" lon="6.79569">
        <ele>2093.8928222656</ele>
        <time>2014-07-24T13:17:04Z</time>
      </trkpt>
      <trkpt lat="45.53486" lon="6.79572">
        <ele>2092.1850585938</ele>
        <time>2014-07-24T13:17:08Z</time>
      </trkpt>
      <trkpt lat="45.53485" lon="6.79572">
        <ele>2091.1630859375</ele>
        <time>2014-07-24T13:17:10Z</time>
      </trkpt>
      <trkpt lat="45.53471" lon="6.79514">
        <ele>2085.5263671875</ele>
        <time>2014-07-24T13:17:54Z</time>
      </trkpt>
      <trkpt lat="45.53472" lon="6.79515">
        <ele>2085.7392578125</ele>
        <time>2014-07-24T13:17:56Z</time>
      </trkpt>
      <trkpt lat="45.5347" lon="6.79513">
        <ele>2084.8896484375</ele>
        <time>2014-07-24T13:17:58Z</time>
      </trkpt>
      <trkpt lat="45.5347" lon="6.7951">
        <ele>2084.8989257812</ele>
        <time>2014-07-24T13:18:02Z</time>
      </trkpt>
      <trkpt lat="45.53465" lon="6.795">
        <ele>2081.9907226562</ele>
        <time>2014-07-24T13:18:14Z</time>
      </trkpt>
      <trkpt lat="45.53461" lon="6.79498">
        <ele>2080.0104980469</ele>
        <time>2014-07-24T13:18:18Z</time>
      </trkpt>
      <trkpt lat="45.53456" lon="6.79495">
        <ele>2076.9711914062</ele>
        <time>2014-07-24T13:18:26Z</time>
      </trkpt>
      <trkpt lat="45.53456" lon="6.79494">
        <ele>2076.7536621094</ele>
        <time>2014-07-24T13:18:28Z</time>
      </trkpt>
      <trkpt lat="45.53456" lon="6.79494">
        <ele>2076.728515625</ele>
        <time>2014-07-24T13:18:30Z</time>
      </trkpt>
      <trkpt lat="45.53455" lon="6.79493">
        <ele>2076.3232421875</ele>
        <time>2014-07-24T13:18:32Z</time>
      </trkpt>
      <trkpt lat="45.53454" lon="6.79492">
        <ele>2075.6911621094</ele>
        <time>2014-07-24T13:18:34Z</time>
      </trkpt>
      <trkpt lat="45.53452" lon="6.79492">
        <ele>2074.7116699219</ele>
        <time>2014-07-24T13:18:36Z</time>
      </trkpt>
      <trkpt lat="45.53447" lon="6.79491">
        <ele>2072.4294433594</ele>
        <time>2014-07-24T13:18:42Z</time>
      </trkpt>
      <trkpt lat="45.53439" lon="6.79472">
        <ele>2068.0551757812</ele>
        <time>2014-07-24T13:19:00Z</time>
      </trkpt>
      <trkpt lat="45.53439" lon="6.79471">
        <ele>2067.591796875</ele>
        <time>2014-07-24T13:19:02Z</time>
      </trkpt>
      <trkpt lat="45.53438" lon="6.79471">
        <ele>2067.3684082031</ele>
        <time>2014-07-24T13:19:04Z</time>
      </trkpt>
      <trkpt lat="45.53438" lon="6.79471">
        <ele>2067.1350097656</ele>
        <time>2014-07-24T13:19:06Z</time>
      </trkpt>
      <trkpt lat="45.53437" lon="6.79471">
        <ele>2066.9133300781</ele>
        <time>2014-07-24T13:19:07Z</time>
      </trkpt>
      <trkpt lat="45.53436" lon="6.7947">
        <ele>2066.2346191406</ele>
        <time>2014-07-24T13:19:12Z</time>
      </trkpt>
      <trkpt lat="45.5343" lon="6.7946">
        <ele>2062.3618164062</ele>
        <time>2014-07-24T13:19:22Z</time>
      </trkpt>
      <trkpt lat="45.53428" lon="6.79459">
        <ele>2061.2741699219</ele>
        <time>2014-07-24T13:19:24Z</time>
      </trkpt>
      <trkpt lat="45.53428" lon="6.7946">
        <ele>2061.0681152344</ele>
        <time>2014-07-24T13:19:26Z</time>
      </trkpt>
      <trkpt lat="45.53426" lon="6.79459">
        <ele>2060.4196777344</ele>
        <time>2014-07-24T13:19:28Z</time>
      </trkpt>
      <trkpt lat="45.53425" lon="6.79459">
        <ele>2059.5666503906</ele>
        <time>2014-07-24T13:19:30Z</time>
      </trkpt>
      <trkpt lat="45.53424" lon="6.79457">
        <ele>2059.3293457031</ele>
        <time>2014-07-24T13:19:32Z</time>
      </trkpt>
      <trkpt lat="45.53419" lon="6.79452">
        <ele>2056.3464355469</ele>
        <time>2014-07-24T13:19:42Z</time>
      </trkpt>
      <trkpt lat="45.53418" lon="6.79451">
        <ele>2055.9243164062</ele>
        <time>2014-07-24T13:19:44Z</time>
      </trkpt>
      <trkpt lat="45.53415" lon="6.79449">
        <ele>2054.3510742188</ele>
        <time>2014-07-24T13:19:50Z</time>
      </trkpt>
      <trkpt lat="45.53413" lon="6.79449">
        <ele>2053.0871582031</ele>
        <time>2014-07-24T13:19:54Z</time>
      </trkpt>
      <trkpt lat="45.53408" lon="6.79447">
        <ele>2051.1159667969</ele>
        <time>2014-07-24T13:20:00Z</time>
      </trkpt>
      <trkpt lat="45.53407" lon="6.79447">
        <ele>2050.5854492188</ele>
        <time>2014-07-24T13:20:02Z</time>
      </trkpt>
      <trkpt lat="45.53406" lon="6.79445">
        <ele>2050.0695800781</ele>
        <time>2014-07-24T13:20:04Z</time>
      </trkpt>
      <trkpt lat="45.53406" lon="6.79445">
        <ele>2049.8869628906</ele>
        <time>2014-07-24T13:20:06Z</time>
      </trkpt>
      <trkpt lat="45.53405" lon="6.79445">
        <ele>2049.712890625</ele>
        <time>2014-07-24T13:20:08Z</time>
      </trkpt>
      <trkpt lat="45.53405" lon="6.79445">
        <ele>2049.5270996094</ele>
        <time>2014-07-24T13:20:10Z</time>
      </trkpt>
      <trkpt lat="45.53405" lon="6.79445">
        <ele>2049.3459472656</ele>
        <time>2014-07-24T13:20:12Z</time>
      </trkpt>
      <trkpt lat="45.53405" lon="6.79446">
        <ele>2049.3442382812</ele>
        <time>2014-07-24T13:20:14Z</time>
      </trkpt>
      <trkpt lat="45.53404" lon="6.79446">
        <ele>2049.1630859375</ele>
        <time>2014-07-24T13:20:16Z</time>
      </trkpt>
      <trkpt lat="45.53404" lon="6.79446">
        <ele>2049.162109375</ele>
        <time>2014-07-24T13:20:18Z</time>
      </trkpt>
      <trkpt lat="45.53404" lon="6.79445">
        <ele>2049.1706542969</ele>
        <time>2014-07-24T13:20:24Z</time>
      </trkpt>
      <trkpt lat="45.53405" lon="6.79445">
        <ele>2049.3525390625</ele>
        <time>2014-07-24T13:20:26Z</time>
      </trkpt>
      <trkpt lat="45.53404" lon="6.79445">
        <ele>2049.1806640625</ele>
        <time>2014-07-24T13:20:28Z</time>
      </trkpt>
      <trkpt lat="45.53405" lon="6.79443">
        <ele>2049.2277832031</ele>
        <time>2014-07-24T13:20:30Z</time>
      </trkpt>
      <trkpt lat="45.53403" lon="6.79438">
        <ele>2048.1459960938</ele>
        <time>2014-07-24T13:20:36Z</time>
      </trkpt>
      <trkpt lat="45.53402" lon="6.79437">
        <ele>2047.3654785156</ele>
        <time>2014-07-24T13:20:38Z</time>
      </trkpt>
      <trkpt lat="45.53397" lon="6.79436">
        <ele>2044.8408203125</ele>
        <time>2014-07-24T13:20:44Z</time>
      </trkpt>
      <trkpt lat="45.53394" lon="6.79435">
        <ele>2043.7084960938</ele>
        <time>2014-07-24T13:20:48Z</time>
      </trkpt>
      <trkpt lat="45.53393" lon="6.79435">
        <ele>2043.0169677734</ele>
        <time>2014-07-24T13:20:50Z</time>
      </trkpt>
      <trkpt lat="45.53388" lon="6.79425">
        <ele>2040.1981201172</ele>
        <time>2014-07-24T13:21:02Z</time>
      </trkpt>
      <trkpt lat="45.53387" lon="6.79423">
        <ele>2039.5091552734</ele>
        <time>2014-07-24T13:21:04Z</time>
      </trkpt>
      <trkpt lat="45.53383" lon="6.79415">
        <ele>2036.8326416016</ele>
        <time>2014-07-24T13:21:14Z</time>
      </trkpt>
      <trkpt lat="45.53377" lon="6.79411">
        <ele>2033.9073486328</ele>
        <time>2014-07-24T13:21:22Z</time>
      </trkpt>
      <trkpt lat="45.53373" lon="6.79403">
        <ele>2032.0649414062</ele>
        <time>2014-07-24T13:21:32Z</time>
      </trkpt>
      <trkpt lat="45.53368" lon="6.79398">
        <ele>2029.8262939453</ele>
        <time>2014-07-24T13:21:40Z</time>
      </trkpt>
      <trkpt lat="45.53365" lon="6.79397">
        <ele>2028.8702392578</ele>
        <time>2014-07-24T13:21:44Z</time>
      </trkpt>
      <trkpt lat="45.53362" lon="6.79396">
        <ele>2027.7829589844</ele>
        <time>2014-07-24T13:21:48Z</time>
      </trkpt>
      <trkpt lat="45.5336" lon="6.79396">
        <ele>2027.1320800781</ele>
        <time>2014-07-24T13:21:50Z</time>
      </trkpt>
      <trkpt lat="45.53359" lon="6.79397">
        <ele>2026.3768310547</ele>
        <time>2014-07-24T13:21:52Z</time>
      </trkpt>
      <trkpt lat="45.53357" lon="6.79396">
        <ele>2025.3433837891</ele>
        <time>2014-07-24T13:21:54Z</time>
      </trkpt>
      <trkpt lat="45.53357" lon="6.79393">
        <ele>2025.5460205078</ele>
        <time>2014-07-24T13:21:56Z</time>
      </trkpt>
      <trkpt lat="45.53355" lon="6.79392">
        <ele>2025.1168212891</ele>
        <time>2014-07-24T13:21:58Z</time>
      </trkpt>
      <trkpt lat="45.53363" lon="6.79375">
        <ele>2027.4993896484</ele>
        <time>2014-07-24T13:22:10Z</time>
      </trkpt>
      <trkpt lat="45.53358" lon="6.79373">
        <ele>2025.8182373047</ele>
        <time>2014-07-24T13:22:14Z</time>
      </trkpt>
      <trkpt lat="45.53346" lon="6.79376">
        <ele>2020.9553222656</ele>
        <time>2014-07-24T13:22:24Z</time>
      </trkpt>
      <trkpt lat="45.53345" lon="6.79377">
        <ele>2020.6462402344</ele>
        <time>2014-07-24T13:22:26Z</time>
      </trkpt>
      <trkpt lat="45.5334" lon="6.79388">
        <ele>2018.2398681641</ele>
        <time>2014-07-24T13:22:34Z</time>
      </trkpt>
      <trkpt lat="45.53344" lon="6.79426">
        <ele>2016.8806152344</ele>
        <time>2014-07-24T13:22:53Z</time>
      </trkpt>
      <trkpt lat="45.53343" lon="6.79426">
        <ele>2016.7517089844</ele>
        <time>2014-07-24T13:22:56Z</time>
      </trkpt>
      <trkpt lat="45.53343" lon="6.79426">
        <ele>2016.7017822266</ele>
        <time>2014-07-24T13:23:04Z</time>
      </trkpt>
      <trkpt lat="45.53342" lon="6.79428">
        <ele>2015.9537353516</ele>
        <time>2014-07-24T13:23:08Z</time>
      </trkpt>
      <trkpt lat="45.53341" lon="6.79429">
        <ele>2015.3211669922</ele>
        <time>2014-07-24T13:24:14Z</time>
      </trkpt>
      <trkpt lat="45.53341" lon="6.79429">
        <ele>2015.1364746094</ele>
        <time>2014-07-24T13:24:16Z</time>
      </trkpt>
      <trkpt lat="45.53341" lon="6.79429">
        <ele>2015.1364746094</ele>
        <time>2014-07-24T13:24:20Z</time>
      </trkpt>
      <trkpt lat="45.53341" lon="6.79429">
        <ele>2015.1364746094</ele>
        <time>2014-07-24T13:24:22Z</time>
      </trkpt>
      <trkpt lat="45.5334" lon="6.79429">
        <ele>2014.9328613281</ele>
        <time>2014-07-24T13:24:24Z</time>
      </trkpt>
      <trkpt lat="45.5334" lon="6.7943">
        <ele>2014.8950195312</ele>
        <time>2014-07-24T13:24:28Z</time>
      </trkpt>
      <trkpt lat="45.5334" lon="6.7943">
        <ele>2014.7005615234</ele>
        <time>2014-07-24T13:24:30Z</time>
      </trkpt>
      <trkpt lat="45.53339" lon="6.7943">
        <ele>2014.2680664062</ele>
        <time>2014-07-24T13:24:34Z</time>
      </trkpt>
      <trkpt lat="45.53339" lon="6.79431">
        <ele>2014.2585449219</ele>
        <time>2014-07-24T13:24:35Z</time>
      </trkpt>
      <trkpt lat="45.53338" lon="6.79431">
        <ele>2013.6828613281</ele>
        <time>2014-07-24T13:24:42Z</time>
      </trkpt>
      <trkpt lat="45.53338" lon="6.79431">
        <ele>2013.6926269531</ele>
        <time>2014-07-24T13:24:44Z</time>
      </trkpt>
      <trkpt lat="45.53337" lon="6.79431">
        <ele>2013.5169677734</ele>
        <time>2014-07-24T13:24:46Z</time>
      </trkpt>
      <trkpt lat="45.53337" lon="6.79431">
        <ele>2013.4680175781</ele>
        <time>2014-07-24T13:24:52Z</time>
      </trkpt>
      <trkpt lat="45.53339" lon="6.79432">
        <ele>2014.3436279297</ele>
        <time>2014-07-24T13:24:54Z</time>
      </trkpt>
      <trkpt lat="45.53341" lon="6.79432">
        <ele>2014.8918457031</ele>
        <time>2014-07-24T13:24:56Z</time>
      </trkpt>
      <trkpt lat="45.53336" lon="6.79435">
        <ele>2012.1440429688</ele>
        <time>2014-07-24T13:30:08Z</time>
      </trkpt>
      <trkpt lat="45.53335" lon="6.79438">
        <ele>2011.6494140625</ele>
        <time>2014-07-24T13:30:10Z</time>
      </trkpt>
      <trkpt lat="45.53336" lon="6.79439">
        <ele>2012.0622558594</ele>
        <time>2014-07-24T13:30:12Z</time>
      </trkpt>
      <trkpt lat="45.53432" lon="6.79837">
        <ele>2020.3277587891</ele>
        <time>2014-07-24T13:34:06Z</time>
      </trkpt>
      <trkpt lat="45.5345" lon="6.79901">
        <ele>2027.8629150391</ele>
        <time>2014-07-24T13:34:46Z</time>
      </trkpt>
      <trkpt lat="45.53451" lon="6.79903">
        <ele>2028.6813964844</ele>
        <time>2014-07-24T13:34:48Z</time>
      </trkpt>
      <trkpt lat="45.53452" lon="6.79923">
        <ele>2031.02734375</ele>
        <time>2014-07-24T13:35:02Z</time>
      </trkpt>
      <trkpt lat="45.53448" lon="6.79928">
        <ele>2030.0421142578</ele>
        <time>2014-07-24T13:35:06Z</time>
      </trkpt>
      <trkpt lat="45.53447" lon="6.79933">
        <ele>2030.0048828125</ele>
        <time>2014-07-24T13:35:10Z</time>
      </trkpt>
      <trkpt lat="45.53443" lon="6.79937">
        <ele>2028.8288574219</ele>
        <time>2014-07-24T13:35:16Z</time>
      </trkpt>
      <trkpt lat="45.53442" lon="6.79937">
        <ele>2028.5206298828</ele>
        <time>2014-07-24T13:35:18Z</time>
      </trkpt>
      <trkpt lat="45.53442" lon="6.79937">
        <ele>2028.3566894531</ele>
        <time>2014-07-24T13:35:20Z</time>
      </trkpt>
      <trkpt lat="45.53442" lon="6.79937">
        <ele>2028.5032958984</ele>
        <time>2014-07-24T13:35:22Z</time>
      </trkpt>
      <trkpt lat="45.53459" lon="6.79981">
        <ele>2035.3223876953</ele>
        <time>2014-07-24T13:35:58Z</time>
      </trkpt>
      <trkpt lat="45.53461" lon="6.79983">
        <ele>2036.0704345703</ele>
        <time>2014-07-24T13:36:00Z</time>
      </trkpt>
      <trkpt lat="45.53454" lon="6.79991">
        <ele>2033.7569580078</ele>
        <time>2014-07-24T13:36:08Z</time>
      </trkpt>
      <trkpt lat="45.53452" lon="6.79992">
        <ele>2032.880859375</ele>
        <time>2014-07-24T13:36:10Z</time>
      </trkpt>
      <trkpt lat="45.5345" lon="6.79991">
        <ele>2032.1409912109</ele>
        <time>2014-07-24T13:36:12Z</time>
      </trkpt>
      <trkpt lat="45.53448" lon="6.79989">
        <ele>2031.2535400391</ele>
        <time>2014-07-24T13:36:16Z</time>
      </trkpt>
      <trkpt lat="45.53445" lon="6.79984">
        <ele>2030.0852050781</ele>
        <time>2014-07-24T13:36:24Z</time>
      </trkpt>
      <trkpt lat="45.53444" lon="6.79983">
        <ele>2030.0465087891</ele>
        <time>2014-07-24T13:36:26Z</time>
      </trkpt>
      <trkpt lat="45.53443" lon="6.79984">
        <ele>2030.1164550781</ele>
        <time>2014-07-24T13:36:28Z</time>
      </trkpt>
      <trkpt lat="45.53441" lon="6.79988">
        <ele>2030.4468994141</ele>
        <time>2014-07-24T13:36:32Z</time>
      </trkpt>
      <trkpt lat="45.53439" lon="6.80001">
        <ele>2031.3594970703</ele>
        <time>2014-07-24T13:36:42Z</time>
      </trkpt>
      <trkpt lat="45.53438" lon="6.80002">
        <ele>2031.9088134766</ele>
        <time>2014-07-24T13:36:44Z</time>
      </trkpt>
      <trkpt lat="45.53436" lon="6.80002">
        <ele>2032.3038330078</ele>
        <time>2014-07-24T13:36:46Z</time>
      </trkpt>
      <trkpt lat="45.53434" lon="6.80001">
        <ele>2032.3308105469</ele>
        <time>2014-07-24T13:36:48Z</time>
      </trkpt>
      <trkpt lat="45.53433" lon="6.80002">
        <ele>2032.8098144531</ele>
        <time>2014-07-24T13:36:50Z</time>
      </trkpt>
      <trkpt lat="45.53431" lon="6.80002">
        <ele>2033.4387207031</ele>
        <time>2014-07-24T13:36:52Z</time>
      </trkpt>
      <trkpt lat="45.53428" lon="6.80001">
        <ele>2033.8197021484</ele>
        <time>2014-07-24T13:36:56Z</time>
      </trkpt>
      <trkpt lat="45.53422" lon="6.79997">
        <ele>2034.3940429688</ele>
        <time>2014-07-24T13:37:06Z</time>
      </trkpt>
      <trkpt lat="45.53421" lon="6.79996">
        <ele>2034.3334960938</ele>
        <time>2014-07-24T13:37:08Z</time>
      </trkpt>
      <trkpt lat="45.5342" lon="6.79995">
        <ele>2034.3447265625</ele>
        <time>2014-07-24T13:37:10Z</time>
      </trkpt>
      <trkpt lat="45.53418" lon="6.79994">
        <ele>2034.4598388672</ele>
        <time>2014-07-24T13:37:12Z</time>
      </trkpt>
      <trkpt lat="45.53418" lon="6.79993">
        <ele>2034.3013916016</ele>
        <time>2014-07-24T13:37:14Z</time>
      </trkpt>
      <trkpt lat="45.53416" lon="6.79992">
        <ele>2034.3070068359</ele>
        <time>2014-07-24T13:37:16Z</time>
      </trkpt>
      <trkpt lat="45.53415" lon="6.79991">
        <ele>2034.0836181641</ele>
        <time>2014-07-24T13:37:18Z</time>
      </trkpt>
      <trkpt lat="45.53414" lon="6.79991">
        <ele>2034.0102539062</ele>
        <time>2014-07-24T13:37:20Z</time>
      </trkpt>
      <trkpt lat="45.53413" lon="6.7999">
        <ele>2033.8179931641</ele>
        <time>2014-07-24T13:37:22Z</time>
      </trkpt>
      <trkpt lat="45.53407" lon="6.79989">
        <ele>2033.7877197266</ele>
        <time>2014-07-24T13:37:28Z</time>
      </trkpt>
      <trkpt lat="45.53405" lon="6.79989">
        <ele>2033.8721923828</ele>
        <time>2014-07-24T13:37:30Z</time>
      </trkpt>
      <trkpt lat="45.534" lon="6.79989">
        <ele>2033.7727050781</ele>
        <time>2014-07-24T13:37:36Z</time>
      </trkpt>
      <trkpt lat="45.53391" lon="6.79993">
        <ele>2034.6853027344</ele>
        <time>2014-07-24T13:37:46Z</time>
      </trkpt>
      <trkpt lat="45.53385" lon="6.79998">
        <ele>2035.4077148438</ele>
        <time>2014-07-24T13:37:56Z</time>
      </trkpt>
      <trkpt lat="45.53383" lon="6.79998">
        <ele>2035.3341064453</ele>
        <time>2014-07-24T13:37:58Z</time>
      </trkpt>
      <trkpt lat="45.53382" lon="6.79998">
        <ele>2035.1295166016</ele>
        <time>2014-07-24T13:38:00Z</time>
      </trkpt>
      <trkpt lat="45.53377" lon="6.8">
        <ele>2035.1265869141</ele>
        <time>2014-07-24T13:38:06Z</time>
      </trkpt>
      <trkpt lat="45.53358" lon="6.8002">
        <ele>2035.8563232422</ele>
        <time>2014-07-24T13:38:28Z</time>
      </trkpt>
      <trkpt lat="45.53355" lon="6.80019">
        <ele>2035.5346679688</ele>
        <time>2014-07-24T13:38:30Z</time>
      </trkpt>
      <trkpt lat="45.53353" lon="6.80017">
        <ele>2035.0856933594</ele>
        <time>2014-07-24T13:38:32Z</time>
      </trkpt>
      <trkpt lat="45.53343" lon="6.79993">
        <ele>2029.3731689453</ele>
        <time>2014-07-24T13:38:50Z</time>
      </trkpt>
      <trkpt lat="45.53343" lon="6.7999">
        <ele>2028.4096679688</ele>
        <time>2014-07-24T13:38:52Z</time>
      </trkpt>
      <trkpt lat="45.53361" lon="6.7995">
        <ele>2025.0895996094</ele>
        <time>2014-07-24T13:39:22Z</time>
      </trkpt>
      <trkpt lat="45.53365" lon="6.79947">
        <ele>2024.6043701172</ele>
        <time>2014-07-24T13:39:26Z</time>
      </trkpt>
      <trkpt lat="45.53369" lon="6.79946">
        <ele>2024.3283691406</ele>
        <time>2014-07-24T13:39:30Z</time>
      </trkpt>
      <trkpt lat="45.53378" lon="6.7994">
        <ele>2022.6208496094</ele>
        <time>2014-07-24T13:39:40Z</time>
      </trkpt>
      <trkpt lat="45.53394" lon="6.79936">
        <ele>2020.7071533203</ele>
        <time>2014-07-24T13:39:54Z</time>
      </trkpt>
      <trkpt lat="45.53395" lon="6.79934">
        <ele>2020.1232910156</ele>
        <time>2014-07-24T13:39:56Z</time>
      </trkpt>
      <trkpt lat="45.53397" lon="6.79931">
        <ele>2018.9318847656</ele>
        <time>2014-07-24T13:39:58Z</time>
      </trkpt>
      <trkpt lat="45.53397" lon="6.79926">
        <ele>2017.4519042969</ele>
        <time>2014-07-24T13:40:00Z</time>
      </trkpt>
      <trkpt lat="45.53396" lon="6.79923">
        <ele>2016.5716552734</ele>
        <time>2014-07-24T13:40:02Z</time>
      </trkpt>
      <trkpt lat="45.53395" lon="6.79921">
        <ele>2016.0006103516</ele>
        <time>2014-07-24T13:40:04Z</time>
      </trkpt>
      <trkpt lat="45.53384" lon="6.79914">
        <ele>2014.4084472656</ele>
        <time>2014-07-24T13:40:14Z</time>
      </trkpt>
      <trkpt lat="45.53382" lon="6.79913">
        <ele>2014.3103027344</ele>
        <time>2014-07-24T13:40:16Z</time>
      </trkpt>
      <trkpt lat="45.53381" lon="6.79912">
        <ele>2014.0037841797</ele>
        <time>2014-07-24T13:40:18Z</time>
      </trkpt>
      <trkpt lat="45.53379" lon="6.7991">
        <ele>2013.5560302734</ele>
        <time>2014-07-24T13:40:20Z</time>
      </trkpt>
      <trkpt lat="45.53373" lon="6.79897">
        <ele>2010.1942138672</ele>
        <time>2014-07-24T13:40:30Z</time>
      </trkpt>
      <trkpt lat="45.53369" lon="6.79891">
        <ele>2008.9420166016</ele>
        <time>2014-07-24T13:40:34Z</time>
      </trkpt>
      <trkpt lat="45.53353" lon="6.79862">
        <ele>1997.9931640625</ele>
        <time>2014-07-24T13:40:58Z</time>
      </trkpt>
      <trkpt lat="45.53351" lon="6.7986">
        <ele>1996.8062744141</ele>
        <time>2014-07-24T13:41:00Z</time>
      </trkpt>
      <trkpt lat="45.53349" lon="6.79858">
        <ele>1995.4365234375</ele>
        <time>2014-07-24T13:41:02Z</time>
      </trkpt>
      <trkpt lat="45.53347" lon="6.79857">
        <ele>1994.5560302734</ele>
        <time>2014-07-24T13:41:04Z</time>
      </trkpt>
      <trkpt lat="45.53344" lon="6.79857">
        <ele>1993.6684570312</ele>
        <time>2014-07-24T13:41:08Z</time>
      </trkpt>
      <trkpt lat="45.53339" lon="6.7986">
        <ele>1993.3336181641</ele>
        <time>2014-07-24T13:41:12Z</time>
      </trkpt>
      <trkpt lat="45.5331" lon="6.79899">
        <ele>1992.4395751953</ele>
        <time>2014-07-24T13:41:42Z</time>
      </trkpt>
      <trkpt lat="45.53308" lon="6.79901">
        <ele>1992.0264892578</ele>
        <time>2014-07-24T13:41:44Z</time>
      </trkpt>
      <trkpt lat="45.53306" lon="6.79902">
        <ele>1991.4755859375</ele>
        <time>2014-07-24T13:41:46Z</time>
      </trkpt>
      <trkpt lat="45.53304" lon="6.79901">
        <ele>1990.6892089844</ele>
        <time>2014-07-24T13:41:48Z</time>
      </trkpt>
      <trkpt lat="45.53301" lon="6.79901">
        <ele>1988.9176025391</ele>
        <time>2014-07-24T13:41:52Z</time>
      </trkpt>
      <trkpt lat="45.533" lon="6.799">
        <ele>1988.4969482422</ele>
        <time>2014-07-24T13:41:54Z</time>
      </trkpt>
      <trkpt lat="45.533" lon="6.799">
        <ele>1988.5052490234</ele>
        <time>2014-07-24T13:41:56Z</time>
      </trkpt>
      <trkpt lat="45.533" lon="6.799">
        <ele>1988.4913330078</ele>
        <time>2014-07-24T13:42:00Z</time>
      </trkpt>
      <trkpt lat="45.533" lon="6.799">
        <ele>1988.4913330078</ele>
        <time>2014-07-24T13:42:02Z</time>
      </trkpt>
      <trkpt lat="45.533" lon="6.79901">
        <ele>1988.5163574219</ele>
        <time>2014-07-24T13:42:06Z</time>
      </trkpt>
      <trkpt lat="45.533" lon="6.79901">
        <ele>1988.5163574219</ele>
        <time>2014-07-24T13:42:08Z</time>
      </trkpt>
      <trkpt lat="45.533" lon="6.799">
        <ele>1988.4913330078</ele>
        <time>2014-07-24T13:42:14Z</time>
      </trkpt>
      <trkpt lat="45.533" lon="6.799">
        <ele>1988.3015136719</ele>
        <time>2014-07-24T13:42:16Z</time>
      </trkpt>
      <trkpt lat="45.533" lon="6.79901">
        <ele>1988.3304443359</ele>
        <time>2014-07-24T13:42:20Z</time>
      </trkpt>
      <trkpt lat="45.53299" lon="6.79901">
        <ele>1988.1412353516</ele>
        <time>2014-07-24T13:42:22Z</time>
      </trkpt>
      <trkpt lat="45.53299" lon="6.79901">
        <ele>1988.1363525391</ele>
        <time>2014-07-24T13:42:24Z</time>
      </trkpt>
      <trkpt lat="45.53299" lon="6.799">
        <ele>1988.1290283203</ele>
        <time>2014-07-24T13:42:26Z</time>
      </trkpt>
      <trkpt lat="45.53299" lon="6.79901">
        <ele>1988.1436767578</ele>
        <time>2014-07-24T13:42:28Z</time>
      </trkpt>
      <trkpt lat="45.53299" lon="6.79901">
        <ele>1987.9609375</ele>
        <time>2014-07-24T13:42:30Z</time>
      </trkpt>
      <trkpt lat="45.53299" lon="6.79901">
        <ele>1987.9632568359</ele>
        <time>2014-07-24T13:42:32Z</time>
      </trkpt>
      <trkpt lat="45.53299" lon="6.79901">
        <ele>1987.9564208984</ele>
        <time>2014-07-24T13:42:34Z</time>
      </trkpt>
      <trkpt lat="45.53298" lon="6.79901">
        <ele>1987.5856933594</ele>
        <time>2014-07-24T13:42:36Z</time>
      </trkpt>
      <trkpt lat="45.53297" lon="6.79902">
        <ele>1987.2396240234</ele>
        <time>2014-07-24T13:42:38Z</time>
      </trkpt>
      <trkpt lat="45.53295" lon="6.79904">
        <ele>1985.8718261719</ele>
        <time>2014-07-24T13:42:42Z</time>
      </trkpt>
      <trkpt lat="45.53294" lon="6.79904">
        <ele>1985.6732177734</ele>
        <time>2014-07-24T13:42:44Z</time>
      </trkpt>
      <trkpt lat="45.53294" lon="6.79905">
        <ele>1985.4691162109</ele>
        <time>2014-07-24T13:42:45Z</time>
      </trkpt>
      <trkpt lat="45.53294" lon="6.79905">
        <ele>1985.6754150391</ele>
        <time>2014-07-24T13:42:48Z</time>
      </trkpt>
      <trkpt lat="45.53294" lon="6.79905">
        <ele>1985.4692382812</ele>
        <time>2014-07-24T13:42:50Z</time>
      </trkpt>
      <trkpt lat="45.53294" lon="6.79905">
        <ele>1985.4691162109</ele>
        <time>2014-07-24T13:42:52Z</time>
      </trkpt>
      <trkpt lat="45.53294" lon="6.79905">
        <ele>1985.2635498047</ele>
        <time>2014-07-24T13:42:54Z</time>
      </trkpt>
      <trkpt lat="45.53292" lon="6.79904">
        <ele>1984.4437255859</ele>
        <time>2014-07-24T13:42:56Z</time>
      </trkpt>
      <trkpt lat="45.5329" lon="6.79905">
        <ele>1983.3950195312</ele>
        <time>2014-07-24T13:42:58Z</time>
      </trkpt>
      <trkpt lat="45.53289" lon="6.79907">
        <ele>1982.4759521484</ele>
        <time>2014-07-24T13:43:02Z</time>
      </trkpt>
      <trkpt lat="45.53287" lon="6.79908">
        <ele>1981.5817871094</ele>
        <time>2014-07-24T13:43:04Z</time>
      </trkpt>
      <trkpt lat="45.53286" lon="6.79908">
        <ele>1980.9455566406</ele>
        <time>2014-07-24T13:43:06Z</time>
      </trkpt>
      <trkpt lat="45.53286" lon="6.79908">
        <ele>1980.8891601562</ele>
        <time>2014-07-24T13:43:08Z</time>
      </trkpt>
      <trkpt lat="45.53286" lon="6.79908">
        <ele>1980.9123535156</ele>
        <time>2014-07-24T13:43:10Z</time>
      </trkpt>
      <trkpt lat="45.53286" lon="6.79907">
        <ele>1980.7436523438</ele>
        <time>2014-07-24T13:43:12Z</time>
      </trkpt>
      <trkpt lat="45.53283" lon="6.79907">
        <ele>1979.48828125</ele>
        <time>2014-07-24T13:43:14Z</time>
      </trkpt>
      <trkpt lat="45.53279" lon="6.79907">
        <ele>1977.1107177734</ele>
        <time>2014-07-24T13:43:18Z</time>
      </trkpt>
      <trkpt lat="45.53278" lon="6.79907">
        <ele>1976.4807128906</ele>
        <time>2014-07-24T13:43:20Z</time>
      </trkpt>
      <trkpt lat="45.53277" lon="6.79906">
        <ele>1976.1968994141</ele>
        <time>2014-07-24T13:43:22Z</time>
      </trkpt>
      <trkpt lat="45.53275" lon="6.79906">
        <ele>1975.1429443359</ele>
        <time>2014-07-24T13:43:24Z</time>
      </trkpt>
      <trkpt lat="45.53274" lon="6.79906">
        <ele>1974.3936767578</ele>
        <time>2014-07-24T13:43:26Z</time>
      </trkpt>
      <trkpt lat="45.53274" lon="6.79903">
        <ele>1974.7396240234</ele>
        <time>2014-07-24T13:43:28Z</time>
      </trkpt>
      <trkpt lat="45.53273" lon="6.79902">
        <ele>1974.4754638672</ele>
        <time>2014-07-24T13:43:30Z</time>
      </trkpt>
      <trkpt lat="45.53271" lon="6.79903">
        <ele>1973.439453125</ele>
        <time>2014-07-24T13:43:32Z</time>
      </trkpt>
      <trkpt lat="45.53268" lon="6.79902">
        <ele>1972.0555419922</ele>
        <time>2014-07-24T13:43:34Z</time>
      </trkpt>
      <trkpt lat="45.53266" lon="6.79898">
        <ele>1971.2774658203</ele>
        <time>2014-07-24T13:43:38Z</time>
      </trkpt>
      <trkpt lat="45.53257" lon="6.79892">
        <ele>1967.8029785156</ele>
        <time>2014-07-24T13:43:50Z</time>
      </trkpt>
      <trkpt lat="45.53257" lon="6.7989">
        <ele>1968.0400390625</ele>
        <time>2014-07-24T13:43:52Z</time>
      </trkpt>
      <trkpt lat="45.53255" lon="6.79891">
        <ele>1967.3145751953</ele>
        <time>2014-07-24T13:43:54Z</time>
      </trkpt>
      <trkpt lat="45.53254" lon="6.79891">
        <ele>1966.6629638672</ele>
        <time>2014-07-24T13:43:56Z</time>
      </trkpt>
      <trkpt lat="45.53253" lon="6.79915">
        <ele>1960.9963378906</ele>
        <time>2014-07-24T13:44:16Z</time>
      </trkpt>
      <trkpt lat="45.53251" lon="6.79918">
        <ele>1960.1551513672</ele>
        <time>2014-07-24T13:44:20Z</time>
      </trkpt>
      <trkpt lat="45.5325" lon="6.79919">
        <ele>1959.8425292969</ele>
        <time>2014-07-24T13:44:22Z</time>
      </trkpt>
      <trkpt lat="45.53244" lon="6.7993">
        <ele>1959.3021240234</ele>
        <time>2014-07-24T13:44:36Z</time>
      </trkpt>
      <trkpt lat="45.53242" lon="6.7993">
        <ele>1957.6577148438</ele>
        <time>2014-07-24T13:44:38Z</time>
      </trkpt>
      <trkpt lat="45.53241" lon="6.7993">
        <ele>1956.7581787109</ele>
        <time>2014-07-24T13:44:40Z</time>
      </trkpt>
      <trkpt lat="45.53238" lon="6.79932">
        <ele>1954.9488525391</ele>
        <time>2014-07-24T13:44:44Z</time>
      </trkpt>
      <trkpt lat="45.53235" lon="6.79932">
        <ele>1953.1533203125</ele>
        <time>2014-07-24T13:44:46Z</time>
      </trkpt>
      <trkpt lat="45.53233" lon="6.79936">
        <ele>1952.8648681641</ele>
        <time>2014-07-24T13:44:52Z</time>
      </trkpt>
      <trkpt lat="45.53231" lon="6.79937">
        <ele>1951.9516601562</ele>
        <time>2014-07-24T13:44:54Z</time>
      </trkpt>
      <trkpt lat="45.5323" lon="6.79937">
        <ele>1950.9011230469</ele>
        <time>2014-07-24T13:44:56Z</time>
      </trkpt>
      <trkpt lat="45.53227" lon="6.79939">
        <ele>1949.857421875</ele>
        <time>2014-07-24T13:45:00Z</time>
      </trkpt>
      <trkpt lat="45.53226" lon="6.79939">
        <ele>1948.7552490234</ele>
        <time>2014-07-24T13:45:02Z</time>
      </trkpt>
      <trkpt lat="45.53223" lon="6.79941">
        <ele>1947.6086425781</ele>
        <time>2014-07-24T13:45:04Z</time>
      </trkpt>
      <trkpt lat="45.53222" lon="6.79941">
        <ele>1946.4637451172</ele>
        <time>2014-07-24T13:45:06Z</time>
      </trkpt>
      <trkpt lat="45.53215" lon="6.79949">
        <ele>1945.4432373047</ele>
        <time>2014-07-24T13:45:14Z</time>
      </trkpt>
      <trkpt lat="45.53215" lon="6.79949">
        <ele>1945.3297119141</ele>
        <time>2014-07-24T13:45:16Z</time>
      </trkpt>
      <trkpt lat="45.53212" lon="6.79951">
        <ele>1944.4553222656</ele>
        <time>2014-07-24T13:45:20Z</time>
      </trkpt>
      <trkpt lat="45.5321" lon="6.79952">
        <ele>1942.9591064453</ele>
        <time>2014-07-24T13:45:22Z</time>
      </trkpt>
      <trkpt lat="45.53208" lon="6.79953">
        <ele>1942.46875</ele>
        <time>2014-07-24T13:45:24Z</time>
      </trkpt>
      <trkpt lat="45.53209" lon="6.79953">
        <ele>1942.8781738281</ele>
        <time>2014-07-24T13:45:26Z</time>
      </trkpt>
      <trkpt lat="45.53207" lon="6.79955">
        <ele>1942.7333984375</ele>
        <time>2014-07-24T13:45:28Z</time>
      </trkpt>
      <trkpt lat="45.53203" lon="6.79957">
        <ele>1940.5583496094</ele>
        <time>2014-07-24T13:45:34Z</time>
      </trkpt>
      <trkpt lat="45.53202" lon="6.79957">
        <ele>1939.9547119141</ele>
        <time>2014-07-24T13:45:36Z</time>
      </trkpt>
      <trkpt lat="45.532" lon="6.79958">
        <ele>1938.9536132812</ele>
        <time>2014-07-24T13:45:40Z</time>
      </trkpt>
      <trkpt lat="45.53198" lon="6.79958">
        <ele>1937.9951171875</ele>
        <time>2014-07-24T13:45:42Z</time>
      </trkpt>
      <trkpt lat="45.53197" lon="6.79959">
        <ele>1937.6330566406</ele>
        <time>2014-07-24T13:45:44Z</time>
      </trkpt>
      <trkpt lat="45.53196" lon="6.79959">
        <ele>1936.5582275391</ele>
        <time>2014-07-24T13:45:46Z</time>
      </trkpt>
      <trkpt lat="45.53194" lon="6.79959">
        <ele>1935.3312988281</ele>
        <time>2014-07-24T13:45:48Z</time>
      </trkpt>
      <trkpt lat="45.53192" lon="6.79959">
        <ele>1933.8381347656</ele>
        <time>2014-07-24T13:45:50Z</time>
      </trkpt>
      <trkpt lat="45.5319" lon="6.79959">
        <ele>1932.6571044922</ele>
        <time>2014-07-24T13:45:52Z</time>
      </trkpt>
      <trkpt lat="45.5318" lon="6.79967">
        <ele>1928.1268310547</ele>
        <time>2014-07-24T13:46:06Z</time>
      </trkpt>
      <trkpt lat="45.53162" lon="6.79989">
        <ele>1919.3881835938</ele>
        <time>2014-07-24T13:46:34Z</time>
      </trkpt>
      <trkpt lat="45.53155" lon="6.79989">
        <ele>1915.587890625</ele>
        <time>2014-07-24T13:46:40Z</time>
      </trkpt>
      <trkpt lat="45.53154" lon="6.79989">
        <ele>1915.1069335938</ele>
        <time>2014-07-24T13:46:42Z</time>
      </trkpt>
      <trkpt lat="45.53153" lon="6.79989">
        <ele>1914.4925537109</ele>
        <time>2014-07-24T13:46:44Z</time>
      </trkpt>
      <trkpt lat="45.53148" lon="6.79987">
        <ele>1911.0756835938</ele>
        <time>2014-07-24T13:46:50Z</time>
      </trkpt>
      <trkpt lat="45.53144" lon="6.79974">
        <ele>1906.6860351562</ele>
        <time>2014-07-24T13:47:04Z</time>
      </trkpt>
      <trkpt lat="45.53143" lon="6.79975">
        <ele>1906.1708984375</ele>
        <time>2014-07-24T13:47:06Z</time>
      </trkpt>
      <trkpt lat="45.53139" lon="6.79977">
        <ele>1903.7144775391</ele>
        <time>2014-07-24T13:47:12Z</time>
      </trkpt>
      <trkpt lat="45.53128" lon="6.79994">
        <ele>1901.6817626953</ele>
        <time>2014-07-24T13:47:32Z</time>
      </trkpt>
      <trkpt lat="45.53127" lon="6.79992">
        <ele>1900.4346923828</ele>
        <time>2014-07-24T13:47:34Z</time>
      </trkpt>
      <trkpt lat="45.53125" lon="6.79993">
        <ele>1899.8234863281</ele>
        <time>2014-07-24T13:47:36Z</time>
      </trkpt>
      <trkpt lat="45.53124" lon="6.79993">
        <ele>1899.2683105469</ele>
        <time>2014-07-24T13:47:38Z</time>
      </trkpt>
      <trkpt lat="45.5312" lon="6.80004">
        <ele>1900.4580078125</ele>
        <time>2014-07-24T13:47:52Z</time>
      </trkpt>
      <trkpt lat="45.53119" lon="6.80005">
        <ele>1900.2596435547</ele>
        <time>2014-07-24T13:47:54Z</time>
      </trkpt>
      <trkpt lat="45.53117" lon="6.80004">
        <ele>1899.1003417969</ele>
        <time>2014-07-24T13:47:56Z</time>
      </trkpt>
      <trkpt lat="45.53114" lon="6.80004">
        <ele>1898.0407714844</ele>
        <time>2014-07-24T13:48:00Z</time>
      </trkpt>
      <trkpt lat="45.53109" lon="6.80006">
        <ele>1896.6585693359</ele>
        <time>2014-07-24T13:48:08Z</time>
      </trkpt>
      <trkpt lat="45.53107" lon="6.80006">
        <ele>1896.1320800781</ele>
        <time>2014-07-24T13:48:10Z</time>
      </trkpt>
      <trkpt lat="45.53106" lon="6.80005">
        <ele>1895.4957275391</ele>
        <time>2014-07-24T13:48:12Z</time>
      </trkpt>
      <trkpt lat="45.53104" lon="6.80005">
        <ele>1894.9293212891</ele>
        <time>2014-07-24T13:48:14Z</time>
      </trkpt>
      <trkpt lat="45.53101" lon="6.80004">
        <ele>1893.8203125</ele>
        <time>2014-07-24T13:48:18Z</time>
      </trkpt>
      <trkpt lat="45.53097" lon="6.80004">
        <ele>1892.9853515625</ele>
        <time>2014-07-24T13:48:22Z</time>
      </trkpt>
      <trkpt lat="45.53094" lon="6.80005">
        <ele>1892.4586181641</ele>
        <time>2014-07-24T13:48:26Z</time>
      </trkpt>
      <trkpt lat="45.53092" lon="6.80005">
        <ele>1891.9935302734</ele>
        <time>2014-07-24T13:48:28Z</time>
      </trkpt>
      <trkpt lat="45.53091" lon="6.80004">
        <ele>1891.1591796875</ele>
        <time>2014-07-24T13:48:30Z</time>
      </trkpt>
      <trkpt lat="45.5309" lon="6.80003">
        <ele>1890.6724853516</ele>
        <time>2014-07-24T13:48:32Z</time>
      </trkpt>
      <trkpt lat="45.53088" lon="6.80003">
        <ele>1890.044921875</ele>
        <time>2014-07-24T13:48:34Z</time>
      </trkpt>
      <trkpt lat="45.53086" lon="6.80003">
        <ele>1889.5750732422</ele>
        <time>2014-07-24T13:48:36Z</time>
      </trkpt>
      <trkpt lat="45.53084" lon="6.80002">
        <ele>1888.9440917969</ele>
        <time>2014-07-24T13:48:38Z</time>
      </trkpt>
      <trkpt lat="45.53083" lon="6.8">
        <ele>1887.8463134766</ele>
        <time>2014-07-24T13:48:42Z</time>
      </trkpt>
      <trkpt lat="45.53077" lon="6.79997">
        <ele>1885.1875</ele>
        <time>2014-07-24T13:48:50Z</time>
      </trkpt>
      <trkpt lat="45.53072" lon="6.79995">
        <ele>1883.2347412109</ele>
        <time>2014-07-24T13:48:56Z</time>
      </trkpt>
      <trkpt lat="45.5307" lon="6.79995">
        <ele>1882.654296875</ele>
        <time>2014-07-24T13:48:58Z</time>
      </trkpt>
      <trkpt lat="45.53069" lon="6.79995">
        <ele>1882.341796875</ele>
        <time>2014-07-24T13:49:00Z</time>
      </trkpt>
      <trkpt lat="45.53069" lon="6.79994">
        <ele>1881.8709716797</ele>
        <time>2014-07-24T13:49:02Z</time>
      </trkpt>
      <trkpt lat="45.53067" lon="6.79992">
        <ele>1881.1309814453</ele>
        <time>2014-07-24T13:49:04Z</time>
      </trkpt>
      <trkpt lat="45.53065" lon="6.79991">
        <ele>1880.0070800781</ele>
        <time>2014-07-24T13:49:08Z</time>
      </trkpt>
      <trkpt lat="45.53062" lon="6.79986">
        <ele>1877.666015625</ele>
        <time>2014-07-24T13:49:14Z</time>
      </trkpt>
      <trkpt lat="45.53058" lon="6.79982">
        <ele>1875.4006347656</ele>
        <time>2014-07-24T13:49:20Z</time>
      </trkpt>
      <trkpt lat="45.53057" lon="6.79981">
        <ele>1874.7076416016</ele>
        <time>2014-07-24T13:49:22Z</time>
      </trkpt>
      <trkpt lat="45.53056" lon="6.79979">
        <ele>1874.1081542969</ele>
        <time>2014-07-24T13:49:24Z</time>
      </trkpt>
      <trkpt lat="45.53051" lon="6.79979">
        <ele>1873.7033691406</ele>
        <time>2014-07-24T13:49:30Z</time>
      </trkpt>
      <trkpt lat="45.5305" lon="6.7998">
        <ele>1873.7719726562</ele>
        <time>2014-07-24T13:49:32Z</time>
      </trkpt>
      <trkpt lat="45.53049" lon="6.7998">
        <ele>1873.6895751953</ele>
        <time>2014-07-24T13:49:34Z</time>
      </trkpt>
      <trkpt lat="45.53049" lon="6.79977">
        <ele>1872.8930664062</ele>
        <time>2014-07-24T13:49:36Z</time>
      </trkpt>
      <trkpt lat="45.53048" lon="6.79976">
        <ele>1872.4123535156</ele>
        <time>2014-07-24T13:49:38Z</time>
      </trkpt>
      <trkpt lat="45.53047" lon="6.79975">
        <ele>1872.1240234375</ele>
        <time>2014-07-24T13:49:40Z</time>
      </trkpt>
      <trkpt lat="45.53043" lon="6.79977">
        <ele>1872.4399414062</ele>
        <time>2014-07-24T13:49:44Z</time>
      </trkpt>
      <trkpt lat="45.5304" lon="6.79977">
        <ele>1872.1103515625</ele>
        <time>2014-07-24T13:49:48Z</time>
      </trkpt>
      <trkpt lat="45.53038" lon="6.79976">
        <ele>1871.7531738281</ele>
        <time>2014-07-24T13:49:50Z</time>
      </trkpt>
      <trkpt lat="45.53032" lon="6.79976">
        <ele>1871.2176513672</ele>
        <time>2014-07-24T13:49:56Z</time>
      </trkpt>
      <trkpt lat="45.53031" lon="6.79974">
        <ele>1870.6271972656</ele>
        <time>2014-07-24T13:49:58Z</time>
      </trkpt>
      <trkpt lat="45.53029" lon="6.79972">
        <ele>1870.0541992188</ele>
        <time>2014-07-24T13:50:00Z</time>
      </trkpt>
      <trkpt lat="45.53028" lon="6.79971">
        <ele>1869.6960449219</ele>
        <time>2014-07-24T13:50:02Z</time>
      </trkpt>
      <trkpt lat="45.53027" lon="6.7997">
        <ele>1869.2388916016</ele>
        <time>2014-07-24T13:50:04Z</time>
      </trkpt>
      <trkpt lat="45.53027" lon="6.7997">
        <ele>1868.9826660156</ele>
        <time>2014-07-24T13:50:06Z</time>
      </trkpt>
      <trkpt lat="45.53029" lon="6.79967">
        <ele>1868.357421875</ele>
        <time>2014-07-24T13:50:10Z</time>
      </trkpt>
      <trkpt lat="45.53034" lon="6.79963">
        <ele>1867.216796875</ele>
        <time>2014-07-24T13:50:18Z</time>
      </trkpt>
      <trkpt lat="45.53034" lon="6.79962">
        <ele>1866.8605957031</ele>
        <time>2014-07-24T13:50:20Z</time>
      </trkpt>
      <trkpt lat="45.53034" lon="6.79958">
        <ele>1865.5256347656</ele>
        <time>2014-07-24T13:50:24Z</time>
      </trkpt>
      <trkpt lat="45.53034" lon="6.79954">
        <ele>1864.3557128906</ele>
        <time>2014-07-24T13:50:28Z</time>
      </trkpt>
      <trkpt lat="45.53033" lon="6.79953">
        <ele>1863.7552490234</ele>
        <time>2014-07-24T13:50:30Z</time>
      </trkpt>
      <trkpt lat="45.53032" lon="6.79952">
        <ele>1863.2337646484</ele>
        <time>2014-07-24T13:50:32Z</time>
      </trkpt>
      <trkpt lat="45.5303" lon="6.79945">
        <ele>1860.5802001953</ele>
        <time>2014-07-24T13:50:44Z</time>
      </trkpt>
      <trkpt lat="45.53029" lon="6.79944">
        <ele>1859.9895019531</ele>
        <time>2014-07-24T13:50:46Z</time>
      </trkpt>
      <trkpt lat="45.53028" lon="6.79938">
        <ele>1856.8996582031</ele>
        <time>2014-07-24T13:50:52Z</time>
      </trkpt>
      <trkpt lat="45.53027" lon="6.79935">
        <ele>1855.5018310547</ele>
        <time>2014-07-24T13:50:56Z</time>
      </trkpt>
      <trkpt lat="45.53023" lon="6.79932">
        <ele>1853.7196044922</ele>
        <time>2014-07-24T13:51:02Z</time>
      </trkpt>
      <trkpt lat="45.53022" lon="6.79929">
        <ele>1852.560546875</ele>
        <time>2014-07-24T13:51:04Z</time>
      </trkpt>
      <trkpt lat="45.53023" lon="6.79928">
        <ele>1851.7669677734</ele>
        <time>2014-07-24T13:51:06Z</time>
      </trkpt>
      <trkpt lat="45.53022" lon="6.79924">
        <ele>1849.9907226562</ele>
        <time>2014-07-24T13:51:12Z</time>
      </trkpt>
      <trkpt lat="45.5302" lon="6.79922">
        <ele>1849.0102539062</ele>
        <time>2014-07-24T13:51:16Z</time>
      </trkpt>
      <trkpt lat="45.5302" lon="6.7992">
        <ele>1848.0700683594</ele>
        <time>2014-07-24T13:51:18Z</time>
      </trkpt>
      <trkpt lat="45.53019" lon="6.79917">
        <ele>1847.015625</ele>
        <time>2014-07-24T13:51:20Z</time>
      </trkpt>
      <trkpt lat="45.53017" lon="6.79914">
        <ele>1845.6600341797</ele>
        <time>2014-07-24T13:51:24Z</time>
      </trkpt>
      <trkpt lat="45.53017" lon="6.79911">
        <ele>1844.2900390625</ele>
        <time>2014-07-24T13:51:28Z</time>
      </trkpt>
      <trkpt lat="45.53016" lon="6.7991">
        <ele>1843.7034912109</ele>
        <time>2014-07-24T13:51:30Z</time>
      </trkpt>
      <trkpt lat="45.53016" lon="6.79908">
        <ele>1842.9504394531</ele>
        <time>2014-07-24T13:51:32Z</time>
      </trkpt>
      <trkpt lat="45.53019" lon="6.79902">
        <ele>1840.4594726562</ele>
        <time>2014-07-24T13:51:42Z</time>
      </trkpt>
      <trkpt lat="45.53019" lon="6.79901">
        <ele>1840.1008300781</ele>
        <time>2014-07-24T13:51:44Z</time>
      </trkpt>
      <trkpt lat="45.53018" lon="6.79898">
        <ele>1838.9692382812</ele>
        <time>2014-07-24T13:51:48Z</time>
      </trkpt>
      <trkpt lat="45.53018" lon="6.79895">
        <ele>1837.7049560547</ele>
        <time>2014-07-24T13:51:52Z</time>
      </trkpt>
      <trkpt lat="45.53019" lon="6.79895">
        <ele>1837.3793945312</ele>
        <time>2014-07-24T13:51:54Z</time>
      </trkpt>
      <trkpt lat="45.53018" lon="6.79894">
        <ele>1837.0227050781</ele>
        <time>2014-07-24T13:51:56Z</time>
      </trkpt>
      <trkpt lat="45.53018" lon="6.79893">
        <ele>1836.5209960938</ele>
        <time>2014-07-24T13:51:58Z</time>
      </trkpt>
      <trkpt lat="45.53017" lon="6.79891">
        <ele>1835.9436035156</ele>
        <time>2014-07-24T13:52:00Z</time>
      </trkpt>
      <trkpt lat="45.53015" lon="6.79886">
        <ele>1833.26953125</ele>
        <time>2014-07-24T13:52:06Z</time>
      </trkpt>
      <trkpt lat="45.53016" lon="6.79883">
        <ele>1832.2713623047</ele>
        <time>2014-07-24T13:52:08Z</time>
      </trkpt>
      <trkpt lat="45.53014" lon="6.79877">
        <ele>1829.4428710938</ele>
        <time>2014-07-24T13:52:14Z</time>
      </trkpt>
      <trkpt lat="45.53012" lon="6.79876">
        <ele>1829.0037841797</ele>
        <time>2014-07-24T13:52:16Z</time>
      </trkpt>
      <trkpt lat="45.53011" lon="6.79875">
        <ele>1828.3039550781</ele>
        <time>2014-07-24T13:52:18Z</time>
      </trkpt>
      <trkpt lat="45.53011" lon="6.79874">
        <ele>1827.9569091797</ele>
        <time>2014-07-24T13:52:20Z</time>
      </trkpt>
      <trkpt lat="45.53011" lon="6.79872">
        <ele>1827.0307617188</ele>
        <time>2014-07-24T13:52:22Z</time>
      </trkpt>
      <trkpt lat="45.53009" lon="6.7987">
        <ele>1826.2413330078</ele>
        <time>2014-07-24T13:52:24Z</time>
      </trkpt>
      <trkpt lat="45.53009" lon="6.79869">
        <ele>1825.4895019531</ele>
        <time>2014-07-24T13:52:26Z</time>
      </trkpt>
      <trkpt lat="45.53008" lon="6.79869">
        <ele>1825.3250732422</ele>
        <time>2014-07-24T13:52:28Z</time>
      </trkpt>
      <trkpt lat="45.53007" lon="6.79868">
        <ele>1824.8999023438</ele>
        <time>2014-07-24T13:52:30Z</time>
      </trkpt>
      <trkpt lat="45.53005" lon="6.79865">
        <ele>1823.5988769531</ele>
        <time>2014-07-24T13:52:34Z</time>
      </trkpt>
      <trkpt lat="45.53004" lon="6.79865">
        <ele>1823.0539550781</ele>
        <time>2014-07-24T13:52:36Z</time>
      </trkpt>
      <trkpt lat="45.53001" lon="6.79864">
        <ele>1822.3200683594</ele>
        <time>2014-07-24T13:52:40Z</time>
      </trkpt>
      <trkpt lat="45.53" lon="6.79857">
        <ele>1818.6182861328</ele>
        <time>2014-07-24T13:52:48Z</time>
      </trkpt>
      <trkpt lat="45.52999" lon="6.79855">
        <ele>1817.8109130859</ele>
        <time>2014-07-24T13:52:50Z</time>
      </trkpt>
      <trkpt lat="45.52998" lon="6.79855">
        <ele>1817.2175292969</ele>
        <time>2014-07-24T13:52:52Z</time>
      </trkpt>
      <trkpt lat="45.52997" lon="6.79854">
        <ele>1816.4724121094</ele>
        <time>2014-07-24T13:52:54Z</time>
      </trkpt>
      <trkpt lat="45.5299" lon="6.79852">
        <ele>1814.6589355469</ele>
        <time>2014-07-24T13:53:02Z</time>
      </trkpt>
      <trkpt lat="45.52989" lon="6.79851">
        <ele>1814.0582275391</ele>
        <time>2014-07-24T13:53:04Z</time>
      </trkpt>
      <trkpt lat="45.52985" lon="6.79847">
        <ele>1811.1954345703</ele>
        <time>2014-07-24T13:53:10Z</time>
      </trkpt>
      <trkpt lat="45.52984" lon="6.79847">
        <ele>1810.8498535156</ele>
        <time>2014-07-24T13:53:12Z</time>
      </trkpt>
      <trkpt lat="45.52983" lon="6.79846">
        <ele>1810.2086181641</ele>
        <time>2014-07-24T13:53:14Z</time>
      </trkpt>
      <trkpt lat="45.52982" lon="6.79846">
        <ele>1809.6099853516</ele>
        <time>2014-07-24T13:53:16Z</time>
      </trkpt>
      <trkpt lat="45.5298" lon="6.79845">
        <ele>1808.8830566406</ele>
        <time>2014-07-24T13:53:18Z</time>
      </trkpt>
      <trkpt lat="45.5298" lon="6.79844">
        <ele>1808.4152832031</ele>
        <time>2014-07-24T13:53:20Z</time>
      </trkpt>
      <trkpt lat="45.52978" lon="6.79843">
        <ele>1807.6103515625</ele>
        <time>2014-07-24T13:53:22Z</time>
      </trkpt>
      <trkpt lat="45.52977" lon="6.79842">
        <ele>1806.7395019531</ele>
        <time>2014-07-24T13:53:24Z</time>
      </trkpt>
      <trkpt lat="45.52975" lon="6.79841">
        <ele>1806.0798339844</ele>
        <time>2014-07-24T13:53:26Z</time>
      </trkpt>
      <trkpt lat="45.52973" lon="6.79839">
        <ele>1804.2315673828</ele>
        <time>2014-07-24T13:53:30Z</time>
      </trkpt>
      <trkpt lat="45.52974" lon="6.79837">
        <ele>1803.3117675781</ele>
        <time>2014-07-24T13:53:32Z</time>
      </trkpt>
      <trkpt lat="45.52973" lon="6.79836">
        <ele>1802.5050048828</ele>
        <time>2014-07-24T13:53:34Z</time>
      </trkpt>
      <trkpt lat="45.52972" lon="6.79834">
        <ele>1801.6561279297</ele>
        <time>2014-07-24T13:53:36Z</time>
      </trkpt>
      <trkpt lat="45.52972" lon="6.79833">
        <ele>1800.8323974609</ele>
        <time>2014-07-24T13:53:38Z</time>
      </trkpt>
      <trkpt lat="45.52971" lon="6.79832">
        <ele>1800.25390625</ele>
        <time>2014-07-24T13:53:40Z</time>
      </trkpt>
      <trkpt lat="45.52969" lon="6.7983">
        <ele>1798.3157958984</ele>
        <time>2014-07-24T13:53:44Z</time>
      </trkpt>
      <trkpt lat="45.52967" lon="6.79824">
        <ele>1795.2687988281</ele>
        <time>2014-07-24T13:53:50Z</time>
      </trkpt>
      <trkpt lat="45.52966" lon="6.79823">
        <ele>1794.3332519531</ele>
        <time>2014-07-24T13:53:52Z</time>
      </trkpt>
      <trkpt lat="45.5296" lon="6.79822">
        <ele>1792.5634765625</ele>
        <time>2014-07-24T13:53:58Z</time>
      </trkpt>
      <trkpt lat="45.52957" lon="6.79818">
        <ele>1790.0915527344</ele>
        <time>2014-07-24T13:54:02Z</time>
      </trkpt>
      <trkpt lat="45.52956" lon="6.79818">
        <ele>1789.6469726562</ele>
        <time>2014-07-24T13:54:04Z</time>
      </trkpt>
      <trkpt lat="45.52954" lon="6.79817">
        <ele>1789.0908203125</ele>
        <time>2014-07-24T13:54:06Z</time>
      </trkpt>
      <trkpt lat="45.52953" lon="6.79817">
        <ele>1788.7062988281</ele>
        <time>2014-07-24T13:54:08Z</time>
      </trkpt>
      <trkpt lat="45.52952" lon="6.79818">
        <ele>1788.7817382812</ele>
        <time>2014-07-24T13:54:10Z</time>
      </trkpt>
      <trkpt lat="45.52951" lon="6.79817">
        <ele>1787.9869384766</ele>
        <time>2014-07-24T13:54:12Z</time>
      </trkpt>
      <trkpt lat="45.5295" lon="6.79816">
        <ele>1787.1337890625</ele>
        <time>2014-07-24T13:54:14Z</time>
      </trkpt>
      <trkpt lat="45.52946" lon="6.79814">
        <ele>1785.4138183594</ele>
        <time>2014-07-24T13:54:20Z</time>
      </trkpt>
      <trkpt lat="45.52945" lon="6.79813">
        <ele>1784.4112548828</ele>
        <time>2014-07-24T13:54:22Z</time>
      </trkpt>
      <trkpt lat="45.52943" lon="6.79812">
        <ele>1784.0758056641</ele>
        <time>2014-07-24T13:54:26Z</time>
      </trkpt>
      <trkpt lat="45.52942" lon="6.79813">
        <ele>1784.0974121094</ele>
        <time>2014-07-24T13:54:28Z</time>
      </trkpt>
      <trkpt lat="45.5294" lon="6.79815">
        <ele>1784.8410644531</ele>
        <time>2014-07-24T13:54:32Z</time>
      </trkpt>
      <trkpt lat="45.52939" lon="6.79812">
        <ele>1783.5855712891</ele>
        <time>2014-07-24T13:54:36Z</time>
      </trkpt>
      <trkpt lat="45.52939" lon="6.79812">
        <ele>1783.4750976562</ele>
        <time>2014-07-24T13:54:38Z</time>
      </trkpt>
      <trkpt lat="45.52938" lon="6.7981">
        <ele>1782.4215087891</ele>
        <time>2014-07-24T13:54:42Z</time>
      </trkpt>
      <trkpt lat="45.52938" lon="6.7981">
        <ele>1782.2247314453</ele>
        <time>2014-07-24T13:54:44Z</time>
      </trkpt>
      <trkpt lat="45.52937" lon="6.79808">
        <ele>1781.5043945312</ele>
        <time>2014-07-24T13:54:46Z</time>
      </trkpt>
      <trkpt lat="45.52937" lon="6.79807">
        <ele>1780.9125976562</ele>
        <time>2014-07-24T13:54:48Z</time>
      </trkpt>
      <trkpt lat="45.52938" lon="6.79806">
        <ele>1780.7115478516</ele>
        <time>2014-07-24T13:54:50Z</time>
      </trkpt>
      <trkpt lat="45.52938" lon="6.79804">
        <ele>1779.5335693359</ele>
        <time>2014-07-24T13:54:54Z</time>
      </trkpt>
      <trkpt lat="45.52939" lon="6.79802">
        <ele>1778.8973388672</ele>
        <time>2014-07-24T13:54:56Z</time>
      </trkpt>
      <trkpt lat="45.52938" lon="6.79791">
        <ele>1774.3172607422</ele>
        <time>2014-07-24T13:55:08Z</time>
      </trkpt>
      <trkpt lat="45.52938" lon="6.79791">
        <ele>1774.0645751953</ele>
        <time>2014-07-24T13:55:10Z</time>
      </trkpt>
      <trkpt lat="45.52938" lon="6.7979">
        <ele>1773.9239501953</ele>
        <time>2014-07-24T13:55:12Z</time>
      </trkpt>
      <trkpt lat="45.52939" lon="6.79787">
        <ele>1772.9407958984</ele>
        <time>2014-07-24T13:55:16Z</time>
      </trkpt>
      <trkpt lat="45.52939" lon="6.79786">
        <ele>1772.5296630859</ele>
        <time>2014-07-24T13:55:18Z</time>
      </trkpt>
      <trkpt lat="45.5294" lon="6.79784">
        <ele>1771.9947509766</ele>
        <time>2014-07-24T13:55:20Z</time>
      </trkpt>
      <trkpt lat="45.52941" lon="6.79783">
        <ele>1771.3605957031</ele>
        <time>2014-07-24T13:55:22Z</time>
      </trkpt>
      <trkpt lat="45.5294" lon="6.79782">
        <ele>1770.9356689453</ele>
        <time>2014-07-24T13:55:24Z</time>
      </trkpt>
      <trkpt lat="45.52939" lon="6.79781">
        <ele>1770.3831787109</ele>
        <time>2014-07-24T13:55:26Z</time>
      </trkpt>
      <trkpt lat="45.5294" lon="6.79779">
        <ele>1769.5720214844</ele>
        <time>2014-07-24T13:55:28Z</time>
      </trkpt>
      <trkpt lat="45.52939" lon="6.79778">
        <ele>1769.1627197266</ele>
        <time>2014-07-24T13:55:30Z</time>
      </trkpt>
      <trkpt lat="45.52939" lon="6.7977">
        <ele>1765.7053222656</ele>
        <time>2014-07-24T13:55:38Z</time>
      </trkpt>
      <trkpt lat="45.52938" lon="6.79769">
        <ele>1765.1917724609</ele>
        <time>2014-07-24T13:55:40Z</time>
      </trkpt>
      <trkpt lat="45.52937" lon="6.79768">
        <ele>1764.3977050781</ele>
        <time>2014-07-24T13:55:42Z</time>
      </trkpt>
      <trkpt lat="45.52935" lon="6.79769">
        <ele>1764.5922851562</ele>
        <time>2014-07-24T13:55:44Z</time>
      </trkpt>
      <trkpt lat="45.52932" lon="6.79766">
        <ele>1762.9915771484</ele>
        <time>2014-07-24T13:55:50Z</time>
      </trkpt>
      <trkpt lat="45.52932" lon="6.79765">
        <ele>1762.5157470703</ele>
        <time>2014-07-24T13:55:52Z</time>
      </trkpt>
      <trkpt lat="45.52929" lon="6.79766">
        <ele>1762.3697509766</ele>
        <time>2014-07-24T13:55:54Z</time>
      </trkpt>
      <trkpt lat="45.52926" lon="6.79766">
        <ele>1761.6529541016</ele>
        <time>2014-07-24T13:55:58Z</time>
      </trkpt>
      <trkpt lat="45.52925" lon="6.79762">
        <ele>1760.0361328125</ele>
        <time>2014-07-24T13:56:02Z</time>
      </trkpt>
      <trkpt lat="45.52925" lon="6.79761">
        <ele>1759.4494628906</ele>
        <time>2014-07-24T13:56:04Z</time>
      </trkpt>
      <trkpt lat="45.52924" lon="6.79759">
        <ele>1758.7312011719</ele>
        <time>2014-07-24T13:56:06Z</time>
      </trkpt>
      <trkpt lat="45.52919" lon="6.79759">
        <ele>1758.1502685547</ele>
        <time>2014-07-24T13:56:10Z</time>
      </trkpt>
      <trkpt lat="45.52914" lon="6.79761">
        <ele>1757.9643554688</ele>
        <time>2014-07-24T13:56:16Z</time>
      </trkpt>
      <trkpt lat="45.52913" lon="6.79761">
        <ele>1757.8134765625</ele>
        <time>2014-07-24T13:56:18Z</time>
      </trkpt>
      <trkpt lat="45.52912" lon="6.79761">
        <ele>1757.5440673828</ele>
        <time>2014-07-24T13:56:20Z</time>
      </trkpt>
      <trkpt lat="45.52911" lon="6.79761">
        <ele>1757.2857666016</ele>
        <time>2014-07-24T13:56:22Z</time>
      </trkpt>
      <trkpt lat="45.52909" lon="6.7976">
        <ele>1756.5955810547</ele>
        <time>2014-07-24T13:56:24Z</time>
      </trkpt>
      <trkpt lat="45.52909" lon="6.79756">
        <ele>1755.0347900391</ele>
        <time>2014-07-24T13:56:28Z</time>
      </trkpt>
      <trkpt lat="45.52907" lon="6.79757">
        <ele>1754.9498291016</ele>
        <time>2014-07-24T13:56:30Z</time>
      </trkpt>
      <trkpt lat="45.52906" lon="6.79757">
        <ele>1754.8055419922</ele>
        <time>2014-07-24T13:56:32Z</time>
      </trkpt>
      <trkpt lat="45.52906" lon="6.79757">
        <ele>1754.7224121094</ele>
        <time>2014-07-24T13:56:34Z</time>
      </trkpt>
      <trkpt lat="45.52907" lon="6.79757">
        <ele>1754.7120361328</ele>
        <time>2014-07-24T13:56:36Z</time>
      </trkpt>
      <trkpt lat="45.52906" lon="6.79756">
        <ele>1754.5770263672</ele>
        <time>2014-07-24T13:56:38Z</time>
      </trkpt>
      <trkpt lat="45.52906" lon="6.79757">
        <ele>1754.6392822266</ele>
        <time>2014-07-24T13:56:40Z</time>
      </trkpt>
      <trkpt lat="45.52907" lon="6.79757">
        <ele>1754.7534179688</ele>
        <time>2014-07-24T13:56:42Z</time>
      </trkpt>
      <trkpt lat="45.52907" lon="6.79757">
        <ele>1754.9085693359</ele>
        <time>2014-07-24T13:56:44Z</time>
      </trkpt>
      <trkpt lat="45.52908" lon="6.79757">
        <ele>1754.9602050781</ele>
        <time>2014-07-24T13:56:46Z</time>
      </trkpt>
      <trkpt lat="45.52908" lon="6.79757">
        <ele>1754.8779296875</ele>
        <time>2014-07-24T13:56:48Z</time>
      </trkpt>
      <trkpt lat="45.52908" lon="6.79756">
        <ele>1754.8480224609</ele>
        <time>2014-07-24T13:56:50Z</time>
      </trkpt>
      <trkpt lat="45.52908" lon="6.79757">
        <ele>1754.9300537109</ele>
        <time>2014-07-24T13:56:52Z</time>
      </trkpt>
      <trkpt lat="45.52908" lon="6.79757">
        <ele>1755.1048583984</ele>
        <time>2014-07-24T13:56:54Z</time>
      </trkpt>
      <trkpt lat="45.52909" lon="6.79748">
        <ele>1751.5838623047</ele>
        <time>2014-07-24T13:57:06Z</time>
      </trkpt>
      <trkpt lat="45.52909" lon="6.79744">
        <ele>1750.1076660156</ele>
        <time>2014-07-24T13:57:10Z</time>
      </trkpt>
      <trkpt lat="45.52906" lon="6.79744">
        <ele>1749.6531982422</ele>
        <time>2014-07-24T13:57:12Z</time>
      </trkpt>
      <trkpt lat="45.52905" lon="6.79743">
        <ele>1748.9107666016</ele>
        <time>2014-07-24T13:57:14Z</time>
      </trkpt>
      <trkpt lat="45.52901" lon="6.79743">
        <ele>1747.6785888672</ele>
        <time>2014-07-24T13:57:18Z</time>
      </trkpt>
      <trkpt lat="45.52899" lon="6.79743">
        <ele>1747.2687988281</ele>
        <time>2014-07-24T13:57:20Z</time>
      </trkpt>
      <trkpt lat="45.52898" lon="6.79742">
        <ele>1746.6235351562</ele>
        <time>2014-07-24T13:57:22Z</time>
      </trkpt>
      <trkpt lat="45.52895" lon="6.79741">
        <ele>1745.4893798828</ele>
        <time>2014-07-24T13:57:26Z</time>
      </trkpt>
      <trkpt lat="45.52893" lon="6.79741">
        <ele>1745.0411376953</ele>
        <time>2014-07-24T13:57:28Z</time>
      </trkpt>
      <trkpt lat="45.52891" lon="6.7974">
        <ele>1744.3200683594</ele>
        <time>2014-07-24T13:57:30Z</time>
      </trkpt>
      <trkpt lat="45.52889" lon="6.79738">
        <ele>1742.9249267578</ele>
        <time>2014-07-24T13:57:34Z</time>
      </trkpt>
      <trkpt lat="45.52888" lon="6.79737">
        <ele>1742.3012695312</ele>
        <time>2014-07-24T13:57:36Z</time>
      </trkpt>
      <trkpt lat="45.52888" lon="6.79736">
        <ele>1741.4909667969</ele>
        <time>2014-07-24T13:57:38Z</time>
      </trkpt>
      <trkpt lat="45.52886" lon="6.79736">
        <ele>1741.11328125</ele>
        <time>2014-07-24T13:57:40Z</time>
      </trkpt>
      <trkpt lat="45.52883" lon="6.79737">
        <ele>1740.7014160156</ele>
        <time>2014-07-24T13:57:42Z</time>
      </trkpt>
      <trkpt lat="45.52877" lon="6.79738">
        <ele>1739.3486328125</ele>
        <time>2014-07-24T13:57:46Z</time>
      </trkpt>
      <trkpt lat="45.52876" lon="6.79737">
        <ele>1738.5795898438</ele>
        <time>2014-07-24T13:57:48Z</time>
      </trkpt>
      <trkpt lat="45.52876" lon="6.79736">
        <ele>1738.1196289062</ele>
        <time>2014-07-24T13:57:50Z</time>
      </trkpt>
      <trkpt lat="45.52875" lon="6.79735">
        <ele>1737.6320800781</ele>
        <time>2014-07-24T13:57:52Z</time>
      </trkpt>
      <trkpt lat="45.52874" lon="6.79734">
        <ele>1737.0689697266</ele>
        <time>2014-07-24T13:57:54Z</time>
      </trkpt>
      <trkpt lat="45.52873" lon="6.79734">
        <ele>1736.7393798828</ele>
        <time>2014-07-24T13:57:56Z</time>
      </trkpt>
      <trkpt lat="45.52872" lon="6.79733">
        <ele>1735.9841308594</ele>
        <time>2014-07-24T13:57:58Z</time>
      </trkpt>
      <trkpt lat="45.52872" lon="6.79731">
        <ele>1735.1188964844</ele>
        <time>2014-07-24T13:58:00Z</time>
      </trkpt>
      <trkpt lat="45.52872" lon="6.7973">
        <ele>1734.6589355469</ele>
        <time>2014-07-24T13:58:02Z</time>
      </trkpt>
      <trkpt lat="45.52872" lon="6.79726">
        <ele>1732.8666992188</ele>
        <time>2014-07-24T13:58:08Z</time>
      </trkpt>
      <trkpt lat="45.5287" lon="6.79724">
        <ele>1731.0952148438</ele>
        <time>2014-07-24T13:58:12Z</time>
      </trkpt>
      <trkpt lat="45.52867" lon="6.79721">
        <ele>1729.1082763672</ele>
        <time>2014-07-24T13:58:18Z</time>
      </trkpt>
      <trkpt lat="45.52865" lon="6.79717">
        <ele>1727.0023193359</ele>
        <time>2014-07-24T13:58:24Z</time>
      </trkpt>
      <trkpt lat="45.52864" lon="6.79717">
        <ele>1726.2939453125</ele>
        <time>2014-07-24T13:58:26Z</time>
      </trkpt>
      <trkpt lat="45.52859" lon="6.79712">
        <ele>1722.7312011719</ele>
        <time>2014-07-24T13:58:34Z</time>
      </trkpt>
      <trkpt lat="45.52859" lon="6.7971">
        <ele>1721.4390869141</ele>
        <time>2014-07-24T13:58:36Z</time>
      </trkpt>
      <trkpt lat="45.52858" lon="6.79709">
        <ele>1720.7819824219</ele>
        <time>2014-07-24T13:58:38Z</time>
      </trkpt>
      <trkpt lat="45.52856" lon="6.79709">
        <ele>1720.1710205078</ele>
        <time>2014-07-24T13:58:40Z</time>
      </trkpt>
      <trkpt lat="45.52855" lon="6.79708">
        <ele>1719.2708740234</ele>
        <time>2014-07-24T13:58:42Z</time>
      </trkpt>
      <trkpt lat="45.52853" lon="6.79706">
        <ele>1718.267578125</ele>
        <time>2014-07-24T13:58:44Z</time>
      </trkpt>
      <trkpt lat="45.52852" lon="6.79705">
        <ele>1717.5603027344</ele>
        <time>2014-07-24T13:58:46Z</time>
      </trkpt>
      <trkpt lat="45.5285" lon="6.79704">
        <ele>1716.3944091797</ele>
        <time>2014-07-24T13:58:50Z</time>
      </trkpt>
      <trkpt lat="45.52845" lon="6.79705">
        <ele>1715.7150878906</ele>
        <time>2014-07-24T13:58:54Z</time>
      </trkpt>
      <trkpt lat="45.52844" lon="6.79705">
        <ele>1715.4858398438</ele>
        <time>2014-07-24T13:58:56Z</time>
      </trkpt>
      <trkpt lat="45.52843" lon="6.79705">
        <ele>1715.0096435547</ele>
        <time>2014-07-24T13:58:58Z</time>
      </trkpt>
      <trkpt lat="45.5284" lon="6.79704">
        <ele>1714.1081542969</ele>
        <time>2014-07-24T13:59:02Z</time>
      </trkpt>
      <trkpt lat="45.5284" lon="6.79702">
        <ele>1713.4852294922</ele>
        <time>2014-07-24T13:59:04Z</time>
      </trkpt>
      <trkpt lat="45.52833" lon="6.79703">
        <ele>1712.1229248047</ele>
        <time>2014-07-24T13:59:08Z</time>
      </trkpt>
      <trkpt lat="45.52832" lon="6.79707">
        <ele>1712.5576171875</ele>
        <time>2014-07-24T13:59:10Z</time>
      </trkpt>
      <trkpt lat="45.52831" lon="6.79708">
        <ele>1712.2927246094</ele>
        <time>2014-07-24T13:59:12Z</time>
      </trkpt>
      <trkpt lat="45.52827" lon="6.7971">
        <ele>1711.4339599609</ele>
        <time>2014-07-24T13:59:16Z</time>
      </trkpt>
      <trkpt lat="45.52825" lon="6.79709">
        <ele>1710.2199707031</ele>
        <time>2014-07-24T13:59:20Z</time>
      </trkpt>
      <trkpt lat="45.52823" lon="6.79702">
        <ele>1707.4554443359</ele>
        <time>2014-07-24T13:59:28Z</time>
      </trkpt>
      <trkpt lat="45.52822" lon="6.79702">
        <ele>1706.828125</ele>
        <time>2014-07-24T13:59:30Z</time>
      </trkpt>
      <trkpt lat="45.5282" lon="6.79705">
        <ele>1706.833984375</ele>
        <time>2014-07-24T13:59:34Z</time>
      </trkpt>
      <trkpt lat="45.52818" lon="6.79701">
        <ele>1705.1156005859</ele>
        <time>2014-07-24T13:59:36Z</time>
      </trkpt>
      <trkpt lat="45.52819" lon="6.79679">
        <ele>1696.7501220703</ele>
        <time>2014-07-24T13:59:54Z</time>
      </trkpt>
      <trkpt lat="45.52819" lon="6.79679">
        <ele>1696.7818603516</ele>
        <time>2014-07-24T13:59:56Z</time>
      </trkpt>
      <trkpt lat="45.52819" lon="6.79679">
        <ele>1696.66796875</ele>
        <time>2014-07-24T13:59:58Z</time>
      </trkpt>
      <trkpt lat="45.5282" lon="6.79678">
        <ele>1696.7373046875</ele>
        <time>2014-07-24T14:00:00Z</time>
      </trkpt>
      <trkpt lat="45.52821" lon="6.79679">
        <ele>1697.3150634766</ele>
        <time>2014-07-24T14:00:02Z</time>
      </trkpt>
      <trkpt lat="45.52821" lon="6.79678">
        <ele>1696.7264404297</ele>
        <time>2014-07-24T14:00:06Z</time>
      </trkpt>
      <trkpt lat="45.52819" lon="6.79681">
        <ele>1697.4569091797</ele>
        <time>2014-07-24T14:00:11Z</time>
      </trkpt>
      <trkpt lat="45.52818" lon="6.79681">
        <ele>1697.2432861328</ele>
        <time>2014-07-24T14:00:16Z</time>
      </trkpt>
      <trkpt lat="45.52817" lon="6.79681">
        <ele>1696.8447265625</ele>
        <time>2014-07-24T14:00:18Z</time>
      </trkpt>
      <trkpt lat="45.52815" lon="6.7968">
        <ele>1695.9437255859</ele>
        <time>2014-07-24T14:00:20Z</time>
      </trkpt>
      <trkpt lat="45.52814" lon="6.79681">
        <ele>1695.5699462891</ele>
        <time>2014-07-24T14:00:22Z</time>
      </trkpt>
      <trkpt lat="45.52813" lon="6.7968">
        <ele>1694.7862548828</ele>
        <time>2014-07-24T14:00:24Z</time>
      </trkpt>
      <trkpt lat="45.52811" lon="6.7968">
        <ele>1694.2094726562</ele>
        <time>2014-07-24T14:00:26Z</time>
      </trkpt>
      <trkpt lat="45.52811" lon="6.7968">
        <ele>1694.2651367188</ele>
        <time>2014-07-24T14:00:28Z</time>
      </trkpt>
      <trkpt lat="45.5281" lon="6.7968">
        <ele>1693.7873535156</ele>
        <time>2014-07-24T14:00:30Z</time>
      </trkpt>
      <trkpt lat="45.52807" lon="6.79681">
        <ele>1693.2006835938</ele>
        <time>2014-07-24T14:00:34Z</time>
      </trkpt>
      <trkpt lat="45.52806" lon="6.79681">
        <ele>1692.8123779297</ele>
        <time>2014-07-24T14:00:36Z</time>
      </trkpt>
      <trkpt lat="45.52806" lon="6.7968">
        <ele>1692.6558837891</ele>
        <time>2014-07-24T14:00:38Z</time>
      </trkpt>
      <trkpt lat="45.52805" lon="6.79679">
        <ele>1691.8409423828</ele>
        <time>2014-07-24T14:00:42Z</time>
      </trkpt>
      <trkpt lat="45.52804" lon="6.79678">
        <ele>1691.2126464844</ele>
        <time>2014-07-24T14:00:44Z</time>
      </trkpt>
      <trkpt lat="45.52803" lon="6.79678">
        <ele>1691.0307617188</ele>
        <time>2014-07-24T14:00:46Z</time>
      </trkpt>
      <trkpt lat="45.52801" lon="6.7968">
        <ele>1690.8402099609</ele>
        <time>2014-07-24T14:00:50Z</time>
      </trkpt>
      <trkpt lat="45.52801" lon="6.79682">
        <ele>1691.1353759766</ele>
        <time>2014-07-24T14:00:52Z</time>
      </trkpt>
      <trkpt lat="45.528" lon="6.79681">
        <ele>1690.64453125</ele>
        <time>2014-07-24T14:00:54Z</time>
      </trkpt>
      <trkpt lat="45.528" lon="6.7968">
        <ele>1690.1208496094</ele>
        <time>2014-07-24T14:00:56Z</time>
      </trkpt>
      <trkpt lat="45.52798" lon="6.79679">
        <ele>1689.1853027344</ele>
        <time>2014-07-24T14:00:58Z</time>
      </trkpt>
      <trkpt lat="45.52797" lon="6.79677">
        <ele>1688.248046875</ele>
        <time>2014-07-24T14:01:00Z</time>
      </trkpt>
      <trkpt lat="45.52797" lon="6.79676">
        <ele>1687.6318359375</ele>
        <time>2014-07-24T14:01:02Z</time>
      </trkpt>
      <trkpt lat="45.52793" lon="6.79675">
        <ele>1686.2877197266</ele>
        <time>2014-07-24T14:01:06Z</time>
      </trkpt>
      <trkpt lat="45.52794" lon="6.7966">
        <ele>1681.7025146484</ele>
        <time>2014-07-24T14:01:22Z</time>
      </trkpt>
      <trkpt lat="45.52794" lon="6.7966">
        <ele>1681.2905273438</ele>
        <time>2014-07-24T14:01:24Z</time>
      </trkpt>
      <trkpt lat="45.52793" lon="6.79659">
        <ele>1680.7412109375</ele>
        <time>2014-07-24T14:01:26Z</time>
      </trkpt>
      <trkpt lat="45.52792" lon="6.79658">
        <ele>1680.1231689453</ele>
        <time>2014-07-24T14:01:28Z</time>
      </trkpt>
      <trkpt lat="45.5279" lon="6.79658">
        <ele>1679.1790771484</ele>
        <time>2014-07-24T14:01:32Z</time>
      </trkpt>
      <trkpt lat="45.52788" lon="6.79659">
        <ele>1678.8701171875</ele>
        <time>2014-07-24T14:01:34Z</time>
      </trkpt>
      <trkpt lat="45.52787" lon="6.79659">
        <ele>1678.5610351562</ele>
        <time>2014-07-24T14:01:36Z</time>
      </trkpt>
      <trkpt lat="45.52787" lon="6.79658">
        <ele>1678.0461425781</ele>
        <time>2014-07-24T14:01:38Z</time>
      </trkpt>
      <trkpt lat="45.52785" lon="6.79658">
        <ele>1677.6169433594</ele>
        <time>2014-07-24T14:01:40Z</time>
      </trkpt>
      <trkpt lat="45.52785" lon="6.79658">
        <ele>1677.2564697266</ele>
        <time>2014-07-24T14:01:42Z</time>
      </trkpt>
      <trkpt lat="45.52785" lon="6.79655">
        <ele>1676.4324951172</ele>
        <time>2014-07-24T14:01:46Z</time>
      </trkpt>
      <trkpt lat="45.52784" lon="6.79656">
        <ele>1676.3466796875</ele>
        <time>2014-07-24T14:01:48Z</time>
      </trkpt>
      <trkpt lat="45.52784" lon="6.79656">
        <ele>1676.1235351562</ele>
        <time>2014-07-24T14:01:50Z</time>
      </trkpt>
      <trkpt lat="45.52782" lon="6.79656">
        <ele>1675.57421875</ele>
        <time>2014-07-24T14:01:52Z</time>
      </trkpt>
      <trkpt lat="45.52776" lon="6.79662">
        <ele>1675.4287109375</ele>
        <time>2014-07-24T14:01:58Z</time>
      </trkpt>
      <trkpt lat="45.52774" lon="6.7966">
        <ele>1674.4151611328</ele>
        <time>2014-07-24T14:02:00Z</time>
      </trkpt>
      <trkpt lat="45.52773" lon="6.7966">
        <ele>1673.8693847656</ele>
        <time>2014-07-24T14:02:02Z</time>
      </trkpt>
      <trkpt lat="45.52773" lon="6.79657">
        <ele>1672.9423828125</ele>
        <time>2014-07-24T14:02:04Z</time>
      </trkpt>
      <trkpt lat="45.52771" lon="6.79657">
        <ele>1672.0621337891</ele>
        <time>2014-07-24T14:02:06Z</time>
      </trkpt>
      <trkpt lat="45.52768" lon="6.79658">
        <ele>1671.4499511719</ele>
        <time>2014-07-24T14:02:09Z</time>
      </trkpt>
      <trkpt lat="45.52767" lon="6.79658">
        <ele>1671.4323730469</ele>
        <time>2014-07-24T14:02:12Z</time>
      </trkpt>
      <trkpt lat="45.52768" lon="6.79658">
        <ele>1671.5568847656</ele>
        <time>2014-07-24T14:02:14Z</time>
      </trkpt>
      <trkpt lat="45.52768" lon="6.79658">
        <ele>1671.5263671875</ele>
        <time>2014-07-24T14:02:16Z</time>
      </trkpt>
      <trkpt lat="45.52768" lon="6.79658">
        <ele>1671.5416259766</ele>
        <time>2014-07-24T14:02:18Z</time>
      </trkpt>
      <trkpt lat="45.52767" lon="6.79655">
        <ele>1670.5202636719</ele>
        <time>2014-07-24T14:02:24Z</time>
      </trkpt>
      <trkpt lat="45.52766" lon="6.79653">
        <ele>1669.2186279297</ele>
        <time>2014-07-24T14:02:28Z</time>
      </trkpt>
      <trkpt lat="45.52766" lon="6.79639">
        <ele>1665.0980224609</ele>
        <time>2014-07-24T14:02:44Z</time>
      </trkpt>
      <trkpt lat="45.52766" lon="6.79638">
        <ele>1664.8435058594</ele>
        <time>2014-07-24T14:02:46Z</time>
      </trkpt>
      <trkpt lat="45.52766" lon="6.79637">
        <ele>1664.7093505859</ele>
        <time>2014-07-24T14:02:48Z</time>
      </trkpt>
      <trkpt lat="45.52765" lon="6.79636">
        <ele>1664.2971191406</ele>
        <time>2014-07-24T14:02:50Z</time>
      </trkpt>
      <trkpt lat="45.52762" lon="6.79639">
        <ele>1664.2006835938</ele>
        <time>2014-07-24T14:02:56Z</time>
      </trkpt>
      <trkpt lat="45.5276" lon="6.7964">
        <ele>1664.0373535156</ele>
        <time>2014-07-24T14:02:58Z</time>
      </trkpt>
      <trkpt lat="45.52758" lon="6.79641">
        <ele>1663.4564208984</ele>
        <time>2014-07-24T14:03:00Z</time>
      </trkpt>
      <trkpt lat="45.52758" lon="6.79636">
        <ele>1662.2684326172</ele>
        <time>2014-07-24T14:03:04Z</time>
      </trkpt>
      <trkpt lat="45.5276" lon="6.79635">
        <ele>1662.3631591797</ele>
        <time>2014-07-24T14:03:06Z</time>
      </trkpt>
      <trkpt lat="45.5276" lon="6.79633">
        <ele>1661.9343261719</ele>
        <time>2014-07-24T14:03:10Z</time>
      </trkpt>
      <trkpt lat="45.52759" lon="6.79633">
        <ele>1661.4783935547</ele>
        <time>2014-07-24T14:03:12Z</time>
      </trkpt>
      <trkpt lat="45.52757" lon="6.79632">
        <ele>1660.7336425781</ele>
        <time>2014-07-24T14:03:14Z</time>
      </trkpt>
      <trkpt lat="45.52754" lon="6.79634">
        <ele>1660.2283935547</ele>
        <time>2014-07-24T14:03:16Z</time>
      </trkpt>
      <trkpt lat="45.52752" lon="6.79634">
        <ele>1659.2463378906</ele>
        <time>2014-07-24T14:03:18Z</time>
      </trkpt>
      <trkpt lat="45.52753" lon="6.7962">
        <ele>1653.67578125</ele>
        <time>2014-07-24T14:03:28Z</time>
      </trkpt>
      <trkpt lat="45.52752" lon="6.79619">
        <ele>1652.8548583984</ele>
        <time>2014-07-24T14:03:32Z</time>
      </trkpt>
      <trkpt lat="45.5275" lon="6.7962">
        <ele>1652.1600341797</ele>
        <time>2014-07-24T14:03:34Z</time>
      </trkpt>
      <trkpt lat="45.52748" lon="6.7962">
        <ele>1651.4621582031</ele>
        <time>2014-07-24T14:03:36Z</time>
      </trkpt>
      <trkpt lat="45.52742" lon="6.79623">
        <ele>1650.3548583984</ele>
        <time>2014-07-24T14:03:40Z</time>
      </trkpt>
      <trkpt lat="45.52742" lon="6.79621">
        <ele>1649.5816650391</ele>
        <time>2014-07-24T14:03:42Z</time>
      </trkpt>
      <trkpt lat="45.52743" lon="6.7962">
        <ele>1649.3896484375</ele>
        <time>2014-07-24T14:03:44Z</time>
      </trkpt>
      <trkpt lat="45.52741" lon="6.79621">
        <ele>1649.1271972656</ele>
        <time>2014-07-24T14:03:48Z</time>
      </trkpt>
      <trkpt lat="45.5274" lon="6.7962">
        <ele>1648.4147949219</ele>
        <time>2014-07-24T14:03:50Z</time>
      </trkpt>
      <trkpt lat="45.52738" lon="6.79621">
        <ele>1648.2119140625</ele>
        <time>2014-07-24T14:03:52Z</time>
      </trkpt>
      <trkpt lat="45.52736" lon="6.79621">
        <ele>1647.4893798828</ele>
        <time>2014-07-24T14:03:54Z</time>
      </trkpt>
      <trkpt lat="45.52736" lon="6.7962">
        <ele>1646.9069824219</ele>
        <time>2014-07-24T14:03:56Z</time>
      </trkpt>
      <trkpt lat="45.52735" lon="6.79619">
        <ele>1646.4521484375</ele>
        <time>2014-07-24T14:03:58Z</time>
      </trkpt>
      <trkpt lat="45.52734" lon="6.79618">
        <ele>1645.8178710938</ele>
        <time>2014-07-24T14:04:00Z</time>
      </trkpt>
      <trkpt lat="45.52735" lon="6.79615">
        <ele>1645.0561523438</ele>
        <time>2014-07-24T14:04:02Z</time>
      </trkpt>
      <trkpt lat="45.52734" lon="6.79613">
        <ele>1643.7673339844</ele>
        <time>2014-07-24T14:04:06Z</time>
      </trkpt>
      <trkpt lat="45.52732" lon="6.79611">
        <ele>1643.0389404297</ele>
        <time>2014-07-24T14:04:08Z</time>
      </trkpt>
      <trkpt lat="45.52732" lon="6.7961">
        <ele>1642.314453125</ele>
        <time>2014-07-24T14:04:10Z</time>
      </trkpt>
      <trkpt lat="45.52731" lon="6.79609">
        <ele>1641.7707519531</ele>
        <time>2014-07-24T14:04:12Z</time>
      </trkpt>
      <trkpt lat="45.5273" lon="6.79609">
        <ele>1641.5469970703</ele>
        <time>2014-07-24T14:04:14Z</time>
      </trkpt>
      <trkpt lat="45.52729" lon="6.79608">
        <ele>1640.802734375</ele>
        <time>2014-07-24T14:04:16Z</time>
      </trkpt>
      <trkpt lat="45.52729" lon="6.79606">
        <ele>1640.0844726562</ele>
        <time>2014-07-24T14:04:18Z</time>
      </trkpt>
      <trkpt lat="45.52729" lon="6.79605">
        <ele>1639.8546142578</ele>
        <time>2014-07-24T14:04:20Z</time>
      </trkpt>
      <trkpt lat="45.52728" lon="6.79606">
        <ele>1639.8868408203</ele>
        <time>2014-07-24T14:04:22Z</time>
      </trkpt>
      <trkpt lat="45.52728" lon="6.79607">
        <ele>1640.1352539062</ele>
        <time>2014-07-24T14:04:24Z</time>
      </trkpt>
      <trkpt lat="45.52727" lon="6.79606">
        <ele>1639.5422363281</ele>
        <time>2014-07-24T14:04:26Z</time>
      </trkpt>
      <trkpt lat="45.52726" lon="6.79606">
        <ele>1639.3940429688</ele>
        <time>2014-07-24T14:04:28Z</time>
      </trkpt>
      <trkpt lat="45.52726" lon="6.79606">
        <ele>1639.1622314453</ele>
        <time>2014-07-24T14:04:30Z</time>
      </trkpt>
      <trkpt lat="45.52725" lon="6.79605">
        <ele>1638.8140869141</ele>
        <time>2014-07-24T14:04:32Z</time>
      </trkpt>
      <trkpt lat="45.52725" lon="6.79605">
        <ele>1638.595703125</ele>
        <time>2014-07-24T14:04:33Z</time>
      </trkpt>
      <trkpt lat="45.52725" lon="6.79604">
        <ele>1638.27734375</ele>
        <time>2014-07-24T14:04:36Z</time>
      </trkpt>
      <trkpt lat="45.52722" lon="6.79603">
        <ele>1636.8640136719</ele>
        <time>2014-07-24T14:04:40Z</time>
      </trkpt>
      <trkpt lat="45.52719" lon="6.79601">
        <ele>1635.4482421875</ele>
        <time>2014-07-24T14:04:44Z</time>
      </trkpt>
      <trkpt lat="45.52718" lon="6.796">
        <ele>1634.9915771484</ele>
        <time>2014-07-24T14:04:46Z</time>
      </trkpt>
      <trkpt lat="45.52709" lon="6.79605">
        <ele>1633.7265625</ele>
        <time>2014-07-24T14:04:56Z</time>
      </trkpt>
      <trkpt lat="45.52707" lon="6.79604">
        <ele>1633.0324707031</ele>
        <time>2014-07-24T14:04:58Z</time>
      </trkpt>
      <trkpt lat="45.52706" lon="6.796">
        <ele>1631.1026611328</ele>
        <time>2014-07-24T14:05:04Z</time>
      </trkpt>
      <trkpt lat="45.52705" lon="6.79598">
        <ele>1630.2700195312</ele>
        <time>2014-07-24T14:05:06Z</time>
      </trkpt>
      <trkpt lat="45.52704" lon="6.79597">
        <ele>1629.6999511719</ele>
        <time>2014-07-24T14:05:08Z</time>
      </trkpt>
      <trkpt lat="45.52703" lon="6.79596">
        <ele>1629.2138671875</ele>
        <time>2014-07-24T14:05:10Z</time>
      </trkpt>
      <trkpt lat="45.52703" lon="6.79595">
        <ele>1628.7507324219</ele>
        <time>2014-07-24T14:05:12Z</time>
      </trkpt>
      <trkpt lat="45.52701" lon="6.79594">
        <ele>1627.9989013672</ele>
        <time>2014-07-24T14:05:18Z</time>
      </trkpt>
      <trkpt lat="45.527" lon="6.79594">
        <ele>1627.6352539062</ele>
        <time>2014-07-24T14:05:20Z</time>
      </trkpt>
      <trkpt lat="45.527" lon="6.79593">
        <ele>1627.2265625</ele>
        <time>2014-07-24T14:05:22Z</time>
      </trkpt>
      <trkpt lat="45.527" lon="6.79592">
        <ele>1627.0252685547</ele>
        <time>2014-07-24T14:05:24Z</time>
      </trkpt>
      <trkpt lat="45.52699" lon="6.79592">
        <ele>1626.8295898438</ele>
        <time>2014-07-24T14:05:26Z</time>
      </trkpt>
      <trkpt lat="45.52699" lon="6.79592">
        <ele>1626.6105957031</ele>
        <time>2014-07-24T14:05:28Z</time>
      </trkpt>
      <trkpt lat="45.52695" lon="6.7959">
        <ele>1625.1159667969</ele>
        <time>2014-07-24T14:05:34Z</time>
      </trkpt>
      <trkpt lat="45.52687" lon="6.79574">
        <ele>1616.5739746094</ele>
        <time>2014-07-24T14:05:54Z</time>
      </trkpt>
      <trkpt lat="45.52682" lon="6.79571">
        <ele>1613.6667480469</ele>
        <time>2014-07-24T14:06:00Z</time>
      </trkpt>
      <trkpt lat="45.52682" lon="6.79571">
        <ele>1613.2786865234</ele>
        <time>2014-07-24T14:06:02Z</time>
      </trkpt>
      <trkpt lat="45.52681" lon="6.7957">
        <ele>1612.5760498047</ele>
        <time>2014-07-24T14:06:04Z</time>
      </trkpt>
      <trkpt lat="45.52679" lon="6.7957">
        <ele>1612.0098876953</ele>
        <time>2014-07-24T14:06:06Z</time>
      </trkpt>
      <trkpt lat="45.52678" lon="6.7957">
        <ele>1611.1092529297</ele>
        <time>2014-07-24T14:06:08Z</time>
      </trkpt>
      <trkpt lat="45.52674" lon="6.79569">
        <ele>1609.6444091797</ele>
        <time>2014-07-24T14:06:12Z</time>
      </trkpt>
      <trkpt lat="45.52672" lon="6.7957">
        <ele>1608.4046630859</ele>
        <time>2014-07-24T14:06:16Z</time>
      </trkpt>
      <trkpt lat="45.5267" lon="6.79572">
        <ele>1607.2530517578</ele>
        <time>2014-07-24T14:06:20Z</time>
      </trkpt>
      <trkpt lat="45.52668" lon="6.79571">
        <ele>1606.7030029297</ele>
        <time>2014-07-24T14:06:22Z</time>
      </trkpt>
      <trkpt lat="45.52668" lon="6.79568">
        <ele>1606.712890625</ele>
        <time>2014-07-24T14:06:26Z</time>
      </trkpt>
      <trkpt lat="45.52669" lon="6.79565">
        <ele>1607.3289794922</ele>
        <time>2014-07-24T14:06:30Z</time>
      </trkpt>
      <trkpt lat="45.52669" lon="6.7956">
        <ele>1607.5229492188</ele>
        <time>2014-07-24T14:06:38Z</time>
      </trkpt>
      <trkpt lat="45.52668" lon="6.79561">
        <ele>1606.9465332031</ele>
        <time>2014-07-24T14:06:40Z</time>
      </trkpt>
      <trkpt lat="45.52657" lon="6.79577">
        <ele>1601.9666748047</ele>
        <time>2014-07-24T14:06:54Z</time>
      </trkpt>
      <trkpt lat="45.52657" lon="6.79577">
        <ele>1601.82421875</ele>
        <time>2014-07-24T14:06:56Z</time>
      </trkpt>
      <trkpt lat="45.52655" lon="6.7958">
        <ele>1601.1629638672</ele>
        <time>2014-07-24T14:06:58Z</time>
      </trkpt>
      <trkpt lat="45.52654" lon="6.7958">
        <ele>1600.7810058594</ele>
        <time>2014-07-24T14:07:00Z</time>
      </trkpt>
      <trkpt lat="45.52652" lon="6.79581">
        <ele>1600.2586669922</ele>
        <time>2014-07-24T14:07:02Z</time>
      </trkpt>
      <trkpt lat="45.52651" lon="6.79582">
        <ele>1599.7883300781</ele>
        <time>2014-07-24T14:07:04Z</time>
      </trkpt>
      <trkpt lat="45.5265" lon="6.79584">
        <ele>1599.8040771484</ele>
        <time>2014-07-24T14:07:06Z</time>
      </trkpt>
      <trkpt lat="45.52649" lon="6.79584">
        <ele>1599.5927734375</ele>
        <time>2014-07-24T14:07:08Z</time>
      </trkpt>
      <trkpt lat="45.52649" lon="6.79585">
        <ele>1599.6859130859</ele>
        <time>2014-07-24T14:07:10Z</time>
      </trkpt>
      <trkpt lat="45.52648" lon="6.79586">
        <ele>1599.4246826172</ele>
        <time>2014-07-24T14:07:12Z</time>
      </trkpt>
      <trkpt lat="45.52645" lon="6.79585">
        <ele>1598.5095214844</ele>
        <time>2014-07-24T14:07:14Z</time>
      </trkpt>
      <trkpt lat="45.52644" lon="6.79585">
        <ele>1598.0040283203</ele>
        <time>2014-07-24T14:07:16Z</time>
      </trkpt>
      <trkpt lat="45.52643" lon="6.79586">
        <ele>1597.8369140625</ele>
        <time>2014-07-24T14:07:18Z</time>
      </trkpt>
      <trkpt lat="45.52642" lon="6.79586">
        <ele>1597.4943847656</ele>
        <time>2014-07-24T14:07:20Z</time>
      </trkpt>
      <trkpt lat="45.52641" lon="6.79586">
        <ele>1597.2254638672</ele>
        <time>2014-07-24T14:07:22Z</time>
      </trkpt>
      <trkpt lat="45.52641" lon="6.79585">
        <ele>1596.7653808594</ele>
        <time>2014-07-24T14:07:24Z</time>
      </trkpt>
      <trkpt lat="45.52638" lon="6.79583">
        <ele>1595.8645019531</ele>
        <time>2014-07-24T14:07:28Z</time>
      </trkpt>
      <trkpt lat="45.52637" lon="6.79582">
        <ele>1595.5369873047</ele>
        <time>2014-07-24T14:07:30Z</time>
      </trkpt>
      <trkpt lat="45.52636" lon="6.79581">
        <ele>1595.1773681641</ele>
        <time>2014-07-24T14:07:32Z</time>
      </trkpt>
      <trkpt lat="45.52634" lon="6.79581">
        <ele>1594.6492919922</ele>
        <time>2014-07-24T14:07:34Z</time>
      </trkpt>
      <trkpt lat="45.52631" lon="6.79578">
        <ele>1593.6512451172</ele>
        <time>2014-07-24T14:07:36Z</time>
      </trkpt>
      <trkpt lat="45.52631" lon="6.79574">
        <ele>1592.970703125</ele>
        <time>2014-07-24T14:07:40Z</time>
      </trkpt>
      <trkpt lat="45.5263" lon="6.79573">
        <ele>1592.7978515625</ele>
        <time>2014-07-24T14:07:42Z</time>
      </trkpt>
      <trkpt lat="45.52631" lon="6.79569">
        <ele>1592.4425048828</ele>
        <time>2014-07-24T14:07:46Z</time>
      </trkpt>
      <trkpt lat="45.5263" lon="6.79564">
        <ele>1591.5062255859</ele>
        <time>2014-07-24T14:07:52Z</time>
      </trkpt>
      <trkpt lat="45.52629" lon="6.79563">
        <ele>1591.2445068359</ele>
        <time>2014-07-24T14:07:54Z</time>
      </trkpt>
      <trkpt lat="45.52629" lon="6.79563">
        <ele>1591.1097412109</ele>
        <time>2014-07-24T14:07:56Z</time>
      </trkpt>
      <trkpt lat="45.52628" lon="6.79562">
        <ele>1590.9194335938</ele>
        <time>2014-07-24T14:07:58Z</time>
      </trkpt>
      <trkpt lat="45.52627" lon="6.79561">
        <ele>1590.6242675781</ele>
        <time>2014-07-24T14:08:00Z</time>
      </trkpt>
      <trkpt lat="45.52625" lon="6.7956">
        <ele>1590.0499267578</ele>
        <time>2014-07-24T14:08:04Z</time>
      </trkpt>
      <trkpt lat="45.52625" lon="6.79557">
        <ele>1589.6517333984</ele>
        <time>2014-07-24T14:08:06Z</time>
      </trkpt>
      <trkpt lat="45.52623" lon="6.79556">
        <ele>1589.1336669922</ele>
        <time>2014-07-24T14:08:08Z</time>
      </trkpt>
      <trkpt lat="45.5262" lon="6.79553">
        <ele>1588.1163330078</ele>
        <time>2014-07-24T14:08:12Z</time>
      </trkpt>
      <trkpt lat="45.52617" lon="6.7955">
        <ele>1586.8218994141</ele>
        <time>2014-07-24T14:08:16Z</time>
      </trkpt>
      <trkpt lat="45.52613" lon="6.79545">
        <ele>1584.7739257812</ele>
        <time>2014-07-24T14:08:22Z</time>
      </trkpt>
      <trkpt lat="45.52608" lon="6.7954">
        <ele>1582.5799560547</ele>
        <time>2014-07-24T14:08:28Z</time>
      </trkpt>
      <trkpt lat="45.52606" lon="6.7954">
        <ele>1582.2419433594</ele>
        <time>2014-07-24T14:08:30Z</time>
      </trkpt>
      <trkpt lat="45.52604" lon="6.79538">
        <ele>1581.3631591797</ele>
        <time>2014-07-24T14:08:34Z</time>
      </trkpt>
      <trkpt lat="45.526" lon="6.79534">
        <ele>1580.1839599609</ele>
        <time>2014-07-24T14:08:38Z</time>
      </trkpt>
      <trkpt lat="45.52594" lon="6.79529">
        <ele>1578.2998046875</ele>
        <time>2014-07-24T14:08:48Z</time>
      </trkpt>
      <trkpt lat="45.52592" lon="6.79528">
        <ele>1577.9766845703</ele>
        <time>2014-07-24T14:08:50Z</time>
      </trkpt>
      <trkpt lat="45.52591" lon="6.79527">
        <ele>1577.6450195312</ele>
        <time>2014-07-24T14:08:52Z</time>
      </trkpt>
      <trkpt lat="45.52589" lon="6.79524">
        <ele>1576.9758300781</ele>
        <time>2014-07-24T14:08:56Z</time>
      </trkpt>
      <trkpt lat="45.52586" lon="6.79524">
        <ele>1576.7211914062</ele>
        <time>2014-07-24T14:08:58Z</time>
      </trkpt>
      <trkpt lat="45.52584" lon="6.79523">
        <ele>1576.2790527344</ele>
        <time>2014-07-24T14:09:00Z</time>
      </trkpt>
      <trkpt lat="45.52575" lon="6.79526">
        <ele>1574.384765625</ele>
        <time>2014-07-24T14:09:06Z</time>
      </trkpt>
      <trkpt lat="45.52565" lon="6.79523">
        <ele>1571.1326904297</ele>
        <time>2014-07-24T14:09:16Z</time>
      </trkpt>
      <trkpt lat="45.52554" lon="6.79506">
        <ele>1565.4145507812</ele>
        <time>2014-07-24T14:09:34Z</time>
      </trkpt>
      <trkpt lat="45.52547" lon="6.79485">
        <ele>1561.2426757812</ele>
        <time>2014-07-24T14:09:54Z</time>
      </trkpt>
      <trkpt lat="45.52545" lon="6.79483">
        <ele>1560.6041259766</ele>
        <time>2014-07-24T14:09:56Z</time>
      </trkpt>
      <trkpt lat="45.52545" lon="6.79482">
        <ele>1560.4324951172</ele>
        <time>2014-07-24T14:09:58Z</time>
      </trkpt>
      <trkpt lat="45.52537" lon="6.79475">
        <ele>1558.0634765625</ele>
        <time>2014-07-24T14:10:08Z</time>
      </trkpt>
      <trkpt lat="45.5253" lon="6.79463">
        <ele>1555.0083007812</ele>
        <time>2014-07-24T14:10:20Z</time>
      </trkpt>
      <trkpt lat="45.52527" lon="6.79452">
        <ele>1552.9555664062</ele>
        <time>2014-07-24T14:10:30Z</time>
      </trkpt>
      <trkpt lat="45.52524" lon="6.79447">
        <ele>1551.7603759766</ele>
        <time>2014-07-24T14:10:36Z</time>
      </trkpt>
      <trkpt lat="45.5252" lon="6.79448">
        <ele>1551.4099121094</ele>
        <time>2014-07-24T14:10:38Z</time>
      </trkpt>
      <trkpt lat="45.52518" lon="6.79448">
        <ele>1550.9499511719</ele>
        <time>2014-07-24T14:10:40Z</time>
      </trkpt>
      <trkpt lat="45.52517" lon="6.79446">
        <ele>1550.5706787109</ele>
        <time>2014-07-24T14:10:42Z</time>
      </trkpt>
      <trkpt lat="45.52513" lon="6.79444">
        <ele>1549.8754882812</ele>
        <time>2014-07-24T14:10:46Z</time>
      </trkpt>
      <trkpt lat="45.52507" lon="6.79435">
        <ele>1547.8911132812</ele>
        <time>2014-07-24T14:10:56Z</time>
      </trkpt>
      <trkpt lat="45.52507" lon="6.79428">
        <ele>1547.2592773438</ele>
        <time>2014-07-24T14:11:02Z</time>
      </trkpt>
      <trkpt lat="45.52507" lon="6.79426">
        <ele>1547.0241699219</ele>
        <time>2014-07-24T14:11:04Z</time>
      </trkpt>
      <trkpt lat="45.52504" lon="6.79422">
        <ele>1546.1160888672</ele>
        <time>2014-07-24T14:11:10Z</time>
      </trkpt>
      <trkpt lat="45.52502" lon="6.79421">
        <ele>1545.7779541016</ele>
        <time>2014-07-24T14:11:12Z</time>
      </trkpt>
      <trkpt lat="45.525" lon="6.79421">
        <ele>1545.4741210938</ele>
        <time>2014-07-24T14:11:14Z</time>
      </trkpt>
      <trkpt lat="45.52499" lon="6.7942">
        <ele>1545.1040039062</ele>
        <time>2014-07-24T14:11:16Z</time>
      </trkpt>
      <trkpt lat="45.52494" lon="6.79416">
        <ele>1543.7337646484</ele>
        <time>2014-07-24T14:11:22Z</time>
      </trkpt>
      <trkpt lat="45.52493" lon="6.79412">
        <ele>1542.7518310547</ele>
        <time>2014-07-24T14:11:26Z</time>
      </trkpt>
      <trkpt lat="45.52483" lon="6.79402">
        <ele>1539.27734375</ele>
        <time>2014-07-24T14:11:38Z</time>
      </trkpt>
      <trkpt lat="45.52481" lon="6.79401">
        <ele>1538.5770263672</ele>
        <time>2014-07-24T14:11:40Z</time>
      </trkpt>
      <trkpt lat="45.52477" lon="6.79398">
        <ele>1537.2243652344</ele>
        <time>2014-07-24T14:11:44Z</time>
      </trkpt>
      <trkpt lat="45.52464" lon="6.79387">
        <ele>1531.6717529297</ele>
        <time>2014-07-24T14:11:58Z</time>
      </trkpt>
      <trkpt lat="45.52461" lon="6.7938">
        <ele>1529.5860595703</ele>
        <time>2014-07-24T14:12:04Z</time>
      </trkpt>
      <trkpt lat="45.52459" lon="6.79379">
        <ele>1528.8170166016</ele>
        <time>2014-07-24T14:12:06Z</time>
      </trkpt>
      <trkpt lat="45.52449" lon="6.79327">
        <ele>1521.1455078125</ele>
        <time>2014-07-24T14:12:44Z</time>
      </trkpt>
      <trkpt lat="45.52448" lon="6.79327">
        <ele>1520.7534179688</ele>
        <time>2014-07-24T14:12:46Z</time>
      </trkpt>
      <trkpt lat="45.52444" lon="6.79328">
        <ele>1520.1228027344</ele>
        <time>2014-07-24T14:12:50Z</time>
      </trkpt>
      <trkpt lat="45.52443" lon="6.79329">
        <ele>1520.3010253906</ele>
        <time>2014-07-24T14:12:52Z</time>
      </trkpt>
      <trkpt lat="45.5244" lon="6.79331">
        <ele>1520.6414794922</ele>
        <time>2014-07-24T14:12:54Z</time>
      </trkpt>
      <trkpt lat="45.52429" lon="6.79347">
        <ele>1521.8874511719</ele>
        <time>2014-07-24T14:13:08Z</time>
      </trkpt>
      <trkpt lat="45.52427" lon="6.79348">
        <ele>1522.1009521484</ele>
        <time>2014-07-24T14:13:10Z</time>
      </trkpt>
      <trkpt lat="45.52412" lon="6.79345">
        <ele>1524.4237060547</ele>
        <time>2014-07-24T14:13:22Z</time>
      </trkpt>
      <trkpt lat="45.5241" lon="6.79343">
        <ele>1525.0291748047</ele>
        <time>2014-07-24T14:13:24Z</time>
      </trkpt>
      <trkpt lat="45.52409" lon="6.7934">
        <ele>1525.6031494141</ele>
        <time>2014-07-24T14:13:26Z</time>
      </trkpt>
      <trkpt lat="45.52408" lon="6.79338">
        <ele>1525.97265625</ele>
        <time>2014-07-24T14:13:28Z</time>
      </trkpt>
      <trkpt lat="45.52407" lon="6.79336">
        <ele>1526.2514648438</ele>
        <time>2014-07-24T14:13:29Z</time>
      </trkpt>
    </trkseg>
  </trk>
</gpx>